ECMWFFLT1_sfc_thetae_000.txt.gz
Theta_e
306 304 306 307 307 310 306 308 310 312 313 313 312 313 313 317 315 313 313 313 314 316 318 315 315 316 317 318 319 319 322 324 325 325 326 326 323 324 327 327 325 324 325 324 323 318 313 311 314 319 321 322 322 323 324 322 323 324 323 324 325 327 327
305 307 309 312 310 310 308 309 310 311 309 312 313 313 313 315 317 313 311 311 311 313 318 315 314 316 316 315 317 317 318 319 322 322 323 325 326 325 323 324 325 324 326 327 327 323 317 314 315 316 317 319 321 322 322 322 322 323 324 324 325 325 327
308 307 306 307 307 306 306 306 307 308 310 311 310 310 311 312 311 312 311 310 310 313 317 313 314 315 315 315 315 314 315 316 318 321 322 323 325 325 324 323 323 324 324 325 324 323 320 319 316 316 316 316 315 318 321 322 322 321 322 323 324 325 325
307 307 305 305 306 305 305 306 306 307 310 310 311 310 310 311 312 314 310 311 313 316 314 312 312 312 313 313 314 314 314 314 315 316 320 322 322 323 324 325 325 324 323 321 322 321 321 319 318 318 319 319 317 317 320 323 324 324 322 321 321 323 325
308 307 306 306 305 307 306 307 307 308 309 310 310 309 309 310 311 309 311 309 312 310 310 310 311 312 312 312 312 313 313 313 313 316 315 315 318 319 321 323 324 325 324 323 323 322 322 321 319 317 317 318 319 320 322 323 325 325 324 323 322 323 324
308 308 306 306 305 306 306 306 306 307 306 307 308 309 309 308 309 308 307 306 307 309 309 309 309 311 311 310 311 311 311 311 312 312 312 312 314 315 318 322 323 323 323 324 324 322 323 323 321 318 319 320 317 317 321 323 322 325 327 326 324 324 324
307 307 306 307 306 306 308 306 307 306 306 308 306 308 309 308 309 309 308 306 307 307 309 308 308 308 309 309 309 309 310 311 311 310 310 312 313 314 317 319 321 324 325 325 324 323 322 321 320 319 318 317 318 318 319 320 322 321 323 326 326 324 324
308 306 305 307 307 305 306 306 307 306 306 307 307 308 310 307 308 306 307 306 307 307 307 307 308 307 306 308 309 309 309 310 310 309 309 310 311 312 313 315 317 320 323 325 324 324 323 321 320 320 318 316 316 317 317 320 320 321 321 323 326 325 324
310 308 308 308 308 307 306 306 306 306 306 306 306 308 308 308 307 307 308 306 307 306 307 306 305 306 306 307 306 306 306 310 308 307 308 308 308 309 310 312 313 315 319 321 323 324 326 326 324 323 321 319 316 313 315 315 316 319 323 322 325 327 325
308 307 308 308 307 307 307 306 306 306 306 307 308 309 308 306 307 307 306 306 305 304 304 305 305 305 304 304 304 304 305 306 307 306 307 307 307 307 308 310 311 312 314 318 321 323 325 324 322 322 322 319 319 316 314 313 314 315 318 323 320 322 327
309 308 307 308 307 307 306 306 306 307 306 308 309 309 308 307 307 313 305 304 304 304 305 304 304 303 303 302 302 303 304 304 304 304 305 306 305 307 307 307 308 308 311 313 314 316 320 323 323 323 322 322 322 317 316 313 314 315 313 318 322 320 323
308 308 307 308 307 306 306 306 307 307 306 307 309 307 306 306 306 304 304 304 303 303 302 302 303 302 302 301 303 302 302 303 302 302 303 304 305 305 304 304 305 306 307 308 309 311 314 318 321 323 323 323 323 322 319 317 312 316 317 316 320 323 321
308 308 307 306 306 306 306 306 305 305 306 307 304 305 305 304 304 303 302 303 302 301 301 301 301 301 300 301 300 301 301 302 301 301 302 303 304 303 302 302 303 303 304 305 306 308 311 312 315 319 321 322 323 322 319 316 314 314 319 317 317 320 323
307 307 306 306 306 305 306 307 306 306 305 304 304 303 303 303 302 302 301 303 301 300 300 300 300 300 300 300 300 300 300 301 301 300 302 301 302 302 302 302 302 302 303 303 304 306 307 309 311 314 317 320 320 322 320 318 316 316 319 318 319 319 321
307 306 306 305 306 305 305 305 305 305 304 303 303 303 302 301 301 301 300 300 300 300 299 300 299 299 300 299 298 301 301 300 300 300 300 299 300 302 302 301 301 302 302 302 303 303 304 306 308 309 312 315 318 320 321 319 318 317 316 317 319 320 318
306 305 305 305 305 305 305 304 305 304 303 302 302 302 301 300 301 300 300 299 299 299 299 298 298 299 298 298 298 298 300 299 299 300 299 299 300 300 300 301 301 302 303 301 302 302 303 304 305 306 308 311 313 317 321 321 318 316 317 318 319 319 319
305 305 305 305 305 305 305 304 305 303 303 302 302 302 300 300 300 299 299 299 298 297 297 298 298 298 298 298 298 298 298 299 299 300 300 299 300 300 300 300 300 301 302 301 301 301 302 303 304 305 306 308 311 313 317 319 321 319 319 318 316 319 318
305 305 305 304 304 304 304 304 304 303 302 301 301 300 302 300 298 298 298 297 297 296 297 297 297 297 297 298 298 298 298 298 299 299 300 301 303 302 302 301 301 302 302 301 301 301 302 301 303 303 304 305 307 310 314 317 318 318 316 315 316 317 318
305 305 305 304 304 304 304 304 303 302 302 301 299 299 299 299 300 297 297 296 296 297 296 296 297 297 297 297 298 298 298 298 300 301 301 302 302 302 302 302 302 302 302 301 301 302 302 301 301 301 302 304 305 308 311 313 316 316 315 315 315 316 314
305 305 305 305 304 304 304 303 303 302 302 300 300 298 297 297 299 296 296 296 296 296 296 296 296 296 296 296 296 297 298 299 300 301 302 302 302 302 302 302 302 302 302 301 301 301 301 301 301 301 302 303 304 306 306 307 309 312 314 315 316 316 314
305 305 305 304 304 304 303 301 301 300 301 298 298 297 296 296 297 296 296 296 297 298 296 296 296 296 296 296 296 296 297 298 298 300 301 301 302 302 302 302 302 302 302 302 302 302 302 302 302 301 301 302 302 302 302 303 305 307 309 311 312 313 313
305 305 305 304 304 303 302 301 300 299 299 298 299 297 296 296 295 294 294 294 295 296 296 296 296 297 296 295 295 295 295 296 296 296 297 298 299 299 300 300 301 301 303 304 302 301 302 302 302 301 301 301 301 301 301 302 303 304 305 307 308 312 312
306 305 304 304 303 302 301 300 299 298 297 296 296 296 295 295 295 294 294 294 294 295 295 296 300 298 297 296 294 294 295 295 295 295 295 295 296 297 298 299 300 302 301 300 299 298 297 297 299 301 302 302 301 300 300 300 300 302 303 303 304 306 308
306 305 304 303 301 301 300 300 298 296 296 295 295 297 295 294 293 293 293 293 293 293 294 296 296 294 293 294 295 294 294 294 294 294 294 294 294 295 295 296 297 299 300 299 300 297 296 296 296 296 297 298 300 301 300 300 300 300 300 301 303 304 305
306 305 304 302 301 301 299 298 297 295 295 295 295 294 293 293 292 293 293 293 292 293 293 296 294 293 293 293 294 296 294 294 294 293 293 293 294 294 294 294 295 296 297 297 298 298 298 297 296 295 295 295 295 295 296 299 300 300 300 300 300 302 303
305 304 303 302 301 300 298 297 295 295 295 294 294 292 291 291 292 292 292 292 292 293 293 294 293 293 293 293 293 294 293 293 293 293 293 293 293 293 294 294 294 295 295 298 299 296 296 297 297 296 296 296 296 295 294 293 294 299 300 300 301 301 302
305 303 303 302 301 299 298 297 295 295 294 293 291 291 290 291 291 290 291 292 291 291 292 294 293 293 293 292 292 292 293 293 293 293 293 293 293 293 293 293 293 293 293 294 294 294 295 295 296 297 298 299 300 299 297 295 294 294 296 300 301 301 304
304 303 303 301 300 299 298 294 295 294 292 292 292 290 290 289 291 293 290 290 289 291 292 293 292 292 292 292 292 292 292 292 292 292 293 293 293 293 293 294 293 293 293 294 295 295 295 295 295 296 295 296 297 299 300 300 300 301 301 299 299 302 304
304 302 302 300 299 298 296 297 294 293 292 290 289 289 288 289 289 288 288 288 288 289 290 291 291 291 291 291 291 293 292 291 291 291 292 292 292 293 293 293 293 293 293 293 294 292 293 294 294 294 294 295 295 296 297 298 298 298 300 301 302 302 303
303 302 301 300 298 297 295 293 293 293 292 290 289 289 288 288 289 287 289 289 287 288 289 291 291 291 291 291 291 291 291 291 291 291 291 291 291 292 293 293 293 292 292 292 293 291 291 292 293 293 293 294 295 296 296 298 297 296 295 295 295 294 295
302 301 299 299 297 295 294 294 294 293 292 290 289 288 288 287 286 288 288 287 288 289 289 291 291 291 291 291 291 290 290 290 290 290 290 291 291 292 293 296 296 293 292 292 292 291 291 292 292 292 293 293 294 294 295 297 298 298 296 295 295 295 295
301 299 298 297 296 295 294 294 293 291 291 289 289 288 291 286 286 284 286 287 294 291 288 290 291 290 291 291 291 290 290 289 289 289 289 289 290 291 291 293 294 294 293 293 291 290 290 291 292 292 292 293 293 293 295 296 296 296 296 296 298 299 300
300 299 297 296 296 295 294 293 291 290 289 289 289 287 288 286 285 284 285 287 288 288 288 288 291 290 291 291 291 291 290 288 288 288 289 289 289 290 291 291 292 291 290 290 290 289 290 290 291 292 292 291 291 292 296 297 297 297 297 297 297 299 301
299 298 298 297 296 294 292 292 291 289 289 287 287 286 286 285 284 284 285 285 286 287 289 289 290 290 290 290 290 290 288 288 288 288 288 288 288 289 289 289 290 291 290 290 290 290 290 290 290 292 292 292 293 294 295 296 296 295 297 297 296 296 297
298 297 295 295 294 294 292 292 292 291 289 288 287 286 284 286 284 283 284 285 286 287 289 292 289 290 290 290 290 290 289 289 289 288 287 287 288 288 288 289 289 290 290 289 289 289 290 290 290 292 292 291 291 291 293 295 296 295 295 296 295 295 295
296 297 295 294 293 293 291 291 291 289 288 286 285 283 283 283 284 283 283 284 285 285 286 288 290 289 289 289 289 289 289 289 289 289 287 287 287 288 289 289 290 290 289 289 289 289 289 289 290 290 290 290 290 290 291 294 294 294 294 294 294 293 294
296 295 295 294 293 291 290 290 289 289 287 286 284 283 282 282 282 282 283 283 284 284 285 286 288 289 289 289 289 289 288 288 288 288 289 288 288 288 288 289 289 289 289 289 289 289 289 289 289 289 289 289 290 290 292 293 293 293 292 292 292 293 293

ECMWFFLT1_sfc_thetae_003.txt.gz
Theta_e
307 307 303 303 303 308 304 307 308 308 308 310 310 310 311 313 312 311 310 311 313 315 315 313 313 313 315 316 317 317 318 320 323 323 323 324 322 323 323 323 323 324 325 324 323 319 316 314 316 319 320 320 320 322 323 324 323 323 322 323 325 326 326
307 305 306 309 306 308 305 307 307 307 307 308 309 311 310 312 314 310 309 310 311 312 314 312 312 313 313 313 314 315 315 316 318 322 322 321 323 322 323 323 325 324 324 323 321 322 318 316 316 317 317 318 318 320 322 323 323 323 323 323 324 325 326
306 305 305 306 305 304 305 305 305 306 307 308 307 308 309 309 309 310 309 309 309 311 312 309 310 311 311 312 312 313 314 314 315 317 317 319 321 321 322 322 321 322 322 322 323 323 322 320 316 317 316 316 316 317 318 320 322 322 322 322 323 323 324
305 305 304 303 304 303 304 303 304 305 307 308 308 307 308 309 309 310 308 308 309 312 310 308 308 309 309 309 310 311 311 311 312 313 313 314 316 316 317 319 319 320 319 318 317 319 319 318 318 318 319 320 319 319 322 322 322 324 324 322 321 322 323
305 305 305 305 305 305 303 304 303 306 307 307 307 306 306 307 307 306 307 306 308 306 306 307 307 307 308 308 308 310 309 310 311 311 311 310 311 312 313 315 317 319 318 319 321 322 320 320 319 318 319 319 319 320 322 322 324 324 324 323 322 321 322
306 305 305 305 305 305 304 304 303 305 304 307 306 306 307 306 306 305 305 305 306 308 307 307 306 307 306 306 307 307 307 308 308 308 308 308 309 310 310 312 314 315 317 320 322 322 323 322 320 318 319 321 318 318 320 320 320 323 324 324 324 323 322
306 306 304 305 305 305 305 305 306 306 305 307 305 305 306 305 305 307 306 304 304 305 306 305 305 305 306 307 306 306 306 306 306 307 307 307 308 308 309 309 311 312 314 316 318 320 320 320 319 318 317 319 319 318 319 317 320 320 321 323 325 325 323
307 306 305 306 305 305 305 305 305 304 305 306 305 305 306 304 305 304 304 303 304 304 304 303 305 304 304 306 306 305 306 306 305 306 305 305 306 306 306 307 309 310 311 312 314 316 319 319 319 320 318 314 316 318 317 319 318 318 320 323 324 324 324
309 307 306 307 305 305 306 305 305 304 305 305 304 305 305 304 304 305 304 303 303 303 303 303 302 303 303 303 302 302 302 307 304 303 303 303 304 304 304 305 305 306 308 310 311 311 313 314 316 318 320 317 314 312 315 314 315 317 322 321 321 324 325
307 306 305 305 305 304 306 305 305 305 304 304 305 305 304 303 303 303 303 303 302 302 302 303 303 302 301 301 301 301 300 302 303 302 302 302 302 303 303 303 303 304 305 307 307 308 308 310 313 315 318 317 317 313 312 311 311 312 316 321 318 319 324
307 306 306 305 306 305 304 305 303 304 304 305 307 308 304 303 303 308 302 301 301 301 301 301 300 300 300 300 300 300 301 301 301 301 302 302 301 302 302 302 302 301 303 304 304 305 306 308 309 310 312 315 317 315 315 312 312 314 314 315 320 319 319
307 306 306 306 306 305 304 304 304 304 303 305 308 306 304 303 303 301 301 300 300 300 300 300 301 299 299 299 301 300 300 300 300 300 300 302 302 302 300 300 300 301 301 302 302 302 304 306 306 308 309 311 313 314 314 314 312 317 318 316 317 321 321
307 307 306 306 305 305 305 305 304 303 304 307 305 305 304 304 303 301 300 300 299 299 299 299 298 298 298 299 298 300 300 299 300 299 300 300 302 301 299 299 300 300 300 301 301 301 302 303 304 305 306 307 309 312 314 313 311 312 319 319 319 318 319
306 306 305 306 305 305 305 306 305 305 305 304 304 303 303 302 301 301 300 301 299 299 299 298 297 297 297 297 298 298 298 299 299 299 301 300 300 300 300 299 299 300 300 300 300 301 301 302 302 303 304 306 306 308 310 310 309 310 316 321 319 319 320
307 306 305 305 305 304 304 305 304 305 304 303 303 302 302 300 299 299 299 299 298 298 298 297 297 297 298 297 296 299 299 297 298 298 298 299 299 300 300 299 299 299 300 300 300 300 300 300 301 301 302 303 304 305 309 309 309 309 309 316 317 320 319
306 305 305 304 304 304 304 303 305 304 303 302 301 302 301 300 299 298 298 296 296 296 297 297 297 297 297 297 296 296 298 297 297 298 298 298 298 299 298 299 299 299 301 300 300 300 300 300 301 300 301 302 302 303 305 308 308 308 309 310 315 317 319
306 305 304 304 303 303 303 303 304 303 302 301 301 299 300 299 299 298 298 296 296 296 296 297 297 296 297 296 296 296 296 296 297 297 298 298 298 298 299 299 299 299 300 299 299 299 300 300 300 300 300 301 301 301 303 305 308 308 310 309 312 315 317
305 304 304 303 303 303 302 303 302 302 301 300 299 300 299 298 297 297 297 296 296 295 295 295 295 295 295 295 295 295 296 296 296 297 297 298 300 300 300 300 300 300 300 299 299 299 300 299 300 300 300 300 300 301 302 303 305 309 308 306 308 313 316
303 303 304 303 303 303 303 302 302 301 301 299 297 297 298 297 298 296 296 295 295 294 294 294 294 294 294 294 295 295 295 295 296 297 297 298 299 300 300 301 301 301 300 300 300 300 300 300 300 299 299 299 300 300 300 301 303 304 305 305 306 306 310
305 304 304 304 304 303 303 302 302 301 300 299 298 297 296 297 296 296 295 295 295 294 294 294 293 293 293 293 294 294 294 295 296 296 297 298 298 298 299 300 301 301 301 301 301 300 301 300 301 300 301 301 301 300 299 299 300 301 302 303 304 305 306
306 306 305 305 305 304 303 302 301 300 300 298 297 297 296 296 295 295 295 294 294 295 293 293 292 292 293 293 294 294 294 295 295 295 295 295 296 296 296 297 297 298 298 299 300 301 301 300 301 300 301 301 301 300 299 299 298 299 299 301 302 303 304
307 306 305 304 304 303 303 302 301 300 299 298 298 296 296 296 295 294 293 294 294 295 293 293 294 294 293 293 292 293 293 293 293 293 293 294 294 295 295 296 296 296 299 301 299 299 299 299 298 297 297 298 298 297 297 297 298 297 298 298 299 302 302
305 305 305 304 304 303 302 301 300 299 298 298 297 296 295 294 294 293 293 291 291 293 293 294 298 297 297 295 294 294 294 293 293 293 293 293 293 294 294 294 297 299 299 299 298 296 295 296 297 298 297 297 297 296 296 296 296 296 296 296 297 298 298
305 305 305 304 303 303 302 301 299 298 297 297 296 296 294 293 292 293 293 291 291 292 293 294 295 293 293 294 294 293 293 293 293 293 292 292 292 293 293 294 294 296 298 298 297 296 294 294 294 294 294 295 296 296 295 295 296 296 296 296 297 297 298
305 305 305 304 303 303 302 300 298 297 296 295 295 294 293 293 293 292 291 290 289 291 292 296 292 292 293 292 294 294 292 292 292 292 292 292 292 292 293 293 293 295 295 295 295 295 295 295 294 293 293 293 293 293 294 295 295 295 296 296 296 297 298
305 304 305 304 303 302 301 300 298 296 296 296 294 293 293 292 292 291 291 290 290 291 291 294 292 293 292 292 292 292 291 291 291 291 291 292 292 292 292 293 293 293 294 297 298 295 294 294 294 294 294 294 294 293 292 292 293 296 297 296 296 296 297
305 305 304 303 302 301 300 299 298 297 296 294 293 293 292 292 291 290 290 290 289 289 289 293 292 292 292 291 291 291 290 290 290 290 291 291 291 291 292 292 292 292 292 293 293 293 293 292 292 292 293 293 293 294 293 293 293 292 294 296 296 296 297
305 305 304 303 302 300 299 297 296 296 295 294 293 292 292 291 291 291 290 287 287 287 289 292 291 291 291 291 291 291 290 290 290 290 290 290 291 291 291 292 291 291 291 291 292 293 292 292 292 292 292 292 292 292 293 294 294 295 297 298 297 297 298
302 301 301 301 300 299 297 296 295 294 293 292 292 291 290 290 290 288 288 287 286 286 286 290 290 290 290 290 290 290 289 288 288 289 289 289 290 290 291 291 291 291 291 291 293 292 293 293 291 291 290 291 291 292 292 294 294 295 296 296 297 298 300
302 302 302 301 300 297 295 294 293 293 292 292 291 290 290 290 290 289 288 287 285 284 285 289 290 290 290 290 290 289 288 288 288 288 288 289 289 290 290 290 290 290 291 291 292 291 291 291 291 290 290 290 290 291 291 293 294 293 293 293 293 293 293
302 300 300 299 297 295 294 294 293 294 292 290 290 290 289 289 288 289 288 287 286 284 285 288 290 290 290 290 290 288 288 287 287 287 287 288 288 289 290 293 294 291 291 291 291 290 290 291 290 290 289 289 289 289 290 292 293 294 294 294 293 293 293
303 303 302 300 297 295 295 295 294 293 292 291 290 289 290 288 287 287 288 287 293 289 285 287 291 290 290 290 290 288 288 287 286 286 286 287 287 288 288 290 292 292 291 291 290 290 290 290 290 290 290 290 289 288 289 290 291 291 292 293 295 296 295
302 302 300 297 297 296 295 294 293 292 290 290 289 288 289 288 287 288 287 288 288 287 285 284 287 289 290 290 290 290 288 286 286 286 286 287 287 288 288 288 290 289 289 289 289 289 289 289 290 290 290 289 288 288 291 292 292 292 292 293 294 296 296
302 301 300 297 296 295 295 294 292 291 289 287 286 286 286 286 286 286 285 284 284 283 285 285 287 289 290 290 290 289 287 287 286 286 286 287 287 287 287 288 289 290 289 289 289 289 289 289 289 290 290 289 290 291 291 291 291 292 292 292 293 293 295
301 299 297 297 296 295 294 294 293 291 289 287 286 284 283 285 285 284 284 283 283 283 287 291 286 289 289 290 289 290 288 287 288 287 287 287 287 287 287 287 288 289 289 289 288 289 289 289 289 290 289 289 289 289 290 291 291 291 291 292 292 293 294
299 298 297 297 295 294 292 292 290 289 287 285 285 284 283 283 283 283 283 284 282 283 283 285 289 288 289 289 289 289 289 288 288 289 287 286 287 287 288 288 288 289 288 288 288 288 288 288 289 289 288 288 288 288 289 289 290 290 290 290 291 291 292
298 297 296 295 295 293 291 290 289 288 286 286 284 283 284 284 282 282 284 284 284 283 283 283 286 288 288 288 288 288 288 288 288 288 288 287 287 287 287 287 288 288 288 288 288 288 288 288 288 288 288 288 288 288 289 289 288 288 288 289 289 290 291

ECMWFFLT1_sfc_thetae_006.txt.gz
Theta_e
303 305 303 302 304 307 306 307 307 307 309 310 311 312 313 314 312 311 311 312 313 314 314 313 312 313 314 314 316 315 316 318 320 320 320 321 320 320 324 324 323 324 325 325 323 319 316 314 317 323 324 323 324 325 325 325 326 326 326 327 328 328 329
304 305 307 310 307 307 306 305 307 307 308 309 311 312 312 313 314 310 310 310 311 312 314 311 311 311 311 312 312 313 313 314 316 318 318 317 318 318 320 320 324 324 324 324 324 322 318 315 316 318 320 323 324 324 324 325 326 327 327 326 326 327 329
306 303 305 305 304 304 306 305 305 307 308 309 309 309 310 310 310 311 309 310 310 312 312 309 309 309 310 310 310 311 312 312 313 314 314 314 315 316 317 318 317 317 319 321 322 321 321 320 316 317 319 318 317 321 325 326 327 326 326 326 326 326 327
304 304 304 303 303 303 305 304 305 306 307 308 309 308 309 310 310 312 309 309 311 313 310 308 308 309 309 309 309 310 309 310 310 310 311 312 312 312 313 314 314 315 315 315 316 317 317 316 316 317 318 319 319 319 323 326 326 326 326 326 325 325 326
305 305 305 304 305 305 304 305 304 305 307 307 306 307 307 308 309 308 310 308 309 307 308 308 308 308 308 308 308 309 308 308 309 310 309 308 309 310 310 312 312 315 314 314 315 317 316 317 316 315 316 319 320 321 323 324 326 325 326 326 326 326 327
306 306 305 305 305 305 304 304 304 306 305 308 306 307 306 306 307 305 306 307 308 308 307 307 307 307 307 307 307 307 307 306 307 307 307 307 307 307 308 310 311 311 311 313 315 314 315 317 318 315 316 320 316 317 320 323 323 325 326 326 327 326 326
305 305 305 305 305 305 305 305 306 307 307 309 307 307 308 307 307 308 307 307 307 307 307 306 306 307 307 306 305 305 305 306 306 306 306 306 306 307 308 308 308 309 310 311 312 312 311 312 311 311 312 315 317 316 319 320 322 321 324 325 327 327 327
306 305 304 305 305 305 304 305 306 306 308 307 308 307 308 307 306 305 306 306 305 305 305 306 306 305 305 305 306 305 307 305 304 306 305 305 305 305 305 306 307 307 308 309 310 309 309 310 310 310 310 308 312 315 314 318 320 320 320 324 326 327 327
308 306 305 306 305 306 305 306 306 306 307 307 306 307 307 306 305 307 307 305 304 305 305 304 304 304 304 304 303 303 304 308 304 303 304 304 304 304 305 305 304 304 306 307 307 308 309 309 310 310 310 310 307 306 311 311 315 316 321 319 325 327 328
306 305 304 304 304 305 306 305 306 306 305 306 306 307 307 304 305 305 305 304 304 304 304 304 303 303 303 303 302 302 303 303 306 303 304 304 304 304 304 304 304 304 304 306 306 306 306 308 309 309 309 309 308 306 306 307 309 311 316 322 318 324 326
308 306 305 304 304 304 304 304 304 304 305 306 307 307 306 305 306 310 304 304 303 303 303 303 302 302 302 302 302 302 302 303 302 303 304 304 303 305 304 303 303 303 304 304 304 305 306 306 307 307 307 308 310 306 306 304 306 312 313 319 321 321 324
307 307 306 305 305 304 304 304 304 305 304 305 307 307 304 305 306 303 304 303 303 302 301 302 302 301 301 301 303 301 301 301 301 302 302 303 304 304 302 301 302 302 303 303 304 304 305 305 305 306 306 307 307 308 307 306 303 310 316 314 318 322 322
307 307 306 305 304 304 304 305 304 303 304 306 306 306 305 305 305 303 303 303 302 301 301 300 300 300 300 300 301 300 300 301 301 301 301 302 302 302 301 301 301 301 302 302 302 303 304 304 305 305 305 305 306 307 308 306 304 304 310 312 313 317 321
306 306 305 305 305 304 304 305 304 305 305 305 305 304 305 305 304 304 302 303 301 301 300 299 300 300 300 299 299 300 300 300 300 300 302 301 301 301 301 300 300 301 302 301 302 302 303 303 304 304 305 305 304 305 305 305 303 304 307 313 315 314 318
306 305 305 304 305 304 304 304 304 304 305 304 305 305 304 304 303 302 302 300 299 299 299 299 299 300 300 299 299 300 300 299 299 299 299 299 300 300 300 299 300 301 301 301 301 301 301 302 302 302 303 303 303 304 306 303 302 302 301 306 310 315 316
307 305 304 304 304 304 304 304 305 304 304 303 304 304 303 303 301 301 300 299 299 299 299 298 299 299 298 298 298 298 299 298 298 298 298 298 298 299 299 300 300 300 301 301 301 301 302 301 302 301 302 303 303 303 304 304 302 300 301 302 307 308 313
306 306 305 305 304 304 304 304 305 304 304 303 303 302 302 301 300 300 300 299 298 298 298 299 298 298 299 298 298 298 297 297 297 298 298 298 298 298 299 299 300 300 301 300 300 300 301 301 301 301 302 302 303 302 303 303 304 301 301 301 303 306 308
307 306 305 305 304 304 304 304 304 303 302 302 302 301 301 301 300 299 299 298 298 297 298 298 298 297 297 298 298 297 297 297 297 297 297 298 299 299 299 299 300 300 301 300 301 300 301 301 300 301 300 301 301 302 302 303 303 303 302 300 301 303 305
306 306 306 305 304 304 304 304 304 303 303 302 301 301 300 300 301 299 298 297 297 297 297 297 296 297 296 297 297 297 297 297 298 297 297 298 298 299 299 298 298 299 299 298 298 299 300 300 300 300 300 300 301 301 301 302 303 302 301 300 300 300 303
307 307 306 305 305 304 304 304 303 303 303 302 301 300 300 300 300 298 297 297 297 297 296 296 296 295 295 295 295 296 296 296 296 296 297 297 297 297 297 297 298 298 297 298 297 297 298 298 299 299 299 299 299 299 299 299 300 299 299 299 299 300 300
307 306 306 305 304 304 304 303 303 303 302 301 301 300 299 299 298 298 297 297 297 297 296 295 294 294 295 295 296 296 295 296 296 295 295 296 296 296 296 297 297 297 297 298 298 298 298 298 298 297 298 298 298 297 297 297 297 297 297 297 297 298 299
306 305 305 305 304 304 303 303 303 302 302 302 301 300 299 298 297 296 296 296 296 296 296 295 295 295 296 295 294 295 294 294 294 294 294 294 295 295 296 296 297 297 299 300 298 298 298 298 298 296 297 297 297 296 296 296 296 296 296 296 296 298 297
306 305 305 304 304 304 304 303 302 302 301 300 299 298 297 297 297 296 295 295 296 296 295 295 299 295 296 297 295 294 294 294 294 294 294 294 294 294 295 295 297 298 298 298 297 296 295 295 296 298 297 297 296 296 295 294 294 294 294 294 294 295 295
305 305 304 304 304 304 303 303 302 301 300 299 297 298 297 296 295 295 295 295 294 294 294 296 295 293 293 293 294 294 293 293 293 293 293 292 292 293 294 294 295 296 297 297 297 295 294 294 294 294 294 295 296 296 295 294 293 294 293 293 294 294 295
304 304 304 304 303 303 302 301 300 299 298 297 297 296 295 295 294 295 294 293 293 294 294 296 293 292 292 292 293 295 293 292 292 292 292 292 292 292 292 293 294 295 295 296 296 296 295 294 293 293 293 292 292 293 293 295 294 293 293 292 292 293 294
304 303 304 304 303 303 302 301 300 299 298 297 296 295 295 294 294 293 293 293 293 294 293 294 292 292 292 291 291 292 292 291 291 291 291 291 291 291 291 292 292 293 294 295 296 296 296 296 295 294 293 293 293 292 291 290 292 295 295 293 292 292 293
303 303 304 304 303 301 301 300 299 298 297 296 296 295 294 294 293 292 292 292 292 292 291 293 292 292 291 291 290 291 291 290 290 290 291 291 291 291 291 291 290 291 292 293 293 293 294 294 294 294 294 294 295 295 293 292 291 291 293 295 294 292 295
303 303 303 302 301 300 299 297 297 297 296 295 295 294 293 292 292 293 292 291 291 290 291 292 291 291 290 290 290 290 290 290 290 290 290 290 290 290 290 291 290 290 291 291 292 293 293 293 293 293 293 293 293 294 294 294 294 295 295 295 295 295 295
302 302 302 301 300 299 298 297 297 297 296 295 294 294 293 293 293 291 291 290 290 288 289 291 290 290 290 290 290 291 290 289 289 289 289 290 290 290 290 290 290 290 290 290 291 290 291 292 292 292 292 292 292 293 293 294 294 294 295 295 296 295 296
302 302 302 301 300 299 298 297 296 296 294 293 293 293 292 293 293 291 290 289 288 287 287 290 290 290 290 289 290 289 289 289 288 288 288 289 289 290 290 290 290 290 290 290 291 289 290 291 291 291 291 291 291 292 292 294 293 292 292 292 292 292 292
302 302 302 301 300 298 297 296 296 296 295 293 293 292 292 291 290 291 290 288 288 287 287 288 290 290 290 289 290 289 289 288 287 287 288 288 289 289 289 291 292 291 290 290 290 289 289 290 289 289 289 289 289 290 291 292 293 293 292 292 292 291 291
303 302 301 299 298 297 297 296 296 296 295 294 293 292 292 290 289 289 289 289 292 288 286 288 290 289 290 289 291 290 288 287 286 287 287 287 288 288 288 290 291 291 291 290 289 288 288 289 288 288 288 287 287 287 289 291 291 291 292 292 292 293 293
303 303 300 298 298 298 297 296 295 295 294 294 292 291 291 290 289 289 289 289 290 290 287 287 290 289 290 290 290 291 289 287 286 286 287 287 287 288 288 289 290 289 288 288 288 288 288 288 288 288 288 287 286 286 289 290 290 291 291 291 292 293 293
303 302 300 299 298 297 297 296 295 294 292 291 290 289 290 288 288 288 288 288 288 288 288 287 288 289 289 290 290 290 288 287 287 287 286 287 287 287 287 288 289 289 288 288 288 288 288 288 289 289 288 287 287 288 289 289 289 290 290 290 290 290 290
303 302 301 299 298 298 297 296 296 295 293 291 290 289 289 288 287 287 287 287 287 286 287 291 288 289 289 289 289 289 289 288 289 288 287 287 287 287 287 288 288 289 288 288 288 288 288 288 288 289 288 288 288 288 288 289 288 288 288 288 288 289 289
300 300 298 298 297 296 296 296 294 293 291 290 289 288 287 287 287 287 287 286 286 286 286 287 289 289 289 289 289 288 288 288 288 289 287 286 286 287 288 288 289 289 288 288 288 288 288 288 288 288 287 287 287 287 288 288 288 287 287 287 287 287 287
299 298 298 297 296 294 293 292 292 291 290 289 288 286 285 286 286 286 287 287 287 286 286 285 286 288 288 288 288 288 288 287 288 288 288 287 288 288 288 288 288 288 287 287 287 287 287 287 287 287 287 287 287 287 288 288 287 287 287 286 286 286 286

ECMWFFLT1_sfc_thetae_009.txt.gz
Theta_e
319 318 319 321 323 321 320 321 322 323 324 324 323 323 324 324 324 324 324 324 322 321 321 320 320 321 321 321 324 325 325 324 324 322 321 323 322 322 326 326 326 327 326 326 325 321 321 319 321 327 330 330 331 332 332 332 332 333 334 335 333 334 336
316 317 319 320 320 321 320 321 322 321 323 324 322 322 323 322 322 321 321 320 319 318 317 317 318 319 319 320 320 320 321 321 321 322 321 319 321 320 322 322 324 324 325 325 325 325 320 317 318 321 324 328 330 331 333 333 333 334 334 333 333 332 334
317 317 319 319 320 320 319 321 322 321 321 321 322 322 321 320 320 320 319 319 319 317 316 316 316 316 317 317 317 318 319 319 320 319 318 318 319 319 320 320 319 320 322 322 322 322 322 321 316 317 321 320 319 325 330 330 331 331 332 333 335 333 334
318 318 317 318 318 319 318 319 321 322 322 321 321 322 321 319 320 320 320 319 319 318 315 314 314 313 315 315 315 315 316 316 316 317 316 317 317 316 317 317 317 317 316 315 317 318 319 318 318 317 319 320 319 319 325 329 329 328 329 331 332 333 334
320 318 318 318 317 318 319 318 320 321 321 321 321 320 320 320 320 320 320 319 318 317 315 315 314 313 314 313 314 313 313 314 314 314 314 313 314 314 314 315 315 317 316 315 316 317 316 317 317 317 317 319 320 321 324 327 328 328 328 328 330 332 334
320 320 319 320 319 318 319 319 319 319 320 319 320 319 319 320 319 319 319 317 317 317 316 314 314 314 313 312 312 312 312 312 312 312 311 311 311 310 310 312 312 313 314 315 315 315 315 317 317 315 317 318 315 318 320 324 324 326 327 328 330 331 331
320 320 320 319 319 318 319 319 320 320 320 321 320 319 319 319 319 319 319 318 317 317 316 315 314 313 313 311 311 311 311 311 312 311 311 311 311 311 311 309 310 310 311 312 313 314 313 313 313 313 313 314 317 315 318 319 323 321 324 328 329 329 328
320 319 319 320 320 318 319 321 321 321 321 321 321 321 320 320 319 319 319 318 317 317 316 315 314 314 313 311 311 312 311 311 311 311 310 310 309 309 310 309 308 308 309 309 311 311 311 312 312 312 311 309 310 313 312 315 316 318 319 322 327 327 327
320 320 319 318 319 320 320 321 321 322 322 322 323 322 321 320 319 319 318 318 317 317 316 314 313 312 312 311 310 311 310 311 311 310 310 310 310 310 309 309 308 307 309 308 309 309 309 311 311 312 312 311 307 305 310 310 312 312 317 318 321 326 327
319 319 319 318 318 319 320 320 321 322 323 323 322 322 320 320 319 319 317 317 317 316 315 314 313 313 312 311 310 310 310 310 310 309 309 309 310 309 309 308 308 307 308 309 309 309 310 310 310 310 311 310 310 306 305 306 308 310 314 319 315 322 326
319 319 319 319 319 317 318 318 319 319 320 321 321 321 320 319 319 319 318 317 316 315 314 313 312 312 312 311 311 310 309 310 309 309 309 308 308 309 308 308 308 307 308 308 307 309 309 309 309 309 309 310 310 307 307 305 306 311 312 316 317 316 323
318 318 318 318 318 317 317 317 317 318 320 320 320 320 319 318 318 318 318 316 315 315 314 314 313 312 312 311 310 309 309 309 307 307 308 307 307 307 307 307 307 307 308 308 308 308 309 308 308 309 308 309 309 309 307 307 303 309 315 313 316 320 318
317 318 318 317 316 316 317 317 317 318 319 319 320 320 318 318 318 317 317 316 315 314 313 313 312 312 312 310 309 308 308 307 306 306 306 307 305 307 306 306 306 306 307 307 307 308 307 308 308 307 308 308 308 308 308 306 304 304 311 311 313 315 316
317 318 318 317 316 317 317 317 317 318 318 318 320 319 319 318 317 317 316 315 314 313 312 312 312 311 310 309 308 308 307 306 304 305 305 305 305 305 305 304 305 306 307 306 306 307 306 306 307 307 307 306 306 307 307 306 303 304 309 312 312 311 313
318 318 318 318 317 316 317 316 317 317 317 318 319 318 318 319 318 317 316 315 314 312 311 311 310 310 309 308 308 308 306 305 304 304 304 303 304 304 304 303 303 305 306 305 307 305 305 305 305 304 305 305 304 305 307 304 303 303 303 309 309 311 311
318 318 317 317 317 316 316 317 317 316 316 317 318 318 318 318 317 316 316 314 312 311 311 310 310 309 308 307 306 306 306 305 304 303 303 302 302 303 303 303 303 304 306 305 306 307 306 305 305 304 305 305 304 304 304 304 303 302 302 304 307 307 309
319 318 317 317 317 317 317 316 316 316 316 317 316 318 318 317 316 316 314 312 311 311 310 309 309 308 307 307 306 305 305 305 304 303 302 302 302 302 302 302 303 303 304 303 304 305 305 306 305 305 305 305 305 303 304 305 304 303 302 301 304 305 307
319 318 317 317 317 317 317 316 316 315 316 316 316 316 316 316 316 314 313 311 310 310 309 308 308 308 307 307 306 305 304 304 304 303 303 303 302 303 302 302 302 302 302 302 303 302 303 304 303 303 303 304 304 305 304 304 304 304 302 301 302 305 306
319 319 318 318 318 317 316 315 315 315 315 315 315 315 315 314 314 313 312 311 310 309 309 308 308 306 306 306 306 305 304 304 303 303 303 302 302 302 302 301 301 302 302 301 301 302 303 302 302 302 302 302 302 303 304 304 304 303 302 301 302 301 304
320 319 318 318 318 316 315 315 314 314 314 315 314 314 314 314 314 313 312 311 309 309 308 307 307 306 305 304 304 304 303 303 302 303 302 301 301 301 301 301 301 301 301 301 301 301 302 302 302 302 302 302 302 302 302 302 302 302 301 300 301 302 302
321 320 318 318 317 316 315 315 314 314 312 310 310 311 312 313 313 312 311 310 309 309 308 306 305 305 304 304 304 303 301 301 301 300 301 300 300 300 300 300 300 301 301 301 302 302 302 301 302 301 302 302 302 301 301 301 301 300 300 300 300 300 301
319 319 318 317 315 315 314 314 314 312 311 311 311 311 311 311 309 310 309 309 308 308 306 305 305 304 304 302 301 301 300 299 299 299 299 298 299 299 299 299 300 300 300 298 298 298 298 298 299 299 301 301 301 300 300 300 300 299 299 299 299 301 300
318 318 317 316 315 314 313 314 313 311 310 311 311 310 308 307 307 307 307 307 307 306 305 305 301 298 299 300 300 299 300 299 298 298 298 297 298 298 298 299 299 297 297 297 296 295 295 295 296 298 299 300 300 299 299 299 298 299 299 297 298 298 298
317 316 316 315 315 314 313 313 312 311 311 310 309 308 307 307 307 306 306 305 305 305 304 302 294 293 293 295 299 299 298 298 298 298 297 297 296 297 297 297 298 298 297 297 297 294 293 293 293 294 294 295 297 298 298 297 298 298 297 298 298 298 297
315 315 315 314 314 314 313 312 311 310 309 308 309 308 306 306 306 306 305 304 304 303 303 297 292 292 292 292 296 299 299 298 298 297 297 296 296 296 296 297 297 298 298 298 297 297 296 294 293 292 292 292 292 292 293 297 297 297 297 297 297 297 298
315 315 315 314 314 313 312 310 309 308 307 308 307 306 305 304 304 304 304 303 302 302 300 294 292 292 292 291 292 296 297 298 297 297 297 296 296 296 296 296 296 297 297 296 296 297 297 297 294 293 293 293 293 292 291 290 292 297 297 296 296 296 297
314 314 315 314 313 312 310 308 309 309 308 306 306 305 304 304 303 303 302 302 301 300 298 294 291 292 292 290 290 293 297 297 297 296 296 296 296 296 295 295 295 295 296 297 297 297 297 296 296 296 297 297 298 297 293 292 290 290 294 297 297 296 298
313 313 314 313 312 310 308 308 307 306 305 305 305 304 303 303 302 302 302 301 300 298 298 292 291 291 291 290 289 292 298 297 297 297 297 296 296 296 295 295 295 295 295 296 296 295 294 294 295 294 294 295 296 296 297 298 299 299 298 298 298 297 298
311 312 312 311 309 308 307 306 305 304 304 303 303 302 302 301 300 300 300 299 298 297 297 290 290 290 290 290 290 296 297 297 296 296 296 296 296 295 295 295 295 295 295 295 294 291 291 294 293 292 292 293 293 294 296 295 294 295 297 299 299 299 299
310 311 311 309 307 306 305 305 305 303 302 301 300 300 299 300 300 300 299 298 298 297 296 292 290 290 290 289 292 297 297 296 296 295 296 296 295 295 295 295 295 294 294 295 293 289 289 290 292 292 291 292 292 292 293 295 293 292 292 292 292 292 292
309 310 310 308 307 306 306 305 304 303 301 299 299 299 299 299 298 299 298 297 298 297 296 294 290 290 290 289 293 296 296 295 295 295 295 296 296 295 295 293 294 294 294 294 291 289 289 291 292 291 291 290 290 290 291 293 294 294 292 292 291 291 291
309 309 309 309 308 306 305 304 302 301 300 301 300 300 300 298 297 297 297 297 296 297 296 294 290 289 290 289 293 296 296 295 294 295 295 294 295 295 295 294 293 293 293 293 289 289 289 290 292 291 290 289 288 288 290 291 291 292 293 293 294 295 295
308 309 309 309 307 305 303 301 300 300 300 300 298 297 298 297 296 297 296 296 295 296 295 295 294 289 290 290 291 295 295 294 294 294 294 293 293 294 294 295 294 290 289 289 288 288 288 288 290 291 290 289 288 288 291 291 291 291 291 291 291 292 292
308 309 309 308 306 304 302 301 301 300 299 299 298 297 297 297 296 295 294 294 294 295 296 296 295 289 290 290 290 291 294 294 294 294 293 293 293 293 293 294 294 292 289 289 288 288 288 288 289 290 289 288 289 290 290 289 289 289 289 289 290 290 290
308 309 308 305 304 303 302 301 300 299 298 297 297 296 296 294 294 294 294 294 294 295 294 293 297 292 289 289 289 289 293 294 294 293 292 292 293 293 293 293 293 292 289 288 288 288 288 288 288 289 288 287 287 287 289 289 289 289 289 289 289 288 289
308 308 306 304 302 300 300 300 299 299 298 298 297 296 294 293 293 293 293 294 295 296 297 296 291 294 291 289 289 289 288 290 289 292 292 292 292 293 293 293 292 290 288 288 287 287 287 287 288 288 287 287 287 287 288 289 288 288 288 288 288 288 288
308 305 303 302 301 300 299 299 299 299 299 298 296 294 293 294 294 294 295 296 298 298 299 298 293 289 291 288 288 288 287 287 288 291 292 292 293 292 292 292 291 288 287 287 287 287 287 288 288 287 287 287 287 287 288 288 288 287 287 287 287 287 288

ECMWFFLT1_sfc_thetae_012.txt.gz
Theta_e
319 320 322 325 326 325 324 325 326 326 327 326 326 325 326 326 326 326 326 327 325 325 324 325 325 325 326 326 327 327 326 325 326 324 323 326 325 326 329 329 329 328 328 328 328 324 321 318 322 326 326 331 332 334 334 335 337 338 340 340 338 337 339
322 321 321 323 322 325 325 325 325 325 326 327 325 324 324 324 325 325 326 325 323 322 322 322 324 325 326 326 326 326 325 324 324 324 323 321 323 322 323 324 324 325 325 326 328 328 322 320 320 321 323 327 330 333 336 337 337 339 339 338 337 337 338
319 320 320 321 323 324 324 325 324 324 324 323 323 323 321 319 320 321 320 320 320 319 318 319 320 321 322 323 324 325 326 325 324 324 322 322 322 322 322 322 320 320 321 322 323 322 324 325 317 317 321 320 319 328 333 334 336 337 337 338 337 335 336
320 320 320 321 321 322 323 324 324 323 323 321 321 322 320 320 321 321 320 320 320 319 317 317 319 317 319 320 320 321 322 322 322 323 322 322 322 321 321 320 318 318 318 317 318 320 320 320 318 317 318 319 318 320 327 331 333 333 332 334 334 334 336
322 320 320 320 322 322 322 322 323 323 322 321 320 319 321 322 321 320 320 320 319 319 317 318 319 319 319 319 319 319 319 320 320 319 320 319 320 319 319 319 319 319 319 318 318 318 318 318 318 317 316 317 318 320 322 328 328 327 326 327 330 333 334
323 321 320 321 322 320 321 321 322 321 321 320 318 319 320 322 321 321 320 318 318 319 318 317 318 318 318 318 318 319 319 318 318 318 316 318 317 317 316 318 317 318 317 318 318 318 318 318 317 314 315 316 314 316 317 318 319 323 324 323 325 327 331
325 323 321 321 322 320 321 321 322 321 321 322 320 319 321 321 321 322 321 320 319 319 318 319 319 318 319 316 317 317 317 317 318 318 317 318 317 316 316 315 316 314 315 317 317 317 316 314 313 314 314 313 314 311 314 314 316 315 319 322 324 325 326
327 324 321 322 324 321 322 322 321 322 321 322 322 321 321 322 323 322 321 320 319 319 318 318 317 318 318 317 318 318 318 317 317 317 316 317 316 315 315 315 314 315 314 313 313 315 314 315 314 314 312 309 309 311 311 312 314 314 314 318 320 320 324
327 326 324 323 324 324 323 322 321 323 322 324 324 323 322 323 322 322 321 320 319 319 319 318 317 316 317 316 316 317 316 316 317 317 316 317 316 315 315 315 314 313 314 312 313 313 312 314 314 314 313 311 307 305 310 309 311 312 317 316 319 322 323
328 327 325 326 326 326 324 323 322 323 324 324 324 325 323 323 323 323 322 321 320 319 319 318 317 317 317 317 316 316 316 316 316 315 316 316 315 316 314 314 314 314 313 314 313 313 314 314 314 313 313 310 311 307 305 306 309 311 315 317 316 321 321
329 329 328 328 328 326 324 323 323 323 324 324 326 325 325 324 323 322 322 321 321 319 318 318 317 316 317 315 316 315 315 316 315 315 314 314 314 314 313 313 314 313 314 314 314 313 314 314 313 313 314 313 313 309 308 306 306 311 311 316 316 315 322
329 329 329 329 329 326 324 323 322 323 326 324 325 325 324 323 323 322 322 321 320 319 318 318 317 317 316 315 315 314 315 315 313 313 313 313 313 313 312 312 312 312 312 314 314 315 314 313 313 313 313 314 313 313 310 309 306 311 315 313 316 318 317
327 327 329 329 327 326 324 323 323 323 324 324 324 324 323 322 323 322 321 320 320 319 318 318 317 317 317 316 315 314 314 313 312 312 311 312 310 312 311 311 311 310 311 310 313 312 312 313 313 311 312 313 313 313 312 310 308 308 314 314 315 316 316
327 327 328 329 328 327 326 325 324 324 324 323 323 323 322 322 321 322 321 320 319 319 318 318 318 317 316 315 314 314 312 312 311 311 311 311 310 310 308 309 309 311 312 311 311 311 311 310 311 312 311 310 310 312 311 310 308 308 312 316 316 314 316
327 327 327 328 328 326 326 325 326 324 324 323 322 322 321 322 322 322 320 320 319 318 318 317 317 316 315 314 314 314 313 311 310 310 310 309 310 309 310 309 307 309 310 308 311 309 309 309 308 309 309 311 309 310 312 309 307 307 307 312 312 314 314
325 327 327 326 327 326 326 326 325 325 323 323 322 322 321 322 322 321 321 320 319 318 317 316 316 315 314 314 312 313 312 312 311 310 310 308 307 308 309 309 309 309 310 309 309 311 311 310 310 308 309 309 309 310 309 309 308 306 306 307 311 310 312
324 325 326 326 326 327 325 325 325 324 323 323 322 322 321 321 321 321 320 320 319 318 317 316 315 315 314 313 312 311 311 311 311 310 308 308 307 307 308 308 308 308 309 307 308 307 308 310 310 309 309 310 310 309 311 310 309 307 306 305 308 308 310
324 325 325 326 326 326 326 325 325 323 323 322 322 322 321 322 321 320 320 319 319 318 317 316 315 314 314 314 312 311 310 310 310 309 309 308 307 308 307 307 307 307 307 307 307 307 307 307 306 306 306 306 307 308 309 310 309 309 307 306 307 309 310
324 325 326 327 326 326 325 325 324 324 323 322 323 322 321 321 320 319 319 320 319 318 317 316 314 314 313 313 312 311 311 310 309 308 308 307 306 307 307 306 306 306 306 306 306 307 308 307 307 307 307 306 306 306 307 307 308 308 307 306 307 307 309
325 325 325 326 326 326 325 325 324 323 323 322 322 322 322 321 321 320 319 320 318 318 316 315 314 314 313 312 311 310 310 310 309 308 306 305 305 306 305 305 305 306 306 306 305 306 307 307 307 307 307 307 307 307 306 306 306 306 306 305 306 307 307
324 324 325 325 326 326 326 325 324 324 323 322 322 322 321 319 320 319 319 319 318 318 316 314 314 313 312 312 311 310 309 308 307 306 306 305 305 304 304 304 304 304 304 305 306 306 306 305 305 306 307 307 307 306 306 305 305 305 305 305 304 305 306
320 321 322 323 324 324 325 325 324 323 323 322 323 322 321 319 319 319 319 319 317 316 315 314 314 312 311 311 311 309 308 305 305 304 304 304 304 303 303 304 303 303 303 299 297 297 298 298 299 300 302 304 305 304 305 305 304 303 303 303 303 305 304
316 319 321 322 322 323 323 324 324 323 322 322 322 321 320 320 319 319 318 317 316 315 314 314 307 301 304 310 309 306 306 305 304 303 303 303 303 303 303 303 304 299 300 298 297 295 294 294 296 299 300 302 302 303 303 303 302 303 303 302 302 303 302
316 317 319 321 322 322 323 323 323 322 322 321 321 319 319 319 319 318 317 315 314 314 313 307 294 294 294 297 305 306 305 304 303 302 302 302 302 302 302 301 303 302 302 300 300 294 293 293 293 293 294 295 297 299 300 300 301 302 301 302 302 303 302
312 315 317 318 320 321 322 321 321 322 321 321 320 319 318 318 317 317 317 315 314 313 310 296 292 292 294 294 297 304 304 303 302 302 302 301 301 301 301 301 302 302 303 302 300 300 298 294 292 292 292 292 292 292 293 298 299 299 301 301 301 302 302
310 312 315 318 319 320 319 319 319 320 320 321 321 319 318 316 316 316 315 313 312 310 304 292 292 292 292 292 292 298 303 302 301 302 302 301 301 301 301 301 301 301 302 299 299 301 302 302 296 292 292 292 292 292 291 290 292 298 299 299 300 300 301
309 310 313 317 318 318 318 318 319 319 320 320 319 318 318 317 316 315 314 313 311 308 302 293 291 291 292 291 290 294 302 302 302 301 300 301 301 301 301 300 299 300 301 301 302 301 301 301 300 300 301 301 301 299 293 291 290 291 294 297 298 297 300
308 309 311 313 316 317 317 318 317 317 318 318 318 317 316 315 314 313 312 311 309 305 300 291 291 291 291 290 289 293 303 302 301 302 302 302 301 301 301 301 301 300 300 300 301 299 299 298 299 299 299 299 300 300 301 301 301 301 299 298 299 300 300
309 310 310 312 314 315 316 316 316 317 317 317 316 316 315 314 312 311 310 308 305 302 298 290 290 290 290 290 289 298 301 301 301 301 301 301 301 301 301 300 300 300 300 299 296 291 294 297 297 297 296 298 298 299 300 298 296 296 299 300 301 301 302
308 309 310 310 312 314 315 315 315 316 315 315 314 313 313 312 311 309 307 305 304 300 296 292 290 290 290 289 292 299 301 301 301 301 301 301 301 301 301 300 300 299 299 299 294 290 290 291 296 296 296 296 297 297 298 300 296 293 292 292 292 291 291
308 309 310 311 311 314 315 316 315 316 314 313 312 312 312 309 308 306 304 302 301 299 296 293 290 290 290 289 293 300 301 300 300 300 300 301 301 301 301 299 298 298 298 299 292 289 289 293 295 295 295 295 295 295 296 298 299 299 293 291 291 291 291
308 309 309 311 312 313 314 314 314 315 314 313 311 309 307 306 304 303 303 302 300 300 297 294 290 290 290 289 295 300 299 299 299 299 299 298 300 300 300 299 297 297 297 296 290 290 289 291 295 294 294 293 293 293 295 297 297 296 297 297 297 297 296
309 309 310 311 313 314 314 313 314 314 313 311 308 306 304 303 302 302 302 301 301 301 299 296 294 289 290 290 291 297 298 296 297 297 298 298 298 299 299 299 298 292 290 290 289 288 288 288 293 294 293 292 291 291 295 295 295 295 294 294 294 294 294
309 310 311 312 313 313 313 312 313 312 308 306 305 303 302 302 301 300 300 301 300 300 301 299 295 289 290 290 289 290 296 297 298 298 298 297 297 297 297 297 298 294 289 289 288 288 288 288 289 292 292 291 292 292 291 292 292 290 291 292 292 292 293
309 310 311 312 312 311 312 312 311 310 306 304 303 302 301 300 299 298 299 300 300 300 298 297 298 290 289 289 289 289 295 298 297 296 295 295 295 296 296 296 298 294 287 288 287 288 288 288 288 291 291 288 288 287 290 291 290 290 290 290 290 291 291
309 310 310 311 311 311 311 309 307 306 304 303 302 301 300 300 299 297 297 297 299 299 299 296 293 295 289 290 289 289 289 292 290 295 295 295 295 295 297 297 298 291 287 287 288 287 288 287 288 290 288 287 287 287 288 290 289 289 289 289 290 290 290
308 309 310 310 310 309 308 305 304 303 303 302 300 299 299 298 298 297 297 297 298 299 299 299 292 291 293 287 288 288 287 287 288 294 295 295 295 296 297 298 295 288 288 287 287 288 288 288 290 288 287 287 287 287 290 289 288 289 288 288 288 289 289

ECMWFFLT1_sfc_thetae_015.txt.gz
Theta_e
320 323 324 325 326 326 324 325 325 326 327 327 327 325 327 327 327 326 326 326 325 325 324 325 327 326 327 326 327 327 327 327 329 328 326 327 326 326 329 329 328 329 328 329 328 323 321 317 321 329 332 331 331 333 333 333 332 332 334 333 334 335 335
323 322 323 323 323 326 325 325 326 325 327 327 325 325 325 324 326 326 326 325 323 323 322 322 323 324 325 325 325 324 324 324 326 326 325 324 325 323 324 326 325 326 326 327 327 328 319 317 318 320 323 331 330 332 335 333 334 335 334 333 333 337 334
321 320 322 321 323 324 324 325 325 324 323 323 324 323 322 321 321 322 320 320 321 319 318 318 319 321 323 322 324 326 326 324 324 324 323 322 322 323 322 323 320 320 320 322 323 325 321 321 316 317 322 324 324 330 334 334 337 338 336 335 333 332 334
321 321 321 321 321 324 323 323 323 323 323 322 322 322 322 321 322 321 321 320 320 321 319 318 320 318 320 321 322 323 323 323 323 323 322 321 322 321 321 319 318 318 318 317 318 319 318 316 315 316 318 318 319 323 331 334 334 333 335 337 332 333 335
322 321 322 321 321 323 323 322 323 322 322 321 321 320 323 322 321 320 321 321 320 320 319 320 320 319 320 321 321 321 321 321 322 321 321 320 321 320 319 319 318 317 319 317 317 318 316 315 315 313 311 312 313 315 320 329 328 327 326 325 327 329 332
323 322 323 322 322 321 322 322 322 321 321 320 320 320 322 323 322 321 321 319 320 320 320 319 320 320 320 320 320 320 320 320 319 320 317 318 318 317 316 317 316 317 318 318 317 317 316 316 314 311 312 314 312 313 314 314 313 316 321 321 321 322 327
323 323 323 322 323 322 322 322 322 321 321 321 320 321 322 322 322 323 322 321 320 320 320 321 321 320 320 317 318 319 319 320 321 320 319 319 319 318 318 316 315 314 315 317 316 316 316 314 312 312 312 310 311 309 311 311 313 311 316 321 322 321 321
323 322 321 322 323 322 323 323 322 322 322 323 320 322 322 323 323 323 322 321 320 320 320 320 320 320 320 318 319 320 320 319 319 318 317 319 318 317 317 316 317 316 314 315 314 315 314 314 314 314 311 307 308 310 309 311 312 313 313 316 319 321 323
324 323 321 322 323 323 324 323 322 323 324 323 324 323 322 324 323 322 321 321 321 319 320 319 319 318 319 318 317 318 316 317 319 319 319 318 318 318 316 317 318 314 316 314 314 315 314 315 313 313 313 312 308 306 309 308 309 310 315 314 317 320 321
327 325 322 323 325 325 325 325 322 323 325 325 324 324 322 324 324 323 321 321 321 321 321 319 319 319 319 319 319 318 318 319 318 317 318 317 317 316 316 316 315 315 313 315 317 315 315 316 315 314 313 311 311 307 305 306 308 309 312 315 313 316 318
328 327 326 324 325 325 324 324 324 323 323 325 325 325 323 323 324 322 322 321 321 321 321 320 318 318 319 318 318 318 317 318 317 317 317 316 316 316 315 314 315 314 313 315 314 316 316 315 313 314 313 313 313 309 308 306 307 311 310 313 314 313 318
329 328 327 327 327 326 325 323 323 323 324 325 325 325 323 323 323 322 323 322 321 320 320 319 319 318 318 317 317 316 317 318 316 316 316 316 316 316 314 315 314 313 313 314 316 316 316 315 315 313 313 314 314 314 311 308 305 310 315 313 315 317 316
327 326 327 327 326 326 325 324 322 323 324 324 325 326 322 322 322 322 321 321 321 320 319 319 319 318 318 318 316 316 316 316 315 315 315 315 314 315 314 314 313 312 313 311 313 314 313 314 316 312 312 311 312 314 313 311 308 307 312 312 313 314 315
327 326 326 327 328 327 327 324 321 324 324 325 325 325 322 322 321 321 321 320 320 320 319 319 318 319 317 318 317 317 315 314 313 314 314 312 312 313 311 311 311 314 314 313 313 312 311 312 313 313 314 312 311 311 311 310 308 308 312 315 314 313 315
328 328 327 327 328 327 326 325 323 323 324 325 324 324 323 322 322 322 320 320 320 319 319 319 318 319 317 317 317 317 315 313 313 313 313 312 313 311 312 311 310 311 312 310 311 310 310 310 309 308 309 311 310 311 312 309 308 307 307 311 311 314 313
325 326 327 325 326 326 325 327 327 325 322 324 324 324 324 323 322 322 321 321 320 319 319 318 319 318 317 317 315 315 315 314 313 313 312 311 310 312 311 312 311 312 313 311 312 312 312 310 311 309 310 310 310 310 310 310 308 306 306 307 310 309 310
326 325 325 324 324 327 327 326 325 325 324 323 323 324 322 322 322 322 321 321 320 319 319 319 318 317 316 316 316 314 314 314 314 314 312 311 310 310 311 310 311 311 311 310 310 310 309 310 310 310 309 309 309 309 312 312 312 310 309 307 310 308 310
325 327 326 326 327 327 325 324 325 323 323 323 323 323 323 322 322 321 322 321 320 320 320 319 318 317 317 317 316 315 314 313 313 313 312 311 311 309 310 310 309 309 309 309 310 310 310 310 307 307 307 307 307 308 309 309 309 309 308 307 308 309 310
324 325 325 325 326 327 327 327 325 326 323 322 322 322 321 321 321 321 321 321 321 321 320 320 319 317 316 317 316 316 314 313 313 312 312 311 310 311 309 309 309 309 308 308 308 309 309 309 308 308 308 307 307 308 308 308 308 307 306 306 307 307 310
324 324 325 326 327 327 326 327 325 325 324 323 323 320 321 322 322 321 321 321 321 321 321 320 319 318 317 316 316 314 314 313 312 312 312 310 309 309 308 308 308 308 307 307 307 307 308 309 308 308 308 309 308 308 308 307 307 307 306 306 306 307 307
315 317 321 324 326 326 326 326 325 324 323 324 324 322 322 322 323 322 321 322 321 321 321 320 319 318 317 317 315 314 313 313 312 312 311 309 308 308 307 306 306 306 306 307 307 307 305 304 305 304 304 305 305 305 305 305 305 305 305 305 304 304 305
315 314 315 317 318 321 324 326 324 322 321 322 323 322 323 323 323 323 323 322 321 321 320 320 319 318 317 316 315 314 313 312 312 311 309 308 308 307 306 306 306 306 305 299 296 298 299 299 299 299 301 302 303 303 304 304 304 303 304 304 303 305 304
314 315 316 317 318 320 319 320 323 324 324 323 323 323 323 323 324 323 322 322 321 321 320 321 315 307 309 315 315 314 314 312 310 309 308 307 306 306 306 306 306 305 300 299 298 295 294 294 296 299 300 301 301 301 301 302 302 302 302 301 302 302 302
312 313 314 316 318 319 319 320 321 321 323 324 324 324 323 322 322 324 321 320 319 321 323 318 300 300 301 303 313 314 311 309 308 308 307 306 306 306 306 305 306 305 302 301 301 295 294 293 293 294 294 295 297 298 297 297 298 300 299 299 300 301 301
309 310 311 312 314 316 318 319 319 320 321 322 323 324 323 322 321 321 321 319 319 319 320 299 295 296 296 298 304 311 310 308 307 306 306 305 305 305 304 305 305 305 305 304 305 303 298 294 293 293 292 292 293 292 294 297 297 297 298 298 298 300 301
308 308 309 310 312 315 316 317 319 319 319 320 322 322 322 321 321 321 320 317 317 318 314 294 294 294 294 294 296 303 308 308 306 305 306 305 304 304 304 303 304 304 304 303 301 301 303 304 295 292 293 293 293 292 291 290 292 298 299 297 297 297 298
308 308 309 310 310 311 313 314 317 319 319 319 320 321 322 321 321 320 319 318 317 317 305 295 293 293 293 292 292 296 307 306 305 305 304 304 304 303 303 303 302 302 303 303 304 303 303 303 302 302 301 301 301 299 293 291 291 291 294 298 298 297 299
308 309 309 309 310 309 310 312 315 317 317 317 317 318 320 320 320 320 319 318 317 310 303 292 292 292 292 292 290 293 305 305 303 303 303 303 303 303 303 303 302 301 302 302 303 301 301 300 300 299 299 299 300 300 302 302 301 299 299 299 299 300 301
309 308 308 308 309 309 310 312 313 316 316 316 317 317 318 319 319 319 318 318 315 303 300 291 291 291 291 291 290 301 303 303 302 302 303 303 303 303 303 302 302 302 302 302 296 291 296 299 298 297 296 297 298 300 301 299 298 299 302 302 302 301 302
308 309 308 308 307 308 309 310 312 315 315 315 315 316 316 317 318 318 317 315 314 301 297 292 290 290 290 290 293 301 303 301 302 302 303 303 303 303 304 303 303 302 302 302 294 290 290 293 297 296 296 297 298 298 299 301 297 294 293 293 293 293 292
308 308 308 307 307 308 310 311 311 314 314 313 314 314 315 316 317 317 316 315 306 301 298 293 290 290 290 290 295 301 301 302 301 302 302 303 304 303 304 304 303 301 300 301 290 290 288 294 297 296 296 296 296 296 297 299 300 300 295 293 292 292 292
308 308 308 308 308 308 309 310 311 313 314 314 314 314 314 314 315 314 313 310 300 299 296 293 290 290 290 290 295 302 301 301 301 301 302 302 302 302 302 303 299 299 300 298 289 289 288 293 296 296 296 295 294 294 295 297 297 297 298 299 300 300 298
309 309 309 310 311 310 310 310 312 313 313 313 312 312 312 312 311 307 305 301 300 298 295 294 293 289 290 290 290 299 301 297 298 299 300 300 300 301 301 301 301 292 291 289 288 288 288 289 293 295 296 294 293 292 296 296 296 295 294 294 294 295 295
308 309 310 311 311 311 312 312 312 312 312 312 312 311 311 310 306 304 303 301 299 298 297 295 293 289 290 290 288 292 298 298 298 298 298 298 298 297 297 297 298 289 288 288 289 287 289 288 289 292 293 293 294 294 291 292 292 291 293 293 293 293 293
309 310 311 311 311 311 312 313 313 312 311 311 311 310 307 304 302 300 300 301 301 300 299 297 294 290 290 290 289 289 295 297 298 297 294 295 295 296 297 297 297 290 287 287 288 288 288 288 288 291 291 289 288 288 290 291 291 291 291 291 290 291 291
309 310 310 311 310 310 311 311 312 312 311 310 309 307 304 302 300 298 298 299 299 299 299 297 292 293 289 290 289 289 289 293 290 296 294 294 295 295 297 298 298 290 289 288 288 288 288 288 289 291 289 288 288 287 288 291 290 290 290 290 290 290 290
308 309 309 309 309 309 310 310 310 310 310 307 306 304 302 301 300 298 297 297 299 298 298 298 293 291 291 289 289 289 288 287 289 294 296 295 295 296 298 299 297 289 289 289 288 288 288 288 290 288 288 288 287 288 290 290 290 289 289 289 289 289 289

ECMWFFLT1_sfc_thetae_018.txt.gz
Theta_e
325 323 326 327 329 327 329 327 326 331 329 329 330 329 328 326 328 328 327 326 326 325 324 321 322 323 324 325 326 327 328 328 326 323 324 326 322 322 326 327 327 328 328 326 324 319 316 314 318 326 329 329 330 331 331 332 331 331 328 330 332 335 335
324 325 324 324 326 328 329 331 328 325 325 327 326 326 326 326 325 324 323 322 319 319 319 318 320 322 323 324 324 324 323 324 326 327 325 324 324 322 322 324 325 326 325 326 324 321 316 315 316 319 321 328 328 329 330 332 333 334 332 332 334 332 330
323 323 323 324 325 328 326 327 328 327 324 327 325 323 323 321 324 323 321 321 322 320 319 319 320 322 322 321 322 323 324 323 322 321 321 322 321 321 322 322 321 323 322 322 320 319 318 318 314 315 320 320 321 327 330 331 331 333 336 334 333 334 334
322 323 322 323 324 326 324 325 327 325 326 324 326 325 324 323 323 324 324 321 322 322 321 319 320 318 321 323 321 321 320 321 321 321 320 320 322 317 317 316 315 315 315 313 313 316 315 313 312 312 311 312 320 320 327 332 332 335 336 335 334 334 333
323 323 321 321 322 323 324 324 326 324 323 325 325 324 325 323 323 323 324 323 323 324 323 323 322 320 320 320 322 322 321 321 321 320 318 317 316 319 317 317 318 319 316 313 314 316 313 312 312 308 307 308 310 311 324 329 331 328 330 332 333 333 333
324 324 322 323 323 324 324 324 323 322 322 321 324 323 324 326 325 324 323 322 322 322 322 319 318 320 320 320 319 318 318 318 317 318 316 316 316 315 316 317 315 315 314 316 316 315 316 316 314 309 310 309 307 307 308 311 319 327 327 326 330 332 332
325 327 324 323 324 325 325 325 324 324 321 323 323 324 324 325 325 326 325 323 322 322 323 323 322 322 323 316 319 319 319 320 320 318 318 317 316 317 316 315 314 314 316 317 315 317 315 313 311 310 309 310 309 307 308 307 309 307 310 315 319 320 323
326 326 326 326 325 326 325 324 326 325 323 322 322 324 323 326 326 325 325 323 323 323 322 322 323 321 321 318 319 320 319 319 317 317 316 316 316 315 315 315 318 313 315 311 315 314 312 312 311 311 309 306 306 308 308 309 309 308 309 312 315 316 319
325 325 326 325 326 330 326 325 327 326 326 324 323 324 323 326 324 324 323 323 323 322 322 321 321 320 321 319 318 319 317 319 320 319 317 317 317 315 314 315 316 312 312 313 314 313 313 314 314 313 310 309 305 302 305 305 308 309 312 309 312 313 314
325 325 324 327 325 328 330 327 327 328 328 326 324 324 322 325 324 324 321 322 323 322 322 321 321 321 321 320 319 319 318 319 317 315 317 316 316 315 316 315 315 311 311 315 314 314 314 314 314 313 313 310 310 305 302 302 305 306 309 311 307 310 315
326 326 325 328 326 325 330 328 329 328 329 327 325 324 322 324 324 323 322 321 322 323 322 321 321 320 321 320 319 319 318 318 317 317 316 314 315 315 314 313 314 312 312 315 315 316 317 314 313 314 312 312 311 307 306 303 303 306 307 311 312 310 313
330 329 328 329 327 325 326 327 328 327 329 327 325 324 322 323 323 322 322 321 320 320 321 321 321 319 319 319 318 318 318 318 317 316 316 316 316 316 314 314 312 313 312 312 313 317 315 315 313 310 310 311 313 311 309 307 302 307 311 308 310 312 311
330 332 333 328 330 327 326 327 327 326 326 326 327 324 322 322 322 321 321 321 320 319 319 319 319 318 319 318 317 318 316 318 315 314 313 315 314 316 313 314 312 311 312 311 311 312 313 313 315 312 311 312 310 312 311 308 304 304 310 310 310 311 312
332 332 332 331 330 330 330 330 330 328 325 325 326 325 322 321 321 321 320 320 319 319 318 318 318 317 316 317 315 317 315 314 314 314 314 313 313 313 312 311 311 313 313 312 311 310 309 310 312 312 311 310 309 310 307 306 304 304 307 311 310 309 310
330 330 331 331 328 328 329 330 330 331 329 328 324 325 323 322 322 321 319 319 319 319 318 317 317 317 316 316 315 319 314 313 313 313 312 311 312 314 312 311 310 312 310 309 310 308 307 306 306 305 307 310 306 308 308 307 304 303 302 306 307 309 308
329 329 329 326 328 328 330 330 330 327 327 327 327 324 324 323 322 321 320 320 319 319 318 317 317 317 316 316 314 316 315 313 312 313 311 312 310 310 311 312 311 312 314 311 310 310 311 308 307 306 307 307 307 308 307 307 306 304 303 304 307 306 307
324 327 326 325 325 328 327 328 330 329 329 328 325 327 327 323 322 321 320 319 319 318 318 318 317 317 316 315 315 314 313 313 313 313 311 310 309 310 310 311 310 311 310 309 310 309 308 309 309 307 304 304 305 305 307 308 309 305 305 304 306 306 307
323 325 325 324 326 328 326 325 328 326 327 328 327 324 322 322 321 320 321 320 319 319 319 318 317 317 317 317 316 315 313 312 313 312 312 312 314 310 311 309 310 310 309 307 308 308 309 307 306 306 305 304 304 306 306 306 305 304 302 301 302 304 305
324 324 324 322 322 324 327 326 324 327 325 323 321 321 319 318 319 319 319 320 320 319 319 318 317 317 316 316 316 315 314 313 313 312 311 312 310 310 310 310 311 308 308 308 307 308 307 307 307 306 305 305 305 305 305 305 305 304 304 302 302 302 303
325 324 324 323 323 324 325 326 323 324 324 322 322 321 319 321 321 320 320 319 319 320 320 319 318 317 317 316 315 315 314 313 313 312 312 310 310 310 309 309 309 309 307 307 307 307 306 306 306 304 304 303 302 302 301 302 302 301 302 301 302 302 302
314 315 319 323 325 325 325 324 321 322 323 324 322 321 322 322 320 319 320 320 320 320 320 320 319 318 318 317 315 314 314 313 311 312 312 311 311 309 309 309 309 308 308 305 302 300 301 301 301 299 299 300 300 300 299 300 300 300 299 300 299 299 300
318 317 315 315 318 319 325 324 323 321 321 320 320 320 321 321 320 320 320 321 321 321 319 318 320 318 317 316 316 314 313 312 312 311 310 310 309 309 308 308 307 307 304 302 300 300 300 300 298 296 299 299 299 299 298 298 299 298 298 298 298 300 298
315 315 315 315 316 317 316 320 324 322 321 320 320 319 319 320 319 319 319 320 320 320 319 319 315 310 311 316 315 314 314 313 311 311 309 308 308 307 308 307 309 307 304 301 298 295 293 294 297 300 298 297 297 297 296 295 295 295 296 295 295 296 295
314 314 315 316 317 319 319 321 322 324 322 321 321 320 319 319 319 318 318 316 315 316 317 318 307 301 301 306 314 314 312 312 311 310 308 307 305 305 306 305 305 302 301 300 299 294 294 293 293 294 295 296 298 298 296 295 294 294 294 294 295 295 294
314 315 316 314 316 317 320 322 322 323 322 322 323 323 322 321 321 320 320 317 316 315 318 309 301 298 299 301 307 314 313 311 310 309 307 307 306 305 305 305 306 306 304 303 302 299 295 294 293 293 292 292 292 292 294 295 294 293 294 293 293 293 294
310 314 314 314 316 315 315 316 317 320 320 321 322 320 320 321 321 321 320 317 316 318 313 296 297 297 297 299 301 307 309 309 308 308 307 307 306 305 305 306 306 306 305 306 305 302 300 299 295 293 293 293 293 292 290 290 292 296 296 294 293 293 294
312 314 315 315 315 313 312 312 316 319 319 320 319 319 320 320 321 321 320 319 318 316 306 296 295 296 296 296 298 303 308 308 306 306 307 306 308 308 306 305 303 303 303 302 301 301 301 302 301 298 296 295 296 297 293 291 291 291 293 295 295 294 296
313 312 313 312 313 312 312 314 313 312 314 318 317 316 317 317 319 319 319 319 316 308 306 294 294 294 294 294 296 299 308 309 306 307 307 307 305 306 305 305 303 302 301 302 304 303 302 301 299 299 298 297 296 296 297 297 297 295 295 295 294 295 296
314 314 313 312 310 310 311 312 312 313 314 316 317 317 317 318 317 318 319 318 309 306 301 292 293 293 292 293 296 302 305 304 304 304 304 306 305 304 305 303 302 301 301 301 296 294 297 300 298 297 296 295 295 295 297 298 296 296 298 299 298 298 298
313 313 312 311 310 311 311 312 312 312 311 313 314 315 315 316 316 317 317 315 306 303 297 293 291 291 292 294 297 301 304 302 302 303 303 305 304 304 304 303 302 301 302 300 294 291 292 295 297 295 295 294 295 295 295 298 296 294 294 293 293 293 293
310 312 311 309 309 311 311 310 310 312 310 311 312 313 315 314 315 315 315 313 303 300 297 293 291 291 293 294 297 302 302 302 303 302 302 304 304 302 303 307 305 301 301 301 290 290 290 294 296 295 294 294 293 293 294 296 297 297 295 294 293 293 292
311 311 310 309 311 310 310 309 309 310 309 310 311 313 313 312 313 311 306 303 301 299 295 292 291 290 291 292 298 303 302 300 300 300 301 302 302 303 303 303 301 298 296 291 288 289 288 292 294 294 294 293 292 292 293 294 293 293 292 292 292 293 293
310 309 308 310 311 311 311 310 310 309 309 309 309 311 312 311 307 302 303 301 300 297 294 293 293 290 290 289 290 297 300 300 299 299 299 298 299 301 300 299 294 288 289 288 288 288 288 289 291 291 291 290 290 290 292 291 291 291 290 290 290 291 291
309 310 310 310 311 311 311 310 310 310 310 310 311 310 308 305 304 302 300 300 298 297 295 293 292 290 290 290 289 293 297 297 297 297 296 295 295 296 295 295 292 289 288 288 288 287 288 289 288 290 289 289 290 292 289 288 289 290 289 289 289 289 290
309 310 311 312 312 311 311 311 310 310 310 309 310 308 306 303 302 300 299 297 296 295 295 294 292 290 290 290 288 290 296 296 294 295 293 293 293 294 294 295 292 290 288 288 288 288 288 288 288 290 289 289 289 288 289 290 289 289 289 289 288 288 289
308 310 309 310 309 310 311 310 310 310 310 310 308 305 303 301 299 298 298 297 296 295 294 293 292 291 289 289 289 289 288 293 290 295 296 293 293 294 295 296 291 290 288 288 288 288 288 288 288 289 288 288 288 288 288 288 288 288 288 288 288 288 288
306 308 308 308 308 308 308 309 309 309 308 308 306 303 301 300 298 297 296 296 296 295 295 293 291 291 290 289 289 289 288 288 290 295 296 295 293 294 295 296 292 289 289 289 289 289 289 288 289 288 288 288 288 288 288 288 288 289 288 288 288 288 288

ECMWFFLT1_sfc_thetae_021.txt.gz
Theta_e
315 314 315 317 319 320 319 319 320 319 320 320 320 319 319 318 317 315 314 314 316 318 319 318 318 319 321 323 322 323 323 322 321 320 319 320 318 319 323 322 323 324 324 321 320 315 310 310 313 319 323 325 326 328 329 329 330 331 328 329 331 332 332
317 317 318 318 318 320 318 317 315 316 317 318 317 316 315 317 318 315 314 314 312 314 317 316 316 317 317 317 318 317 317 318 320 320 320 318 319 318 320 319 321 321 321 320 320 317 312 309 310 314 315 322 325 326 326 327 329 331 330 330 331 332 329
316 315 316 316 316 317 316 315 313 314 313 313 315 315 315 316 315 315 313 313 315 316 316 315 315 314 314 314 315 316 316 316 315 315 316 316 315 315 317 316 315 318 318 317 316 315 316 315 310 311 311 310 313 319 325 326 327 329 331 330 330 332 332
315 315 315 314 316 315 315 315 314 314 313 314 314 315 315 314 314 317 314 315 316 318 316 313 312 314 315 314 315 315 315 314 312 312 311 312 313 311 311 312 312 311 310 308 308 311 309 308 307 307 307 307 306 306 316 327 327 329 330 332 331 331 331
316 316 315 314 315 315 314 315 315 314 314 314 314 313 311 313 314 315 315 314 315 312 312 314 314 314 315 315 314 313 312 312 313 313 311 310 310 310 310 310 310 311 310 309 311 310 309 308 308 306 306 307 307 306 310 324 328 328 329 331 332 331 331
316 316 315 315 315 315 315 315 313 313 313 313 313 313 311 313 313 313 313 312 313 315 313 312 313 314 313 312 313 313 313 312 311 311 310 309 310 309 309 309 309 310 309 310 310 310 310 309 308 304 306 307 304 305 305 307 311 324 327 327 329 329 329
316 316 316 316 316 316 316 315 314 313 312 313 313 312 314 313 314 316 315 313 313 313 313 312 313 313 313 313 313 313 313 312 312 311 310 309 309 309 310 310 308 309 307 310 309 308 307 306 305 304 304 305 306 306 307 306 308 306 307 312 318 325 329
317 316 316 317 317 316 317 316 315 314 314 314 314 314 315 314 314 313 312 312 313 312 313 313 316 314 314 314 313 312 312 311 311 312 310 309 310 308 308 309 309 307 307 309 308 309 309 308 307 306 305 303 302 302 303 305 307 307 307 309 312 314 319
318 317 317 317 317 317 317 316 316 315 315 314 316 314 314 315 314 314 314 312 312 312 312 312 312 312 312 311 311 309 310 315 312 311 310 310 308 308 308 308 305 305 308 309 309 308 308 309 308 308 306 304 301 298 302 302 304 306 309 308 309 311 312
317 316 316 315 317 317 317 316 318 316 316 316 316 315 315 315 315 313 312 312 312 312 311 312 312 311 312 312 310 310 309 309 310 310 309 308 308 307 306 307 305 306 307 308 308 309 309 307 308 307 307 305 304 301 299 299 301 302 306 309 306 308 311
316 317 317 316 316 319 316 316 318 318 316 317 317 316 316 316 315 319 313 312 311 312 311 312 311 311 312 311 311 310 310 310 310 309 309 308 308 308 308 306 306 305 306 307 309 309 309 308 308 307 306 306 306 302 302 299 299 303 304 307 309 308 309
317 316 318 317 316 318 317 315 317 318 318 317 317 315 315 316 315 314 314 311 312 312 312 311 310 310 311 310 311 310 310 309 308 308 309 309 310 309 306 305 306 306 305 305 306 310 309 307 307 306 305 305 307 305 303 302 298 302 307 304 306 309 308
319 317 318 317 316 315 318 317 316 317 318 317 316 314 315 316 315 314 314 313 312 312 312 312 310 309 309 308 310 310 309 310 309 307 306 308 311 308 306 306 305 305 306 306 304 305 304 306 307 307 306 306 305 306 305 303 300 300 304 305 305 306 308
320 321 318 318 318 317 316 317 317 316 319 317 316 315 315 316 316 315 315 314 313 312 311 311 310 309 309 309 308 309 308 309 308 307 307 307 308 308 307 307 307 308 306 303 303 304 304 304 304 306 306 305 305 305 303 302 300 300 301 305 306 306 307
319 320 320 320 319 318 318 319 319 318 316 316 318 316 315 316 316 316 314 315 314 314 313 312 310 310 308 309 307 311 309 308 308 308 306 304 306 309 304 304 307 305 305 305 305 305 305 304 303 302 302 304 302 303 304 303 300 300 299 302 304 306 307
321 319 318 319 319 320 320 319 319 318 317 316 316 317 316 316 316 316 315 315 314 314 314 312 311 311 310 310 307 309 309 306 306 306 305 305 306 306 306 306 304 305 308 304 305 304 304 304 303 302 301 302 301 302 303 303 302 300 299 301 303 304 304
321 320 319 318 318 318 318 318 318 316 314 314 317 317 317 317 316 315 315 315 314 314 314 313 312 312 312 311 310 310 308 307 306 306 306 306 306 305 304 305 305 306 305 304 304 304 303 303 302 302 301 302 301 302 302 302 301 300 299 298 298 300 302
318 319 319 320 319 318 319 320 319 318 317 316 319 317 316 315 315 315 316 315 315 314 314 313 313 312 312 312 311 310 309 308 307 307 306 306 309 305 305 305 305 306 303 302 303 303 302 302 303 302 301 302 302 303 303 302 302 301 299 298 299 300 301
317 317 318 317 318 319 320 320 320 320 320 319 316 317 316 316 316 316 315 314 314 314 314 314 314 313 313 313 312 311 309 308 308 308 307 307 305 305 305 303 305 303 303 302 303 302 302 302 303 301 299 299 298 299 298 298 299 298 297 297 297 297 298
316 316 315 315 314 315 318 319 319 318 318 317 318 317 317 316 316 316 316 316 314 316 315 315 315 316 315 313 312 311 309 308 308 308 307 307 305 306 305 304 304 303 302 302 301 300 299 298 300 297 298 296 297 297 297 297 297 297 296 296 296 297 297
306 310 313 315 315 314 317 318 318 318 317 316 316 316 317 317 317 317 316 315 315 314 314 315 315 316 317 315 312 311 310 310 309 308 307 306 306 306 305 305 304 303 302 300 298 297 297 295 295 294 295 297 296 295 294 295 295 294 294 294 294 293 295
308 306 306 308 313 316 317 318 318 317 316 316 317 317 316 316 316 317 316 315 315 314 316 316 317 317 316 316 314 311 311 311 309 308 306 305 305 305 304 304 303 301 304 304 301 300 300 299 294 291 293 294 295 293 293 293 293 292 292 292 291 293 292
306 305 305 306 307 307 315 319 318 316 316 316 317 317 316 317 317 316 316 316 315 315 315 316 314 309 310 315 314 313 312 311 310 308 307 304 303 303 304 304 309 309 304 301 298 295 294 295 298 297 294 293 293 292 292 292 291 292 292 291 290 290 290
306 307 306 306 306 308 309 313 317 317 316 315 316 315 315 315 315 316 315 314 313 314 315 316 307 303 302 304 312 312 311 309 309 308 306 304 302 302 303 305 306 303 302 300 298 293 293 293 293 294 296 297 298 293 292 291 291 291 292 292 292 291 290
306 306 308 308 307 308 309 309 310 313 315 315 315 315 314 315 315 315 315 314 314 314 314 309 303 301 300 299 302 311 310 309 308 307 306 304 303 302 303 304 303 302 300 299 298 296 295 294 292 292 292 292 293 293 294 294 292 291 290 290 290 290 290
301 302 305 304 304 303 303 303 305 307 309 314 316 315 315 315 315 315 314 313 313 313 312 307 301 300 299 298 298 306 310 309 307 306 305 304 303 302 302 303 302 302 303 306 305 297 295 295 294 293 293 293 293 292 290 290 292 294 292 291 291 291 291
301 301 302 301 301 300 301 300 303 303 303 305 307 310 313 314 314 313 314 313 313 311 310 305 300 299 299 297 296 302 307 307 306 305 305 304 304 302 302 302 302 301 301 303 302 300 298 296 295 294 293 292 292 294 293 292 291 291 292 292 291 291 293
301 302 301 300 300 301 301 302 302 302 302 303 305 305 306 306 308 309 309 311 310 307 307 296 294 295 295 295 296 300 304 304 303 303 304 303 301 300 300 303 301 300 301 301 301 300 299 297 295 296 293 293 293 293 294 293 293 293 293 293 292 292 293
301 301 300 300 300 300 299 300 300 300 301 300 303 303 304 306 306 306 308 306 304 301 295 292 292 293 294 295 298 303 302 301 301 302 301 300 299 299 300 300 300 299 299 300 299 295 297 298 294 293 293 292 292 292 292 296 295 295 296 295 294 294 294
300 300 300 300 300 300 300 300 299 300 299 298 299 301 304 303 303 305 304 303 301 296 292 292 292 293 294 295 297 300 300 298 298 298 298 299 299 300 301 301 300 299 299 299 296 292 293 295 293 292 292 291 291 291 292 294 294 294 292 292 291 291 291
300 300 300 300 299 299 300 299 299 299 300 299 299 300 302 303 303 303 303 302 300 295 290 291 292 293 294 295 297 299 298 298 296 296 298 300 300 300 303 307 304 300 297 295 289 289 290 293 291 290 290 289 289 288 289 291 293 292 292 292 291 291 291
300 300 300 300 301 301 300 300 299 300 299 299 299 300 302 301 297 297 299 299 300 294 290 291 292 292 293 295 298 298 298 297 296 296 297 298 300 300 295 294 295 295 293 290 288 289 289 291 289 288 288 287 287 286 288 287 287 287 287 288 288 289 289
299 299 299 298 299 300 299 301 301 300 299 299 300 298 297 297 296 294 295 297 296 292 290 289 291 291 292 293 295 299 298 296 294 293 293 294 294 294 293 291 291 288 288 288 288 288 288 289 288 288 287 285 285 286 287 287 288 287 286 286 286 287 288
299 299 299 300 301 300 300 300 300 301 300 300 298 295 296 295 295 293 293 292 291 290 291 289 289 291 292 293 293 294 295 293 292 291 291 291 291 292 291 290 290 289 288 288 288 288 289 288 289 287 286 285 286 288 289 286 287 289 286 286 287 287 287
299 301 300 300 299 300 300 300 300 301 300 299 296 295 293 293 293 291 291 290 289 289 292 292 289 290 290 292 292 293 292 292 293 292 290 290 290 292 292 291 290 289 288 288 288 288 289 288 288 288 287 288 288 288 288 288 287 286 286 286 285 285 286
299 302 301 300 299 299 299 299 300 299 300 297 296 294 293 292 291 290 289 289 288 289 289 290 290 289 289 290 290 291 291 291 290 293 291 290 292 292 293 292 292 290 288 288 288 288 288 288 289 287 288 287 288 288 288 286 286 285 284 284 285 285 285
298 298 298 299 299 298 299 299 298 300 297 297 295 293 292 292 291 289 289 288 289 288 288 288 290 290 289 289 289 288 288 289 291 293 293 292 292 293 293 293 292 289 288 288 288 288 288 288 287 288 288 288 288 288 286 286 284 285 284 284 284 285 287

ECMWFFLT1_sfc_thetae_024.txt.gz
Theta_e
313 313 314 313 313 314 315 314 314 313 315 316 315 314 313 315 314 314 315 315 316 317 319 317 316 317 319 320 320 319 320 319 317 318 318 321 318 317 319 319 320 322 322 319 315 313 309 309 312 315 320 322 323 325 326 327 327 328 326 328 329 331 330
314 315 315 316 315 314 312 311 312 312 312 312 313 313 312 314 316 312 311 312 313 315 317 315 314 315 315 315 315 314 314 315 317 318 318 316 316 316 319 318 319 319 319 317 316 315 311 308 309 310 312 315 320 324 324 325 326 327 327 328 330 331 330
315 315 315 314 314 312 311 309 309 309 310 310 310 311 312 312 312 313 312 312 313 315 315 312 312 313 313 313 313 312 312 311 312 313 313 311 311 312 315 317 318 319 316 312 311 313 313 311 309 310 307 304 305 310 318 323 325 324 324 326 328 330 330
314 314 314 314 313 310 309 308 308 308 309 309 310 309 310 312 314 315 313 313 314 316 313 312 312 313 311 311 311 311 310 310 309 309 310 309 309 309 310 310 311 313 309 306 306 307 307 305 304 305 305 306 305 304 308 319 324 325 325 326 326 325 327
315 314 314 313 312 310 309 309 308 309 308 309 308 308 309 311 312 310 312 310 311 310 312 312 311 311 311 311 310 310 310 309 309 310 308 307 307 307 307 307 307 308 308 307 308 307 306 306 305 304 304 305 304 305 307 308 321 323 323 324 327 329 328
314 314 314 313 312 311 310 310 309 308 308 309 307 307 309 309 310 310 310 310 310 311 310 310 309 311 311 311 311 310 309 308 307 307 307 305 306 306 306 306 307 307 307 306 307 306 305 306 304 301 303 305 303 303 304 305 306 307 309 310 315 326 327
314 313 313 313 312 312 312 310 309 309 309 308 308 308 309 309 310 311 311 310 309 310 311 310 310 310 311 311 310 310 309 307 308 307 306 305 305 305 305 304 305 305 305 307 305 306 305 304 301 301 302 301 302 302 303 304 306 305 307 309 311 312 317
315 314 313 314 313 313 311 310 310 310 310 310 309 310 310 310 310 309 309 309 309 310 311 311 313 311 311 311 310 309 308 308 308 308 306 306 307 305 305 304 306 306 305 305 305 306 306 305 304 303 301 300 298 298 301 303 304 305 305 307 310 309 310
316 315 315 314 313 314 312 311 310 310 311 311 311 311 310 310 309 310 309 308 308 309 309 310 309 310 308 308 307 308 308 312 309 307 305 305 305 304 303 303 305 304 305 305 306 305 305 306 306 303 303 300 298 297 298 298 300 302 306 306 307 309 309
316 315 315 315 314 314 313 312 311 311 311 312 312 312 311 309 310 309 309 308 308 307 308 309 309 307 308 309 308 306 306 307 309 305 305 305 303 303 303 302 302 303 304 304 304 305 305 304 305 304 303 302 301 297 296 296 297 299 303 306 305 306 308
316 316 316 316 315 315 313 313 311 312 312 313 313 314 312 310 310 315 309 308 307 307 308 307 308 308 308 308 306 306 306 307 307 306 307 305 305 305 304 303 302 302 302 303 303 305 306 303 302 303 302 302 302 300 298 296 296 298 302 303 306 304 306
317 316 316 316 316 315 314 314 313 313 312 313 313 313 312 311 311 309 309 308 308 308 307 307 308 308 308 307 306 306 305 305 305 304 306 306 306 305 303 304 302 303 303 303 303 303 303 304 304 304 302 303 303 300 299 298 295 297 303 302 302 305 305
318 318 316 315 316 316 314 315 314 313 313 314 312 313 313 312 311 310 309 310 309 308 308 308 307 307 307 308 308 307 305 306 305 304 305 305 307 304 303 302 302 302 302 302 302 303 302 302 305 303 303 303 302 302 300 299 297 298 300 302 302 303 305
317 317 317 315 316 316 314 315 315 315 314 313 312 313 313 312 312 311 310 311 311 310 309 308 306 306 307 306 306 306 306 307 305 303 304 304 305 304 305 304 304 304 302 302 302 303 303 302 301 302 303 301 300 301 301 299 297 298 298 300 302 304 305
317 316 316 315 315 315 314 314 315 315 314 314 314 314 315 314 313 312 311 310 310 311 310 310 308 307 308 306 305 308 306 307 305 304 303 303 303 305 302 303 304 303 303 302 301 303 302 301 300 300 300 301 299 301 300 300 297 297 296 299 301 303 302
317 317 317 316 316 317 316 316 317 315 314 314 314 314 315 315 314 313 313 312 310 310 311 310 310 308 308 308 306 307 307 306 305 305 303 302 303 303 302 303 301 304 305 301 301 301 301 301 301 300 300 300 300 300 301 300 298 296 296 297 298 300 300
315 316 316 316 317 317 317 316 317 316 316 315 315 314 313 314 314 313 313 313 312 311 311 310 310 309 308 308 307 307 307 305 305 306 305 303 304 303 302 302 302 303 303 301 301 301 301 301 301 300 299 299 298 298 299 299 299 297 295 296 295 298 300
313 313 315 317 317 316 316 316 316 316 316 317 316 316 315 315 314 314 313 312 313 312 312 311 311 310 309 308 308 307 307 306 305 305 305 304 307 304 303 303 303 304 302 301 301 300 300 300 300 298 296 297 297 297 298 297 296 296 294 294 295 296 297
313 315 315 314 315 315 316 316 315 314 313 316 316 315 315 315 315 314 313 312 312 313 313 312 311 311 310 309 309 308 308 306 306 306 305 304 306 304 304 304 303 303 301 301 300 299 299 298 297 295 294 295 296 296 295 295 295 294 294 293 293 294 294
314 314 314 314 313 312 313 314 314 314 315 316 315 314 313 313 313 313 313 312 312 311 312 312 312 311 310 309 309 308 308 306 306 306 305 305 305 304 304 304 302 302 301 301 300 299 298 297 297 295 296 295 295 294 294 293 293 292 292 291 291 292 292
312 313 314 313 312 312 313 312 313 312 313 313 313 313 314 315 314 314 314 314 314 313 312 312 313 313 312 311 309 308 308 307 306 306 305 305 304 304 304 304 303 302 302 301 301 300 299 296 296 294 295 295 293 292 292 292 291 291 290 290 289 289 290
306 309 312 312 311 310 311 311 312 311 310 311 312 312 312 313 313 312 312 313 313 312 313 313 314 313 313 312 310 309 309 308 307 306 305 305 303 303 303 303 302 302 304 306 302 301 299 298 294 292 295 294 292 291 290 290 291 289 290 290 290 290 290
304 304 304 305 305 306 309 311 310 310 311 310 309 309 310 310 310 311 312 312 312 312 313 313 313 308 309 313 312 311 310 309 308 307 306 304 303 303 303 302 305 310 307 303 298 295 295 297 298 294 293 293 293 290 290 290 289 290 290 290 289 289 289
303 302 301 301 302 303 305 309 309 310 310 309 309 309 310 310 310 311 311 311 311 312 313 314 306 302 301 304 312 311 310 310 309 308 307 305 303 303 302 303 305 306 303 300 296 294 293 294 295 295 296 296 295 292 290 290 290 290 292 290 290 288 288
303 303 303 302 303 303 304 305 306 307 308 309 310 309 309 311 310 309 310 310 310 311 312 309 303 301 299 298 303 312 311 310 309 308 307 306 305 304 303 303 303 302 298 297 296 295 295 293 293 293 293 293 294 294 295 293 292 290 289 289 289 289 287
301 300 300 302 302 302 302 303 303 303 305 308 308 308 310 307 309 309 308 309 310 311 311 306 302 300 299 298 297 303 310 308 307 307 306 305 304 303 303 303 301 301 300 304 303 297 296 295 293 293 293 293 292 291 290 290 293 294 290 289 289 288 288
297 298 299 299 298 298 297 298 299 299 300 300 303 304 305 306 306 306 308 309 310 309 309 306 301 299 299 298 296 297 308 308 307 306 306 304 304 303 303 302 301 300 301 302 300 298 298 298 297 295 293 291 292 294 293 291 290 290 292 292 290 289 290
298 298 297 297 296 296 296 296 296 296 296 298 299 300 300 302 304 305 305 307 307 307 303 295 296 297 296 296 295 294 304 305 304 303 303 302 302 302 302 303 302 300 300 301 302 299 298 297 296 295 292 291 292 292 292 292 291 291 291 290 290 290 290
297 297 296 295 296 296 295 297 298 297 295 294 295 296 297 298 299 300 301 303 304 301 291 292 293 294 295 294 295 300 300 300 300 300 300 300 301 301 302 301 301 300 301 301 299 295 297 296 295 295 294 293 291 290 290 294 293 292 292 290 290 291 290
297 296 296 296 297 296 297 297 296 296 295 293 294 295 294 296 297 300 299 301 300 292 290 291 292 292 293 294 297 298 298 298 298 298 298 299 300 299 299 299 299 299 298 296 293 291 292 295 294 293 292 290 289 288 289 291 292 291 291 291 290 290 290
296 296 295 296 295 295 295 295 295 295 298 296 295 294 294 297 294 296 298 299 299 295 290 292 293 293 294 295 297 297 296 296 296 297 298 299 298 297 300 305 302 298 294 293 290 290 291 292 289 288 288 287 286 285 287 287 290 290 291 291 290 290 290
296 296 296 294 295 295 295 296 296 295 295 295 295 293 295 294 293 292 294 296 301 294 289 292 293 293 294 294 297 296 296 296 296 297 297 295 294 293 293 295 297 294 292 291 289 289 289 290 287 287 286 285 285 284 285 285 285 285 286 286 286 287 288
296 295 295 294 294 296 295 296 297 298 295 295 294 291 291 290 289 289 291 290 292 290 290 290 292 292 294 294 295 297 296 295 294 293 293 293 292 291 291 291 291 289 289 288 288 288 289 289 287 287 286 285 285 284 284 285 286 285 284 285 284 284 286
296 295 295 296 295 295 295 296 295 297 296 293 291 291 290 289 289 289 288 288 287 288 290 289 290 292 292 293 293 294 293 292 291 291 290 290 290 290 289 288 289 289 288 288 288 288 288 289 290 289 288 286 286 287 288 284 285 289 284 284 285 286 286
296 297 296 297 296 296 295 295 295 295 293 291 291 290 288 288 288 287 287 287 287 287 291 293 290 291 291 292 292 292 292 291 291 291 290 290 289 288 288 288 288 288 288 288 288 288 288 288 288 292 288 288 288 287 285 286 285 284 284 285 283 284 284
296 298 298 296 296 295 295 296 295 293 292 291 290 289 287 286 286 286 286 286 286 286 287 290 291 291 291 291 290 290 290 290 290 292 290 289 288 289 289 289 290 290 288 288 288 288 288 288 289 287 288 287 287 287 287 285 284 284 283 283 283 283 283
295 295 295 295 294 294 294 294 294 295 293 292 290 289 287 287 286 286 285 285 286 286 286 287 290 291 290 289 289 289 289 290 291 291 291 289 290 291 290 290 290 289 288 288 288 288 288 288 286 287 287 287 287 288 286 284 283 284 283 282 282 283 284

ECMWFFLT1_sfc_thetae_027.txt.gz
Theta_e
311 311 310 310 310 313 311 310 310 310 310 311 311 311 313 315 314 314 314 315 315 316 318 315 314 315 318 319 317 316 318 317 317 319 320 322 318 317 319 316 318 320 320 317 313 312 308 308 312 316 316 317 322 323 324 324 324 323 324 326 328 329 329
311 313 312 312 311 310 309 308 309 308 309 309 310 311 311 313 315 312 312 313 313 314 316 314 313 313 312 311 311 312 312 312 314 315 318 319 317 317 318 317 318 317 316 314 314 313 309 307 308 309 310 312 313 314 316 320 322 323 325 326 328 329 328
312 310 310 309 309 307 307 306 307 308 308 308 309 309 310 310 311 312 312 312 312 314 314 311 311 311 310 310 308 309 309 310 310 312 311 308 310 314 317 317 317 316 310 307 307 310 310 309 308 307 307 303 304 307 310 316 320 321 323 324 324 326 326
312 312 312 309 308 307 306 306 306 306 307 307 308 309 310 311 312 313 311 311 312 316 313 311 309 309 307 308 308 308 308 307 307 307 308 307 308 308 310 313 313 312 307 305 306 306 305 303 302 303 303 304 305 303 306 309 310 309 312 321 324 322 323
313 313 312 311 308 306 305 305 306 306 306 306 306 307 308 308 311 309 310 309 310 309 309 309 309 309 309 309 308 308 307 306 306 308 305 305 305 306 306 306 306 307 307 306 306 306 306 305 304 302 302 303 303 303 306 306 307 307 308 310 315 320 321
313 313 312 310 308 307 306 305 305 305 305 305 306 307 306 306 309 308 308 309 309 310 308 308 307 308 309 308 309 308 307 306 305 306 305 303 304 304 303 303 304 305 305 303 305 305 304 303 302 299 301 303 302 302 303 303 304 304 307 307 307 308 309
313 313 312 312 309 307 307 306 305 306 305 304 304 306 307 306 307 309 308 307 307 307 308 308 308 308 308 308 307 307 306 304 305 305 304 303 303 302 302 304 303 304 302 303 302 303 301 301 299 299 299 299 298 301 301 303 304 304 305 307 307 307 307
315 314 313 312 309 308 306 306 305 306 305 304 305 306 308 306 306 306 306 307 307 308 309 309 310 308 308 308 307 306 306 304 305 306 303 304 304 302 302 303 304 303 303 302 302 304 304 303 302 301 298 297 296 297 299 300 301 303 303 304 307 307 307
316 315 313 313 310 308 308 308 306 306 306 306 305 306 307 307 306 306 307 306 306 307 308 307 307 307 305 306 305 306 307 308 305 303 302 302 302 301 301 301 303 301 301 302 303 302 302 302 303 300 301 297 293 294 296 297 298 300 303 303 304 306 306
314 314 314 313 311 310 308 307 308 307 307 307 307 308 306 306 306 305 305 305 306 307 306 306 306 305 306 307 306 305 305 303 305 303 302 303 300 301 301 301 301 301 301 301 302 303 302 301 302 301 301 300 297 294 293 293 295 298 301 303 302 303 306
315 315 315 314 313 312 309 308 307 307 308 308 308 310 307 306 306 312 305 304 304 305 306 305 305 304 305 304 304 304 304 304 305 303 304 303 301 302 302 301 301 301 300 302 300 301 302 300 301 302 301 300 299 298 295 294 295 296 300 300 303 302 304
315 316 315 315 314 313 312 310 308 309 308 308 310 309 306 306 306 306 305 304 304 305 304 305 305 306 305 304 304 304 303 303 303 303 302 304 303 303 301 301 300 301 300 301 301 301 301 302 301 300 300 302 301 299 296 294 293 295 301 300 300 302 303
316 316 315 315 314 314 314 312 311 308 310 311 310 309 308 307 307 305 305 305 305 304 304 304 304 304 304 304 305 305 303 303 303 303 302 302 304 302 301 301 300 299 300 301 301 301 300 300 301 300 300 300 299 298 297 295 294 296 297 300 300 301 302
315 316 315 316 315 315 314 313 312 311 310 311 310 310 310 309 308 307 306 307 305 305 305 305 304 304 304 303 303 303 302 302 303 302 302 302 303 301 302 301 301 301 300 301 299 301 300 299 300 300 300 299 299 299 298 295 294 295 296 297 299 300 301
313 314 315 315 316 315 313 313 313 310 311 312 311 311 311 310 309 308 307 306 306 306 306 306 304 305 306 304 303 305 304 302 302 302 301 301 302 302 301 301 301 301 300 300 299 300 299 299 299 299 299 299 297 298 297 297 295 294 294 296 298 298 298
313 314 316 316 315 314 313 313 314 313 312 312 312 311 312 311 310 309 309 309 309 308 307 306 305 305 305 305 305 303 304 302 302 301 301 300 301 300 300 301 299 300 301 300 299 299 299 299 299 298 298 297 297 297 298 297 295 294 293 294 295 296 297
314 313 314 315 314 315 315 315 315 315 314 312 311 311 311 312 312 310 311 311 310 309 308 307 307 305 306 306 306 306 304 303 303 302 302 301 301 301 301 300 299 300 300 299 298 298 299 299 298 297 296 296 296 296 296 296 295 294 293 292 292 295 296
313 312 312 313 313 315 315 315 315 316 315 314 314 314 313 313 312 312 311 310 309 309 309 308 308 307 306 305 305 306 305 304 303 304 304 302 305 301 301 301 301 301 299 299 298 298 298 297 296 295 295 295 295 296 296 295 294 293 291 289 291 292 293
312 312 312 312 312 314 314 314 313 313 314 315 315 314 313 313 314 313 311 310 309 310 310 309 308 308 307 306 305 304 305 305 304 304 304 303 303 302 302 301 302 302 300 300 299 299 297 295 294 294 294 294 294 293 292 291 291 291 290 289 289 290 290
311 312 313 313 312 314 314 313 312 312 313 313 313 313 313 314 314 314 313 312 312 311 310 310 310 309 308 307 307 306 305 304 304 304 305 304 304 303 302 302 302 302 301 300 300 298 296 295 296 294 295 293 292 291 291 291 291 290 290 290 289 289 290
311 310 312 312 311 312 312 311 312 312 312 312 312 312 313 313 314 312 313 313 313 312 312 311 311 310 309 308 308 307 307 306 305 304 304 305 305 304 303 303 303 303 302 301 301 299 297 295 294 294 293 293 291 291 290 290 290 289 290 289 288 288 288
311 311 312 311 311 311 312 313 311 310 311 312 313 313 314 314 313 311 310 310 310 310 309 311 313 312 312 311 309 308 308 308 307 305 305 305 305 305 304 304 303 302 304 306 304 302 299 296 293 292 293 291 291 290 290 290 290 289 288 289 289 288 288
310 310 309 310 311 312 312 312 311 310 311 312 310 310 311 312 312 312 310 309 308 308 309 310 311 307 308 311 310 310 309 308 308 307 307 306 305 304 305 304 305 308 307 305 301 297 295 295 297 295 293 292 292 290 289 289 289 289 289 288 288 287 288
306 309 309 309 308 308 309 310 309 309 309 309 310 309 310 311 311 310 309 308 308 309 310 311 305 302 300 303 310 309 308 308 308 308 307 307 306 305 304 304 304 307 305 303 299 294 294 294 293 294 295 295 295 292 290 289 289 288 291 289 288 287 287
302 303 302 304 302 302 303 304 307 309 309 309 309 308 308 309 308 307 308 308 308 309 309 307 303 302 299 298 302 308 308 309 308 308 308 307 307 306 304 303 304 304 300 297 294 294 294 293 293 293 292 293 293 293 294 292 291 289 287 288 287 287 286
301 300 300 301 301 301 302 302 301 301 302 303 303 305 306 305 306 306 307 307 307 307 307 305 301 300 299 298 297 301 308 308 308 308 307 307 306 305 303 303 303 302 300 303 300 296 295 295 294 293 293 293 293 292 292 292 294 292 289 288 288 287 287
296 296 296 296 296 296 297 297 296 296 297 297 298 300 299 301 301 301 302 303 304 303 303 301 296 296 296 296 295 296 303 305 306 306 306 306 306 304 302 302 300 299 300 301 298 298 297 296 295 295 294 293 292 293 292 291 290 290 292 290 288 288 288
295 295 294 295 294 294 294 294 295 295 294 295 295 296 296 297 298 299 299 301 300 301 302 293 293 294 295 295 294 294 299 301 301 301 302 302 301 301 301 302 300 299 300 299 299 298 298 298 296 295 293 292 290 289 289 289 289 288 290 289 288 288 288
295 294 294 293 294 293 293 293 294 295 292 292 292 291 292 293 294 296 296 296 299 299 295 293 293 294 294 295 294 296 296 298 298 297 296 297 298 299 301 301 300 299 300 300 299 295 297 298 297 295 294 290 288 287 289 293 292 293 292 289 287 287 287
295 294 293 293 293 293 294 293 292 293 291 290 292 292 293 294 293 292 296 295 297 295 291 292 292 293 293 293 295 295 295 296 295 295 294 294 295 296 298 298 299 299 300 297 293 292 293 295 294 292 289 286 287 286 287 289 291 291 291 291 290 291 290
296 295 293 294 294 292 293 294 293 294 294 292 293 293 293 291 291 292 294 295 294 295 292 291 292 292 292 294 296 295 294 294 293 294 293 292 293 294 299 304 300 296 294 293 290 290 291 294 292 290 289 287 285 284 284 285 287 288 290 290 290 289 289
294 295 295 294 293 292 293 294 294 291 292 293 292 291 292 291 289 289 289 290 298 291 287 290 293 291 293 293 296 295 295 294 293 291 291 290 290 290 291 295 296 294 293 291 289 289 290 292 291 289 287 285 285 283 283 283 284 284 284 285 284 286 286
295 295 295 293 293 294 294 294 293 291 290 291 291 288 289 288 288 286 286 286 288 287 288 288 290 292 293 294 294 295 295 294 292 290 290 291 290 290 290 291 292 289 289 289 289 289 289 290 289 287 284 283 285 285 283 283 287 285 283 284 283 283 285
295 295 294 294 294 294 293 293 291 292 291 289 289 288 288 287 287 285 285 285 285 286 290 287 289 292 293 293 293 294 292 292 291 290 290 290 289 289 289 289 290 289 289 288 288 288 289 289 289 286 285 285 285 286 285 282 284 289 284 284 284 284 285
295 297 294 294 293 294 293 291 291 292 290 289 289 287 286 286 285 284 284 285 285 284 290 294 288 291 291 292 291 292 291 289 290 290 288 288 287 288 288 289 289 289 288 288 288 288 288 288 289 290 288 288 287 287 285 287 284 284 283 283 282 282 283
295 296 295 294 294 293 292 292 290 291 290 288 288 287 285 285 284 284 284 284 283 284 285 289 291 289 290 290 290 290 290 290 290 291 289 288 287 287 288 288 290 290 288 288 288 288 288 288 289 287 288 287 287 287 287 285 284 283 282 282 282 282 282
294 293 295 294 292 292 291 291 291 292 289 290 288 286 284 285 284 284 284 284 285 284 284 285 289 290 289 289 289 289 289 289 290 291 290 288 287 288 288 288 289 288 288 288 288 288 287 288 286 287 287 287 287 288 286 284 283 283 283 282 282 281 282

ECMWFFLT1_sfc_thetae_033.txt.gz
Theta_e
325 322 324 324 325 323 323 323 324 325 326 329 331 331 332 333 334 333 333 333 332 332 331 330 328 328 329 328 329 330 330 330 329 328 327 326 323 325 327 327 326 325 327 327 327 324 321 315 313 318 320 320 320 321 325 328 331 332 334 335 333 336 339
325 324 324 324 322 323 322 323 324 323 325 326 326 328 329 330 331 332 333 332 332 331 330 329 329 329 329 329 329 329 329 329 330 329 327 325 325 324 324 323 325 324 323 324 325 327 321 316 313 315 315 318 317 316 317 321 325 327 327 328 331 333 333
324 324 324 323 322 323 322 322 323 324 325 325 325 325 326 327 328 329 329 330 331 330 328 329 328 329 330 330 330 330 330 329 329 330 327 326 326 326 327 325 322 321 321 320 321 322 322 320 313 312 315 314 310 312 316 316 317 320 321 322 323 323 324
324 324 322 322 321 322 321 321 322 323 324 324 325 325 325 325 327 327 328 328 329 328 326 326 328 327 328 328 327 328 328 329 328 327 326 327 325 324 325 325 325 323 322 319 318 317 316 314 312 311 313 312 310 310 314 314 314 314 314 316 315 315 317
326 324 323 322 321 321 321 320 320 322 322 323 324 324 324 324 326 326 326 326 325 326 325 326 326 326 325 324 324 324 323 323 325 326 326 324 323 323 324 324 322 322 320 318 318 320 317 316 315 312 311 311 310 310 313 314 314 314 313 312 313 314 314
327 326 324 323 323 321 321 320 320 319 320 321 321 322 321 323 324 325 326 325 324 325 324 323 323 323 323 322 323 322 323 323 323 323 320 321 322 319 318 320 318 318 317 319 319 319 322 320 317 312 312 314 310 309 311 313 311 312 312 311 312 312 313
326 327 325 322 323 322 322 321 320 320 320 321 321 321 321 322 322 322 323 323 322 322 322 323 322 322 323 320 322 322 321 321 322 322 320 321 321 321 321 317 318 316 317 319 318 318 318 319 316 314 312 313 312 309 310 311 312 309 309 310 311 312 312
326 325 324 324 322 322 322 322 322 322 321 321 320 322 322 322 322 323 323 323 322 322 322 322 321 321 321 321 320 321 320 320 320 320 319 320 319 319 320 318 317 317 317 316 316 316 315 317 317 316 313 309 309 310 308 309 309 309 307 308 310 310 311
324 325 323 322 323 324 323 322 322 322 322 321 322 323 322 323 322 322 322 322 322 322 321 320 320 320 321 321 319 320 318 318 320 319 318 318 319 319 318 319 316 314 317 315 315 316 315 316 317 318 317 313 309 306 309 308 308 306 309 307 307 308 309
324 324 323 323 322 322 321 322 323 322 323 323 322 324 323 323 323 323 322 322 323 323 322 321 320 320 320 320 319 318 318 318 319 317 319 318 318 318 317 319 316 315 315 317 317 317 318 318 316 316 315 314 312 308 306 306 307 306 305 307 304 304 306
325 325 324 323 324 322 321 319 320 320 322 322 323 323 324 323 324 322 323 322 323 323 322 321 320 320 320 319 319 318 317 319 318 318 318 317 318 318 317 316 316 315 318 318 316 319 319 318 316 315 314 315 316 310 309 306 305 309 307 306 306 303 303
324 325 325 325 324 323 320 318 318 322 323 322 322 323 322 322 322 321 323 322 322 322 321 321 321 320 320 318 319 317 317 319 316 316 317 318 317 317 316 315 316 315 318 318 318 317 318 318 316 314 313 313 314 316 313 309 304 306 311 305 304 304 303
323 323 324 324 323 323 320 318 319 321 323 323 323 324 322 321 321 320 321 321 321 321 320 320 320 321 321 319 318 317 317 318 315 315 315 316 314 316 315 314 315 314 316 315 315 316 314 316 317 313 313 312 311 314 313 310 308 305 308 304 303 303 304
323 323 323 324 324 324 322 319 321 322 321 322 322 322 321 320 319 320 319 319 319 320 320 320 320 321 320 320 319 318 316 316 314 315 315 315 315 315 313 313 313 314 316 315 314 313 312 312 313 313 312 309 309 312 312 310 307 305 306 305 304 302 304
324 323 324 324 325 325 322 321 321 320 321 321 322 321 321 321 321 319 319 318 319 318 318 318 318 319 318 319 320 319 318 315 315 315 316 313 315 314 315 312 311 314 314 312 314 310 310 310 309 307 307 306 305 307 311 307 306 305 303 304 302 303 303
323 324 324 324 324 324 323 321 320 321 321 321 321 322 321 322 321 320 319 320 319 319 318 318 319 318 318 317 317 318 319 317 316 315 315 314 313 314 314 314 313 314 315 314 314 313 313 310 309 306 307 305 304 305 304 305 304 302 302 300 304 301 303
324 324 323 324 324 324 324 323 322 321 321 322 321 322 323 322 321 321 321 320 320 320 320 320 319 319 318 318 317 316 317 317 316 317 315 314 314 315 315 314 314 314 314 313 312 312 312 312 310 306 305 305 305 303 305 306 305 303 302 301 302 301 302
323 324 325 324 325 324 324 325 323 321 322 322 323 322 322 321 322 321 322 321 320 320 320 320 319 320 321 320 317 316 316 316 316 316 316 317 316 316 315 315 314 313 313 312 313 311 311 310 307 306 304 303 302 303 304 304 303 303 304 303 302 303 304
322 323 324 324 325 325 325 324 323 323 323 322 322 322 321 322 322 321 320 320 321 321 321 321 320 320 320 319 319 318 317 316 317 317 317 317 316 317 316 315 315 314 313 313 313 313 311 310 307 306 304 302 301 304 304 304 305 305 303 303 304 303 304
323 324 324 324 325 324 324 325 324 323 323 323 323 322 320 319 320 320 321 322 321 320 320 320 321 321 320 319 318 317 317 317 316 315 315 317 318 318 316 316 316 315 313 314 314 313 312 310 308 306 306 305 302 304 304 303 303 304 304 303 303 304 303
324 324 324 324 323 323 324 324 324 324 323 322 322 322 321 320 321 321 321 322 322 321 320 321 322 322 321 321 320 319 319 319 318 317 316 316 317 318 317 317 317 316 313 315 315 314 312 310 309 306 306 305 305 304 303 303 304 303 304 304 303 303 302
323 323 322 321 321 321 322 322 322 322 322 323 323 323 322 322 321 320 321 322 321 322 322 322 323 323 323 321 320 320 320 319 318 317 317 317 317 317 317 317 317 316 315 313 308 309 309 308 308 304 304 305 305 305 304 304 304 303 304 304 304 304 303
321 321 320 320 321 321 321 321 321 321 321 322 323 323 323 323 323 322 320 321 321 320 320 322 317 308 310 320 320 319 319 319 319 318 318 319 319 318 318 318 318 313 309 308 304 300 299 299 303 306 305 305 304 304 304 304 303 303 304 304 303 303 303
320 320 320 320 319 320 320 321 321 321 321 322 321 320 322 321 321 321 320 320 320 321 322 321 306 301 299 301 316 321 320 320 319 319 319 319 319 320 320 318 318 314 310 307 306 297 296 295 296 297 298 300 303 306 305 303 302 302 302 303 303 303 302
319 319 319 319 320 320 321 321 321 321 321 321 321 321 320 320 320 321 321 321 321 322 322 309 301 299 298 295 301 319 321 321 320 319 320 319 319 319 319 319 317 317 315 314 313 308 299 294 293 293 293 293 292 292 296 304 303 301 301 302 303 303 302
317 318 318 318 319 319 319 320 321 320 320 321 320 318 320 320 320 320 320 320 320 321 322 301 294 295 296 295 294 304 321 322 321 321 320 320 320 319 319 318 318 316 314 309 310 310 306 301 294 293 293 293 292 291 289 290 293 304 304 302 302 302 302
315 316 316 317 317 317 317 317 319 320 319 317 315 315 314 316 317 318 318 319 319 319 320 297 295 294 294 292 292 296 321 323 323 322 321 320 320 320 319 319 318 317 315 313 313 309 306 304 301 301 302 304 301 297 293 291 291 292 299 302 302 302 304
310 311 311 312 314 314 314 314 313 314 314 314 315 314 314 316 315 315 314 314 316 315 313 292 293 292 292 292 291 295 317 318 319 320 319 318 317 317 318 318 318 317 315 314 312 307 306 304 304 304 303 301 300 300 301 302 303 304 303 304 304 304 303
307 308 309 310 311 312 312 312 312 312 312 313 313 313 313 315 314 313 311 312 314 313 309 291 291 292 292 291 292 310 313 314 317 316 314 312 312 313 314 315 316 315 313 312 300 295 300 305 305 303 301 300 300 300 299 294 292 294 300 303 303 302 302
308 309 308 307 307 310 311 310 310 311 312 312 312 312 312 311 310 309 307 308 313 313 310 296 290 291 292 291 299 316 316 315 313 311 310 309 310 311 312 312 312 312 310 309 296 292 294 298 305 303 303 302 301 301 299 297 292 291 290 290 289 289 289
308 307 307 308 307 307 307 307 307 307 308 308 310 311 309 307 307 309 311 313 313 315 311 297 291 292 291 291 304 317 315 313 311 309 307 307 308 308 305 302 306 310 308 305 291 292 292 302 306 305 304 301 298 296 295 295 295 294 290 290 289 288 289
306 307 306 307 308 307 307 308 308 308 311 311 310 309 308 309 308 307 307 307 300 310 311 301 291 291 291 292 305 316 313 312 309 308 306 304 305 305 303 299 296 301 303 297 290 291 293 302 307 305 303 301 299 297 295 295 296 296 297 297 298 298 295
309 309 308 309 307 306 307 308 308 309 310 311 309 308 308 308 308 305 303 304 304 306 308 307 299 291 292 293 297 313 313 311 308 306 306 304 303 303 302 300 295 289 289 289 289 289 290 294 303 303 301 299 297 294 294 295 296 297 297 297 298 297 297
307 309 311 311 308 308 309 309 309 308 309 308 308 307 307 305 304 303 301 302 304 304 305 307 302 291 292 293 293 300 312 311 308 306 304 303 303 302 300 299 298 290 289 289 289 289 289 290 293 300 300 299 298 296 295 297 295 291 297 296 296 296 296
306 308 308 309 309 309 308 308 307 307 306 306 306 305 303 301 301 300 299 300 301 303 301 298 306 293 291 292 292 294 308 309 308 306 304 303 302 301 300 299 298 291 288 289 289 289 289 290 291 297 294 288 287 288 296 296 297 297 296 296 295 295 295
305 305 306 307 308 310 310 309 309 308 307 306 305 304 304 301 302 301 300 299 300 301 302 301 293 299 291 291 291 293 295 300 293 307 305 303 301 300 300 298 295 289 288 288 288 288 289 289 291 292 287 287 287 287 292 296 295 295 295 295 294 294 294
304 305 305 306 306 307 308 308 309 307 308 308 307 306 305 305 306 305 304 300 299 298 299 301 295 293 295 289 290 290 291 291 294 305 305 303 301 299 299 298 294 288 288 288 288 288 288 290 291 287 288 287 288 290 295 295 294 294 292 292 292 293 293

ECMWFFLT1_sfc_thetae_036.txt.gz
Theta_e
329 328 330 329 329 327 327 327 328 328 330 330 330 330 331 331 331 332 333 334 331 330 329 329 329 329 330 331 332 333 333 335 334 330 328 329 326 327 331 329 330 332 332 332 330 323 319 315 319 325 327 327 329 330 331 333 333 334 332 331 331 334 335
329 329 328 327 326 327 327 327 327 325 328 331 331 331 330 329 330 330 331 331 331 330 328 328 329 329 330 331 332 331 333 335 336 335 332 331 331 330 329 330 329 329 330 332 331 330 322 318 319 321 321 325 327 326 328 330 331 332 331 331 331 331 332
329 327 326 326 326 327 326 327 326 325 325 328 331 331 330 328 329 330 329 329 330 329 328 326 328 329 329 331 334 335 334 333 334 334 332 333 333 332 331 330 328 328 328 327 328 327 327 326 319 319 322 322 318 320 326 327 328 328 328 327 327 327 329
329 327 326 326 325 325 325 325 325 325 327 328 328 330 330 328 328 329 330 329 329 328 325 324 327 326 328 329 329 329 330 332 331 332 332 332 331 330 330 329 328 328 326 325 326 326 324 322 320 318 319 319 318 317 320 322 322 322 323 325 323 322 325
330 327 326 325 325 324 324 323 323 324 326 328 327 326 327 327 327 327 328 328 327 327 325 328 328 326 327 326 326 326 327 328 329 329 329 330 331 330 330 330 329 330 329 328 326 326 324 321 321 319 316 315 315 316 318 321 320 319 319 319 319 320 320
330 327 326 325 324 322 322 322 323 322 323 324 324 324 327 326 326 327 327 326 324 326 328 327 327 327 326 323 323 323 325 324 325 327 324 327 326 324 324 326 324 325 324 325 328 328 326 325 323 318 317 318 315 315 317 317 315 316 317 317 318 319 319
330 328 326 324 324 323 322 323 322 322 322 323 324 324 324 323 325 326 326 325 324 324 326 326 326 326 326 321 323 323 323 324 324 324 323 324 324 325 325 321 320 319 319 321 321 322 324 323 320 320 319 319 318 314 316 316 317 314 314 316 318 318 319
330 327 325 325 324 323 322 322 322 322 322 323 323 325 325 325 325 325 323 322 322 323 323 324 324 325 325 321 321 323 322 323 322 322 322 322 321 321 322 318 318 318 319 317 318 319 318 322 321 319 317 314 313 314 312 313 314 312 312 313 315 316 317
329 328 325 325 325 325 323 322 322 322 323 323 325 326 325 324 323 322 322 321 321 321 321 322 322 322 323 321 320 321 320 320 320 320 319 319 320 321 320 320 318 317 319 317 317 317 318 320 322 321 319 316 311 309 312 311 312 311 312 310 310 313 314
330 327 324 326 326 326 325 323 323 322 324 325 325 326 325 324 323 323 322 323 322 321 321 321 321 322 322 321 320 320 319 319 319 318 319 319 321 319 320 320 317 317 317 320 319 319 319 320 320 321 319 316 316 311 309 310 311 309 310 311 306 307 311
330 328 326 327 327 326 325 324 325 323 323 324 325 325 326 325 324 323 323 324 324 322 322 320 319 320 321 319 320 319 319 320 318 319 319 319 320 320 320 320 319 317 320 319 319 321 320 319 317 317 317 318 318 313 312 309 310 312 308 309 308 305 307
330 329 327 327 327 327 326 327 326 325 324 324 323 325 324 323 324 324 324 323 324 323 322 322 321 320 319 320 319 318 321 320 317 318 319 320 320 320 319 318 319 318 320 320 320 320 321 319 316 314 315 317 318 319 314 312 309 312 314 307 306 307 306
330 328 326 327 325 327 324 322 324 326 325 323 324 324 322 322 323 323 323 322 323 323 322 322 322 322 321 320 319 317 319 319 317 317 317 319 317 319 318 317 317 317 318 317 317 317 315 317 318 314 314 315 315 318 316 315 312 309 310 307 306 306 307
331 329 327 327 325 325 323 324 324 326 325 324 324 323 322 322 321 322 322 321 322 323 322 322 323 323 322 321 319 318 318 317 315 316 316 316 316 317 315 314 315 316 318 317 316 316 315 314 315 315 314 313 313 315 315 314 310 307 308 310 309 306 309
331 331 330 328 328 326 323 325 327 327 327 327 325 323 322 323 322 321 320 321 322 322 322 322 323 323 322 322 322 321 320 318 317 316 318 315 316 315 317 315 314 316 317 315 317 314 314 313 313 311 311 312 311 313 315 313 310 308 305 308 307 308 308
330 331 331 329 327 324 323 325 327 326 326 325 326 324 324 324 322 322 321 321 321 321 321 321 323 322 322 322 321 322 322 321 320 319 318 317 315 317 317 317 316 316 317 317 317 317 316 314 313 312 313 312 312 312 312 313 312 309 308 306 309 307 308
330 330 330 329 327 327 326 324 323 326 326 326 324 325 324 324 323 323 323 323 322 322 322 323 323 323 322 322 321 321 321 322 321 321 320 319 317 317 317 318 318 317 317 317 316 316 316 316 315 313 314 314 314 313 315 315 314 313 310 307 309 308 309
328 329 329 328 329 327 329 325 323 322 326 327 326 326 326 325 324 323 324 323 323 324 324 324 324 324 325 325 323 322 322 322 322 321 321 321 319 320 319 319 319 318 317 317 317 316 316 315 313 313 312 312 312 313 313 313 313 313 312 310 309 310 311
327 328 328 329 329 329 330 329 327 325 324 325 326 327 327 326 325 324 324 323 324 324 324 325 325 324 325 325 325 325 325 324 323 322 321 321 319 320 320 319 319 319 317 317 318 317 317 315 312 313 311 310 310 312 313 313 314 314 312 311 312 310 312
327 326 327 328 328 327 328 329 328 325 325 325 326 326 326 326 327 326 325 325 325 325 325 325 325 325 325 325 325 325 326 324 323 323 324 323 322 321 320 320 320 319 317 317 317 318 317 315 314 312 311 311 310 312 312 312 313 313 313 312 311 312 311
327 327 327 326 326 326 326 327 327 326 326 325 325 325 325 326 327 327 327 327 326 327 326 326 325 325 324 325 325 325 325 325 323 324 325 324 324 323 322 321 321 321 320 318 317 317 316 315 316 312 311 310 311 310 311 311 312 312 312 313 312 310 310
327 326 326 326 325 325 326 326 327 327 328 328 327 326 326 326 327 326 327 327 327 327 327 326 326 326 326 325 326 326 326 326 325 325 326 326 325 325 324 324 322 321 320 317 312 313 313 313 317 312 310 309 309 310 310 311 311 310 311 311 311 312 311
325 326 325 324 325 325 326 328 329 329 328 328 328 327 326 327 326 326 325 325 327 328 327 327 323 312 314 325 326 324 326 325 324 325 325 325 325 324 324 324 324 318 314 311 308 304 302 303 306 311 313 313 310 310 309 309 310 311 311 310 310 309 309
325 325 324 325 325 324 324 326 328 327 327 326 327 327 326 325 325 326 325 325 326 327 327 325 303 302 302 303 321 327 326 326 327 326 326 326 325 325 325 324 325 319 317 311 312 299 299 298 299 298 301 301 304 316 310 308 309 310 309 309 309 308 307
322 323 324 324 324 324 324 324 325 326 326 326 327 327 326 325 325 326 326 325 325 326 327 304 295 296 296 297 303 326 327 326 327 327 327 326 325 324 324 324 324 324 321 320 318 314 304 297 296 296 294 294 292 290 294 309 310 308 308 308 306 306 306
323 324 324 324 324 324 324 323 324 325 324 322 323 321 321 323 322 323 324 323 322 323 326 296 296 294 296 294 295 306 327 327 325 325 325 324 324 323 323 323 324 324 321 313 315 317 314 308 295 292 293 293 293 292 291 290 293 311 309 306 304 304 307
320 322 323 323 323 323 324 324 325 325 322 320 322 321 321 319 320 321 321 322 322 323 323 297 295 293 294 293 293 300 326 324 322 321 321 321 322 320 321 320 320 320 321 318 318 320 316 310 306 304 304 305 305 300 293 292 292 293 301 307 307 307 310
314 316 320 322 323 323 323 324 323 323 322 321 320 320 318 317 318 319 320 322 322 323 319 292 293 292 292 292 291 300 323 322 319 319 320 321 321 322 322 322 321 320 319 320 320 318 316 310 308 306 304 306 307 307 309 308 308 308 306 307 308 309 310
312 312 314 316 318 319 321 321 321 321 320 320 321 320 320 320 319 319 320 320 321 321 315 291 291 291 291 292 293 321 321 319 317 317 318 319 319 320 321 322 320 319 320 319 304 300 306 311 309 307 307 308 308 307 304 295 292 293 302 307 308 308 307
310 312 312 312 312 314 317 318 319 319 318 318 319 318 318 319 320 319 319 320 319 320 319 297 290 291 292 291 300 321 319 317 318 317 318 318 318 318 317 317 320 318 318 316 298 295 297 301 310 309 308 308 307 307 304 301 293 290 290 290 289 289 289
310 310 311 310 310 313 316 318 318 317 316 316 315 316 316 316 316 316 316 316 317 316 320 300 289 292 291 293 303 319 317 317 317 316 316 317 317 313 307 298 307 317 315 309 291 294 295 304 311 310 310 309 308 308 306 304 303 299 289 290 289 289 289
311 311 311 311 313 313 315 316 316 317 315 315 315 314 312 312 312 313 314 314 307 314 317 305 290 291 291 293 303 322 316 316 316 315 315 314 315 313 309 303 295 303 307 300 290 293 294 301 313 312 312 310 307 306 305 305 303 302 302 302 301 301 299
310 311 311 312 313 314 314 314 315 313 313 312 310 309 309 310 310 309 313 312 315 315 315 316 305 290 292 292 292 315 317 315 315 315 314 313 312 311 309 306 299 290 289 289 290 290 291 294 311 312 310 308 306 304 304 304 303 304 303 302 303 304 303
309 310 310 311 313 312 313 313 313 313 311 311 310 309 309 310 310 311 312 313 313 317 318 315 307 290 292 293 293 297 317 315 316 315 313 312 311 310 308 306 303 291 289 289 290 290 291 291 296 308 308 306 304 301 299 303 298 291 299 301 302 301 302
309 310 310 310 311 312 312 312 313 313 311 311 311 311 311 311 310 310 312 313 315 315 309 304 314 293 291 292 294 292 312 316 314 314 312 312 311 310 307 305 302 293 288 289 289 290 290 291 292 302 298 289 288 291 301 300 301 301 301 301 300 299 300
307 309 310 310 309 309 311 312 311 311 311 312 313 314 313 312 311 311 311 312 314 314 312 307 297 306 291 292 291 294 294 309 297 315 312 311 310 308 307 303 297 289 289 289 290 290 291 291 293 294 287 288 289 287 292 301 300 299 300 299 299 298 298
306 307 308 309 309 309 309 310 311 311 310 309 309 308 307 309 309 308 309 308 310 309 310 307 296 296 298 290 291 292 293 294 296 311 313 311 309 307 304 302 295 288 289 289 289 289 289 292 293 287 288 287 287 289 299 300 299 300 297 297 297 298 298

ECMWFFLT1_sfc_thetae_039.txt.gz
Theta_e
328 326 328 328 328 327 326 326 329 330 330 330 330 329 331 330 332 332 332 332 330 329 327 328 328 328 329 330 332 332 332 334 333 330 329 329 326 328 331 331 330 331 330 329 328 322 319 317 320 326 328 329 332 329 331 328 330 333 332 332 332 332 334
327 327 326 326 326 328 327 327 328 328 330 330 329 329 329 329 330 332 331 330 330 329 328 327 329 329 331 331 334 334 335 334 333 333 330 329 328 328 330 330 329 327 329 329 328 327 322 319 319 321 321 326 327 330 330 331 331 332 330 330 331 331 330
325 324 324 324 326 328 327 327 326 327 328 329 330 329 329 328 328 329 329 329 330 327 325 326 329 330 330 330 331 332 335 333 334 333 331 332 331 331 328 326 325 326 326 325 327 324 325 324 320 321 320 321 318 323 327 328 329 329 328 329 328 327 328
325 325 324 325 324 326 324 326 326 327 329 328 328 329 327 328 329 329 328 328 326 326 326 326 327 326 328 328 329 329 330 331 332 333 333 333 332 330 330 328 325 324 324 323 321 323 323 320 319 318 320 319 318 318 321 323 324 323 323 325 325 326 327
327 326 325 325 325 324 325 324 326 327 327 327 326 324 326 327 328 327 327 326 327 328 327 328 326 325 325 324 325 327 327 328 329 327 328 328 330 330 330 329 328 328 327 324 328 325 325 320 322 317 316 318 318 317 319 322 320 319 320 320 321 323 322
327 326 326 326 326 325 324 324 325 324 325 324 324 324 326 327 328 327 326 324 326 328 327 325 326 325 323 323 323 323 324 324 324 326 325 327 326 325 324 325 324 323 323 324 326 328 328 325 326 316 317 319 316 316 317 317 316 318 319 319 321 320 321
327 326 326 326 326 325 324 324 325 324 324 324 322 321 322 323 323 324 324 324 325 325 325 326 326 325 324 320 323 323 322 324 324 324 323 324 324 323 322 319 319 319 320 322 323 324 323 323 321 319 318 318 318 314 316 315 316 314 315 318 320 321 320
327 325 325 325 326 324 325 325 325 325 324 324 322 323 323 323 323 323 322 322 322 324 324 324 324 324 323 320 321 322 321 321 320 319 320 321 320 321 321 319 318 317 317 316 318 320 320 322 320 319 317 312 312 313 312 313 312 311 311 314 318 319 319
327 326 324 325 325 326 326 325 325 325 325 324 324 322 322 321 320 321 320 320 321 322 323 323 322 322 323 321 320 321 319 319 321 320 319 320 321 321 320 319 317 315 318 317 317 317 318 321 321 320 318 315 311 307 311 311 311 309 312 310 313 316 317
327 326 324 325 325 326 326 325 324 325 326 325 323 323 322 322 322 321 320 320 321 321 321 321 321 321 321 320 319 318 318 319 319 318 320 320 320 321 321 321 319 318 318 320 320 319 320 320 321 320 320 317 315 310 308 309 309 309 309 310 307 309 313
328 325 325 326 326 325 325 324 325 325 324 324 323 323 323 322 322 322 321 321 321 321 321 321 320 321 321 319 319 318 318 320 319 320 320 319 320 321 321 320 320 319 320 320 319 321 319 318 316 317 317 318 317 315 311 309 309 311 310 311 309 307 309
328 325 325 326 326 325 323 323 323 324 325 324 323 323 322 321 322 323 323 321 322 321 321 321 321 320 319 318 319 319 320 320 319 318 320 320 320 321 320 319 319 318 320 320 320 320 321 320 317 315 314 318 319 320 315 313 310 312 313 309 308 309 308
329 325 324 325 325 324 324 324 323 324 324 323 323 323 321 321 322 322 322 322 322 322 321 321 321 320 321 320 319 318 319 319 317 318 318 319 317 319 318 317 318 319 320 317 317 318 316 317 318 315 316 316 315 318 317 315 312 308 311 309 308 307 309
330 327 323 324 324 326 326 327 326 325 323 322 323 322 321 321 321 322 321 321 321 323 322 322 323 322 321 320 319 319 319 317 315 315 315 316 316 317 316 315 315 317 319 318 316 316 314 314 315 316 316 315 315 317 316 315 311 308 310 312 310 308 310
331 328 325 323 324 324 321 323 326 326 324 322 322 321 320 321 322 322 320 320 321 320 322 322 323 323 320 320 320 320 319 318 318 317 318 316 315 316 318 317 315 317 318 317 319 316 315 315 314 313 314 315 313 315 317 314 311 309 307 310 309 310 310
330 329 326 322 323 322 322 322 324 326 326 323 322 321 320 321 321 320 320 321 320 321 321 321 324 323 322 321 320 321 322 320 319 318 318 316 316 317 318 317 317 317 318 318 318 317 317 317 316 315 316 316 316 316 315 316 314 311 310 309 312 309 312
330 329 328 325 326 323 323 325 324 326 325 325 322 322 322 320 320 320 320 320 320 321 321 322 322 322 322 322 321 321 322 323 321 321 319 317 317 317 318 318 318 317 318 317 318 317 318 318 317 317 317 318 318 316 318 317 316 314 312 310 312 309 312
328 330 330 328 326 325 322 324 324 321 324 322 323 323 323 321 320 320 321 319 320 320 321 322 322 323 324 324 323 323 322 322 322 321 322 322 322 321 320 319 319 319 317 318 316 317 318 318 315 316 316 316 316 316 317 316 316 315 314 313 312 313 314
328 327 329 328 327 326 324 322 322 323 323 322 322 323 322 321 320 320 320 320 320 320 321 322 323 323 324 325 324 324 324 324 323 322 323 323 321 322 322 321 320 321 319 318 318 318 318 317 315 317 316 312 314 316 317 316 316 316 314 313 313 313 314
329 329 329 329 329 327 326 324 321 319 322 323 322 322 322 321 322 321 320 320 320 322 322 322 323 324 326 325 325 324 325 325 324 324 323 323 322 322 322 322 322 322 321 320 320 320 318 317 318 315 317 314 313 316 316 315 315 316 315 314 314 313 312
329 331 329 329 329 328 327 326 325 323 321 322 322 321 321 320 321 320 323 323 323 323 322 323 324 325 326 326 326 326 326 325 324 323 324 323 325 323 323 323 323 322 321 320 320 320 320 319 317 315 315 314 314 314 314 313 313 314 314 314 312 312 312
328 329 327 327 327 326 327 328 328 327 325 324 323 322 321 322 323 323 323 325 324 325 325 326 326 326 325 323 325 324 325 325 324 324 325 325 325 325 325 325 324 324 324 323 314 314 315 315 318 315 315 314 313 313 313 313 314 312 314 313 312 313 311
327 327 327 326 326 326 326 326 325 325 326 326 325 326 322 322 321 324 322 323 325 327 327 328 326 313 314 327 326 325 326 326 326 326 325 324 325 324 324 325 325 323 315 312 309 305 303 307 310 316 315 315 313 312 312 312 311 313 313 312 311 311 310
326 326 326 326 327 325 325 326 326 326 326 325 324 322 324 324 322 326 326 323 325 326 327 322 304 307 307 306 322 327 326 326 324 325 325 323 322 324 324 323 325 321 317 313 313 300 301 301 303 302 296 297 303 319 314 311 312 313 311 312 312 311 310
324 325 325 325 325 324 324 325 325 325 324 323 321 322 321 320 321 320 322 323 324 323 321 306 299 303 303 301 304 322 326 326 322 321 321 320 321 322 321 322 324 324 323 322 321 315 307 299 299 295 293 293 292 291 294 311 311 311 312 310 310 311 310
323 323 324 324 324 325 325 325 323 322 323 323 322 321 321 323 324 324 325 324 324 323 323 301 295 297 297 297 296 304 324 316 319 317 317 321 321 323 322 323 322 323 324 318 320 321 319 311 296 293 293 293 294 293 291 291 294 308 313 311 310 309 309
322 323 324 324 324 324 325 325 326 325 326 324 323 324 325 325 325 325 325 324 325 324 326 298 296 295 298 294 295 300 324 322 320 318 319 321 321 322 322 322 321 323 322 321 321 321 320 316 310 305 306 307 306 301 293 293 293 294 301 310 311 309 311
315 317 319 322 323 324 325 326 326 326 326 325 323 323 324 324 324 324 324 324 323 322 321 293 295 294 295 293 294 296 321 323 320 319 319 321 320 320 319 319 319 318 321 321 321 318 318 316 313 310 309 309 309 306 308 308 310 311 310 310 311 310 311
313 313 314 315 316 317 320 323 324 326 324 323 324 324 324 324 323 323 324 323 322 323 314 292 293 292 293 293 292 310 322 322 319 318 318 318 317 318 319 319 318 316 317 320 305 300 308 317 314 311 310 309 309 309 308 295 292 294 302 307 308 307 306
313 313 313 313 313 314 316 318 319 320 320 320 320 320 321 320 320 321 321 323 321 322 320 297 293 292 292 293 296 318 320 316 315 316 317 315 318 320 318 317 321 317 319 316 299 297 298 305 314 311 310 309 310 310 306 302 294 290 291 290 289 289 289
312 312 313 312 312 313 314 316 317 319 318 317 318 319 320 318 320 321 319 320 321 322 322 303 292 293 293 292 300 319 317 315 316 316 316 317 317 313 309 300 311 318 318 312 293 296 296 306 313 311 311 310 309 309 307 306 304 302 290 291 290 290 290
312 312 312 313 314 314 314 314 315 318 316 317 317 318 318 317 318 318 319 318 316 318 321 305 291 292 292 294 298 317 318 315 316 316 315 315 315 314 311 304 297 304 308 300 291 294 294 302 314 313 312 311 308 308 309 307 307 306 305 304 303 301 299
311 311 312 313 314 314 314 315 316 316 315 315 315 315 314 313 313 314 316 317 318 317 319 315 302 291 293 293 294 316 317 314 315 316 316 314 313 312 310 307 299 290 290 290 290 290 290 292 308 313 312 311 309 308 309 308 308 307 307 306 306 306 306
309 310 311 311 312 313 314 313 315 314 313 313 313 312 312 312 312 312 314 313 313 314 317 317 306 289 291 292 292 295 318 314 315 315 315 313 312 311 309 307 303 291 289 290 290 290 291 292 295 310 308 305 302 303 302 307 302 294 302 302 303 303 304
308 309 309 310 311 311 312 314 314 314 313 312 312 311 311 310 309 310 311 311 311 315 317 313 315 292 291 291 292 290 312 315 316 316 313 313 312 311 308 306 303 293 289 290 290 291 291 292 294 303 298 290 289 291 304 303 304 304 304 304 303 302 302
306 308 308 308 309 309 310 311 312 313 313 313 311 310 310 310 309 309 309 309 311 314 315 313 303 309 292 292 293 294 293 303 302 320 312 310 311 308 307 302 296 290 290 290 290 291 291 292 294 295 288 290 290 286 292 301 303 303 301 301 302 300 299
305 305 306 307 307 307 308 309 310 311 312 311 310 310 310 311 309 308 308 308 310 311 312 312 301 300 299 289 292 293 294 293 296 311 313 312 311 307 304 301 295 289 290 290 289 290 290 293 294 288 288 288 288 290 299 301 300 301 299 298 298 298 300

ECMWFFLT1_sfc_thetae_042.txt.gz
Theta_e
333 330 336 333 331 331 331 331 335 337 335 334 333 329 332 331 334 333 332 332 335 329 330 331 330 330 330 330 332 333 332 331 329 327 326 328 326 325 329 328 329 330 329 328 326 321 318 313 316 323 325 326 326 328 329 328 329 329 329 329 330 330 329
328 330 329 329 331 332 331 331 336 331 333 334 332 335 331 329 330 331 333 333 334 332 327 327 328 329 331 332 333 332 331 331 332 330 329 328 326 327 328 326 326 326 327 326 326 324 320 315 315 317 318 326 326 326 328 328 328 330 329 328 329 329 327
329 328 330 330 330 331 332 332 331 332 332 334 333 330 331 329 331 330 331 330 330 327 327 327 328 330 330 329 330 332 332 331 332 332 329 330 330 328 328 327 324 325 324 322 323 323 322 321 315 315 318 318 318 323 327 327 327 328 329 328 327 325 324
330 330 328 328 329 332 329 329 331 333 334 330 332 331 330 329 329 330 329 327 330 330 327 327 328 326 330 330 329 329 329 328 328 329 330 329 328 327 328 328 324 324 322 320 321 322 322 319 317 317 319 317 318 318 323 326 322 325 327 327 324 321 318
329 329 327 327 327 328 329 330 332 331 329 330 329 330 331 330 329 326 328 330 329 329 327 328 325 324 325 326 327 327 326 328 328 327 326 326 328 327 327 328 327 326 327 325 325 324 322 320 320 316 319 314 314 314 319 320 320 319 320 320 319 317 315
330 329 328 329 330 328 330 330 329 328 328 327 328 328 330 332 332 330 328 328 328 329 329 329 325 323 324 324 323 323 324 322 323 324 323 323 323 323 323 323 323 323 325 326 326 324 326 324 324 317 314 315 311 311 313 316 313 316 318 318 318 317 317
332 329 330 329 331 330 331 330 330 328 327 325 326 328 328 325 327 327 327 327 326 326 326 326 324 324 324 320 321 321 320 321 323 322 321 322 321 321 322 316 317 320 321 322 323 324 323 324 317 316 314 314 313 310 311 311 311 310 313 316 318 318 317
331 330 332 331 331 332 331 329 331 329 325 325 326 328 325 325 326 326 326 325 326 327 327 326 325 323 321 318 319 320 320 320 319 320 320 320 320 320 319 320 319 316 317 317 316 318 322 322 322 319 315 311 312 312 307 307 307 308 310 313 316 316 316
328 330 331 329 333 333 330 331 331 329 328 326 326 327 327 324 323 323 324 325 326 326 326 325 323 322 323 321 321 321 319 321 321 320 319 320 320 320 320 320 316 316 317 317 316 317 315 320 324 326 319 313 307 304 307 304 304 305 310 309 312 314 313
327 328 328 328 331 333 333 333 329 329 328 326 325 327 324 326 326 323 322 324 323 322 322 323 324 323 322 320 318 318 318 321 320 319 321 319 320 320 320 318 317 317 317 318 319 317 318 317 319 318 316 314 312 312 305 305 304 302 304 308 305 308 312
327 329 328 328 329 331 332 331 330 327 326 325 325 325 327 326 324 324 324 324 325 326 326 324 320 322 322 321 321 319 320 322 320 320 319 319 320 320 319 318 318 317 319 318 318 319 318 317 317 312 314 315 315 311 311 304 304 307 304 304 304 304 306
327 327 327 328 327 327 328 329 329 327 327 325 324 325 325 324 324 324 324 323 323 323 324 324 323 320 319 320 322 322 321 319 318 317 318 318 320 319 317 318 319 319 320 317 318 316 316 315 317 314 313 317 317 315 312 307 303 306 309 304 305 304 304
326 325 326 326 326 325 325 326 327 327 326 325 324 325 324 323 324 322 322 322 323 323 324 324 322 324 323 322 320 320 320 321 319 319 319 320 318 320 316 315 317 317 318 317 316 319 316 315 316 315 315 314 312 316 311 308 304 304 310 305 305 304 307
328 326 327 327 326 325 326 324 326 327 325 327 324 324 323 322 321 323 321 321 320 323 323 324 325 324 323 321 322 322 321 317 313 315 316 317 316 317 316 315 315 317 318 317 315 318 314 314 313 316 316 313 312 313 314 308 304 304 306 315 311 307 309
330 326 325 326 326 327 327 326 328 325 325 327 324 322 321 324 323 322 320 320 321 321 322 322 324 324 320 322 321 324 323 320 317 319 319 312 316 321 318 313 314 316 317 318 317 312 313 314 311 311 312 314 312 314 313 309 306 304 302 307 307 305 308
330 326 325 324 326 324 326 327 326 326 325 326 325 324 323 324 323 322 322 322 320 321 321 323 326 323 322 321 320 322 323 320 320 318 319 317 314 318 318 317 316 317 321 316 319 318 318 315 314 314 313 315 314 313 313 314 310 305 304 307 310 306 310
329 327 323 324 326 323 324 325 327 326 325 322 321 326 325 321 323 324 322 321 321 322 322 325 325 322 321 322 322 322 322 322 321 321 320 318 316 317 319 317 316 318 317 317 317 317 316 316 317 313 315 315 314 315 314 316 312 309 309 308 310 307 310
329 328 324 324 326 323 324 324 325 325 330 325 322 325 322 323 323 322 324 320 320 321 322 323 323 324 325 325 323 323 322 321 322 322 323 322 323 320 319 319 318 318 318 316 314 318 316 314 315 313 310 312 313 315 316 314 313 313 311 310 309 311 312
330 330 329 328 327 325 327 328 324 326 325 322 326 327 323 322 321 320 320 320 320 320 320 322 323 323 324 325 325 324 323 324 323 322 322 323 321 322 321 321 322 318 318 318 318 317 318 316 315 314 312 312 313 314 314 313 314 312 310 310 309 310 310
327 324 326 325 321 324 325 324 324 322 324 323 324 325 325 323 325 322 319 320 320 319 321 321 324 326 326 326 325 324 324 325 325 324 324 322 322 323 322 322 321 321 319 319 319 318 316 316 315 313 313 313 313 313 312 312 311 312 313 311 311 310 310
327 327 327 324 323 322 322 325 322 321 324 327 323 321 322 323 324 321 323 321 321 322 323 323 325 326 326 326 325 325 325 325 324 324 324 323 323 322 322 322 322 322 322 321 320 319 318 316 315 313 313 313 311 311 310 311 311 310 310 311 311 308 310
326 325 324 323 322 321 323 324 326 326 326 326 329 326 327 324 322 320 320 324 325 323 322 321 321 319 321 323 322 322 324 324 324 321 320 321 321 322 323 321 320 321 321 318 310 313 315 315 316 313 312 311 311 312 311 310 311 312 310 310 310 310 309
326 326 325 324 323 323 324 327 327 326 325 326 326 325 324 324 324 324 324 323 323 320 322 322 318 310 306 319 323 322 323 323 321 318 318 317 317 320 318 319 319 320 315 310 306 302 302 301 305 309 310 312 311 311 310 310 309 309 310 308 308 307 307
325 325 325 325 326 325 325 326 324 326 327 327 324 325 323 323 325 324 323 323 321 321 322 321 309 304 304 303 317 323 323 318 318 319 319 318 316 318 319 320 320 319 314 311 307 301 302 298 294 295 296 298 303 311 311 310 309 309 308 308 308 308 306
325 324 325 324 324 325 325 325 324 324 326 326 326 325 323 323 323 323 324 323 323 322 321 314 305 304 301 300 302 315 321 320 320 320 319 320 319 318 318 319 320 322 319 318 314 309 304 298 294 293 293 293 292 293 297 308 308 307 307 306 306 306 304
322 323 323 323 325 325 324 324 324 324 324 325 325 323 323 323 322 324 325 324 322 321 321 307 300 297 298 296 297 308 319 320 320 319 318 318 319 319 319 319 320 320 320 319 317 315 312 304 295 294 294 296 295 293 292 292 296 305 307 307 305 305 306
321 322 325 323 324 323 323 323 325 325 323 322 322 321 322 321 321 322 324 324 323 321 323 308 297 297 296 296 295 305 320 322 320 320 319 320 321 319 320 318 318 317 318 318 318 317 314 309 304 302 304 305 302 298 294 292 294 295 300 307 306 305 307
313 316 322 322 323 324 323 324 322 323 322 321 320 320 320 320 321 321 322 322 322 323 322 303 295 295 295 295 293 299 320 322 321 319 319 318 318 316 318 319 318 318 318 318 319 318 315 310 308 308 306 306 304 305 304 304 305 306 307 308 307 307 305
319 320 319 320 319 320 322 322 322 322 321 320 320 321 320 319 318 317 319 321 322 320 311 294 295 295 295 294 293 310 318 320 320 319 318 318 317 318 318 318 316 315 319 318 308 304 308 312 310 308 307 306 305 303 297 293 292 293 298 300 300 300 298
313 313 314 317 318 318 319 320 322 321 320 320 319 319 319 318 318 318 319 321 321 320 314 298 294 295 294 293 298 314 318 319 319 318 317 317 317 313 310 312 317 317 314 307 299 299 301 305 311 308 307 306 306 305 301 298 293 291 291 291 291 290 291
310 311 312 312 313 315 316 318 319 322 319 319 318 318 319 319 319 319 319 319 320 319 319 304 293 294 293 293 302 315 318 319 319 316 314 314 311 308 304 304 315 315 310 304 293 296 300 309 311 309 307 306 306 304 301 302 300 299 290 291 291 290 290
309 310 310 312 313 313 314 315 316 317 318 319 318 319 317 317 317 318 319 319 317 318 320 307 293 293 293 293 299 313 318 318 313 312 312 311 311 307 302 299 300 304 303 296 291 291 294 304 309 309 307 307 305 305 303 302 301 299 298 298 297 296 296
309 309 309 311 312 312 313 313 314 315 317 317 315 314 315 314 315 315 317 318 319 319 320 313 298 293 294 294 296 310 316 315 312 312 311 310 309 307 303 300 296 291 291 291 291 291 292 297 306 308 310 307 305 305 305 305 305 303 302 302 302 301 301
307 308 308 309 310 310 311 311 313 313 314 314 313 313 315 315 315 314 314 316 318 318 320 318 306 292 294 294 293 297 312 315 314 313 312 309 308 306 303 300 297 291 290 290 291 291 293 294 296 301 299 297 297 299 302 302 299 297 300 299 298 298 299
306 307 306 307 307 308 310 311 311 312 311 312 313 313 313 313 311 311 312 314 314 317 317 313 311 293 292 292 293 292 305 314 313 313 311 312 308 305 302 299 297 292 290 291 291 291 292 292 293 295 292 289 289 291 297 300 301 299 300 299 298 298 299
305 306 306 306 306 306 307 308 309 309 309 310 311 311 312 311 310 310 311 311 310 313 315 312 303 299 291 291 291 291 292 300 298 313 313 310 310 304 301 297 294 291 290 290 290 291 291 291 292 291 288 288 288 289 294 298 298 300 299 298 298 297 295
303 304 304 304 304 304 304 305 306 306 307 308 308 308 308 309 308 308 308 308 308 310 314 312 302 299 293 290 291 292 291 291 295 310 312 310 305 301 297 295 293 289 290 290 290 290 290 291 290 288 288 288 289 291 296 297 297 299 295 295 295 294 295

ECMWFFLT1_sfc_thetae_045.txt.gz
Theta_e
320 320 321 320 322 322 320 321 323 323 324 324 324 325 325 326 325 324 325 325 326 325 326 323 324 325 326 328 327 327 325 324 322 321 319 321 318 319 322 321 323 323 324 323 320 315 314 312 315 321 322 324 325 325 326 325 326 327 327 328 328 327 325
321 319 320 321 319 320 319 321 323 322 323 324 325 324 323 325 325 324 323 322 322 323 325 324 324 326 326 325 325 324 323 324 324 322 321 319 321 319 320 319 320 320 321 322 321 319 314 313 313 316 317 321 321 323 324 325 326 326 327 327 325 319 316
318 318 319 318 317 319 321 321 321 321 320 320 321 323 323 325 324 321 319 320 322 324 324 323 324 324 324 325 325 325 324 324 324 323 322 322 323 322 321 320 318 318 318 318 318 318 316 315 312 314 316 316 316 318 321 323 325 325 325 323 317 314 313
318 318 318 317 319 319 318 319 320 321 321 320 319 321 322 321 321 322 320 322 323 324 324 323 321 323 322 322 323 323 323 322 322 322 323 321 321 320 320 319 318 318 315 314 317 317 315 312 313 313 314 317 317 317 319 323 324 325 323 317 313 312 312
320 319 317 317 319 318 317 319 320 319 318 318 319 318 318 319 320 320 322 321 321 319 319 319 319 319 319 320 320 320 320 320 321 321 319 320 320 320 320 320 319 321 321 320 320 319 317 315 315 314 314 317 318 317 322 320 324 323 317 313 312 311 310
319 319 318 318 319 318 319 321 319 318 317 317 316 319 318 319 321 319 319 317 317 317 317 317 317 318 318 317 317 317 317 317 317 316 314 314 316 317 316 317 321 321 321 321 322 320 320 319 317 314 314 316 311 313 319 318 315 317 315 313 312 312 313
319 319 319 319 319 319 321 320 319 318 317 317 318 317 317 318 318 319 318 317 317 317 318 316 317 316 315 315 314 313 313 314 315 314 313 313 313 313 312 311 312 313 315 320 321 321 320 318 314 312 310 310 311 312 314 310 314 311 311 313 313 312 311
321 321 320 321 321 319 321 321 320 318 316 317 317 317 317 316 317 317 317 316 316 317 316 316 316 314 313 314 314 313 313 313 314 314 314 314 315 312 311 311 312 311 312 313 313 317 320 319 316 313 310 307 307 305 304 306 307 309 309 311 313 311 310
322 322 321 321 321 320 319 321 319 317 317 316 317 317 317 315 314 315 315 315 316 317 316 314 314 313 313 313 312 311 312 319 313 313 313 313 313 312 312 312 312 311 312 313 312 311 312 317 317 316 312 309 304 299 301 302 305 306 311 308 310 312 312
321 321 320 320 320 319 321 321 319 318 317 316 317 315 313 313 314 314 314 313 314 313 313 313 313 312 311 311 312 311 312 313 314 312 312 313 312 311 311 311 311 312 311 310 310 312 311 311 313 312 312 310 305 301 298 299 300 301 306 309 305 308 311
321 321 320 320 320 320 321 320 318 316 315 317 317 316 316 315 316 319 313 312 312 314 314 313 313 312 311 311 311 312 313 312 312 311 313 313 313 313 312 313 312 310 310 310 310 309 309 311 309 311 310 310 308 303 300 298 299 301 301 303 304 304 308
321 320 320 320 320 320 319 318 317 316 316 316 316 316 315 314 314 313 313 314 313 314 314 313 313 313 312 312 312 313 313 312 311 311 312 312 311 311 310 310 310 310 312 310 310 309 308 310 309 308 309 311 309 305 303 300 297 301 301 300 302 305 306
321 320 319 319 318 319 320 319 318 316 316 317 316 316 315 314 314 313 314 313 313 313 313 312 312 312 313 312 312 312 311 312 312 310 312 312 314 311 310 310 310 310 310 309 309 310 307 309 310 309 310 309 307 305 304 300 298 299 303 299 300 302 304
319 320 319 318 318 318 319 319 318 317 317 316 316 315 315 315 315 315 314 314 313 313 313 312 313 314 313 311 311 311 311 308 308 308 310 310 312 311 309 308 309 310 311 310 309 310 309 309 310 310 310 308 306 305 303 301 298 298 301 304 302 302 303
319 319 318 317 318 318 318 319 318 317 317 317 316 316 315 316 316 316 314 314 314 315 314 314 314 313 313 312 312 315 311 309 310 309 308 309 310 312 308 308 310 310 312 311 310 311 309 308 310 310 309 309 307 306 304 302 299 298 297 302 302 303 305
320 319 318 318 319 319 318 318 317 316 317 316 316 316 316 316 316 315 314 315 314 314 314 314 314 312 311 311 312 312 312 310 309 308 307 309 310 310 310 309 310 311 313 309 309 310 310 310 309 310 309 309 309 308 306 304 302 300 298 300 302 303 305
320 318 318 318 318 318 318 318 317 317 318 316 316 316 316 316 315 315 315 314 314 314 315 316 314 313 313 312 312 313 312 310 310 310 310 309 311 311 309 308 309 310 310 308 308 310 309 309 308 308 309 309 309 308 308 305 304 301 300 301 303 303 306
320 318 318 318 317 318 318 318 318 316 317 315 315 317 316 315 315 315 315 314 314 314 315 316 315 314 313 314 313 314 312 312 313 313 314 314 317 312 311 309 311 311 310 307 311 310 310 309 310 309 309 309 310 311 310 309 308 306 304 302 303 305 306
318 318 319 318 316 317 317 317 317 318 319 314 314 316 314 315 315 315 315 314 314 315 315 314 315 315 316 315 315 314 314 313 313 314 314 314 314 314 314 313 311 311 313 312 310 310 310 309 310 309 309 310 310 309 308 307 308 308 305 303 304 305 305
318 319 319 319 318 318 317 317 317 318 318 317 316 316 314 314 315 314 315 314 314 315 315 315 315 315 316 316 316 315 316 314 315 315 314 315 314 314 314 315 313 313 314 313 312 311 310 308 309 307 307 308 308 307 307 306 308 307 307 306 306 304 305
318 319 319 319 318 318 318 319 317 316 317 316 316 316 315 314 315 314 313 313 314 313 314 314 317 317 316 317 317 315 317 316 313 314 315 316 317 315 315 314 314 314 313 313 312 312 312 310 308 307 307 306 305 305 305 304 305 305 305 306 305 304 305
318 317 317 318 317 317 317 318 317 318 319 318 320 319 318 318 317 315 313 317 316 316 317 316 316 315 315 316 316 317 316 315 314 313 314 314 314 315 313 313 313 314 316 318 314 312 313 312 309 307 305 306 305 305 304 304 305 304 304 304 303 303 302
319 319 318 316 317 317 317 318 317 317 319 318 317 318 319 319 318 318 317 314 314 315 316 316 314 308 311 315 316 318 316 314 314 314 313 312 312 314 313 313 315 321 313 309 306 301 300 303 308 309 307 306 305 304 304 303 304 304 304 303 302 300 302
320 319 319 318 318 319 318 318 317 317 317 316 315 315 316 316 317 317 316 314 313 314 315 317 303 297 299 307 317 316 315 314 314 314 313 312 312 312 313 314 314 316 313 309 303 298 296 296 296 296 298 302 307 307 305 304 303 303 302 303 301 302 300
319 319 320 320 318 318 319 318 317 318 317 317 316 315 314 314 314 314 315 314 313 314 314 312 301 299 297 300 308 316 315 315 314 314 314 314 313 313 313 312 313 316 313 311 306 302 298 295 294 294 294 294 294 295 301 305 303 301 300 301 301 300 299
318 318 318 319 318 318 317 318 317 317 317 317 316 315 313 313 312 313 314 314 313 313 313 307 299 299 296 294 299 311 316 315 314 314 314 314 314 313 312 312 312 315 318 318 313 306 301 298 295 294 295 295 294 294 293 296 299 304 303 302 301 300 300
316 316 317 317 317 317 317 316 316 315 314 314 314 313 313 312 312 313 314 314 314 314 315 309 300 296 295 294 296 303 316 314 314 314 314 314 314 313 313 313 312 312 313 315 312 309 304 300 298 299 299 298 297 295 294 293 294 296 300 303 301 300 300
310 312 315 316 317 315 314 313 314 312 311 312 312 310 310 310 310 311 312 313 314 315 316 308 299 296 294 293 293 298 313 315 314 313 314 314 314 314 314 315 313 313 313 313 314 310 306 302 301 301 301 300 300 301 299 299 300 303 303 304 303 301 298
305 306 306 306 307 312 313 315 314 312 312 311 310 310 309 309 309 309 310 310 310 311 314 301 294 294 294 293 293 306 311 314 313 313 312 312 311 311 311 312 313 312 312 312 309 302 303 305 304 304 303 302 299 296 294 294 293 297 300 299 298 296 295
304 304 305 305 305 305 306 311 312 313 312 311 311 311 312 312 310 308 308 309 308 308 312 302 292 293 293 292 298 308 309 312 313 312 311 310 309 307 307 311 313 312 311 310 303 297 299 302 305 303 303 301 300 297 295 294 292 291 292 293 293 293 291
303 303 303 304 304 304 304 304 307 311 311 311 311 312 313 313 312 311 309 310 312 311 311 305 294 294 294 293 301 309 310 311 311 312 308 307 303 300 302 307 313 312 309 303 295 297 297 303 304 303 302 301 299 298 295 295 295 293 292 291 290 290 290
301 302 302 302 303 303 303 303 304 305 305 306 310 313 313 313 313 312 311 311 313 313 312 308 296 295 294 293 300 308 310 311 311 307 305 302 300 299 298 299 305 307 304 298 294 296 298 303 305 304 303 302 300 299 298 295 295 293 294 294 293 293 293
301 301 301 301 301 301 302 302 303 304 304 305 305 304 306 312 313 313 312 312 312 312 311 308 299 294 294 294 296 307 310 309 309 305 304 302 300 297 296 296 295 292 292 292 292 293 295 298 304 303 303 301 300 299 298 297 297 294 294 294 293 293 293
300 301 302 301 301 301 301 301 302 303 303 304 303 303 304 303 306 308 311 311 312 310 312 310 301 292 294 294 294 299 309 310 305 305 304 302 300 298 296 295 294 292 291 292 292 292 293 293 295 299 299 297 296 299 298 297 297 297 296 295 294 293 293
300 301 301 300 299 299 300 300 301 301 300 300 300 300 301 303 304 303 305 307 309 311 313 311 309 293 293 294 293 294 306 309 305 307 304 302 299 298 296 295 294 292 291 291 291 291 291 291 292 294 293 291 292 294 298 297 296 296 296 295 294 293 293
298 300 299 299 299 298 298 298 299 299 299 299 300 300 300 302 303 303 302 302 306 310 310 310 303 298 293 293 293 293 296 304 296 306 305 302 300 297 295 294 294 292 291 290 290 291 291 291 291 290 289 289 290 291 293 294 293 295 294 293 292 291 290
298 298 298 298 298 297 297 297 298 298 298 298 299 298 299 300 301 301 302 301 303 303 304 306 301 297 296 293 293 293 293 296 296 301 306 305 300 297 295 294 293 290 290 290 290 290 290 291 290 289 289 289 289 291 292 292 292 293 290 290 291 290 290

ECMWFFLT1_sfc_thetae_048.txt.gz
Theta_e
316 316 317 318 319 320 319 320 320 319 320 321 321 321 322 322 322 322 321 321 322 322 323 322 321 322 325 324 323 323 323 321 319 320 317 318 316 317 319 319 320 319 319 317 315 312 311 310 315 322 323 322 325 326 326 326 327 327 325 324 321 319 317
318 317 318 320 318 319 318 318 319 318 320 320 321 320 320 322 322 320 320 321 321 321 323 324 322 323 323 322 321 321 320 319 319 319 320 317 318 317 317 316 318 316 316 316 317 315 311 312 314 317 317 321 323 324 325 327 327 327 323 319 317 315 314
317 317 317 316 316 317 318 317 317 317 317 318 319 320 320 320 317 319 320 320 320 322 323 322 322 322 322 321 319 321 321 320 319 320 320 319 320 319 317 317 315 314 315 314 314 313 314 313 314 316 317 317 316 320 324 325 325 321 316 313 311 311 310
316 316 314 314 316 317 317 316 316 316 317 318 317 317 317 319 320 321 320 320 320 322 322 321 320 321 320 319 319 319 319 319 318 318 318 317 317 317 316 318 318 318 315 312 313 311 310 311 315 315 315 317 318 318 322 323 321 317 313 311 310 310 309
317 315 314 315 316 316 316 316 316 315 315 316 315 315 315 317 318 316 318 317 318 317 318 317 318 318 318 317 317 317 316 315 316 318 315 316 316 316 315 315 317 316 314 316 316 315 314 314 315 314 314 316 317 318 321 317 320 313 310 309 309 308 308
317 316 316 317 316 316 316 315 314 314 313 315 314 316 314 315 316 315 315 314 315 316 316 316 315 316 315 315 315 314 314 313 312 312 312 312 313 314 313 314 317 317 317 317 318 316 315 315 316 313 314 314 310 315 316 316 312 311 310 308 308 308 308
316 316 317 317 316 317 317 315 314 313 313 314 313 314 314 315 315 315 315 314 314 314 315 313 313 313 313 312 311 311 311 310 311 311 311 310 309 308 309 310 311 314 315 319 319 318 316 315 312 314 313 309 313 315 317 310 311 307 309 310 310 310 309
317 317 317 317 317 318 317 316 315 314 315 313 313 313 314 315 314 313 313 313 313 313 313 313 313 311 312 312 312 311 312 311 312 312 310 310 311 309 309 309 310 310 312 316 318 318 318 316 314 313 312 310 308 310 309 307 308 305 306 307 308 307 308
319 317 317 318 318 319 318 317 315 315 315 314 313 313 314 314 313 313 313 313 312 312 312 312 311 311 310 310 309 310 311 314 311 310 309 309 309 309 309 309 310 309 310 311 315 317 318 316 314 311 310 312 309 302 303 303 303 304 308 305 308 308 307
318 317 317 317 317 319 318 316 315 315 315 314 315 313 311 311 312 312 313 312 311 310 309 310 310 309 309 309 310 309 309 309 311 309 308 309 307 308 308 308 308 308 307 308 309 312 314 314 315 311 311 310 307 303 300 299 300 301 306 305 303 307 308
319 318 318 317 317 318 316 315 315 314 314 314 314 313 311 311 313 316 310 310 309 310 310 309 309 308 309 309 308 309 309 309 310 309 310 309 308 309 309 308 309 308 307 306 307 308 309 310 310 312 311 307 305 305 303 301 300 300 303 304 301 303 307
319 319 319 319 320 318 316 314 314 314 313 313 314 312 311 311 310 309 309 309 310 310 309 309 309 309 308 308 308 309 308 309 308 307 307 308 307 308 307 307 307 307 307 307 307 306 306 307 307 310 309 307 306 305 304 302 298 299 301 302 301 305 307
319 319 319 319 318 317 315 314 314 313 313 314 313 313 311 311 311 310 310 311 310 309 309 309 309 308 308 308 309 310 307 308 308 307 307 307 310 308 307 307 306 307 306 307 307 306 306 307 307 308 308 306 304 304 303 299 300 300 300 298 299 303 308
318 318 317 318 317 316 315 315 314 313 313 313 313 312 311 311 311 311 310 311 309 308 308 308 308 308 308 308 307 308 308 308 308 306 308 307 308 306 307 306 306 307 307 307 306 307 307 307 307 306 305 304 303 302 301 298 297 297 298 300 300 302 303
318 317 317 318 317 317 316 314 313 314 313 314 313 312 311 311 311 311 310 310 310 309 308 308 309 308 308 307 307 309 306 306 306 306 306 306 306 308 305 306 307 308 308 308 306 306 306 306 306 305 303 303 302 302 301 299 296 295 296 299 300 300 300
318 317 317 318 317 317 316 315 315 314 313 313 313 313 313 312 312 311 311 311 312 310 310 310 309 309 308 308 308 307 307 306 306 305 306 306 307 307 306 307 306 307 309 307 306 305 306 306 306 305 304 303 302 301 301 300 298 296 297 298 299 299 300
318 318 317 317 317 317 316 316 316 314 313 313 313 313 313 313 312 311 311 311 311 311 311 310 309 309 309 309 308 307 306 305 305 306 307 306 307 307 306 305 307 306 306 307 306 305 306 306 306 306 305 305 304 303 301 301 300 297 296 299 299 300 302
318 318 317 317 316 316 316 315 315 315 313 313 313 313 313 313 313 312 313 312 312 311 312 311 309 309 309 308 309 309 307 306 306 306 307 307 312 307 306 306 307 306 306 307 306 306 305 306 307 307 307 306 305 306 306 303 302 300 299 299 300 300 302
317 318 318 316 316 317 316 315 314 315 314 313 313 314 313 312 314 312 313 313 312 312 313 312 310 309 309 309 309 308 308 308 309 309 308 309 309 308 307 306 308 308 307 307 306 306 306 306 307 306 306 306 306 305 304 304 303 301 300 299 300 301 303
317 316 316 316 316 316 316 316 315 315 315 312 312 313 312 312 313 313 313 313 313 313 313 312 311 310 311 311 310 310 309 309 310 311 311 311 311 310 310 309 308 309 309 308 307 306 305 305 307 304 305 306 305 305 304 303 304 303 301 300 302 301 302
317 317 315 316 315 315 315 315 315 313 316 314 312 313 313 312 311 312 313 313 313 313 313 312 312 311 312 312 311 310 311 313 312 311 311 311 311 310 311 311 310 310 310 310 308 307 306 306 304 304 303 303 302 303 303 303 304 303 303 302 301 300 299
315 314 315 314 314 314 315 314 315 315 314 314 315 313 312 311 312 311 311 311 311 312 313 313 314 314 313 313 314 314 313 313 313 312 310 311 311 311 311 310 310 311 314 316 311 309 309 309 307 305 303 302 302 303 302 302 303 301 301 302 301 298 298
316 315 315 314 313 313 313 314 314 314 315 315 314 313 314 313 313 312 312 311 311 313 313 313 314 311 311 315 315 316 314 313 313 312 312 310 310 311 310 310 312 322 316 313 309 304 303 304 307 307 305 304 304 302 302 302 301 301 301 301 299 299 299
316 315 314 314 314 314 314 314 314 315 314 314 313 312 313 313 312 312 312 312 311 312 313 314 303 302 304 308 315 315 314 313 312 312 312 311 311 311 309 310 312 313 310 311 306 300 300 301 302 302 303 304 306 304 303 302 301 301 300 300 298 299 298
315 314 314 314 314 313 313 314 314 314 314 314 312 311 312 311 311 311 310 310 311 312 311 309 297 300 302 303 308 314 313 313 312 312 312 311 311 311 311 311 310 312 309 307 304 300 299 297 296 296 296 296 297 300 302 304 303 301 300 300 299 299 299
313 313 313 313 313 313 313 312 311 313 313 313 311 311 310 310 310 311 311 311 310 310 310 301 296 298 299 300 302 310 314 313 313 312 312 311 311 311 311 311 311 312 313 314 309 302 299 297 296 295 295 295 295 295 296 298 299 304 303 302 301 297 298
312 312 312 312 312 311 311 311 310 310 312 313 311 309 309 309 310 310 310 310 311 310 310 302 295 296 296 295 297 305 313 313 313 312 312 312 312 311 311 311 311 311 311 312 306 303 300 299 298 298 298 297 296 296 295 294 295 298 301 303 303 301 298
307 309 311 310 309 309 309 309 310 310 310 311 311 310 310 309 309 309 309 310 309 311 311 300 295 295 295 295 294 300 311 311 311 311 311 312 312 312 312 312 311 311 312 312 308 304 301 300 300 300 297 296 297 297 296 298 299 301 301 301 301 302 300
302 304 304 303 304 306 308 310 311 311 310 309 309 307 307 306 305 307 308 307 308 310 310 300 295 294 294 294 294 304 309 310 310 310 310 310 311 311 311 311 311 310 311 312 306 299 300 302 301 300 298 297 295 293 293 293 292 297 301 302 301 300 298
300 299 299 299 299 301 302 303 304 307 309 308 308 307 309 308 307 305 305 306 308 310 308 301 294 294 294 293 295 305 306 309 310 309 310 310 311 311 310 311 311 310 310 311 304 296 296 299 302 300 299 298 296 295 293 293 292 292 294 294 294 294 294
298 298 298 298 298 298 298 299 299 302 303 303 303 304 305 307 307 307 306 308 309 309 310 305 295 294 293 292 299 308 307 309 310 309 308 308 308 307 307 310 313 310 310 310 299 295 295 301 303 301 299 297 296 294 293 293 293 292 292 291 291 291 291
297 297 297 297 298 297 298 298 299 299 299 300 301 302 302 303 305 305 305 306 310 309 309 308 298 293 293 293 298 307 307 308 308 308 307 304 299 298 298 302 306 309 310 306 295 296 295 301 304 301 300 298 297 295 294 291 291 291 290 289 289 289 290
298 298 297 297 297 297 297 297 297 298 298 298 298 298 298 301 301 303 305 306 307 308 308 309 304 294 294 294 296 307 308 308 307 306 304 304 301 297 295 295 298 298 300 297 294 295 295 298 303 302 300 299 297 297 296 293 293 292 292 292 291 291 291
298 298 298 298 298 297 297 297 297 297 297 298 297 298 297 297 298 299 301 303 304 305 308 309 307 295 294 295 295 299 308 309 308 306 304 301 300 300 298 295 293 295 294 294 294 294 295 297 299 303 301 300 300 299 296 295 295 295 295 293 293 292 291
297 298 298 297 296 296 297 297 297 297 297 296 296 296 296 296 296 297 298 299 301 303 307 307 309 299 294 294 294 295 305 309 307 306 303 301 299 298 298 294 293 293 292 293 293 295 295 295 296 301 300 295 292 293 297 298 297 296 295 294 293 292 290
296 297 296 295 295 294 295 295 295 295 295 295 295 294 295 295 295 295 296 296 297 299 302 304 302 301 294 293 293 292 294 300 299 303 305 302 299 298 294 292 292 293 291 291 291 292 292 293 295 294 291 291 292 293 295 296 294 294 293 292 290 289 290
295 294 294 294 294 293 293 294 293 294 293 293 292 292 293 293 293 293 293 294 295 297 300 300 297 296 295 291 292 292 292 292 293 300 304 303 300 296 294 293 293 290 290 291 290 291 291 292 292 290 291 291 292 293 294 293 291 292 289 288 288 288 289

ECMWFFLT1_sfc_thetae_051.txt.gz
Theta_e
319 317 318 317 316 318 317 317 318 317 318 318 318 317 318 321 321 319 318 318 320 320 323 320 321 321 323 323 323 320 320 321 319 319 316 315 316 316 316 317 318 317 315 312 315 314 314 313 316 322 324 325 325 326 326 326 325 324 321 318 316 314 313
318 318 319 319 317 318 316 315 317 316 317 317 317 317 316 320 323 319 317 317 317 319 321 321 319 320 321 321 320 319 319 316 317 318 319 316 314 315 315 314 315 314 315 315 313 313 314 315 315 317 318 323 324 325 325 325 322 319 316 315 315 312 312
318 317 318 316 316 315 315 313 314 315 316 317 316 315 315 315 317 319 318 317 317 319 321 318 317 318 317 317 317 318 317 318 317 319 319 315 314 314 315 314 312 312 313 312 311 314 315 316 314 315 318 317 316 320 323 320 316 313 312 310 309 309 308
317 317 315 313 314 314 314 312 313 313 315 314 314 314 314 316 317 319 317 317 319 320 319 318 317 318 316 316 316 317 317 318 316 317 316 314 314 314 313 314 314 316 312 309 312 311 312 314 315 315 317 318 318 317 318 317 313 310 309 309 308 307 307
317 316 315 314 314 314 313 312 312 313 312 314 312 313 313 314 317 317 317 316 317 315 315 314 314 315 314 314 314 315 315 314 316 318 315 314 312 312 313 313 313 313 310 313 314 313 315 315 316 315 315 317 317 317 318 313 309 307 306 306 307 306 307
317 316 315 314 313 314 313 312 312 312 311 313 312 313 311 312 315 315 315 315 313 313 313 313 312 312 312 312 312 311 310 311 312 314 314 312 313 314 313 312 313 314 313 314 315 314 315 317 317 315 315 314 313 314 316 310 307 308 307 307 307 307 307
316 316 316 316 315 315 314 313 313 313 313 313 312 312 311 312 312 313 313 312 311 312 312 310 310 311 310 310 309 309 309 308 309 309 309 307 307 308 310 312 311 313 313 316 315 316 316 316 315 314 313 313 314 314 312 306 308 305 307 307 307 307 307
315 315 315 317 317 316 314 314 313 313 313 313 313 313 313 312 311 311 312 312 311 310 310 310 311 309 309 311 310 310 310 309 309 309 307 308 309 307 308 310 311 312 315 315 316 316 317 316 316 314 314 310 310 306 303 304 302 303 304 305 306 305 305
317 316 316 317 318 317 314 314 313 313 313 311 311 312 312 311 311 312 311 310 309 309 309 309 309 308 308 309 308 308 309 311 309 308 307 307 307 306 307 307 311 311 314 316 316 316 316 316 315 313 313 312 309 303 300 302 299 302 305 304 306 305 305
316 315 316 317 317 316 315 313 314 313 312 312 313 311 310 309 310 311 310 309 308 308 308 308 307 307 307 308 308 307 307 306 308 306 305 307 305 306 306 306 307 307 309 314 316 316 315 314 314 312 314 312 310 306 299 298 299 299 304 303 303 305 305
316 316 317 317 317 316 313 313 313 313 312 312 313 312 310 310 313 314 308 307 306 307 307 306 306 306 306 306 305 306 305 306 308 306 307 306 305 306 307 306 306 307 306 311 314 315 314 314 312 312 311 308 308 307 300 301 301 299 302 303 300 304 304
316 316 316 317 316 315 314 314 312 312 310 310 312 310 309 309 307 306 307 306 306 306 305 305 305 305 306 306 307 305 305 305 306 305 304 306 306 306 305 305 304 305 305 306 307 309 311 312 312 311 310 308 306 305 306 302 300 301 302 304 302 300 305
317 318 318 318 316 315 315 314 311 310 311 311 309 309 309 308 308 307 307 307 306 305 305 305 305 305 305 305 305 307 304 304 306 304 303 305 307 305 305 305 304 303 304 305 305 305 306 309 311 310 310 309 305 305 306 303 301 303 300 303 299 300 305
316 317 317 317 316 315 315 313 312 311 310 309 308 308 308 308 309 309 308 309 307 305 305 305 305 305 305 305 304 304 304 304 305 304 305 304 305 305 306 305 304 305 304 304 303 304 305 305 308 310 310 307 305 304 305 301 300 298 299 297 298 301 304
317 315 315 316 316 314 313 312 311 310 309 309 308 308 307 308 309 309 308 308 307 307 306 306 306 305 305 305 305 306 304 304 304 303 303 303 303 306 304 305 305 304 304 304 303 304 303 304 305 307 306 306 304 303 304 299 297 298 300 298 299 299 301
316 316 316 315 315 313 312 311 312 311 310 309 308 309 309 309 309 308 309 309 308 307 307 307 306 306 305 305 305 305 305 303 303 304 304 304 305 304 304 305 303 304 306 304 302 302 303 303 302 303 303 303 303 302 301 298 296 296 298 297 297 298 299
316 317 317 316 315 314 313 312 312 311 311 309 309 308 309 309 308 308 309 308 308 308 308 308 307 307 307 305 305 305 304 304 303 303 303 304 304 304 303 304 304 303 304 304 302 303 303 303 302 302 301 300 300 300 299 298 299 295 295 298 297 299 299
315 315 316 316 315 314 313 313 313 312 311 310 309 309 308 308 308 308 310 309 308 307 307 307 307 307 307 306 305 304 304 303 303 303 304 304 311 304 304 303 305 303 303 304 303 303 303 303 304 304 303 301 300 301 301 299 298 297 297 298 298 298 298
316 315 315 315 315 314 314 313 313 312 312 311 308 309 309 308 309 308 308 308 308 308 308 307 306 307 307 306 306 305 305 304 304 304 304 305 307 304 304 304 304 303 304 304 303 303 303 303 304 303 303 303 303 302 301 300 298 298 298 297 298 298 300
316 315 315 315 315 315 314 314 313 313 312 312 311 310 310 310 309 309 309 308 308 308 309 308 306 306 307 306 306 305 305 306 307 305 305 306 307 306 305 305 305 305 304 304 304 303 303 303 304 302 302 302 302 302 301 300 299 298 297 297 299 299 299
318 317 315 315 315 315 314 313 313 313 312 311 311 312 311 310 309 309 309 309 309 308 308 308 306 306 307 308 307 305 306 307 308 309 308 308 308 307 307 306 306 306 305 305 305 303 304 304 302 302 301 301 301 301 301 301 300 298 297 298 298 298 296
317 316 316 316 314 314 314 314 314 313 312 310 312 312 312 311 310 309 308 309 309 309 310 311 310 308 308 307 307 308 308 309 308 309 309 309 309 309 308 307 306 306 308 313 310 308 308 308 305 303 301 300 300 301 299 300 301 299 298 299 298 296 297
315 315 315 314 313 312 314 315 315 314 312 311 310 311 310 310 310 311 310 310 309 310 311 311 312 308 309 311 310 311 310 310 310 310 310 309 308 308 308 308 308 319 315 312 308 303 301 304 307 306 304 302 302 301 300 300 300 300 301 299 299 298 298
314 315 314 313 313 314 315 314 313 312 310 309 310 310 309 310 309 310 310 310 310 310 312 312 306 302 301 304 311 311 311 311 310 311 311 311 311 311 309 309 308 313 312 312 307 300 299 299 300 301 302 303 305 304 302 300 300 300 301 301 299 298 297
315 314 313 312 311 312 312 313 314 313 312 310 308 308 308 307 308 307 308 308 309 310 311 310 302 301 300 300 305 313 312 311 311 310 311 311 311 310 311 310 309 308 306 307 307 305 302 299 299 298 298 298 299 300 302 304 302 299 298 300 298 299 298
312 312 312 312 311 311 311 311 311 312 311 309 308 309 307 307 307 307 308 308 307 308 308 304 298 298 299 299 300 308 312 312 311 310 310 310 310 310 309 309 309 309 310 314 312 303 303 301 298 297 296 296 296 298 297 297 299 304 303 302 301 297 298
305 307 309 310 310 310 309 308 308 307 307 308 308 306 306 307 306 307 307 308 307 307 307 303 296 296 297 297 297 302 311 311 311 311 311 311 310 310 309 309 309 309 309 309 307 302 301 300 298 298 298 297 297 297 295 295 296 298 301 304 302 300 298
299 299 300 300 301 302 304 305 308 306 305 305 305 305 305 306 305 304 306 308 308 308 310 304 296 294 294 294 294 294 308 308 308 309 309 310 310 311 310 310 310 310 310 310 309 304 301 300 299 299 297 296 296 296 297 298 299 300 301 301 302 301 300
297 297 297 297 297 298 299 299 301 303 303 303 303 304 303 303 302 304 307 306 305 308 309 299 295 294 294 294 293 300 307 309 308 309 308 309 309 310 309 309 309 308 309 309 307 298 300 301 300 300 297 294 294 295 294 294 292 294 299 301 301 301 300
296 296 296 296 295 296 296 296 297 299 299 300 300 301 302 302 303 303 304 305 305 307 307 302 295 295 294 293 295 302 306 307 307 308 309 308 309 308 308 308 308 308 308 308 304 296 296 298 301 300 298 296 295 295 293 293 293 293 294 295 295 295 294
295 295 295 295 295 294 295 295 295 297 296 296 297 298 299 299 301 302 302 305 304 304 306 304 298 296 295 293 296 305 306 306 307 307 308 307 306 306 307 309 312 309 308 308 301 296 294 299 301 300 299 297 296 295 292 293 294 293 292 292 292 291 291
295 295 294 294 295 294 294 295 295 294 295 295 295 295 297 297 297 298 299 301 306 305 304 305 300 296 295 294 296 302 306 306 306 306 306 307 306 305 305 306 307 307 308 306 299 296 294 298 303 301 300 299 297 296 295 293 295 294 293 293 292 292 291
295 295 294 294 294 294 294 294 294 294 294 294 294 294 295 295 295 295 296 297 298 299 300 302 302 298 295 295 294 300 306 305 306 307 306 306 307 306 303 301 300 296 295 298 297 295 294 295 302 301 300 300 298 296 295 292 293 292 292 292 290 291 291
295 295 295 294 294 294 294 294 294 293 293 294 294 294 293 293 293 293 294 294 295 295 298 299 300 298 296 294 293 294 304 307 307 307 305 304 304 306 306 304 302 298 295 295 296 294 294 294 298 302 301 300 300 300 294 293 294 294 293 292 293 292 292
295 295 295 295 294 293 294 294 294 293 293 293 292 292 292 292 292 292 292 293 294 294 297 299 298 296 296 294 293 293 299 306 308 307 304 303 303 303 305 305 303 299 295 294 295 295 293 293 295 301 301 297 293 292 295 295 294 294 294 293 291 290 290
292 293 293 293 292 291 292 292 292 293 292 292 291 291 291 291 291 291 292 292 293 294 295 297 295 294 293 293 293 292 293 297 297 303 306 306 304 304 301 301 301 298 293 292 294 294 294 293 295 299 294 292 291 292 294 294 293 293 291 290 289 289 288
291 291 292 292 291 290 290 291 291 291 290 289 289 289 289 290 290 289 289 290 292 292 294 294 294 293 292 292 291 291 291 291 291 297 300 303 303 300 299 297 296 294 292 292 293 293 294 294 297 295 293 291 291 293 295 293 292 291 288 288 288 288 289

ECMWFFLT1_sfc_thetae_054.txt.gz
Theta_e
322 318 318 317 316 318 317 317 318 317 317 318 318 319 321 323 322 321 321 322 323 323 326 323 324 323 323 325 325 323 321 323 322 322 319 319 321 319 318 319 319 319 316 315 320 318 316 314 316 322 324 325 326 325 324 322 321 320 317 316 314 314 313
320 319 318 319 317 317 316 315 317 316 317 316 316 318 320 322 325 321 320 320 320 323 325 321 322 323 323 323 323 322 322 321 321 321 322 320 318 318 317 316 317 317 317 318 317 319 318 315 315 317 318 323 323 322 319 317 316 315 314 314 314 312 313
319 318 317 315 315 315 316 314 315 316 315 315 315 315 317 320 321 321 318 319 319 322 323 320 320 321 321 322 322 322 320 320 319 322 322 320 318 318 319 318 316 316 317 317 317 319 318 319 315 315 317 317 315 317 318 314 312 312 312 312 311 311 311
318 317 315 314 313 314 315 314 315 314 314 314 314 315 315 317 319 321 318 319 321 324 321 320 320 321 319 320 319 320 320 320 319 320 318 318 318 319 317 319 318 318 316 314 316 317 318 317 316 316 318 318 316 314 312 312 311 310 310 310 310 310 311
318 317 315 314 314 314 314 313 312 313 312 313 312 313 314 317 319 319 320 318 318 317 317 317 317 317 317 317 318 319 318 318 319 320 318 318 317 317 317 317 318 315 313 317 318 318 319 318 317 315 316 316 315 313 311 312 310 309 309 309 309 310 310
318 317 316 315 314 314 313 313 313 313 311 313 312 313 312 315 318 317 317 317 316 316 315 315 314 315 315 315 315 314 315 318 318 317 318 318 318 319 318 317 317 316 316 318 318 319 320 320 318 315 315 317 313 313 316 311 310 310 310 310 310 310 309
317 317 316 315 314 314 314 314 314 314 313 314 312 312 312 315 316 317 316 314 314 314 314 313 312 313 312 312 312 313 313 311 313 315 316 314 314 314 317 317 317 317 316 318 319 320 319 318 316 315 313 314 314 312 313 310 310 308 309 310 310 310 309
317 317 317 316 315 314 313 314 313 313 314 313 312 313 314 313 313 313 314 313 313 313 313 313 312 311 312 312 312 312 311 310 311 312 310 311 312 312 314 317 316 317 317 318 320 320 321 320 318 316 314 310 310 309 308 308 305 308 308 309 309 309 309
318 317 316 316 316 315 314 314 313 313 314 313 312 312 312 313 313 314 313 311 310 310 311 311 311 310 310 311 310 310 311 313 310 309 309 309 309 310 312 314 318 316 317 318 320 320 320 320 319 317 316 313 308 305 306 307 306 307 308 308 309 309 309
317 316 316 316 316 315 315 314 314 313 312 313 313 312 311 311 312 312 311 310 309 309 310 310 309 309 309 310 309 309 309 308 310 307 308 309 308 308 310 313 316 316 317 318 319 319 319 319 319 318 316 313 311 307 305 305 306 306 308 307 306 308 308
317 317 317 317 315 314 312 313 313 312 312 313 313 313 310 311 313 315 310 309 308 308 309 308 308 308 309 308 308 308 307 309 309 309 309 308 308 310 309 309 312 314 316 318 318 318 318 318 317 317 316 314 314 309 305 305 306 304 308 307 306 308 308
317 317 317 317 315 314 313 313 313 312 311 312 313 311 310 310 309 308 308 308 308 307 307 308 308 308 309 309 309 308 307 307 308 308 308 309 309 309 308 308 309 311 314 317 317 317 317 317 317 316 314 313 311 311 308 307 305 307 309 310 309 306 308
317 317 317 316 314 314 314 313 312 311 311 312 310 310 310 309 308 308 307 308 307 306 307 306 307 308 308 307 307 307 306 307 307 307 307 307 307 307 308 307 307 308 310 313 315 316 316 316 317 316 315 313 310 311 310 306 306 307 307 310 309 306 308
316 316 316 315 314 314 314 314 313 312 311 310 310 309 309 308 308 309 308 309 307 307 307 307 307 308 308 307 307 306 306 307 307 306 308 308 307 308 308 308 307 307 309 311 311 312 314 314 314 315 315 312 309 310 310 307 307 306 305 303 305 305 308
316 316 315 314 314 314 314 313 312 311 311 310 310 309 308 309 309 309 309 308 307 307 307 307 307 307 308 307 307 307 306 306 306 305 306 307 307 307 307 308 307 307 307 307 308 309 310 311 312 313 313 313 311 309 309 306 305 306 307 303 304 304 308
316 315 315 314 314 314 314 313 313 311 310 310 309 309 309 309 309 309 309 308 307 307 308 308 307 307 307 307 307 306 306 306 307 307 307 307 307 306 308 308 307 308 308 308 307 307 307 308 309 312 312 310 311 309 308 304 305 305 306 305 304 305 307
316 315 315 315 314 313 313 312 313 311 311 310 309 309 308 309 309 309 309 308 308 307 308 309 308 308 308 308 308 306 306 306 306 306 307 307 307 307 308 308 308 308 308 307 306 307 306 306 307 309 310 309 309 307 307 304 306 305 305 305 302 304 305
315 315 314 314 313 313 312 312 312 311 311 311 309 308 310 309 308 308 309 309 308 307 308 309 308 307 308 308 308 307 307 306 306 306 306 306 312 307 308 309 307 307 307 308 307 307 307 307 306 306 306 305 306 306 306 304 304 304 305 305 304 302 303
315 314 314 313 313 313 312 312 312 311 312 311 309 309 309 308 309 308 308 309 309 308 308 308 308 308 308 307 307 306 307 306 306 306 306 306 310 306 308 307 307 307 307 309 308 307 307 307 306 307 305 304 303 305 305 303 304 304 305 305 304 303 304
315 314 314 313 313 313 313 312 312 311 312 311 310 309 308 309 310 309 309 309 309 309 309 308 308 307 308 308 308 307 307 307 307 307 307 307 308 307 307 307 307 307 308 308 308 308 308 307 308 307 307 306 305 304 304 304 303 303 303 303 303 304 304
315 315 315 314 315 314 313 312 312 311 311 311 311 310 310 309 309 309 308 309 309 310 309 309 307 307 308 308 308 307 308 309 310 310 310 309 309 309 309 308 309 309 308 308 309 308 308 308 307 308 306 306 305 305 304 304 302 302 302 302 303 303 303
315 315 315 314 314 314 314 314 313 313 311 310 311 311 310 310 309 309 309 309 310 310 309 310 309 308 309 309 308 308 308 310 310 311 311 311 311 311 311 310 310 310 311 312 309 308 308 308 308 308 306 306 306 306 305 305 303 302 302 303 303 302 303
315 315 315 314 314 313 313 313 312 313 313 312 310 311 310 310 309 310 310 310 309 310 310 310 312 307 307 310 309 309 310 310 310 311 312 311 311 311 312 311 312 317 314 311 307 302 301 303 306 309 308 306 307 306 306 305 304 303 303 302 303 304 303
314 313 313 313 314 315 314 313 312 312 310 310 310 311 311 310 309 309 310 310 309 309 311 311 305 301 300 303 310 310 311 311 311 311 311 311 312 312 312 311 310 314 315 312 308 299 299 299 300 301 301 303 306 308 306 305 305 304 303 303 303 303 304
313 312 312 312 313 313 314 314 313 312 311 311 310 308 308 308 308 309 309 309 309 309 310 308 302 301 299 298 304 312 311 311 311 311 312 312 312 312 312 312 311 312 313 313 311 307 302 298 298 298 297 297 298 300 301 308 307 304 304 304 302 304 304
311 311 311 311 311 312 312 311 310 310 310 310 310 309 308 309 308 306 308 310 309 308 309 303 299 300 299 298 297 304 312 312 312 312 312 312 312 312 312 312 312 312 313 315 316 310 308 306 299 298 298 298 298 297 296 296 299 310 308 307 305 304 304
301 302 303 305 306 307 308 307 307 306 308 308 308 308 309 308 307 307 308 308 308 307 308 301 295 293 294 295 295 298 311 312 312 312 312 312 312 312 312 312 312 312 312 313 313 310 308 307 305 303 303 303 304 302 297 296 295 294 301 309 308 306 306
298 298 298 299 300 299 300 301 303 303 304 305 305 305 305 304 305 305 305 306 307 308 308 296 295 294 292 292 292 295 307 309 311 311 312 312 312 312 312 312 312 312 312 312 312 309 308 307 305 304 303 302 303 302 301 301 302 303 305 306 307 309 308
297 297 297 297 297 297 297 298 298 300 300 300 300 301 301 301 302 304 305 305 305 307 308 297 296 295 294 293 293 301 305 308 309 310 310 311 311 312 312 311 311 311 312 312 308 301 303 307 305 305 304 301 300 299 298 296 293 294 300 304 305 306 306
297 296 296 296 296 296 296 296 296 298 297 297 297 298 298 299 300 300 301 302 303 303 304 299 294 295 294 294 297 303 305 306 308 309 310 311 311 311 311 311 311 311 311 311 305 299 296 300 306 305 304 302 300 300 299 298 293 292 292 292 292 291 292
295 295 295 295 295 296 296 296 296 297 296 295 295 296 297 297 297 298 298 299 301 300 300 299 294 294 294 294 297 303 306 307 307 307 308 309 309 309 309 308 312 312 311 311 302 298 294 300 306 305 304 302 300 300 299 298 298 296 292 292 292 292 292
295 295 294 294 295 294 295 295 295 295 295 295 294 295 297 295 295 295 296 297 299 298 298 298 295 293 293 294 298 303 304 306 306 308 308 308 308 306 307 307 306 307 310 307 299 296 293 299 307 306 305 303 301 300 300 297 298 298 298 297 297 297 295
295 294 293 293 294 294 294 294 294 294 294 294 294 294 294 294 293 293 294 295 295 296 297 298 296 292 293 294 294 301 304 305 306 307 308 307 307 308 307 307 304 296 294 294 295 294 293 294 306 307 305 303 302 302 301 298 300 300 299 297 295 295 295
294 295 295 294 294 294 294 293 293 293 293 293 293 293 292 293 292 293 293 294 294 295 297 297 296 292 292 292 293 294 302 304 305 306 307 306 306 307 308 308 308 303 297 294 292 292 293 293 296 306 305 304 305 304 297 299 298 296 297 296 295 295 294
294 294 294 294 293 293 294 294 293 293 293 293 292 292 292 292 291 291 292 292 293 293 295 296 295 293 291 291 292 292 297 301 302 303 304 306 307 307 308 308 308 302 294 293 292 292 292 293 292 303 305 298 294 292 299 300 298 297 296 295 295 294 294
292 293 293 293 292 292 292 293 293 293 293 292 292 291 291 291 291 291 291 292 292 292 293 294 293 294 292 291 291 291 291 293 291 296 300 302 305 307 306 305 303 297 291 291 291 291 291 292 293 298 296 294 291 292 295 298 296 296 295 295 295 294 294
291 291 292 292 292 291 291 292 292 291 291 291 290 290 290 290 290 290 290 290 291 292 292 293 293 292 292 291 291 290 290 290 290 294 296 298 301 302 302 302 299 291 291 291 291 290 290 291 295 294 293 292 291 292 297 295 294 294 293 292 293 293 293

ECMWFFLT1_sfc_thetae_057.txt.gz
Theta_e
332 332 334 335 337 335 335 335 336 336 336 338 338 337 338 337 337 336 336 336 335 336 335 335 336 336 336 334 335 335 335 334 333 331 330 330 328 327 329 331 331 331 330 328 326 323 320 316 317 327 328 325 325 325 324 323 323 323 323 323 322 323 325
334 333 333 333 333 334 334 333 334 332 334 335 336 337 338 337 337 337 337 336 336 335 335 334 336 336 335 334 333 334 334 334 334 335 333 331 331 329 328 329 330 328 328 329 328 328 321 318 317 318 317 324 323 322 321 321 320 319 320 321 321 324 327
332 331 332 332 332 333 333 333 333 332 331 331 333 335 337 337 337 337 336 336 337 336 334 334 336 336 336 334 334 336 336 336 335 335 334 334 333 333 331 330 328 327 326 326 326 325 324 324 317 317 319 320 316 318 320 319 318 318 318 320 322 323 325
332 331 330 330 329 331 331 331 331 331 331 331 331 333 336 336 337 336 336 336 337 336 334 334 336 336 337 337 335 335 336 336 335 335 334 334 334 333 331 330 329 328 326 324 324 326 324 321 319 319 320 319 318 317 316 319 320 320 320 321 320 321 323
332 331 330 329 328 329 331 330 330 329 329 329 331 331 333 335 335 335 335 335 335 336 335 336 336 335 336 335 335 336 334 334 335 334 334 333 333 333 332 331 331 331 329 329 328 329 326 323 321 318 317 318 318 318 317 318 318 317 317 317 317 318 318
332 332 331 330 329 329 330 329 328 327 328 328 329 331 333 334 334 334 334 334 334 335 335 334 335 334 334 334 334 333 334 333 333 334 333 334 333 332 331 331 330 329 329 331 331 329 329 326 323 318 319 320 316 315 315 316 313 315 315 315 316 315 314
332 332 331 330 330 330 330 330 329 328 327 329 329 332 332 333 333 334 335 335 334 333 332 333 333 333 334 332 333 333 333 333 333 334 334 334 334 335 334 330 329 329 330 331 331 330 327 325 322 320 318 318 318 314 314 313 313 311 312 314 315 315 314
331 331 331 331 330 329 330 330 330 330 328 329 329 330 330 332 332 332 333 332 331 331 330 330 329 330 330 329 330 331 330 330 331 332 333 333 332 332 333 332 331 331 330 330 331 330 328 328 325 323 320 315 315 314 312 313 314 312 311 312 313 313 314
331 331 330 329 329 330 330 330 330 331 331 329 329 329 329 331 331 331 330 329 328 327 326 326 326 326 327 328 327 329 326 324 328 328 329 330 331 331 332 333 331 330 331 330 331 330 329 329 328 326 324 319 313 310 313 312 312 310 312 310 312 313 313
330 329 328 328 328 329 330 331 330 328 328 329 328 328 328 329 331 330 328 327 326 326 326 326 326 325 326 326 326 325 324 324 325 324 325 327 327 329 330 332 331 331 330 332 331 331 331 330 329 327 325 321 318 313 311 311 312 310 310 312 308 310 313
329 330 329 328 328 327 327 328 327 325 326 327 327 326 328 328 328 327 328 326 325 325 326 325 324 324 324 323 323 323 322 324 323 323 323 324 326 328 329 329 331 329 330 330 330 331 330 330 327 326 324 324 321 314 313 310 311 314 311 313 313 308 311
329 329 329 328 328 327 327 326 327 326 326 325 325 326 327 327 327 326 327 325 324 323 324 325 324 324 324 322 323 321 322 324 322 322 322 323 323 326 328 329 330 329 330 331 330 330 330 329 327 325 323 323 323 323 317 313 309 314 316 310 312 312 310
327 328 328 327 327 328 327 326 326 325 326 325 325 326 326 325 325 325 324 324 323 323 323 323 324 323 324 324 323 321 322 324 321 321 320 321 320 326 327 328 328 329 329 329 329 329 328 328 328 324 324 322 322 325 320 315 312 311 317 315 313 311 312
328 328 327 328 328 328 328 327 327 327 325 325 324 324 325 325 324 324 322 322 322 323 322 323 324 324 323 322 323 322 321 321 319 321 321 320 320 324 325 326 326 327 329 329 329 329 327 327 327 327 325 322 321 323 319 316 313 314 316 319 316 310 312
327 327 327 327 328 327 326 326 326 325 326 324 324 324 324 324 324 323 322 321 322 321 322 322 323 323 321 322 322 323 323 320 319 320 323 319 320 322 324 324 323 325 327 328 329 326 326 325 324 323 323 323 321 321 322 318 315 312 312 316 314 315 313
325 326 326 326 326 325 326 325 324 325 325 323 324 324 324 323 323 322 321 321 320 321 321 322 323 323 322 321 320 321 323 322 320 320 320 320 317 320 321 322 322 323 324 327 327 327 327 325 324 322 324 324 323 322 320 318 317 314 313 313 316 311 312
325 325 325 326 326 326 325 324 324 325 324 323 322 323 324 322 322 322 321 320 320 320 321 322 321 321 320 320 320 319 320 321 321 321 320 319 319 321 321 320 321 322 324 324 323 324 324 325 325 324 325 326 325 323 323 321 320 319 315 313 313 311 313
325 325 325 325 326 325 325 324 323 323 323 323 322 322 322 323 322 321 322 319 319 320 320 320 320 321 322 323 321 321 320 320 321 320 321 321 321 322 321 321 320 320 321 321 321 319 319 321 319 321 321 321 321 323 322 321 320 319 317 313 314 314 316
324 325 325 326 325 325 324 323 322 323 323 322 322 322 322 322 322 321 320 319 319 319 320 320 319 319 320 322 323 323 322 321 321 320 320 320 320 321 322 321 322 323 322 322 322 323 321 320 317 319 318 317 316 319 320 320 319 318 318 315 315 313 314
323 323 324 323 323 321 321 321 320 320 321 321 321 320 321 321 322 321 321 321 320 320 319 320 321 322 321 321 322 321 322 322 322 322 321 319 321 321 321 321 322 323 321 321 322 322 323 322 320 319 319 320 317 317 318 318 316 316 317 317 315 314 313
322 322 322 322 321 321 320 320 320 320 320 320 321 320 320 321 322 321 323 322 322 323 322 321 321 322 321 323 323 323 323 323 322 322 323 321 322 321 322 322 322 322 322 322 323 323 324 322 322 321 320 318 318 317 317 317 316 315 315 315 313 313 313
322 322 322 322 322 322 321 321 321 320 320 320 321 321 322 322 321 320 320 322 321 323 323 323 323 323 323 322 323 323 323 321 322 321 322 322 322 322 322 323 323 323 325 323 313 316 319 319 322 321 321 320 318 317 316 316 315 314 314 314 313 314 312
322 322 321 321 320 322 322 323 323 322 320 319 319 320 320 320 320 321 320 320 322 323 324 325 317 307 310 322 323 321 323 324 323 322 322 323 324 323 323 324 325 321 315 313 309 303 302 304 310 319 323 321 319 317 316 314 313 313 312 310 310 311 310
319 319 319 318 318 319 318 317 319 321 319 318 320 318 318 318 319 321 320 321 322 323 324 320 301 301 300 302 318 324 323 324 324 323 323 323 322 324 326 324 326 321 318 315 315 300 299 298 300 300 304 310 315 321 319 316 316 316 312 311 312 312 310
316 317 317 317 318 319 321 320 320 319 319 317 315 316 316 316 318 319 319 319 321 322 322 299 294 297 299 298 302 320 323 323 324 324 324 324 324 325 326 327 326 326 327 327 326 320 307 299 297 298 298 298 299 300 303 318 320 317 317 314 313 313 312
312 314 316 317 318 318 318 317 317 317 316 316 316 315 316 317 318 319 321 320 321 321 315 295 293 293 294 297 295 305 321 322 322 323 324 324 324 325 326 326 326 326 325 318 319 323 322 318 300 297 298 297 297 296 296 295 297 319 321 317 316 316 315
305 305 305 306 307 308 309 309 310 312 312 312 311 314 315 315 316 317 319 321 320 315 307 296 293 293 293 291 291 301 320 322 323 322 322 323 324 324 325 325 324 325 327 325 325 325 323 322 320 316 315 316 318 310 295 295 295 291 303 318 319 317 319
301 302 302 302 303 303 304 304 305 305 306 307 308 309 310 311 311 312 313 315 316 310 302 292 292 293 293 293 292 298 320 320 322 322 323 323 322 323 323 323 323 323 325 325 325 322 324 323 323 322 320 320 319 319 319 319 318 319 317 317 319 320 321
301 301 301 302 302 302 302 303 303 305 305 305 306 307 306 307 307 307 309 312 312 309 303 292 292 293 293 293 295 313 317 320 322 322 323 323 323 323 323 323 323 323 324 324 315 302 308 320 322 321 320 320 319 318 318 302 294 296 307 315 317 318 320
300 301 301 301 301 301 301 300 300 302 303 303 302 303 303 303 303 304 305 305 307 307 304 295 291 292 292 292 302 315 315 318 320 321 323 323 323 323 323 323 323 323 324 324 311 299 297 302 319 319 319 320 319 317 317 311 295 291 291 293 294 294 295
298 299 299 299 300 301 302 301 300 302 303 303 303 303 304 303 302 302 302 302 303 304 304 297 291 292 292 292 298 311 312 315 317 318 320 322 322 322 321 312 315 321 322 323 300 297 293 304 319 320 320 319 318 316 316 313 310 304 292 292 291 291 291
297 296 296 297 298 298 299 300 300 300 302 301 300 301 301 302 301 301 302 302 300 303 303 300 292 291 292 292 299 309 310 313 314 315 315 317 320 321 321 315 307 311 315 312 294 295 292 302 319 319 319 319 317 317 318 315 311 309 308 307 304 303 299
298 297 296 297 297 296 297 297 298 298 298 299 299 300 301 300 300 299 300 301 300 301 302 302 296 291 291 292 292 305 309 309 309 309 311 312 313 316 318 320 314 297 293 291 292 292 293 293 312 318 318 317 316 315 320 316 313 313 311 310 308 306 304
297 298 298 297 297 297 296 296 297 297 297 297 298 297 297 298 299 298 298 298 299 299 300 301 299 291 291 291 291 296 306 305 305 305 307 308 310 311 313 315 319 297 293 294 294 292 292 292 294 310 315 316 317 317 311 314 309 300 311 308 304 302 301
297 297 298 298 297 296 296 296 296 296 296 296 296 296 296 296 296 296 297 298 297 298 298 296 299 294 291 291 290 290 299 301 298 301 303 306 308 310 311 312 313 301 293 295 294 293 292 292 291 301 310 301 301 297 310 313 310 307 306 303 301 300 299
296 297 297 297 297 296 297 297 297 297 297 297 296 295 295 295 295 295 296 297 297 297 297 297 293 295 291 290 290 290 289 294 290 300 303 303 305 306 308 308 308 298 292 292 292 292 291 291 292 299 296 295 296 293 299 309 306 304 302 301 301 301 300
297 297 297 297 297 297 297 297 297 297 297 297 297 297 296 296 295 294 294 294 295 296 296 297 295 292 293 290 290 290 289 289 289 296 299 301 304 304 305 306 302 292 291 291 291 291 292 291 299 295 293 292 293 293 306 306 304 304 300 299 300 299 299

ECMWFFLT1_sfc_thetae_060.txt.gz
Theta_e
334 336 337 335 336 335 335 335 337 336 337 337 337 337 338 338 337 337 338 338 336 336 335 339 339 339 339 337 338 337 336 336 337 332 330 332 329 330 336 333 335 336 333 331 329 324 323 320 319 329 330 329 328 328 328 327 329 329 329 330 330 331 332
337 337 336 335 333 334 334 335 335 334 336 336 336 337 336 336 337 336 337 337 337 336 335 334 338 339 340 339 338 337 337 335 336 334 332 330 331 330 332 330 331 331 332 333 332 330 324 322 320 321 322 326 326 326 326 327 328 330 329 329 329 330 331
336 334 333 333 334 334 333 335 334 333 334 335 336 336 336 335 336 337 336 336 337 336 334 334 337 340 340 339 339 338 338 336 336 334 333 333 331 334 333 331 328 329 329 329 330 329 328 327 321 322 324 323 320 322 326 326 326 327 328 328 329 329 329
333 331 330 330 331 332 332 332 332 332 333 333 334 337 336 335 336 336 336 336 337 337 334 334 337 336 340 340 339 339 338 337 334 334 334 334 333 332 333 332 333 328 326 325 327 327 326 325 323 323 324 323 321 320 323 325 326 326 326 327 327 328 328
333 331 331 330 330 331 331 330 331 331 331 333 334 334 336 336 336 335 335 334 333 334 334 334 334 338 340 340 339 338 337 336 335 335 335 335 332 332 333 331 335 332 329 328 327 328 326 326 325 323 322 322 322 322 322 325 324 323 323 324 325 324 322
334 333 332 332 332 330 331 330 330 328 330 330 331 332 335 336 335 334 334 332 332 334 333 333 334 334 335 335 339 337 337 336 335 338 334 334 333 333 331 333 332 332 330 331 331 329 329 329 328 323 321 322 319 319 321 321 320 322 323 323 322 320 319
334 334 333 332 332 332 331 330 330 329 328 330 331 332 335 334 334 334 334 333 333 334 334 335 335 334 336 331 335 337 337 337 338 338 336 336 335 334 334 331 333 332 333 334 333 331 330 328 325 324 322 322 321 317 319 319 319 316 318 319 320 319 318
333 333 332 333 333 333 332 332 332 330 329 330 330 333 334 334 334 334 334 333 333 334 334 335 335 336 336 331 332 337 337 338 337 337 335 336 335 334 335 334 334 333 333 333 333 332 330 330 329 327 323 318 317 318 316 317 318 317 316 317 318 318 317
334 333 332 333 333 334 333 331 331 331 332 331 333 334 334 334 334 333 332 331 331 333 333 333 333 332 334 332 331 335 334 334 337 337 336 337 337 336 337 337 334 332 335 333 334 332 330 331 330 328 324 319 315 313 316 315 315 315 318 315 316 316 315
333 333 332 334 334 334 334 332 331 331 333 333 332 334 334 334 334 333 331 329 330 331 333 332 331 331 332 330 330 331 330 332 331 331 334 335 336 336 336 337 335 334 334 336 334 334 334 333 329 328 323 320 319 314 313 312 314 313 315 317 313 313 315
334 335 334 334 334 334 332 332 332 332 332 331 332 334 334 333 333 332 330 329 329 330 331 330 329 329 331 329 329 328 328 330 329 330 331 332 334 336 336 335 336 333 336 336 335 336 335 333 326 324 322 321 320 316 314 311 312 316 314 317 315 312 313
335 336 334 334 334 332 332 332 332 331 333 332 330 332 333 332 332 331 330 328 327 327 329 331 330 329 329 328 327 325 328 328 327 328 330 332 333 334 335 335 336 334 336 337 336 334 334 331 325 323 322 323 322 321 318 314 311 315 318 315 313 314 312
335 335 334 333 332 331 331 331 332 333 332 331 331 331 330 330 330 330 328 327 326 325 327 329 328 328 328 326 325 324 325 325 323 324 326 329 329 334 334 333 334 334 335 334 333 332 330 329 326 323 323 323 322 322 319 317 315 313 317 315 315 312 313
334 333 333 333 332 332 331 332 332 333 331 331 331 330 330 330 329 329 327 326 325 324 326 328 328 327 326 325 324 324 324 323 322 322 324 327 328 330 328 328 331 333 334 331 330 330 327 326 325 324 323 322 321 322 321 319 315 314 319 321 316 312 314
335 333 334 332 331 331 331 331 333 332 331 331 330 329 329 329 329 328 327 324 323 322 324 327 326 326 324 324 324 323 323 322 322 322 323 324 326 328 328 325 326 330 330 327 327 323 323 323 322 321 321 322 320 321 323 318 317 315 316 319 314 313 313
334 335 334 332 331 330 331 331 332 330 329 328 329 329 328 328 327 327 325 324 321 321 323 325 327 325 324 322 321 323 323 321 322 323 322 322 323 325 326 327 327 330 329 327 326 324 325 322 322 320 321 321 321 322 321 321 319 316 316 314 317 312 314
334 334 333 331 330 330 330 330 330 330 327 326 327 328 327 326 326 326 324 322 321 320 321 325 325 324 322 322 321 320 320 321 322 322 322 321 321 323 324 325 327 329 328 326 325 324 324 323 322 321 321 322 322 321 324 324 322 320 319 315 315 314 314
333 333 332 331 330 330 330 330 330 329 328 326 326 326 325 325 325 324 324 321 320 320 320 321 323 324 324 324 322 321 320 321 322 322 323 323 324 323 323 323 323 325 326 324 324 322 322 322 321 321 320 320 320 322 324 324 323 321 320 319 317 317 316
334 333 332 331 331 330 330 330 330 329 327 325 325 324 324 324 323 322 321 321 320 320 320 321 321 322 322 324 323 323 323 322 321 321 321 321 322 323 323 322 322 323 322 323 322 322 322 322 319 320 320 320 319 321 322 322 323 322 321 319 320 316 318
330 332 332 331 331 330 329 330 329 328 328 326 324 324 323 323 323 321 321 321 320 320 321 321 321 322 322 322 322 322 323 323 322 323 322 321 322 322 322 322 324 324 323 323 323 323 323 323 322 322 322 322 320 321 321 320 320 320 320 319 318 318 317
327 330 332 331 330 329 329 329 329 329 327 325 323 322 321 322 323 323 323 321 321 321 322 322 322 322 322 322 323 323 323 323 322 323 323 322 323 323 323 322 322 322 322 323 324 325 324 323 323 323 322 322 323 321 320 320 320 318 319 319 317 316 317
325 325 327 329 328 328 328 328 328 327 327 326 325 322 322 322 321 322 322 324 322 322 322 322 323 323 323 321 323 323 323 321 322 321 321 322 322 323 323 325 325 325 332 322 310 315 317 317 327 323 323 324 323 322 321 320 319 317 318 318 317 319 316
324 324 325 326 326 326 326 327 326 325 324 324 324 324 324 323 320 321 321 322 323 324 325 328 310 302 306 322 323 321 323 323 322 322 321 321 322 322 323 324 325 323 316 315 312 305 304 306 308 321 327 324 322 321 320 319 318 318 318 316 316 316 315
323 323 322 322 323 323 324 326 326 326 324 324 324 323 324 323 323 321 320 321 322 326 321 309 293 294 298 301 323 325 323 322 322 322 322 322 322 323 323 323 325 326 322 318 321 302 301 301 301 301 300 303 309 329 321 318 318 319 316 317 317 317 315
321 321 322 320 318 319 320 322 324 325 324 324 324 325 324 323 323 322 322 323 325 319 310 297 292 293 293 295 301 326 326 324 324 323 323 323 323 324 323 324 325 327 326 325 325 326 311 300 298 299 297 299 301 299 299 319 322 319 319 317 317 318 318
322 322 321 321 321 321 321 320 322 323 322 322 323 322 321 321 321 323 322 317 314 311 307 294 293 293 293 293 293 305 324 325 324 324 323 324 323 323 324 327 328 328 327 324 324 326 327 324 300 295 299 297 295 296 297 296 298 319 323 319 319 318 318
316 317 317 317 318 319 319 315 316 318 319 319 319 317 316 317 319 321 318 312 308 306 303 295 292 292 293 292 292 297 325 326 326 325 325 325 326 326 327 327 326 328 330 330 327 325 327 327 326 321 320 321 322 316 295 294 294 291 304 320 321 319 321
312 312 312 312 313 314 314 313 313 313 313 313 313 313 314 314 316 318 315 310 308 304 300 292 292 292 292 293 292 296 329 329 327 327 327 328 328 328 328 328 327 325 326 329 330 326 328 328 328 328 327 326 325 325 326 324 321 321 320 321 322 323 323
310 309 309 309 309 310 310 310 309 309 310 310 311 311 310 311 312 315 314 312 308 305 301 291 291 292 292 293 292 322 329 328 328 328 328 329 328 328 329 329 328 327 328 328 315 306 313 327 327 327 326 327 327 327 327 316 303 307 320 327 327 327 327
307 307 307 306 305 306 308 310 310 310 309 308 308 308 309 309 309 309 310 311 309 306 303 294 291 291 292 291 304 325 325 326 326 327 328 329 329 329 329 329 327 326 328 327 304 299 299 303 324 324 325 325 325 326 326 322 297 292 291 292 291 292 293
302 304 305 304 304 305 306 307 308 311 309 309 308 308 308 307 307 307 308 309 309 305 302 295 291 291 291 290 298 319 319 322 323 324 326 327 326 326 325 318 319 324 326 324 292 296 293 308 322 324 325 324 324 324 324 325 318 312 291 292 291 292 293
299 299 300 303 304 303 304 305 306 307 308 308 306 306 306 305 305 306 306 306 305 307 305 299 291 291 291 291 300 317 315 316 317 319 318 319 322 323 325 318 309 311 313 301 293 295 292 302 323 323 324 323 320 320 321 323 322 321 317 315 313 309 306
301 300 300 301 302 302 303 303 303 304 304 303 303 304 304 303 303 304 305 305 304 306 306 302 295 291 291 292 291 308 313 313 312 313 315 315 315 318 319 321 306 292 292 292 292 291 295 292 312 322 323 321 319 318 321 320 321 321 320 320 320 319 317
302 302 302 302 301 301 302 302 303 304 304 304 303 304 303 302 302 303 304 305 304 303 303 304 298 290 291 291 290 296 308 305 305 307 309 311 314 314 316 317 319 294 293 293 294 292 294 292 293 313 318 320 321 314 306 321 321 306 320 319 318 317 317
302 302 303 303 302 300 300 301 301 302 302 302 302 302 303 303 303 303 304 304 304 304 302 297 302 293 290 291 290 290 303 303 299 303 305 308 310 312 313 314 318 299 291 291 291 292 292 292 292 303 311 300 297 296 311 315 320 319 317 316 315 313 313
301 301 301 302 302 302 303 303 303 303 303 302 302 302 302 302 302 302 302 302 303 303 303 302 293 299 291 290 289 290 289 295 290 302 303 305 307 308 310 311 308 292 291 290 291 291 291 291 292 303 297 295 295 294 295 309 312 315 314 314 314 312 311
301 301 301 301 302 302 302 303 303 303 303 303 303 303 302 303 303 302 301 301 302 302 303 302 295 292 296 290 290 290 290 289 289 298 300 302 305 306 307 307 301 291 290 291 290 291 291 291 296 295 294 293 292 292 301 306 309 313 313 311 311 311 312

ECMWFFLT1_sfc_thetae_063.txt.gz
Theta_e
331 333 333 335 337 333 335 336 336 336 336 336 337 337 338 338 338 338 338 338 337 336 336 339 338 338 337 337 338 338 336 336 335 332 330 332 330 330 334 332 331 332 332 327 328 324 321 318 321 328 331 330 330 330 330 330 330 331 331 332 331 332 332
334 334 335 334 332 334 334 335 334 332 334 337 336 336 336 336 337 337 337 337 337 335 334 339 339 337 337 337 338 339 338 337 336 335 333 332 331 331 330 332 331 331 330 331 330 331 322 319 320 322 323 327 328 327 328 329 329 330 330 330 331 330 331
335 333 331 331 331 333 333 334 333 333 334 336 337 336 336 335 335 336 336 336 336 335 334 333 338 338 338 338 337 338 338 335 337 337 335 335 334 333 332 331 329 330 327 329 326 326 328 326 319 320 322 322 320 323 328 327 328 328 328 330 330 330 330
333 330 328 328 332 332 332 332 332 332 334 334 335 336 336 334 335 335 334 335 336 336 333 335 338 338 339 338 339 339 339 337 335 334 336 336 335 332 332 332 331 328 325 324 326 326 326 323 323 322 323 323 320 320 324 325 326 326 327 329 328 328 327
332 330 327 329 329 329 331 330 330 331 331 332 334 334 335 334 335 335 335 335 335 336 334 334 335 338 339 338 338 338 337 338 337 336 336 335 334 335 335 333 333 334 331 329 327 327 328 325 324 321 320 322 322 321 323 326 325 324 325 326 325 325 323
332 330 329 329 330 330 330 329 329 328 329 330 331 332 334 335 334 335 334 333 334 335 335 334 334 337 338 338 337 335 336 337 337 336 333 334 333 333 331 332 333 332 332 332 332 329 328 328 327 322 322 323 319 320 321 321 320 322 323 322 322 322 320
332 332 332 330 331 331 331 331 330 330 330 331 331 332 333 334 333 334 334 334 334 335 334 334 333 334 336 335 337 337 336 337 337 337 336 335 334 335 336 332 333 331 331 333 333 331 328 327 325 323 320 321 320 317 319 318 319 317 319 320 321 321 319
332 331 332 333 332 331 331 331 332 332 330 332 331 333 333 334 334 334 334 334 334 334 335 334 334 334 335 330 335 337 337 338 338 336 335 336 335 334 334 332 332 331 333 335 329 330 328 330 328 325 322 317 316 317 316 316 317 316 316 319 320 318 317
332 333 334 333 334 334 333 332 332 332 331 331 333 333 334 334 334 333 333 333 333 334 335 334 333 333 333 332 334 337 337 335 337 337 336 337 335 334 334 335 333 330 332 330 332 331 329 330 330 328 324 320 315 311 314 313 314 314 318 316 317 318 317
333 334 333 334 334 334 334 333 332 331 333 333 333 334 335 334 334 333 331 331 332 332 333 332 331 332 332 331 331 331 331 333 334 335 336 337 336 336 334 335 334 333 330 334 333 332 330 329 328 326 323 320 320 314 311 311 313 313 315 316 312 315 318
334 335 335 332 333 333 332 332 332 332 332 333 333 334 335 333 333 331 330 330 331 332 332 331 330 330 331 330 330 330 330 332 332 332 334 335 336 336 335 333 333 331 331 333 332 332 330 329 326 324 323 322 321 316 314 312 311 315 314 316 315 313 316
336 336 335 332 333 331 331 331 332 332 333 333 332 333 333 332 331 330 330 328 329 330 331 331 330 330 330 329 329 328 329 330 329 330 331 333 335 336 333 333 334 333 333 334 332 332 330 327 325 324 322 323 322 323 318 314 310 314 316 314 314 315 314
336 335 333 331 331 330 330 332 331 332 332 331 331 332 331 331 330 330 328 326 326 328 330 329 329 329 329 328 327 327 328 328 326 327 328 332 332 333 334 333 331 331 333 332 330 329 326 326 326 322 322 322 321 322 318 315 313 311 316 314 313 313 315
335 334 331 330 331 330 331 331 331 332 332 331 330 330 330 330 330 329 327 325 324 327 328 328 329 329 328 326 326 326 325 325 324 325 327 328 328 332 332 331 330 333 333 328 327 327 324 324 324 323 323 321 319 321 320 318 313 312 317 318 315 312 315
334 333 331 330 330 329 330 330 332 331 331 331 331 329 330 329 329 329 326 324 324 325 328 327 327 327 325 325 326 325 325 323 323 325 327 325 326 326 329 331 330 329 327 325 326 323 323 322 321 320 320 321 318 320 322 317 314 313 314 317 314 314 313
334 331 330 330 330 329 330 331 332 331 330 330 331 331 330 330 329 328 325 324 322 324 327 326 327 326 326 325 323 324 324 324 325 325 325 325 324 326 325 326 326 327 327 325 325 325 324 321 321 320 321 320 320 321 319 320 318 315 315 315 317 312 313
333 331 330 329 329 331 331 331 331 330 330 330 329 330 330 329 328 327 325 322 321 323 326 326 325 325 324 323 322 322 322 325 324 324 324 324 324 325 325 325 327 327 325 324 323 323 323 324 323 321 321 321 322 320 323 323 322 319 317 315 316 312 313
333 330 330 329 330 331 332 330 330 328 329 328 329 329 328 327 326 326 325 321 320 322 325 325 324 324 324 324 322 321 321 322 324 323 324 324 327 325 325 325 324 325 325 324 324 322 322 323 320 321 320 320 320 322 323 322 321 321 319 317 317 317 316
331 331 329 330 330 330 331 329 329 329 326 325 328 328 324 325 324 324 323 321 320 320 323 324 323 323 322 322 322 321 321 323 323 323 323 323 323 324 325 324 324 325 324 324 323 323 323 322 321 322 321 320 319 321 322 322 322 323 320 319 319 316 318
332 331 330 329 330 330 330 330 328 327 326 326 326 325 324 325 325 324 322 321 320 320 320 322 324 324 322 322 321 322 323 323 323 324 322 322 323 323 323 323 324 324 323 323 323 323 323 323 322 322 322 323 320 321 320 320 320 320 320 320 320 319 317
334 330 329 329 329 329 329 329 329 328 327 325 323 323 322 323 324 322 322 321 321 321 321 320 322 322 321 323 323 323 323 323 322 322 323 322 323 323 323 323 324 324 324 325 326 324 324 322 323 322 322 322 322 321 320 320 320 319 320 319 318 318 318
334 332 329 328 326 327 327 329 329 328 327 324 323 322 322 323 322 322 322 322 320 322 322 326 319 317 324 322 323 323 323 321 322 322 322 322 323 323 323 323 323 327 327 319 310 313 314 315 327 323 324 323 322 321 321 322 321 318 319 319 318 318 317
332 332 330 328 327 327 327 328 329 328 326 324 324 322 322 323 322 324 321 322 322 328 322 317 302 297 299 315 323 322 323 323 322 322 322 322 322 323 324 325 329 319 316 316 311 305 304 304 307 318 324 326 323 322 321 320 319 320 318 315 315 316 315
329 329 329 328 328 327 327 327 326 325 324 324 325 324 324 321 321 323 323 324 325 321 315 306 294 293 294 294 314 325 323 324 323 323 323 323 322 322 324 323 327 326 324 320 327 302 301 302 302 300 300 302 308 323 324 321 319 320 317 318 317 317 316
326 327 328 327 326 326 326 324 324 324 324 324 324 325 324 325 326 327 325 323 321 317 312 299 292 294 294 293 296 317 325 323 322 322 322 321 322 323 322 323 324 325 323 323 323 324 314 302 300 301 300 300 299 297 300 318 321 320 320 317 316 317 318
323 324 323 323 324 324 324 324 324 324 324 326 327 326 325 326 324 321 318 315 313 310 308 294 293 293 294 293 294 305 323 325 324 322 322 322 322 323 324 324 323 325 326 325 324 325 324 323 302 296 299 299 297 297 298 297 300 318 322 321 320 318 319
321 321 321 320 319 318 318 317 319 321 322 321 321 322 324 324 321 316 312 310 306 304 301 295 292 292 293 292 293 297 323 325 325 324 322 322 323 323 324 324 324 326 327 328 326 328 324 327 324 320 319 321 322 317 299 296 295 292 304 319 320 319 322
318 317 316 316 315 315 316 315 315 315 318 319 318 318 318 318 315 311 309 307 303 300 296 291 292 292 292 292 292 296 326 326 324 324 324 324 325 327 328 328 328 327 326 327 322 317 321 323 324 325 325 325 324 324 325 325 322 320 318 319 321 322 324
316 314 314 315 314 313 313 313 312 313 314 315 316 316 316 317 315 311 309 306 304 301 297 291 291 291 292 291 292 315 326 325 323 323 325 327 327 328 327 327 326 325 326 325 314 302 309 322 321 319 322 320 321 322 323 318 306 315 326 331 327 329 328
310 309 311 312 311 313 313 314 314 313 312 311 312 312 311 312 313 311 308 306 303 300 298 293 291 291 292 291 298 321 324 322 321 325 327 327 328 328 328 329 328 328 326 327 303 296 295 303 324 322 322 323 322 322 321 327 304 297 296 297 296 295 294
308 309 309 309 308 308 310 311 312 313 313 312 310 310 310 310 311 311 309 307 304 301 299 294 291 291 292 291 295 315 320 321 323 322 324 327 327 326 326 315 322 324 325 319 292 293 292 305 321 322 322 322 322 321 322 325 322 319 295 295 296 293 292
304 304 305 306 307 306 306 307 309 310 310 310 309 309 308 308 308 308 309 310 309 306 302 298 292 291 291 291 299 314 316 317 319 320 319 319 321 321 323 310 302 307 310 300 292 294 293 302 317 322 322 320 319 319 320 324 323 323 322 321 319 316 314
302 302 301 303 304 305 306 306 305 305 306 307 306 305 304 305 305 306 305 306 307 308 305 300 295 291 291 292 292 306 312 310 309 311 313 312 313 315 316 317 302 292 292 292 292 292 293 292 306 313 316 319 319 316 315 317 320 321 322 322 323 323 322
303 302 302 302 302 304 305 305 305 305 305 305 304 303 303 304 304 303 304 304 303 302 304 303 296 290 291 291 291 297 308 305 305 305 307 309 310 311 313 316 310 293 290 290 291 291 291 292 292 306 312 314 317 308 303 316 317 307 320 321 321 320 321
304 305 305 304 303 302 303 303 303 303 304 304 304 303 304 305 305 304 304 305 305 301 300 302 300 292 291 291 291 291 303 303 299 302 304 306 309 308 309 314 310 295 290 290 290 291 290 291 291 302 308 299 295 294 305 308 313 316 318 319 318 317 317
303 304 304 305 305 304 305 305 304 304 304 303 303 303 303 305 305 305 305 306 307 306 304 300 296 298 290 290 289 291 290 297 291 304 305 305 306 307 309 312 305 294 290 291 291 290 291 290 292 302 296 294 294 292 296 308 310 311 313 316 316 315 314
304 304 304 304 304 304 305 305 305 306 306 307 306 306 305 306 306 305 305 304 305 305 306 305 296 295 296 289 291 290 290 289 289 299 300 301 303 305 307 306 299 291 291 291 291 291 291 291 298 295 294 293 292 293 303 306 306 308 306 307 310 312 312

ECMWFFLT1_sfc_thetae_066.txt.gz
Theta_e
331 331 335 334 336 336 335 335 336 337 338 337 343 337 339 339 339 339 339 340 339 338 337 341 340 340 338 336 338 337 338 340 335 331 329 333 329 329 334 333 330 331 329 329 326 322 318 315 318 325 328 328 327 328 329 328 328 329 329 329 329 330 329
334 334 334 335 335 334 334 334 336 333 336 336 337 339 338 338 339 342 340 339 339 339 335 338 340 336 339 338 336 337 339 336 335 334 332 333 331 329 330 329 329 328 327 330 330 328 320 317 316 318 320 325 325 325 326 327 327 328 328 329 329 329 328
333 333 333 332 332 333 332 334 335 335 335 340 341 336 340 336 339 339 339 338 340 339 338 335 336 340 338 338 338 338 337 336 336 335 333 333 332 332 332 330 327 325 324 325 326 324 325 323 317 317 319 318 317 320 326 325 325 326 327 327 328 327 327
333 331 330 331 331 332 332 333 336 337 335 337 340 339 340 336 341 339 338 336 341 342 337 335 335 337 340 339 338 338 337 336 335 335 335 334 333 331 331 330 329 327 325 322 323 325 323 320 319 319 320 320 319 318 322 325 323 325 325 326 325 325 323
333 331 330 329 330 330 332 332 336 335 335 336 338 337 339 338 340 339 339 337 337 341 339 336 336 335 338 339 338 338 337 337 337 335 334 332 332 332 332 332 331 330 329 327 326 327 327 322 321 318 318 318 319 319 322 323 323 324 324 323 320 319 318
332 332 332 331 330 330 331 332 333 332 333 332 335 335 338 338 338 336 338 337 336 341 339 335 335 334 339 339 337 336 337 336 335 335 333 333 333 330 330 333 332 331 331 332 329 327 330 327 323 318 318 319 315 316 319 321 318 321 322 319 318 316 314
332 332 332 331 331 332 331 332 331 332 332 333 334 333 336 336 336 337 339 337 336 337 338 337 335 334 340 336 336 338 336 337 336 335 335 334 334 334 334 331 330 331 331 333 329 330 328 327 323 319 317 317 317 315 318 317 317 315 316 318 317 314 312
332 332 331 331 332 332 332 332 333 335 334 331 334 335 335 337 336 338 338 336 336 336 337 337 337 336 334 332 333 335 337 339 336 335 334 334 333 333 333 332 332 332 332 336 334 330 329 327 326 320 318 314 314 314 311 314 315 315 313 314 315 312 311
333 333 332 332 333 334 332 332 335 335 334 335 334 335 335 337 335 335 335 336 336 336 336 336 336 334 336 334 333 334 335 335 336 335 335 335 333 334 332 333 331 330 333 332 333 332 327 329 328 324 321 316 312 309 312 311 311 311 315 311 312 312 310
333 332 332 332 334 335 335 333 335 335 336 334 335 335 335 335 336 335 335 334 336 336 335 336 335 334 336 333 333 332 331 335 334 332 334 332 334 335 333 333 331 332 330 333 334 332 333 329 328 327 323 320 317 310 308 307 309 307 311 312 309 309 311
332 333 333 333 334 334 335 335 335 335 333 334 334 334 334 335 335 335 332 334 335 335 335 335 331 332 334 333 332 333 333 334 334 334 334 334 333 334 333 332 332 331 331 332 332 333 332 329 325 324 323 322 319 313 311 308 307 312 309 311 312 309 310
334 333 334 333 333 333 332 333 332 335 333 335 332 333 334 331 334 333 330 332 333 334 335 335 332 331 332 331 331 331 332 332 331 331 333 334 333 334 331 331 331 331 332 332 330 331 329 327 327 325 331 328 323 319 315 311 307 314 312 310 311 313 310
334 334 333 332 332 331 330 332 333 333 335 332 333 333 333 330 333 329 329 330 330 332 333 331 332 332 331 331 331 328 328 330 328 328 329 332 331 334 331 331 331 331 332 331 330 329 327 327 326 324 321 326 322 319 314 312 309 308 316 311 310 311 310
334 333 332 332 331 331 330 331 332 333 332 332 333 332 333 329 329 328 327 327 326 330 331 331 333 330 330 330 331 329 327 327 325 327 328 328 328 329 331 331 330 331 332 329 326 327 324 323 326 325 324 321 321 319 317 313 308 309 313 313 311 309 310
333 331 331 331 330 330 331 332 333 331 331 332 331 329 330 330 329 328 325 323 326 327 330 329 331 331 328 328 328 331 330 328 324 325 327 325 327 330 330 328 330 329 329 326 325 321 321 323 317 317 318 321 317 324 319 313 310 309 307 310 309 310 310
332 331 330 330 329 329 331 331 331 331 331 331 330 330 331 330 329 328 325 326 323 327 329 328 330 330 330 327 325 327 329 328 325 326 326 324 324 326 328 329 327 328 328 324 324 324 324 321 317 316 317 317 317 321 316 315 312 311 309 310 312 308 308
332 330 330 330 329 330 331 330 330 331 330 331 328 332 331 327 329 330 325 324 323 325 329 327 330 329 325 326 325 325 325 325 326 325 326 325 323 324 325 326 325 325 325 322 323 323 322 323 321 317 317 318 319 317 320 320 318 313 312 311 309 307 309
330 330 329 330 330 330 330 330 330 330 331 330 329 331 329 330 328 328 327 323 321 323 327 325 327 328 327 328 326 326 325 325 327 326 325 325 328 325 325 325 324 324 325 325 323 320 322 323 319 318 318 316 317 320 323 322 319 316 315 313 311 313 310
329 329 329 330 329 329 330 330 330 330 329 328 329 333 328 331 327 325 323 322 320 322 324 326 325 324 322 326 326 323 324 326 325 325 325 323 324 326 324 324 326 325 325 324 323 324 321 320 321 320 319 317 316 320 320 320 320 320 316 315 314 313 310
330 329 328 329 330 329 329 330 329 328 329 329 328 328 327 330 330 326 322 323 321 325 324 324 326 325 322 324 323 322 326 325 327 324 324 324 324 324 324 324 324 326 324 324 325 324 323 323 322 321 318 320 319 317 322 317 316 316 318 316 316 315 315
328 330 330 329 329 328 328 328 328 326 327 327 326 324 322 325 329 325 325 324 321 325 322 316 313 316 322 324 324 326 325 326 324 324 325 325 325 325 325 324 325 325 325 324 324 324 323 323 322 320 321 319 322 320 322 320 321 318 316 316 315 314 315
327 329 330 328 328 328 327 328 327 327 327 326 326 326 326 324 326 326 323 324 322 318 315 312 306 305 309 321 329 326 325 324 324 323 324 323 324 325 323 324 321 319 320 316 309 310 311 315 322 322 322 322 320 322 319 319 319 318 316 317 316 317 314
326 327 326 326 327 327 327 327 327 325 323 323 326 324 324 324 324 327 321 321 320 316 311 307 300 296 299 306 319 321 326 326 324 324 323 322 323 325 323 321 321 319 315 314 308 301 300 302 308 314 315 318 320 321 320 320 318 317 317 315 313 314 313
325 324 325 326 326 325 326 326 325 324 322 322 324 324 324 324 324 323 321 319 315 313 307 302 295 294 295 297 310 321 326 324 325 322 324 321 322 324 324 323 320 321 319 319 310 301 300 300 299 298 299 302 308 317 317 317 318 318 315 315 314 314 313
324 324 326 323 324 325 325 325 325 325 324 324 324 325 323 322 321 320 318 316 315 311 305 296 292 294 295 295 299 315 321 325 327 326 323 324 323 323 323 323 322 323 323 322 321 318 313 302 301 299 297 296 296 295 300 315 316 315 317 316 315 315 314
321 321 320 321 323 323 323 323 323 323 323 324 324 322 318 317 317 317 315 311 308 306 304 294 292 293 294 294 293 309 320 322 326 324 324 323 323 323 325 326 324 326 326 326 322 324 321 316 300 299 306 309 309 306 299 297 299 311 315 315 314 314 315
318 317 317 317 318 319 319 320 321 321 321 321 320 317 314 312 311 309 308 305 302 300 297 293 292 292 293 293 293 304 323 326 323 322 321 323 322 322 324 323 323 321 324 325 324 323 324 324 322 320 319 319 319 317 310 303 299 296 299 311 314 315 317
314 314 314 314 314 314 315 316 317 318 318 317 317 314 311 309 307 306 305 303 301 298 296 291 291 292 292 293 297 307 325 327 323 321 322 322 322 321 324 325 323 323 322 321 308 303 318 322 321 321 318 318 318 319 319 319 319 319 316 314 312 314 316
313 313 312 312 312 311 311 311 312 314 314 314 314 314 312 310 307 305 304 302 300 299 297 291 291 292 292 292 303 321 323 322 320 320 320 318 319 321 322 322 322 320 322 316 298 294 297 309 320 320 317 317 316 317 317 315 310 310 315 319 320 320 321
310 310 311 311 311 310 309 310 311 313 311 311 311 311 311 310 308 305 303 301 300 298 297 293 291 292 292 291 303 319 319 317 319 321 317 319 320 321 316 319 322 323 316 304 295 294 295 304 319 320 320 318 318 319 319 322 313 302 298 298 299 298 296
306 307 307 306 306 307 309 311 312 313 311 310 309 310 311 310 309 307 305 302 301 299 297 295 291 292 292 293 299 315 314 315 315 315 318 321 321 318 310 309 316 313 307 301 292 293 296 309 315 316 316 317 318 317 316 318 320 319 300 298 297 296 295
303 304 304 305 305 305 305 306 308 309 309 308 308 308 308 307 307 308 308 306 306 301 299 297 292 291 292 293 303 311 310 309 308 309 310 310 314 315 307 301 299 299 299 294 290 291 294 304 312 311 312 312 314 315 312 311 314 315 316 317 317 315 310
302 302 302 303 305 305 305 305 305 306 306 306 306 306 306 304 303 303 303 303 305 305 301 297 294 291 292 293 296 305 306 304 303 303 305 306 308 310 310 305 299 291 291 290 290 290 291 293 304 307 309 310 311 313 307 308 310 311 311 312 314 317 318
304 303 303 303 304 304 305 305 305 304 304 304 304 304 304 304 303 303 303 303 302 303 302 298 295 291 291 292 293 299 303 301 300 301 303 304 306 307 308 309 299 292 290 291 291 290 291 291 294 303 305 307 309 301 299 305 306 303 308 310 312 314 316
305 305 305 303 303 303 303 303 304 305 303 304 304 303 303 304 304 304 304 303 302 302 301 299 296 292 291 291 291 293 300 299 297 301 304 305 307 308 308 308 299 294 291 292 291 291 290 291 290 299 303 298 296 294 301 302 304 306 308 309 310 310 312
303 304 304 305 305 304 304 303 303 303 303 304 304 304 304 304 303 303 303 304 302 301 301 299 294 295 291 291 291 291 291 295 291 302 302 301 301 302 304 301 300 295 291 291 291 291 291 290 291 298 296 294 293 292 293 301 303 304 304 305 306 307 308
304 304 304 304 304 305 306 305 307 307 304 303 303 304 303 305 304 304 303 304 304 301 300 299 295 294 293 291 291 290 292 291 290 296 297 299 300 302 299 299 297 292 292 292 291 291 291 290 292 291 290 291 291 292 298 300 301 303 302 301 302 304 305

ECMWFFLT1_sfc_thetae_069.txt.gz
Theta_e
328 328 329 330 330 330 330 330 331 332 333 333 333 333 333 334 334 333 335 335 335 333 335 333 332 332 331 332 331 332 329 330 329 326 325 327 324 323 326 324 325 324 324 322 322 318 317 314 317 322 325 324 324 325 325 324 325 324 325 326 327 327 326
328 329 330 331 330 330 328 328 330 331 332 332 333 332 333 334 335 334 335 334 333 334 334 334 333 333 331 330 331 331 330 330 329 327 327 326 325 324 323 322 323 322 323 323 323 321 318 316 316 318 319 324 322 321 323 324 324 325 326 326 327 327 326
328 329 329 329 328 327 326 326 327 328 330 329 331 331 332 333 333 334 334 334 333 332 332 332 332 333 332 331 331 331 331 330 330 328 327 326 326 326 325 323 320 319 321 320 320 320 319 320 316 317 318 317 315 317 321 322 324 325 326 326 326 326 323
328 328 326 326 326 325 325 326 326 327 329 329 329 330 330 331 331 332 331 331 333 333 331 331 332 333 332 332 332 332 331 331 329 329 328 327 327 326 326 324 321 321 319 317 319 319 318 317 317 317 316 317 316 315 318 322 323 325 325 325 324 319 319
329 328 326 325 325 325 325 326 327 327 328 328 328 328 329 329 330 329 329 329 330 331 330 330 331 332 333 333 332 331 330 330 330 329 328 327 326 326 326 325 323 324 322 322 322 321 319 318 318 316 316 317 317 318 322 320 323 323 324 323 319 318 317
329 328 327 326 326 325 326 326 327 326 326 326 325 326 328 328 329 328 328 328 328 330 330 330 330 333 333 332 332 331 329 329 329 329 327 326 326 325 325 326 326 325 324 323 324 323 321 321 319 316 316 318 313 315 318 319 318 321 320 315 316 316 316
328 327 327 326 325 325 326 326 326 326 325 326 325 326 328 328 328 329 329 328 329 329 329 329 329 331 330 331 331 330 330 329 329 328 327 327 326 326 327 326 326 325 324 325 324 324 322 320 317 316 315 315 314 314 317 316 318 316 312 313 313 314 314
327 326 326 326 325 326 325 326 325 326 326 326 326 327 328 327 327 328 329 328 328 327 328 329 330 330 329 329 330 329 330 331 330 329 328 328 328 327 325 325 325 325 325 325 325 325 324 322 319 317 315 311 311 312 312 313 315 312 310 309 310 311 312
326 326 325 325 326 326 326 325 325 325 326 326 327 327 328 328 327 327 328 328 328 327 327 328 327 327 328 328 328 329 329 333 330 330 328 328 328 327 326 325 326 326 326 327 328 325 325 324 321 318 316 314 311 308 309 307 308 308 309 305 306 310 311
326 325 325 324 326 325 326 326 326 325 325 327 327 327 327 326 325 326 327 327 327 327 326 326 327 327 328 327 327 325 326 328 330 330 328 328 327 327 326 326 324 325 325 325 326 326 324 324 321 320 318 315 313 310 306 304 304 304 305 306 303 305 308
326 326 325 326 326 326 325 327 327 326 326 327 327 328 327 325 326 330 325 326 327 326 326 326 325 326 326 326 326 325 326 327 328 328 328 328 328 328 327 326 324 323 325 325 324 325 324 323 321 320 318 317 313 310 306 304 303 305 304 306 306 303 305
326 326 326 327 327 327 325 326 326 326 327 327 327 326 325 325 325 322 323 324 325 325 324 325 324 324 324 323 324 325 325 327 326 325 327 328 328 328 326 325 323 323 324 324 325 323 324 322 320 320 319 318 314 311 308 306 303 307 308 305 306 306 305
327 327 326 326 327 326 326 326 327 326 326 327 326 326 324 325 322 321 321 322 323 323 324 324 323 323 322 322 324 324 324 325 325 325 326 328 330 327 326 325 324 324 323 323 322 323 320 321 321 319 319 320 315 312 310 307 305 305 307 306 305 305 305
327 328 326 326 326 326 326 327 328 327 327 326 326 325 324 323 321 320 320 320 320 321 321 321 323 322 321 321 322 321 322 324 323 322 324 324 326 326 326 326 325 325 324 322 321 321 320 320 320 320 318 317 316 312 310 307 305 305 306 307 306 305 305
328 326 325 325 325 325 326 327 327 327 326 326 326 325 323 323 321 320 318 318 319 321 320 321 322 321 320 319 320 323 322 321 321 322 322 322 321 326 324 324 326 324 326 324 320 321 320 319 319 316 313 315 314 314 311 308 305 303 303 305 304 305 304
329 326 325 324 324 325 327 326 326 326 325 325 325 324 324 322 321 319 318 317 318 320 320 320 319 319 318 316 316 318 320 320 320 320 321 322 323 325 324 323 323 322 324 320 319 318 317 315 313 311 312 314 314 312 310 310 307 304 304 303 304 303 303
327 326 325 324 324 325 327 326 326 326 325 324 324 324 323 323 321 319 317 317 318 319 320 319 319 318 317 316 315 318 319 320 320 320 320 321 322 323 323 322 321 321 320 318 318 318 316 316 315 311 313 313 313 313 311 309 309 306 303 304 304 304 304
326 325 325 324 325 326 326 326 326 325 324 323 324 323 322 322 321 318 318 317 318 318 319 318 318 317 317 316 316 316 317 317 318 319 320 320 324 322 322 322 321 319 317 317 318 316 316 315 316 313 312 312 313 315 316 313 310 309 307 305 305 306 305
325 325 325 324 325 325 325 325 325 325 324 323 324 323 322 322 321 318 316 316 316 318 318 318 318 317 317 316 314 313 315 316 317 319 319 321 321 321 320 320 319 319 318 315 315 316 315 314 315 315 315 313 314 314 312 313 312 310 308 306 306 306 304
324 323 324 325 325 325 325 325 325 324 324 324 322 321 321 321 319 317 316 315 316 315 312 311 312 314 315 314 312 313 315 316 318 319 319 320 320 320 320 319 318 318 317 317 317 315 315 315 316 315 313 313 313 313 311 311 313 312 310 309 307 307 305
324 323 323 325 325 325 325 324 324 323 322 320 318 318 318 318 318 316 315 313 312 310 308 306 307 309 314 313 312 314 315 315 316 318 319 318 319 319 318 318 318 318 318 317 315 315 317 317 316 315 315 314 315 314 313 312 311 310 311 311 310 308 309
323 323 323 325 324 324 324 322 321 321 320 319 319 318 318 318 316 315 314 312 309 308 307 305 303 303 308 314 316 314 315 315 315 316 315 317 318 318 316 316 314 313 316 315 311 312 314 315 314 312 312 315 315 314 314 314 313 309 310 310 310 310 309
322 322 322 324 324 323 322 321 320 320 319 318 317 317 318 318 316 313 311 310 308 306 304 303 300 298 298 308 314 318 317 315 315 314 315 316 317 316 315 315 317 319 313 312 307 302 302 305 310 312 310 311 312 312 312 312 312 312 311 309 308 309 308
320 319 320 323 323 322 321 320 318 317 317 318 317 316 316 315 314 313 310 307 305 303 301 299 296 293 295 303 314 315 316 314 314 314 313 314 315 314 313 314 313 316 314 312 306 300 299 298 298 299 301 306 312 312 310 309 309 310 310 310 309 309 307
319 320 320 320 321 321 320 319 318 319 318 317 315 315 314 313 311 310 308 305 303 301 298 295 292 294 294 297 307 316 317 317 317 314 314 313 315 315 314 314 315 317 316 314 310 305 302 297 296 296 296 296 297 300 304 310 309 308 308 308 308 309 309
317 317 318 318 319 320 320 320 319 316 314 314 314 312 310 308 306 304 302 300 298 297 296 293 292 294 294 296 303 314 318 317 317 317 317 317 318 319 318 318 318 321 320 321 321 316 308 306 303 304 305 304 301 298 296 299 303 310 310 307 308 306 308
315 316 317 316 317 318 317 316 315 314 312 310 308 306 305 303 302 301 299 297 296 295 294 293 292 293 294 295 301 311 319 317 317 316 317 318 319 318 318 317 317 317 312 307 308 314 317 314 313 312 311 310 311 308 301 297 296 298 303 309 307 308 309
312 312 312 312 311 312 313 313 312 311 309 307 306 304 302 301 300 300 298 297 296 294 293 292 292 293 293 294 297 309 317 318 317 317 317 318 318 318 318 319 318 315 310 306 302 300 309 313 313 313 311 312 311 311 311 312 310 307 305 308 308 310 312
310 310 310 309 309 309 309 309 309 309 308 307 305 304 302 300 299 298 298 297 296 294 294 291 292 293 294 294 301 315 317 317 316 317 318 317 317 317 318 318 317 310 307 305 298 294 298 310 313 311 311 310 310 309 308 311 306 306 311 313 313 313 314
307 307 308 308 308 308 308 308 308 309 307 307 305 304 302 301 300 299 298 297 295 295 294 292 292 293 295 296 304 313 315 315 315 316 315 313 311 312 316 317 313 308 306 302 295 294 296 304 311 311 310 310 311 310 311 312 306 303 301 298 295 295 295
304 305 305 305 306 307 308 308 308 308 307 307 306 306 305 304 302 300 298 297 297 295 294 293 292 293 294 296 301 308 308 308 309 313 313 310 307 306 308 311 309 305 302 299 292 294 296 305 307 307 307 308 309 309 306 307 309 309 304 303 302 302 300
303 303 303 303 304 304 305 305 305 306 306 306 305 305 304 304 303 303 302 300 301 295 294 294 292 292 293 295 300 303 304 304 304 305 308 309 307 304 300 299 300 300 298 294 291 292 293 300 304 304 304 305 303 304 301 301 304 304 304 305 307 308 307
302 302 302 302 303 303 304 304 304 304 304 304 303 303 302 302 301 300 300 299 298 295 293 293 293 291 293 295 296 301 301 301 301 302 303 305 307 305 300 296 295 290 291 291 290 290 290 294 301 302 301 300 301 302 300 300 301 300 302 303 304 307 308
302 302 302 302 303 303 303 303 303 303 303 303 302 302 301 300 300 299 299 299 297 296 295 293 292 291 292 293 294 295 296 297 299 300 301 302 302 303 300 297 296 292 291 291 291 290 290 291 291 298 299 299 301 300 296 299 301 299 301 302 303 304 305
304 304 303 303 302 302 303 304 303 303 303 302 302 301 301 301 300 299 298 298 297 296 297 297 294 292 291 292 292 293 294 293 294 299 298 297 297 297 297 297 296 293 291 291 291 292 291 290 289 294 297 295 295 294 297 297 297 298 300 301 301 301 303
304 305 304 304 302 301 302 303 303 303 303 302 302 301 301 301 300 299 298 297 297 296 295 296 294 294 292 291 291 291 291 293 292 298 297 297 296 296 296 296 297 295 291 292 291 291 291 290 289 291 290 291 291 290 291 295 295 298 297 298 299 300 300
300 301 302 303 304 303 303 303 303 303 303 303 302 302 301 301 300 299 298 297 297 296 295 294 293 292 292 291 291 291 291 290 290 294 297 296 295 294 294 293 293 291 291 291 291 291 291 291 290 290 289 290 289 290 293 293 294 297 295 294 296 297 299

ECMWFFLT1_sfc_thetae_072.txt.gz
Theta_e
328 329 331 330 328 329 328 328 329 329 330 330 330 330 330 331 331 331 332 332 333 332 331 330 329 329 330 331 329 328 328 328 326 324 323 324 321 321 322 319 321 322 322 318 320 318 317 314 317 323 325 324 324 324 324 323 323 322 323 323 324 324 323
329 329 329 329 328 328 326 325 328 328 329 330 331 330 330 331 333 332 332 332 332 331 331 330 328 328 329 329 328 327 327 327 326 326 325 324 323 321 319 317 320 320 318 319 320 317 317 316 316 318 319 323 323 321 321 321 322 322 323 324 325 325 322
327 327 328 327 327 326 326 325 326 326 328 328 330 331 330 332 333 332 332 332 331 331 331 330 330 328 328 328 328 327 327 327 325 326 326 325 324 322 321 320 319 317 317 316 315 316 318 318 316 317 318 318 316 316 319 319 321 322 323 324 324 322 319
325 326 326 325 324 323 324 324 324 326 328 327 328 329 330 332 332 332 332 331 330 332 330 330 329 329 329 329 329 328 327 327 325 325 324 324 323 322 321 322 321 321 318 316 316 317 316 315 317 316 315 316 315 314 316 321 323 323 324 323 320 318 317
326 326 325 325 324 324 323 323 323 324 325 326 326 327 328 330 331 330 331 330 330 329 328 329 329 330 330 330 329 328 327 326 326 326 324 323 323 323 322 321 321 320 318 319 319 318 317 317 317 315 314 315 316 315 319 317 322 322 323 321 318 317 315
326 326 326 325 324 324 323 322 323 323 324 324 325 326 326 328 328 327 327 327 328 328 328 328 329 330 330 330 329 327 327 326 326 325 324 323 324 323 322 321 321 321 320 320 321 319 319 319 317 315 313 315 311 313 316 318 317 321 320 316 317 316 314
326 326 326 325 324 324 324 324 324 324 323 324 324 325 325 327 326 326 326 327 328 328 328 328 329 330 330 330 328 327 327 326 326 324 324 324 323 323 323 321 321 321 319 322 321 320 319 318 316 315 314 311 312 314 315 316 317 314 312 314 315 314 313
326 326 325 326 325 324 324 325 325 324 323 323 325 325 325 326 326 326 325 326 327 327 327 327 329 329 329 330 329 327 327 326 326 325 323 323 324 323 321 322 322 320 321 322 322 321 321 320 318 316 315 311 309 310 311 313 315 311 307 307 312 312 312
326 325 324 324 323 324 324 325 325 324 324 323 325 325 324 326 326 325 326 326 327 326 326 327 327 327 327 328 326 326 326 329 326 325 324 324 324 322 322 320 322 322 322 323 323 322 322 321 319 317 316 315 312 308 308 308 310 306 308 303 306 309 310
325 325 324 323 324 323 324 324 325 326 325 325 326 325 325 325 326 326 326 326 326 326 325 325 326 325 326 327 326 325 326 326 327 326 324 325 324 323 321 322 322 321 322 323 323 322 322 320 319 318 317 316 315 312 308 305 306 302 304 303 301 305 309
325 325 324 324 324 323 323 323 324 325 325 326 327 327 325 324 326 329 325 324 324 324 324 324 325 325 325 324 325 324 325 326 325 323 324 325 324 323 322 321 320 321 321 323 323 323 322 320 318 317 316 314 312 313 310 308 305 303 303 303 301 301 305
325 325 324 324 324 324 324 324 324 325 326 326 326 325 324 325 325 325 325 324 323 323 323 322 324 324 324 322 322 322 322 325 324 323 322 324 323 324 322 321 319 321 320 322 322 323 322 320 318 317 315 315 312 309 310 308 302 302 304 302 302 304 305
326 326 324 324 324 324 325 324 324 325 325 326 325 325 324 324 324 324 324 324 322 321 322 321 323 323 322 322 322 323 322 323 324 323 322 322 327 324 322 321 319 321 320 320 321 321 320 320 319 317 316 315 312 310 308 306 306 304 304 303 302 303 305
326 325 324 325 325 324 324 325 325 326 326 325 325 324 324 322 322 323 324 323 322 321 321 320 321 322 320 320 321 322 322 323 324 322 323 322 324 323 323 322 321 321 320 320 318 319 320 320 318 318 317 315 313 310 308 306 304 302 303 303 303 302 303
327 325 324 323 325 324 324 325 326 326 325 325 325 324 322 321 321 322 321 320 321 321 321 320 320 320 320 319 319 321 321 321 322 322 323 323 322 325 322 321 322 321 320 320 316 319 318 318 318 316 315 316 314 310 309 307 303 303 302 302 301 301 301
326 325 323 323 323 324 324 326 326 325 325 325 324 323 322 320 320 320 319 319 320 319 320 320 318 318 318 319 318 318 320 320 320 320 321 322 323 322 321 321 321 319 322 320 317 314 314 315 315 316 312 313 314 310 309 308 306 303 302 300 301 301 300
326 324 324 323 323 324 325 325 326 325 325 324 323 322 321 320 319 318 318 317 319 318 318 318 317 317 317 316 317 317 318 319 320 320 320 321 322 322 322 320 320 320 319 320 315 314 312 313 311 310 310 310 311 309 308 307 308 304 301 302 300 301 301
324 324 323 323 323 324 324 325 325 325 324 323 323 322 321 320 318 317 317 317 318 318 317 317 316 313 314 314 316 317 318 319 319 319 320 321 324 322 321 321 319 318 315 315 313 312 312 311 310 310 309 310 310 309 309 307 306 306 304 302 302 301 301
323 324 323 323 324 324 324 324 324 324 324 323 323 322 321 319 318 316 316 317 318 317 315 315 315 314 313 313 314 315 317 317 318 318 319 320 321 321 321 319 317 315 315 313 312 312 311 311 311 310 309 310 311 310 308 306 306 305 305 304 302 301 300
323 323 322 323 324 324 324 324 324 323 323 323 322 321 320 319 317 316 316 316 315 313 312 311 311 312 313 311 311 313 314 315 316 317 318 319 320 320 320 319 316 315 314 314 313 312 312 312 313 310 309 309 310 309 308 306 305 304 304 303 301 302 302
321 321 321 322 323 323 324 323 323 321 322 322 321 321 318 315 314 314 313 311 310 310 309 308 307 309 312 310 311 313 314 316 316 316 316 316 317 318 318 317 315 315 315 314 314 312 313 312 312 312 309 311 310 310 309 307 305 304 303 303 302 302 300
321 319 320 321 321 321 321 321 322 321 321 320 319 316 314 314 312 310 310 309 308 308 307 305 304 304 309 313 312 313 313 315 316 315 314 314 315 315 314 313 313 314 318 318 313 313 314 314 313 312 309 312 311 311 310 309 308 307 305 304 305 304 303
321 320 320 320 320 321 321 321 320 318 318 317 316 315 314 313 311 310 308 307 307 306 304 303 301 299 299 308 312 314 313 315 316 315 314 313 313 313 313 313 316 316 312 312 308 303 302 305 310 312 310 311 310 310 309 309 308 307 307 306 305 304 304
321 320 320 320 320 320 320 319 318 317 316 316 314 313 312 310 309 308 307 305 303 302 301 299 296 293 298 306 312 312 312 313 314 315 314 313 311 311 311 312 312 314 311 308 304 300 299 299 299 300 302 307 311 311 309 308 307 306 305 305 304 303 302
320 319 319 319 319 319 318 317 315 315 314 313 312 311 310 308 307 306 304 302 301 301 299 296 294 297 300 303 308 314 314 313 313 313 313 312 312 314 316 316 315 315 316 313 307 304 302 298 297 297 297 297 297 299 303 307 306 306 304 304 304 305 304
318 318 317 316 317 318 318 316 314 313 312 311 310 308 306 305 303 303 302 301 299 299 298 294 294 297 300 302 303 310 314 314 314 314 314 315 315 315 314 313 311 311 312 314 314 311 307 307 301 299 301 303 301 297 294 296 299 306 306 304 305 304 304
316 316 316 316 316 316 314 312 311 310 309 307 305 303 302 301 300 299 299 299 297 297 296 295 294 297 300 302 303 308 315 315 315 315 315 315 315 314 313 312 310 308 307 308 307 308 313 311 309 310 309 309 310 308 303 300 297 296 301 306 306 306 305
313 313 314 313 312 311 310 308 307 306 305 304 303 301 300 299 298 298 297 297 297 296 295 293 294 296 300 302 303 307 315 316 315 315 314 315 315 315 314 312 309 307 307 307 305 305 311 312 311 311 310 310 309 308 310 310 309 309 309 308 306 306 307
309 310 311 310 309 308 307 306 304 304 302 301 300 299 298 298 297 297 297 297 297 295 294 292 293 296 300 302 305 314 315 314 313 312 312 313 315 316 314 310 308 306 304 303 300 299 306 312 311 309 309 308 309 307 307 306 298 299 303 305 305 305 306
306 307 308 308 307 306 305 304 304 303 301 300 299 298 298 297 297 296 296 295 295 294 294 293 293 295 298 302 306 314 314 313 311 309 309 309 311 311 310 308 306 304 302 301 296 295 298 303 307 306 307 306 305 306 306 307 302 299 297 297 296 296 296
303 304 305 305 305 305 305 305 305 304 302 301 300 300 299 298 298 297 295 294 294 294 294 294 293 294 295 297 304 312 312 311 309 307 306 305 304 304 305 307 305 301 299 299 293 294 297 302 304 304 304 303 301 301 302 303 304 303 300 299 299 299 299
303 303 302 303 304 303 304 304 304 304 304 303 302 301 300 298 296 296 295 295 298 294 293 294 293 292 294 295 302 306 308 308 307 306 304 301 299 298 296 297 299 298 298 294 291 292 294 301 303 302 301 301 299 298 300 300 300 300 301 301 301 303 302
302 302 302 302 303 303 303 303 303 303 302 301 300 299 298 297 295 294 295 294 295 294 294 293 293 292 293 293 296 303 304 305 305 305 304 302 298 297 296 295 295 290 290 290 290 290 291 294 300 301 300 299 297 298 300 300 300 299 299 298 300 300 301
301 302 302 302 303 303 303 302 302 302 301 301 300 298 297 297 296 296 296 296 296 296 296 295 293 291 292 292 293 296 299 300 301 302 302 300 299 297 296 295 296 292 291 291 290 290 290 289 292 299 299 298 299 298 296 299 299 298 298 298 299 299 300
303 302 302 302 302 302 303 303 302 302 302 300 299 298 297 296 296 295 296 296 296 296 297 297 295 292 292 292 291 293 296 295 297 298 297 296 296 296 296 296 295 293 290 291 291 291 291 289 289 295 295 293 290 290 295 297 296 296 296 297 297 298 299
300 302 301 301 301 301 302 302 302 302 301 300 299 298 297 297 296 296 296 296 296 296 295 295 293 293 291 291 291 291 291 294 293 297 296 295 295 295 295 294 295 293 290 290 291 291 291 289 291 291 290 289 288 287 291 294 292 294 294 295 295 296 296
298 298 299 299 299 299 300 300 301 302 302 301 300 299 298 297 297 296 296 295 296 296 295 294 293 292 292 290 291 291 290 291 292 294 294 293 292 292 291 291 292 290 290 291 291 291 291 291 289 290 289 289 289 289 291 291 291 292 290 291 294 295 295

ECMWFFLT1_sfc_thetae_075.txt.gz
Theta_e
330 329 331 331 331 330 328 329 328 328 329 330 329 329 329 330 329 328 328 329 329 330 331 329 329 328 327 327 328 326 325 325 324 322 321 322 321 320 320 318 317 319 322 315 317 317 316 314 317 323 324 324 325 322 320 320 320 321 323 323 322 320 318
330 330 331 331 330 329 326 324 326 327 327 328 328 328 328 329 330 328 329 329 330 330 331 329 328 329 328 326 326 325 324 324 325 324 323 322 321 320 317 314 318 317 315 315 318 315 316 315 316 318 318 322 323 322 321 321 321 320 322 322 323 320 318
328 329 330 328 328 327 325 323 324 325 325 326 327 328 327 329 330 330 330 330 330 330 330 328 327 328 328 327 327 326 325 324 324 324 324 323 322 320 319 317 315 313 314 313 314 314 315 316 315 316 318 318 316 319 320 320 320 319 323 324 320 317 315
326 327 328 327 327 326 325 323 323 324 325 325 326 327 327 328 329 330 330 330 330 331 330 328 327 327 327 327 326 326 325 325 324 324 323 321 322 320 318 319 319 319 316 313 314 315 314 313 316 317 318 318 316 316 316 317 319 323 324 322 318 315 315
326 327 327 326 326 325 324 323 322 322 323 324 324 325 326 327 328 328 330 329 328 328 328 328 327 327 327 327 326 326 326 325 324 324 323 321 321 320 318 319 320 319 317 316 317 317 316 315 317 317 317 314 314 313 317 316 321 323 323 320 318 315 315
326 326 326 325 325 325 324 323 322 323 321 322 323 325 325 326 328 327 328 327 327 327 326 326 326 327 327 326 326 325 325 324 324 324 322 322 322 321 320 318 319 319 317 317 319 317 316 317 317 315 315 317 312 312 315 319 319 323 320 318 317 314 313
325 325 326 325 324 325 323 323 323 323 323 324 323 325 326 327 327 328 328 328 328 326 326 326 326 327 327 327 325 325 324 325 324 324 324 322 322 322 321 319 318 318 316 319 319 318 317 317 314 315 315 310 310 313 314 316 318 316 314 315 315 313 312
325 326 326 326 325 324 322 323 323 323 323 323 324 325 325 326 326 325 326 326 326 325 325 326 328 327 327 327 326 325 325 324 324 324 322 322 322 321 319 321 320 318 318 320 320 319 319 319 318 316 315 312 309 312 313 313 315 311 308 308 313 312 311
325 325 324 324 325 324 323 323 323 323 323 323 324 324 324 325 324 324 325 325 325 325 325 326 326 327 326 326 324 324 323 326 323 322 322 322 322 321 321 319 320 319 319 320 320 320 320 319 319 318 316 315 313 309 310 312 313 309 308 305 306 310 310
325 324 325 324 323 323 323 323 323 322 322 322 324 324 324 323 324 324 324 323 324 324 324 325 326 325 326 326 325 323 323 323 323 322 321 322 321 321 320 320 321 320 319 320 320 320 320 319 319 319 317 316 315 312 310 309 310 304 305 301 306 306 310
326 326 325 324 323 322 321 322 322 322 322 321 323 324 324 323 323 328 323 323 323 323 324 324 324 324 325 323 324 323 323 323 322 321 322 322 321 321 320 320 319 319 320 321 320 320 320 319 318 317 315 311 311 313 311 308 307 303 303 303 301 304 306
326 326 325 324 323 322 322 322 322 323 323 324 324 323 323 323 323 322 322 322 322 322 322 323 322 323 323 323 322 321 320 323 323 321 321 322 321 321 320 320 317 319 320 320 320 320 319 318 317 316 314 313 311 309 311 309 306 306 304 305 301 302 306
325 326 324 322 322 322 322 322 322 322 323 323 324 323 323 323 323 322 321 322 321 321 321 321 322 322 321 323 321 322 321 322 322 322 320 318 323 321 320 320 318 319 318 319 319 319 319 318 317 316 315 313 309 310 310 309 306 308 303 304 302 301 306
324 324 322 322 323 322 322 323 323 323 323 323 323 322 323 323 322 322 321 321 321 320 320 319 320 321 320 319 319 320 321 323 323 320 320 319 321 321 321 320 319 318 319 319 318 319 319 318 316 316 315 313 310 308 310 306 303 300 301 301 301 301 303
322 321 320 321 322 322 323 323 323 323 323 323 323 323 323 322 322 322 321 320 320 320 319 319 318 319 319 317 317 320 321 321 321 320 320 321 320 322 320 320 319 316 318 317 316 319 319 319 316 315 314 314 312 309 308 309 302 300 301 300 300 300 302
322 322 321 321 321 322 323 323 324 323 323 322 322 323 322 321 322 321 321 320 319 318 318 317 317 318 317 318 318 317 319 320 321 320 320 321 322 320 318 319 318 318 319 317 315 315 316 317 318 316 314 314 314 311 308 307 304 302 302 300 299 299 300
322 322 322 322 321 321 322 323 324 324 324 323 322 321 321 321 321 320 319 318 318 318 317 316 316 316 318 317 317 317 317 318 319 320 321 321 321 320 320 318 316 318 317 317 316 314 315 316 316 316 315 313 314 312 309 306 307 303 301 302 299 300 300
322 322 323 322 322 322 322 323 324 324 324 323 321 320 320 320 319 318 318 318 318 317 317 317 316 315 314 316 317 317 317 317 317 318 319 320 324 321 319 319 318 317 316 316 315 314 313 314 313 314 314 312 313 313 310 308 306 305 303 302 301 299 299
323 322 322 321 321 322 323 323 324 324 324 323 320 320 319 318 319 317 317 317 318 317 317 316 316 315 314 314 315 315 316 316 317 317 316 317 320 319 319 318 317 317 316 316 314 312 311 312 311 310 312 310 309 308 308 306 306 305 304 303 302 299 298
321 322 322 321 321 323 323 323 322 322 323 322 320 319 319 318 317 317 316 317 317 315 314 314 313 311 311 312 313 314 314 314 314 315 315 316 317 316 315 313 314 314 316 314 312 310 310 309 310 308 308 308 307 306 305 304 304 304 303 301 299 300 299
321 321 320 321 322 323 323 323 323 322 322 321 320 319 318 317 315 314 314 314 312 311 310 309 309 309 309 311 313 314 315 315 314 314 314 315 316 317 316 315 318 319 316 313 311 311 312 310 309 308 306 308 306 305 304 302 302 302 301 301 300 298 298
321 321 320 321 321 321 322 322 320 320 320 320 321 319 316 314 312 311 309 309 309 308 309 308 306 307 309 309 312 314 314 315 315 314 313 313 312 313 313 313 313 317 317 318 312 312 312 313 312 310 306 308 307 306 305 303 302 300 300 301 300 300 298
321 320 320 320 320 320 321 320 320 319 319 319 316 314 313 312 311 309 308 307 306 307 306 304 303 301 305 308 311 313 314 314 314 314 312 311 310 311 312 311 315 317 313 310 306 302 301 305 310 312 310 309 309 308 306 305 303 302 302 301 300 299 298
320 319 320 320 320 319 319 319 319 318 318 316 313 312 311 309 308 308 307 306 304 303 301 301 298 294 295 301 311 313 313 313 313 313 312 310 309 310 310 310 310 311 309 308 303 299 298 298 298 299 300 304 308 309 308 307 305 303 304 303 300 300 298
320 319 319 319 320 319 318 317 316 316 315 313 311 310 309 307 306 304 303 303 301 300 299 298 297 298 299 301 307 313 313 313 312 311 310 310 311 312 311 311 311 312 311 307 307 306 304 299 299 299 298 298 297 297 300 306 305 303 302 304 303 302 301
319 318 318 319 318 318 317 315 314 313 311 310 310 308 306 305 304 303 303 302 300 299 298 295 298 300 298 300 302 309 313 313 312 310 311 312 312 311 310 310 309 309 312 316 313 310 310 308 303 302 303 303 300 298 296 296 299 307 304 304 303 301 302
317 317 316 317 316 316 315 313 311 309 309 308 306 305 303 302 301 301 301 300 298 297 297 296 299 298 298 299 301 306 313 314 314 313 312 312 311 310 310 309 309 308 308 309 310 311 310 310 310 310 309 309 308 305 301 299 299 299 304 307 306 306 306
310 313 315 314 313 312 310 308 308 306 305 304 303 301 300 299 299 299 298 298 299 297 297 294 298 297 298 300 302 306 314 314 313 312 313 312 310 309 308 309 308 308 307 306 306 307 310 310 310 309 308 307 306 305 305 305 304 304 304 305 306 305 305
306 308 310 310 308 307 305 304 303 302 302 300 300 299 298 298 297 296 297 298 299 298 296 293 297 298 299 301 304 312 312 311 311 311 311 310 309 308 306 305 305 304 304 303 298 297 304 308 309 308 307 306 304 303 304 303 298 299 302 303 304 302 302
303 305 305 305 304 303 302 301 301 301 299 299 298 297 296 296 296 295 296 296 297 296 295 294 294 297 300 301 305 310 309 309 307 305 305 305 305 305 304 303 301 301 300 299 295 294 296 303 307 305 304 303 303 303 302 302 297 295 295 294 295 294 294
303 302 303 303 303 302 302 301 301 301 298 298 297 296 296 295 295 295 294 294 295 294 294 294 293 295 297 301 306 310 309 307 303 301 299 298 297 297 299 303 302 298 298 297 292 293 295 302 303 303 303 301 300 300 300 301 302 301 298 297 297 297 296
303 302 302 302 302 301 301 301 301 301 299 298 296 296 295 294 294 295 295 296 299 295 294 294 293 293 295 299 307 310 308 305 302 300 298 297 297 296 296 298 297 295 295 293 290 291 292 299 301 301 301 300 299 299 299 299 300 300 300 299 300 301 301
302 303 302 302 302 301 301 300 299 298 297 297 296 296 296 295 295 295 296 296 296 295 294 294 293 292 294 295 299 307 306 304 300 299 300 299 297 297 298 297 296 291 290 290 290 289 289 293 299 299 298 297 297 298 299 299 300 299 299 298 298 299 300
301 302 303 302 302 302 301 300 299 298 297 297 297 296 296 296 295 295 295 296 296 296 296 294 293 292 292 293 295 299 304 303 302 300 299 298 298 297 297 297 296 292 290 290 290 290 290 289 292 298 298 298 297 297 296 299 298 298 299 298 299 299 299
300 300 301 302 301 301 301 301 300 299 298 297 296 296 295 295 295 294 294 295 295 295 296 296 295 292 291 292 292 295 300 300 300 299 297 297 297 296 296 296 295 292 289 290 290 290 290 289 290 296 292 289 288 291 297 297 297 298 297 297 297 297 297
297 299 299 300 301 301 301 300 300 299 298 297 297 296 296 296 295 295 294 294 294 294 294 295 293 293 291 291 291 291 292 294 293 298 297 295 295 294 294 293 295 292 289 290 290 290 289 289 292 291 288 287 287 289 292 293 294 295 295 294 294 294 293
296 296 297 298 299 299 300 300 300 299 299 298 297 296 296 296 295 294 293 293 294 294 294 294 292 291 291 290 290 290 290 290 292 295 295 293 292 292 291 292 292 290 290 291 290 290 290 290 291 289 288 288 288 290 292 291 289 291 291 291 292 292 291

ECMWFFLT1_sfc_thetae_078.txt.gz
Theta_e
328 329 331 331 331 330 329 330 330 330 330 331 330 331 330 330 329 328 328 328 328 328 329 328 327 327 327 328 328 327 326 327 327 326 324 324 322 322 322 322 321 322 322 318 321 318 316 314 317 323 325 325 326 325 325 324 325 326 325 325 324 323 322
329 329 331 331 329 329 328 329 330 330 330 330 330 330 330 329 331 328 328 328 328 328 330 329 328 328 327 327 326 325 325 325 326 327 325 323 323 321 319 318 320 320 319 320 320 319 317 315 315 317 318 323 324 324 323 324 324 325 325 325 325 322 321
329 329 330 329 329 327 326 326 328 328 328 329 329 329 329 329 329 329 328 328 328 329 331 329 329 328 327 327 327 326 326 325 325 326 325 325 324 322 322 319 318 317 318 319 319 318 320 320 315 316 318 318 317 320 323 323 323 324 325 324 321 319 319
328 329 328 328 328 327 326 326 326 327 328 328 328 328 328 328 328 329 329 329 330 331 331 329 328 328 327 327 327 327 326 325 325 325 325 324 324 322 321 321 321 320 319 317 318 318 317 317 317 317 319 320 319 318 321 322 324 325 325 322 319 318 318
328 328 328 326 325 326 326 326 325 326 325 326 326 326 326 327 328 328 329 329 330 330 329 329 328 329 329 328 327 327 326 326 326 325 324 324 323 323 322 322 322 322 320 320 320 320 319 318 319 317 317 318 319 318 320 322 325 325 324 320 318 317 318
327 328 328 326 326 326 326 325 324 324 325 324 324 325 325 326 327 327 328 328 328 329 329 328 328 329 328 328 327 326 326 325 325 325 324 324 324 323 322 321 322 321 321 320 321 320 319 320 320 317 318 320 316 316 320 322 320 320 321 319 318 317 317
326 326 326 326 326 326 326 325 324 324 324 324 324 325 326 326 327 328 329 329 329 329 329 328 328 328 328 328 327 326 326 326 326 325 325 324 324 324 324 321 321 322 320 321 322 321 320 320 318 318 317 316 318 317 318 319 320 319 317 318 317 317 316
325 325 325 325 325 325 325 325 324 324 324 325 325 326 326 326 327 327 328 328 328 328 328 327 328 328 328 328 327 327 327 326 326 325 325 324 323 323 322 323 322 321 321 321 322 322 322 321 320 319 318 314 315 317 316 316 319 318 315 313 317 315 315
326 325 325 324 325 325 325 325 324 324 324 325 324 325 325 327 326 326 327 328 328 327 327 327 327 327 327 327 326 325 325 326 325 324 324 324 324 323 323 322 322 321 321 321 322 322 322 322 322 322 321 319 315 311 314 315 316 316 312 314 311 314 314
325 324 324 324 324 325 324 324 324 324 324 323 323 324 324 325 326 326 326 326 326 326 326 327 327 327 327 327 326 325 324 325 325 324 323 324 324 324 323 322 323 322 321 322 322 322 322 322 322 322 322 320 319 315 312 312 314 315 312 309 315 313 314
325 324 324 324 325 324 323 323 322 322 322 323 324 325 325 325 325 329 326 325 325 325 326 326 327 327 326 326 326 325 326 325 325 323 323 324 323 323 323 322 322 322 322 322 322 322 322 322 322 321 321 319 320 317 315 312 312 316 313 308 310 312 310
325 324 324 324 323 323 323 322 322 323 323 323 324 323 323 324 324 325 324 324 324 325 325 325 326 326 326 325 324 324 324 325 324 323 322 323 322 323 322 322 321 321 322 322 322 322 322 321 321 321 319 319 318 318 317 315 312 314 312 313 309 307 311
325 324 324 321 320 322 323 323 323 322 323 324 323 323 324 324 324 323 323 323 323 323 323 324 325 325 325 325 324 324 324 324 324 323 321 322 323 323 322 322 321 321 321 322 321 321 321 321 321 320 318 318 317 317 317 315 313 315 310 312 311 306 310
324 324 323 323 322 322 323 323 323 324 323 323 323 323 323 324 324 323 323 323 323 322 323 322 323 324 324 323 323 324 323 324 324 323 323 321 323 323 323 323 321 320 322 322 321 321 320 320 320 320 318 317 315 316 317 314 312 307 307 306 308 306 309
323 322 322 322 322 322 322 323 323 323 323 323 324 323 323 324 324 323 323 323 322 322 322 323 322 323 323 322 322 323 324 324 324 323 323 323 322 323 323 323 321 320 321 322 321 321 321 319 318 318 317 317 315 314 317 315 309 308 309 306 305 305 307
324 322 321 321 321 322 322 323 323 323 323 323 323 323 323 323 323 323 323 322 322 321 322 322 321 322 322 322 321 321 323 324 324 322 322 323 323 322 321 322 320 320 320 320 320 321 320 319 320 318 318 317 316 314 313 315 310 308 308 306 306 305 306
323 322 320 320 321 321 322 322 323 323 323 323 323 323 323 323 323 322 322 321 321 321 320 320 320 321 321 321 321 321 321 323 323 323 323 323 323 322 322 320 319 320 319 319 318 319 320 320 319 318 318 317 318 315 313 312 314 311 308 307 304 304 305
320 321 320 321 321 322 322 322 322 323 323 323 323 322 322 322 322 322 322 321 320 320 319 319 319 319 319 320 321 321 321 322 322 323 323 323 325 323 322 322 320 320 319 318 317 318 319 319 319 319 318 317 317 317 314 312 312 310 309 309 307 304 305
321 321 320 321 322 322 322 322 323 323 323 323 322 322 322 321 322 322 322 321 321 320 320 319 319 319 318 318 319 320 320 321 321 321 321 322 323 322 321 320 320 320 319 319 318 318 318 319 318 318 318 317 317 317 316 312 311 310 310 309 308 304 303
322 322 320 320 321 322 322 323 323 323 323 323 322 321 321 321 321 321 321 321 320 320 319 318 318 317 317 317 318 318 318 318 318 319 319 320 320 319 318 318 318 318 319 319 318 317 317 317 317 317 318 318 316 316 315 313 310 309 309 308 305 306 305
321 321 321 321 321 322 322 322 323 323 323 323 322 321 320 320 319 319 319 319 319 319 318 317 316 316 316 316 317 317 317 317 317 317 318 319 318 318 318 319 319 319 320 318 318 316 315 316 316 316 313 314 313 313 313 311 309 309 308 307 307 305 304
322 321 321 321 321 321 322 322 322 322 321 321 320 319 318 318 316 315 315 316 315 315 316 316 314 313 313 313 315 316 316 316 317 316 316 316 317 317 317 319 320 319 320 318 312 312 312 312 314 314 310 312 311 311 308 308 308 307 306 307 305 304 304
321 321 321 321 321 322 322 321 321 320 320 320 319 319 317 314 315 315 313 312 311 312 312 312 311 308 309 313 314 315 316 316 316 316 315 314 314 314 314 315 320 318 313 311 307 302 303 306 310 313 312 310 310 309 307 306 306 306 306 305 305 304 303
315 320 320 321 321 321 321 321 320 319 319 319 318 317 315 313 312 312 312 311 309 309 308 307 299 298 300 305 313 315 315 315 316 315 314 314 313 311 311 311 312 314 311 309 304 299 298 298 299 300 303 307 310 310 308 307 307 307 307 307 305 304 304
311 316 320 320 321 321 321 319 318 319 318 316 316 314 313 312 310 309 309 309 308 307 305 301 296 294 295 300 307 315 315 315 314 313 312 312 312 311 311 310 310 309 308 307 306 304 301 297 296 296 296 296 296 296 301 309 308 308 309 308 308 306 308
309 312 318 320 320 320 320 318 317 316 316 315 313 312 310 308 307 306 307 306 305 305 303 297 298 298 297 299 302 309 315 314 313 311 311 312 312 311 311 311 311 313 314 314 312 308 306 304 300 299 299 300 299 297 295 296 300 312 311 311 310 308 309
306 308 312 317 318 317 317 316 313 312 312 311 310 308 307 305 304 304 304 304 302 301 300 296 297 296 296 298 300 306 313 312 312 312 312 312 311 311 311 311 311 310 311 313 313 313 313 313 312 311 310 308 307 304 299 298 298 299 306 313 313 312 311
305 306 307 309 313 313 311 308 308 306 306 306 305 304 304 302 301 301 301 301 301 300 298 295 295 295 297 299 301 305 314 313 312 311 310 310 310 310 311 311 311 310 310 309 308 311 313 312 311 309 307 305 305 304 304 305 306 308 309 309 311 310 309
303 304 304 303 303 303 303 303 302 302 301 300 300 300 300 300 300 300 301 302 302 300 299 294 295 296 298 300 303 312 313 312 310 309 308 307 306 307 308 308 307 307 306 305 299 299 305 312 310 307 304 304 303 303 302 298 294 297 303 306 307 306 305
302 302 302 302 301 300 300 300 300 300 298 297 296 296 296 297 298 299 299 300 300 299 299 296 295 296 298 300 305 311 310 308 307 305 304 303 304 304 304 303 303 301 300 299 296 296 299 304 309 306 304 302 302 302 303 303 297 293 293 292 292 292 293
301 301 301 300 300 300 299 298 298 298 296 295 295 295 296 297 297 298 297 298 298 298 298 296 295 296 298 300 305 309 307 303 301 299 298 299 300 301 303 303 301 299 299 297 293 295 297 304 306 304 303 302 301 301 302 303 304 302 296 295 295 294 294
301 301 299 299 299 298 297 297 297 297 297 297 296 297 297 295 296 296 297 297 299 297 296 296 294 295 297 300 305 306 304 301 299 298 298 298 299 298 298 298 298 297 297 293 291 292 295 302 305 304 304 302 300 300 301 302 303 303 304 305 305 305 302
300 301 300 300 299 299 299 298 297 297 297 297 296 296 296 296 295 295 296 296 296 296 295 295 294 293 295 297 300 306 304 302 300 299 300 299 299 299 299 298 296 290 290 290 290 290 291 294 301 302 302 301 300 299 301 301 302 303 303 302 302 303 303
299 300 301 301 300 299 299 298 298 297 297 297 296 296 295 295 295 294 295 295 295 295 296 294 293 291 293 294 296 300 304 303 302 301 300 299 299 298 297 297 297 292 290 290 290 290 291 292 295 299 299 299 299 299 298 300 299 299 301 301 300 300 301
298 300 301 301 299 299 299 299 298 298 297 297 296 296 296 295 295 295 295 295 295 294 296 295 293 291 291 292 292 295 301 301 301 300 298 297 297 296 296 296 296 292 290 290 290 291 291 291 292 296 293 290 291 293 299 299 299 300 300 299 299 297 297
295 297 298 300 300 299 299 299 299 298 297 297 296 295 295 295 295 294 294 294 294 294 294 294 292 292 290 290 290 291 292 295 294 300 298 296 295 295 295 295 295 292 290 290 290 290 291 291 292 290 288 289 290 291 294 297 297 297 296 296 296 296 296
294 294 296 297 299 299 299 299 298 298 297 296 295 295 294 295 294 293 293 293 294 294 294 294 293 291 291 290 290 290 290 290 292 295 295 294 294 295 294 294 293 290 290 290 289 289 289 290 289 288 289 290 291 293 296 295 295 295 294 294 295 295 295

ECMWFFLT1_sfc_thetae_081.txt.gz
Theta_e
330 331 333 334 336 333 331 333 334 334 334 335 335 335 336 336 336 335 335 335 335 335 335 335 336 336 336 336 337 337 336 334 332 330 329 329 326 327 331 330 331 332 330 329 329 323 321 318 320 328 330 330 330 331 333 330 330 330 330 331 331 331 332
333 332 333 334 332 331 331 333 333 333 335 336 336 336 335 335 336 335 336 335 335 335 335 336 336 336 336 336 335 334 334 334 333 334 332 329 329 329 329 328 329 330 329 330 329 329 323 320 319 320 322 327 328 329 330 330 330 331 330 330 331 331 331
332 333 333 333 332 330 330 329 330 331 332 333 334 335 335 335 335 336 335 335 336 336 335 336 336 336 336 336 335 335 335 334 335 334 332 332 332 333 331 330 329 328 328 327 327 326 326 326 319 319 322 321 320 324 327 327 328 329 330 330 331 330 330
331 331 330 327 326 328 329 328 328 330 331 332 332 333 335 336 336 336 336 336 337 337 336 336 336 335 336 336 336 336 335 335 334 334 333 334 333 333 332 331 330 329 326 325 326 326 326 323 321 320 321 322 321 321 324 327 328 329 330 330 329 329 330
332 329 329 326 327 328 329 328 329 329 329 331 331 331 334 335 335 335 336 336 336 336 336 337 337 336 337 337 337 335 335 335 335 334 333 332 332 332 332 332 331 332 332 330 330 329 328 326 324 321 320 322 322 322 325 327 329 328 327 328 328 328 328
333 333 332 331 331 330 329 328 328 328 329 328 329 330 333 335 335 334 335 334 335 336 336 336 337 337 337 337 336 335 335 334 333 334 333 334 334 332 332 333 333 333 332 333 333 331 330 330 327 322 322 324 320 321 324 325 324 326 327 326 327 327 327
333 335 335 334 334 333 332 330 330 329 328 329 329 330 333 334 335 335 335 336 336 337 337 337 337 338 338 336 336 335 335 334 335 335 335 336 335 335 335 333 333 332 333 334 333 332 330 329 326 324 322 322 323 320 323 323 325 322 323 325 327 327 327
334 335 335 335 334 334 332 329 329 331 331 332 330 332 333 334 334 336 336 336 336 337 337 337 337 339 339 337 336 337 336 335 335 335 335 336 334 333 333 333 332 332 332 333 332 332 331 330 329 327 323 319 319 320 319 322 322 322 323 324 325 326 327
332 334 335 334 334 333 330 329 330 331 330 332 332 332 331 331 333 335 336 336 337 336 337 337 338 338 338 338 337 337 336 335 335 334 336 335 335 334 332 333 334 332 331 332 332 333 331 332 332 330 327 324 319 315 318 317 319 320 324 323 324 326 327
331 331 331 330 330 329 329 329 330 331 331 333 332 331 330 332 334 336 335 336 336 337 338 338 338 339 338 337 338 337 336 335 335 334 335 335 335 333 332 333 332 334 334 334 333 333 333 333 331 330 329 327 326 321 316 315 318 319 321 324 321 323 327
329 329 329 330 330 328 326 327 329 330 331 332 332 331 332 332 334 335 335 336 337 337 338 338 338 338 337 336 337 337 337 337 335 335 335 334 333 333 332 331 332 334 335 334 333 334 334 333 331 330 329 329 329 323 321 317 318 322 321 324 325 323 325
329 329 329 330 329 326 326 328 329 330 331 331 331 331 331 332 334 335 336 337 336 336 337 337 337 337 337 336 336 336 336 334 333 334 334 334 335 334 333 331 330 331 333 333 334 334 334 333 331 330 330 330 329 329 324 321 317 323 327 322 323 326 324
329 330 330 328 327 326 327 329 330 330 330 331 329 330 331 332 334 335 335 335 336 337 337 337 337 338 336 337 335 333 333 332 332 332 331 333 333 333 334 333 332 333 332 331 332 333 332 332 332 330 330 329 329 329 326 322 320 320 326 325 324 323 324
329 329 330 329 328 328 328 328 329 331 331 330 330 330 330 332 333 334 334 334 335 336 336 337 337 338 337 336 336 334 333 331 332 333 331 331 333 334 334 334 333 333 331 332 332 332 331 331 331 331 330 329 328 328 326 323 320 321 323 322 323 321 322
327 328 327 328 328 328 328 328 330 330 330 331 331 330 331 333 333 333 333 334 335 335 335 335 336 336 336 336 335 334 333 330 331 332 333 332 333 333 335 333 332 333 332 331 333 331 331 330 329 329 328 328 327 327 328 324 321 320 320 321 320 319 320
327 327 326 327 327 328 329 329 330 330 330 330 331 331 331 332 332 332 332 333 333 334 334 334 335 335 335 336 335 334 334 333 334 334 333 333 333 334 334 334 333 333 333 333 333 332 332 330 329 328 328 328 327 328 327 326 323 319 319 319 322 318 319
326 325 325 326 326 328 329 329 329 330 331 331 329 331 332 332 331 330 330 331 332 332 333 333 333 334 335 335 335 335 335 335 335 335 334 334 333 334 333 333 334 334 333 333 333 333 332 331 330 329 328 328 328 327 329 328 326 323 321 319 318 319 319
324 324 324 325 326 328 329 329 329 329 330 331 330 331 331 329 328 329 329 330 331 331 332 332 332 333 335 336 336 335 335 335 336 335 335 334 334 334 334 333 333 333 333 333 333 332 331 331 330 330 328 327 327 328 327 326 326 324 322 320 320 317 318
319 323 324 325 325 326 327 328 328 329 329 330 330 330 330 328 328 327 328 328 328 330 332 332 333 333 333 335 336 336 336 336 336 335 334 333 332 330 333 333 333 333 332 333 332 332 332 331 329 330 329 327 327 327 326 325 326 324 323 321 322 316 316
316 320 324 325 326 326 327 328 327 327 329 330 330 329 329 329 328 327 326 327 326 330 332 332 333 333 333 333 334 334 334 335 335 335 334 333 332 332 333 334 334 333 332 332 332 332 332 332 331 330 329 329 327 327 326 324 323 323 323 322 321 321 317
314 316 321 324 325 326 326 327 327 327 329 329 330 330 329 329 327 328 327 327 328 331 332 331 331 331 331 332 332 333 333 333 333 333 333 333 334 333 334 334 335 334 333 333 333 333 333 332 332 331 331 330 328 328 326 325 323 322 322 322 320 318 317
313 315 317 321 324 325 325 326 326 326 326 327 329 329 329 328 327 325 326 328 329 330 330 330 329 329 329 330 330 329 331 331 331 331 332 332 333 333 333 334 334 334 334 331 322 324 325 325 332 330 328 326 327 327 327 326 324 322 322 321 320 319 316
311 314 316 318 321 324 324 326 326 326 326 326 328 329 328 328 327 326 326 327 328 329 330 330 322 313 317 328 328 327 328 329 331 331 331 331 331 331 331 332 331 326 320 318 313 308 308 309 314 325 330 328 327 327 327 325 324 324 323 321 320 317 316
310 311 313 315 318 321 323 324 325 325 326 326 326 326 327 326 325 326 326 325 326 327 327 326 307 302 304 309 325 329 328 327 328 329 330 330 329 328 327 328 329 321 318 314 309 299 301 302 303 305 309 314 319 328 327 324 323 324 321 320 319 318 316
309 309 310 312 315 319 322 323 323 324 324 323 324 325 325 324 323 323 323 323 325 325 325 308 299 300 300 301 310 328 328 327 327 329 330 329 328 326 325 325 324 322 323 320 315 311 303 297 297 298 298 300 301 302 305 322 323 320 321 319 316 316 317
307 307 308 310 312 314 318 320 322 321 321 323 321 320 322 322 321 321 319 319 318 319 318 296 295 296 298 299 302 316 328 329 328 328 328 327 325 324 323 322 321 321 317 313 316 315 312 308 298 296 297 298 297 296 297 300 306 322 322 319 318 318 319
305 306 307 307 308 307 307 308 312 316 319 320 319 317 317 317 315 313 313 314 313 313 311 298 296 295 296 298 299 311 327 328 327 326 325 324 324 323 322 321 321 321 320 319 319 318 318 317 317 318 319 319 317 309 300 298 300 305 316 324 323 322 324
304 305 305 305 304 303 303 303 304 304 306 309 309 308 309 308 306 307 308 309 311 309 304 293 294 294 295 297 301 310 325 324 324 323 323 323 322 323 323 323 323 321 321 321 322 320 321 319 318 317 316 315 315 315 315 317 320 324 326 329 328 326 325
303 303 303 303 302 300 300 300 300 301 302 302 303 304 304 304 304 304 304 306 309 308 304 292 293 295 296 298 303 321 323 322 321 320 320 320 321 322 322 322 321 320 319 318 308 304 310 318 317 314 312 311 310 309 306 298 293 296 309 319 321 321 316
302 302 303 302 301 300 299 299 299 300 299 299 299 299 300 301 302 302 302 303 306 306 305 296 294 296 297 300 309 320 320 319 319 317 316 317 317 318 319 319 320 318 318 317 303 299 300 307 315 313 313 312 312 311 310 309 297 294 294 293 292 291 292
302 302 302 301 301 301 300 300 299 300 299 298 298 298 299 299 299 299 299 300 302 303 302 297 294 296 298 302 310 318 317 316 315 313 311 312 314 313 310 307 312 315 315 314 295 298 299 311 315 314 312 310 309 309 310 311 311 306 295 294 293 292 292
302 302 302 301 302 301 301 300 300 300 299 299 298 298 298 297 297 297 298 298 300 300 299 298 293 293 295 300 310 314 313 312 310 309 308 306 307 307 304 301 301 306 309 301 294 297 300 309 314 313 312 311 308 308 310 312 312 311 312 311 311 311 308
302 302 302 302 302 302 302 301 300 300 300 299 298 297 297 296 295 295 296 297 296 296 296 296 294 292 293 295 299 310 310 308 307 306 306 306 306 305 304 302 297 290 291 292 293 294 297 302 313 313 313 311 309 307 311 313 314 314 313 311 311 312 311
301 302 303 303 303 302 302 301 300 300 300 300 299 298 297 296 295 295 295 296 296 296 296 295 294 291 292 293 294 301 309 308 307 306 304 303 304 304 302 300 297 291 290 291 291 292 293 295 300 314 314 313 311 308 306 310 309 304 312 311 310 310 309
299 300 302 303 302 302 302 302 301 301 300 300 299 298 298 297 296 295 295 296 296 295 296 295 295 292 291 292 292 294 303 302 302 305 303 303 301 301 300 299 298 293 290 290 290 291 291 292 295 306 303 293 293 297 310 309 310 310 309 308 307 306 307
297 298 298 300 302 302 302 301 301 301 300 299 298 297 298 298 297 295 295 295 296 296 296 295 292 293 291 291 291 291 292 296 295 302 300 299 298 297 298 298 295 291 290 290 290 290 291 292 295 295 291 292 293 294 299 304 303 305 305 305 304 303 304
297 297 297 298 299 300 300 301 301 301 301 299 298 297 296 297 296 295 294 294 295 296 296 296 294 292 292 290 290 291 291 291 293 297 298 297 297 297 297 296 293 289 289 289 289 290 290 292 292 290 291 291 293 296 302 302 301 301 300 301 301 301 301

ECMWFFLT1_sfc_thetae_084.txt.gz
Theta_e
335 335 339 336 337 339 336 334 335 336 336 337 338 337 337 336 337 337 339 341 341 340 340 341 339 337 337 337 336 335 336 336 336 334 334 334 330 330 335 336 335 335 334 332 333 328 324 322 325 332 332 332 334 335 336 335 336 337 338 337 336 337 338
339 339 340 339 337 336 332 333 333 333 335 335 337 338 337 337 339 339 338 339 339 338 339 339 340 338 339 338 338 338 338 337 337 337 335 333 334 333 333 334 333 333 333 334 333 332 325 322 322 326 326 332 334 335 335 336 336 338 337 337 335 337 337
339 339 340 336 334 332 330 331 333 333 334 335 337 337 337 338 338 338 338 338 338 339 338 339 341 341 341 340 340 340 334 333 338 337 335 335 336 337 335 334 332 332 332 331 332 331 329 329 321 322 326 326 325 330 333 334 336 336 336 337 337 334 335
338 336 333 333 333 329 330 331 332 332 333 334 335 336 338 339 337 338 339 338 339 339 338 339 341 340 341 340 339 339 337 338 337 337 336 337 337 336 334 333 331 331 330 329 329 329 329 325 323 323 327 326 325 327 331 333 333 334 334 335 334 335 336
338 336 334 331 329 331 332 331 333 332 332 334 334 334 334 336 338 339 340 340 338 341 340 339 341 341 341 340 339 337 337 338 338 337 337 336 336 335 335 334 333 332 332 330 328 328 327 325 325 324 324 326 326 327 329 333 331 332 332 332 333 333 331
338 337 336 332 333 332 332 331 331 331 333 332 333 333 335 334 336 338 339 338 340 335 335 337 341 341 341 341 338 337 338 337 337 336 335 337 337 334 332 335 334 333 332 332 331 329 329 330 327 323 325 327 325 326 328 329 329 332 332 332 332 331 330
337 338 337 336 335 336 334 333 331 331 332 333 334 335 336 337 338 337 338 339 339 337 334 335 340 341 341 339 339 337 337 338 338 338 338 339 339 337 337 335 334 333 332 333 332 331 330 329 325 324 326 326 327 324 327 327 329 327 328 331 332 332 330
335 337 337 337 336 335 337 337 336 334 333 333 334 336 337 337 337 337 337 337 338 338 337 337 337 341 342 339 337 339 336 338 338 338 338 336 335 335 337 334 334 335 334 333 333 332 331 330 329 327 327 324 324 325 324 325 327 327 327 328 330 330 330
333 335 335 337 338 340 339 337 337 337 335 335 336 335 336 334 336 337 339 338 336 336 337 337 340 339 340 339 338 337 334 338 339 339 338 337 335 334 337 338 336 335 337 335 334 332 331 331 330 330 329 327 323 320 324 324 325 325 328 326 329 330 330
334 335 336 337 338 339 337 336 336 336 336 334 335 336 335 334 336 337 333 334 337 339 335 339 339 339 340 337 336 338 335 339 339 338 337 336 335 337 337 338 337 336 334 336 336 334 334 334 333 333 331 328 327 322 320 321 322 323 326 329 325 327 330
334 334 335 335 337 336 337 337 337 336 334 335 335 335 335 334 334 334 335 336 336 338 339 340 339 339 337 338 336 338 338 339 338 338 337 336 334 335 335 338 334 336 334 333 335 336 336 336 334 334 333 331 329 327 323 320 321 326 325 329 328 325 328
333 334 334 335 334 332 332 334 334 333 335 337 335 335 334 334 335 335 337 336 336 338 337 338 341 339 335 333 335 337 337 337 336 336 336 335 337 338 338 337 338 335 335 334 334 334 336 336 336 335 333 333 332 330 327 324 320 325 330 326 328 329 327
331 332 334 333 333 331 332 334 333 334 335 336 336 335 334 334 335 336 336 337 337 337 338 340 335 335 335 336 336 333 335 336 335 334 335 337 336 337 336 335 337 337 337 336 335 335 335 336 337 334 334 334 333 332 331 327 323 324 330 328 328 329 329
330 332 333 333 331 333 333 333 334 335 335 335 336 335 335 335 335 336 336 336 338 337 338 336 334 336 336 337 336 336 336 337 335 334 336 337 336 335 334 333 335 336 336 338 336 336 335 334 336 335 334 333 332 333 331 329 324 325 329 331 329 327 329
329 329 329 331 330 331 332 333 333 335 335 335 336 335 336 336 335 336 335 333 333 335 335 334 339 338 336 335 335 335 337 337 335 334 336 335 335 334 336 329 333 334 337 333 335 334 334 334 333 333 332 333 331 332 332 328 326 325 324 327 326 326 327
324 326 329 330 329 329 330 332 333 333 334 335 337 337 336 336 335 335 334 333 333 335 332 333 334 335 335 334 334 337 338 338 337 337 334 334 333 333 332 330 331 332 335 337 337 336 335 334 333 332 332 332 331 330 328 330 327 322 320 321 325 321 323
323 323 325 328 329 330 330 331 332 332 333 335 334 337 337 337 336 335 333 334 335 334 332 331 333 333 333 335 336 336 336 338 339 337 336 335 331 332 332 333 334 333 335 335 335 335 335 334 334 332 332 332 331 329 331 331 326 323 319 317 320 317 319
319 319 320 324 327 329 330 330 331 331 331 332 335 336 336 337 336 335 335 334 334 333 333 331 331 331 331 334 335 335 336 336 338 336 335 333 332 332 333 334 334 335 336 334 335 334 334 335 333 332 330 330 328 329 331 330 327 324 321 319 319 321 321
317 316 317 320 322 325 327 329 330 331 331 331 333 334 331 335 335 335 334 333 334 334 334 332 331 329 332 333 336 335 336 336 334 335 332 333 332 333 333 334 335 335 335 334 334 334 334 334 333 332 331 328 327 329 330 329 329 326 321 321 321 320 322
316 316 317 318 321 323 326 328 329 330 331 331 332 332 332 332 334 333 334 334 334 334 334 333 332 330 330 332 336 335 336 336 332 330 331 332 333 335 335 335 336 336 335 334 334 334 335 335 334 333 332 331 328 328 329 327 327 325 323 322 321 322 320
316 316 317 318 320 323 325 326 328 328 330 330 330 330 331 331 333 333 333 334 334 334 333 332 332 331 330 331 335 336 336 336 335 333 333 333 334 335 337 336 336 336 336 335 335 336 336 335 335 335 336 334 330 330 328 326 326 326 325 324 322 321 321
316 316 316 316 317 319 322 324 326 327 328 329 330 331 331 330 330 330 333 334 335 334 333 333 332 331 330 331 333 336 335 334 335 334 334 334 335 335 336 336 336 337 336 335 326 326 328 329 336 332 328 328 330 331 328 327 326 326 325 325 323 325 322
314 315 315 314 315 317 319 323 326 327 328 328 329 330 332 332 330 330 330 332 334 333 333 334 328 316 318 331 333 334 336 336 335 335 336 335 334 335 334 334 335 328 321 317 314 309 307 307 315 328 328 329 331 332 331 328 326 325 325 324 324 324 322
313 313 314 314 314 315 316 319 322 325 327 327 328 329 329 328 329 328 329 329 331 333 334 333 313 308 309 312 329 335 335 335 336 335 334 334 332 333 334 333 337 326 324 318 319 303 305 301 307 310 312 317 323 334 333 330 329 328 325 325 325 325 323
312 311 312 312 312 313 314 315 314 315 319 325 328 328 328 327 327 327 328 329 331 331 332 313 303 305 305 307 314 333 334 334 333 333 332 331 331 332 333 334 336 335 334 334 333 325 310 300 302 303 304 307 309 307 309 329 327 329 327 325 324 325 323
310 310 310 311 311 311 311 311 311 312 312 314 321 324 326 326 326 327 329 326 326 328 327 301 300 301 301 302 304 317 332 331 330 330 331 332 330 328 329 329 331 332 329 321 326 331 327 317 300 300 301 302 303 300 301 302 304 328 325 325 326 323 322
309 309 310 310 310 309 309 309 309 309 309 309 309 312 314 316 317 319 321 324 325 326 318 297 293 295 298 299 300 308 332 331 330 329 329 329 328 329 330 329 329 330 328 327 330 330 328 324 321 319 320 323 324 314 300 301 303 302 315 328 326 324 324
309 308 309 309 309 308 307 307 307 308 307 305 305 305 306 308 310 312 313 315 317 314 307 293 293 293 294 296 297 301 328 330 330 330 331 331 331 330 331 330 330 330 330 329 330 327 327 325 324 323 323 324 323 323 320 320 325 327 327 328 327 329 330
309 308 308 308 307 306 306 306 305 306 307 306 304 304 305 305 305 306 309 312 313 310 304 292 293 294 293 296 296 322 329 332 331 332 332 333 332 333 332 331 330 328 328 328 315 306 315 326 326 323 320 316 314 313 308 299 294 296 310 319 322 320 313
308 308 307 307 306 305 305 305 305 305 304 304 303 303 302 301 302 303 303 305 306 305 302 294 292 294 295 295 303 325 329 328 329 330 331 331 330 331 332 330 329 327 327 326 307 302 304 310 321 320 319 318 317 316 312 309 297 294 293 293 292 292 293
307 307 306 306 305 305 305 305 305 305 303 302 302 302 301 301 301 300 300 300 301 301 301 296 292 292 292 292 299 325 325 326 327 327 327 327 327 323 313 305 319 327 324 321 298 300 301 315 323 321 319 317 317 315 314 314 312 306 295 295 294 294 295
306 306 306 306 305 304 304 304 305 304 303 302 301 301 301 300 300 301 300 298 299 299 299 297 292 292 293 293 303 322 322 323 323 322 321 318 318 316 313 306 299 308 317 306 295 300 303 316 322 321 319 317 315 313 313 314 313 312 312 314 315 316 312
304 304 306 306 306 305 305 304 304 303 303 302 302 302 301 301 300 299 299 297 297 297 297 297 293 291 293 295 296 314 317 319 318 318 317 315 313 311 310 308 301 292 293 293 292 293 298 307 320 321 321 318 316 312 314 314 314 314 314 314 314 314 313
302 303 304 306 306 306 305 304 303 302 302 302 302 301 300 300 300 299 299 299 298 297 297 296 295 291 292 293 295 301 310 312 315 314 312 308 307 305 303 301 300 292 291 291 292 292 293 295 303 321 320 320 318 314 311 314 314 307 314 312 312 311 312
303 303 304 305 305 304 305 305 304 302 302 301 300 300 300 300 299 299 299 298 299 299 298 295 295 292 291 292 292 296 305 305 307 309 305 303 301 300 300 299 297 292 290 291 291 292 293 294 296 309 307 297 297 299 313 313 314 313 312 311 310 309 310
303 303 303 304 304 304 305 305 305 304 302 301 300 299 299 299 299 298 298 298 297 298 298 297 293 294 291 291 291 292 293 300 297 307 303 300 299 298 299 297 295 292 290 290 291 292 293 294 298 300 293 294 295 298 304 312 311 311 310 309 308 308 307
304 303 302 302 303 303 304 305 303 302 302 301 300 299 298 298 298 297 297 297 297 297 297 298 295 293 293 290 291 291 291 292 295 302 303 301 299 299 299 296 292 290 290 290 290 291 291 293 296 292 293 294 296 299 308 308 308 308 305 305 305 305 306

ECMWFFLT1_sfc_thetae_087.txt.gz
Theta_e
337 336 338 340 342 340 340 340 341 342 341 340 341 340 340 339 339 339 339 337 336 337 336 336 334 341 343 342 341 341 340 339 337 332 332 334 331 330 334 334 334 337 331 331 332 326 324 322 323 331 333 335 333 335 335 333 334 334 334 335 334 336 343
339 339 339 340 340 340 339 340 339 340 340 337 338 339 338 338 338 339 338 338 336 336 337 336 337 337 343 344 344 341 341 339 337 336 334 332 333 332 331 332 334 332 332 332 330 330 325 321 322 324 327 332 334 333 334 335 335 338 336 335 335 334 338
340 339 340 338 338 339 337 337 337 336 337 336 337 337 337 338 339 337 336 337 337 337 337 338 336 337 341 342 343 341 340 338 337 336 334 335 333 334 334 333 330 332 329 330 332 330 328 327 322 323 325 325 324 330 332 333 333 334 334 336 335 333 333
339 339 337 338 337 337 336 336 336 336 337 336 337 337 339 339 337 338 337 336 338 338 335 336 337 338 341 340 340 339 337 336 338 337 337 336 334 333 334 334 333 329 328 328 329 329 327 325 324 325 327 326 325 326 330 333 333 332 332 334 333 333 334
339 337 338 338 336 335 335 334 336 336 335 335 336 336 339 339 338 337 336 338 336 335 337 336 336 337 338 340 339 338 336 337 337 337 337 334 332 333 332 335 331 333 334 332 332 330 329 326 325 324 324 327 326 327 328 332 332 331 331 332 332 333 334
338 338 335 337 339 337 336 334 334 333 334 334 334 334 336 337 337 337 337 338 335 336 338 338 338 338 338 337 336 335 335 335 336 337 335 334 333 334 335 335 335 335 334 334 334 331 331 330 328 325 324 326 323 324 326 328 327 331 331 330 331 333 333
336 337 337 333 336 338 338 338 337 335 335 335 334 335 336 337 337 337 338 338 337 337 336 336 337 338 338 337 336 337 335 335 338 337 337 336 336 336 336 333 335 334 335 335 332 332 331 329 327 326 324 324 325 324 328 326 328 326 328 330 332 332 332
336 336 337 335 335 337 336 335 335 336 339 336 336 337 338 338 338 338 338 338 338 338 337 337 340 340 338 337 337 334 334 337 337 337 337 336 334 335 335 336 335 334 333 334 332 332 333 332 329 329 327 321 321 324 322 324 325 327 327 330 331 331 331
335 335 336 337 337 335 334 335 335 336 335 340 337 337 339 339 339 338 339 338 337 336 335 337 337 338 338 338 336 336 333 335 335 335 337 335 334 337 335 336 337 333 335 334 334 333 332 333 331 330 329 326 320 317 322 320 323 324 328 326 330 331 330
332 334 333 334 338 333 332 332 332 334 336 338 337 337 337 338 338 339 338 339 338 338 337 336 336 337 338 337 335 334 334 339 337 337 336 337 337 336 335 338 335 335 337 336 335 336 334 335 333 332 330 327 326 321 319 318 321 323 326 328 324 328 330
331 333 334 334 332 337 334 330 333 333 334 335 335 337 337 338 338 338 337 337 337 339 339 337 335 336 336 336 335 335 335 338 338 339 339 335 333 338 337 335 336 335 336 337 335 338 338 336 334 331 331 329 329 324 324 319 320 324 324 328 328 326 329
330 332 333 334 333 331 332 331 331 331 333 335 335 336 337 337 337 337 338 337 338 338 338 338 337 337 335 334 335 333 336 338 338 334 334 334 334 336 335 334 337 336 336 337 339 339 338 336 335 332 331 331 330 329 325 323 321 324 327 325 327 329 328
328 331 332 332 334 332 330 331 331 330 331 333 334 335 337 337 335 336 335 338 336 335 338 338 337 335 334 333 333 334 335 336 333 331 331 332 331 333 336 333 336 335 337 336 336 336 337 336 336 336 333 331 330 333 329 327 323 323 332 328 326 327 329
326 328 331 333 334 333 332 331 331 332 333 331 333 333 336 337 337 334 334 333 335 335 335 336 334 334 330 330 334 334 335 335 332 331 332 330 333 336 334 333 334 335 336 335 335 336 334 334 334 333 333 331 329 331 329 327 323 324 329 331 329 326 328
324 326 327 330 330 330 331 332 333 332 330 332 332 331 334 336 338 335 333 336 334 336 335 333 333 331 331 333 333 333 334 332 331 332 332 331 332 334 336 333 333 334 333 334 334 333 333 332 332 330 331 329 328 329 330 327 324 326 326 328 326 327 326
323 323 324 326 327 328 330 331 332 332 332 333 334 335 334 333 336 336 334 336 335 337 336 335 335 333 333 332 332 333 333 332 330 330 330 330 332 334 335 334 333 334 335 335 336 335 334 332 331 330 329 329 327 329 329 330 326 324 324 324 326 325 326
322 322 322 323 324 326 327 329 331 332 332 333 333 336 336 336 336 336 334 333 334 335 336 337 336 335 335 332 332 332 331 331 330 329 329 329 329 331 332 333 333 335 335 333 334 333 334 333 331 331 330 332 331 329 329 330 325 326 326 322 324 322 325
320 321 320 321 322 324 326 327 328 329 331 332 333 334 335 335 337 335 332 330 332 333 336 335 336 335 334 335 334 333 333 331 330 330 331 330 330 329 332 332 332 334 334 334 332 331 332 332 330 331 330 329 329 330 331 328 329 327 324 321 322 322 323
319 319 319 320 320 321 322 324 325 327 328 329 332 333 333 335 334 334 333 331 333 332 330 331 334 333 334 335 335 334 334 334 332 331 331 331 330 330 331 332 335 334 333 332 331 333 333 332 331 330 329 329 328 329 328 327 327 323 321 320 319 318 320
319 319 319 319 320 319 320 321 323 324 327 328 330 331 333 332 335 334 333 333 332 332 333 334 337 336 336 333 335 334 334 332 331 331 331 330 332 332 332 334 334 333 333 332 333 332 332 333 331 330 331 329 329 327 327 327 326 321 320 318 317 319 317
318 318 318 318 318 318 318 320 321 323 326 328 329 329 330 331 332 333 334 333 333 332 330 331 333 335 336 336 336 335 334 333 330 329 330 331 330 330 334 333 335 334 332 333 332 332 333 332 330 327 326 328 325 327 327 326 327 322 320 319 317 318 318
318 318 317 317 316 316 317 317 318 318 319 322 326 330 331 330 330 330 333 334 332 333 332 332 332 332 334 335 334 333 334 332 331 330 330 332 332 334 333 335 334 333 329 327 317 320 322 324 329 329 330 328 326 330 330 326 325 323 321 320 319 321 318
316 316 316 315 315 316 316 315 315 315 315 317 318 322 326 329 330 329 330 331 331 331 332 332 326 315 315 330 334 332 333 332 332 331 330 330 332 333 334 334 334 328 323 320 315 308 307 311 320 329 331 330 328 329 330 329 325 324 322 319 319 319 318
315 315 314 314 314 314 314 314 313 313 313 314 315 317 319 320 323 328 329 328 328 332 332 331 314 306 308 310 328 334 334 333 330 330 329 329 330 332 333 333 333 329 323 320 315 305 306 305 308 314 313 317 322 333 329 328 325 325 325 322 328 323 319
314 313 313 312 312 312 312 312 311 311 311 311 311 312 313 314 316 318 321 324 327 329 327 307 301 304 303 305 310 331 332 330 328 330 331 330 330 333 332 331 332 333 333 332 329 322 312 304 305 306 307 308 299 296 304 328 328 327 325 324 321 324 323
312 312 312 312 311 311 311 310 309 309 309 310 309 308 308 309 310 313 316 317 320 325 323 296 294 295 296 299 300 312 331 330 328 328 330 330 330 332 331 330 332 333 332 330 330 330 328 319 304 301 304 305 298 299 302 303 303 329 329 326 325 324 324
311 311 311 311 310 309 309 309 309 309 309 309 308 306 306 305 306 307 309 312 315 316 308 296 292 294 295 294 295 300 326 329 328 327 329 330 331 333 334 332 329 332 332 334 333 333 332 329 324 323 326 330 328 314 300 303 304 301 313 327 327 326 327
310 310 310 310 310 309 308 308 308 307 307 306 305 304 304 303 303 303 304 306 309 311 307 293 291 292 294 294 293 297 321 327 328 328 330 331 331 330 332 331 332 331 331 331 333 328 329 330 328 328 328 328 325 318 316 316 317 320 327 328 330 328 326
309 310 310 310 309 308 308 307 306 306 306 305 305 304 304 303 302 301 302 302 303 304 306 294 291 291 293 294 296 315 321 325 326 328 330 329 330 330 330 332 331 328 330 331 319 311 319 331 328 327 325 318 316 311 303 297 295 297 306 317 323 320 314
309 309 309 308 308 308 307 306 306 306 305 304 303 303 302 302 302 301 301 300 299 301 303 297 291 291 291 292 304 318 319 322 325 324 323 329 330 321 318 321 325 329 329 328 310 305 307 311 327 325 320 317 314 312 309 304 297 295 295 295 294 294 295
307 308 308 307 307 307 307 307 306 306 304 303 302 302 303 302 302 301 300 299 299 299 300 298 292 291 292 292 303 318 320 322 323 322 324 329 324 321 312 302 313 328 331 323 298 303 303 319 327 324 321 316 314 311 311 312 312 307 297 297 297 297 298
307 307 307 307 307 306 306 306 307 307 305 304 302 302 302 301 301 300 300 300 300 298 298 298 293 291 292 292 304 317 320 323 322 323 323 322 321 320 315 307 299 302 310 301 293 298 302 314 324 321 320 317 313 312 313 314 314 315 316 315 314 313 310
307 307 306 306 307 307 307 307 307 307 306 304 303 302 301 301 300 299 300 300 299 298 297 297 296 291 292 292 297 311 315 318 316 315 315 313 310 309 308 308 301 292 291 292 293 292 295 300 321 322 321 318 315 313 317 317 318 317 315 313 312 313 313
306 306 307 307 307 307 306 306 306 306 306 305 303 302 301 301 300 300 299 300 299 299 298 296 296 292 291 292 293 302 311 311 311 309 308 305 303 302 302 300 301 293 291 292 293 293 295 297 305 323 322 319 317 314 311 315 315 307 312 311 311 311 311
306 306 306 307 306 305 306 306 305 305 305 304 303 302 302 301 300 299 300 299 299 299 300 298 297 294 291 291 292 293 306 308 307 306 304 302 300 298 297 297 296 293 291 293 293 294 294 296 298 314 311 299 298 302 316 314 313 312 311 310 310 309 308
305 305 304 304 302 302 302 304 304 304 304 303 303 301 301 300 300 299 299 298 298 298 299 299 295 296 293 291 291 292 292 298 297 306 303 301 299 298 298 296 294 292 291 292 292 293 294 295 298 299 294 297 299 299 306 313 311 311 310 309 308 307 306
304 304 304 304 303 302 302 302 302 302 303 302 301 301 300 300 299 298 297 296 297 297 298 298 296 294 295 293 292 291 291 291 293 300 301 300 299 298 297 295 293 291 292 292 292 292 292 293 296 293 295 296 298 301 310 309 307 307 304 304 305 305 304

ECMWFFLT1_sfc_thetae_090.txt.gz
Theta_e
337 338 340 342 345 346 342 342 342 343 341 339 339 338 339 338 337 336 337 336 337 337 337 336 336 336 335 337 335 335 336 333 331 329 328 332 329 330 334 333 333 334 332 330 329 324 322 319 321 328 331 329 332 332 333 332 332 332 333 332 333 333 333
338 339 339 340 341 344 341 342 341 341 342 340 338 338 338 338 338 338 336 337 336 337 337 337 337 336 335 334 334 333 331 332 332 331 330 332 331 330 331 331 332 331 331 332 329 327 322 320 320 322 322 329 329 331 331 332 332 333 333 333 333 334 335
338 339 339 338 339 343 339 340 340 340 340 340 338 337 337 337 337 337 337 337 337 337 337 336 336 336 335 334 334 333 333 333 335 335 333 333 334 334 333 331 328 328 329 329 330 327 325 325 321 321 322 322 322 326 331 330 331 333 334 333 332 332 333
335 336 336 336 337 337 336 338 339 338 340 338 338 337 336 337 338 338 338 338 338 337 337 336 335 336 336 334 333 334 333 333 334 335 334 334 334 334 334 331 329 329 327 324 323 325 324 322 321 322 324 325 324 323 328 331 330 332 332 333 331 330 332
335 335 334 334 336 335 335 334 339 338 338 338 338 337 336 337 337 337 338 337 337 335 335 336 336 337 336 336 334 333 332 333 335 334 334 332 333 332 332 332 332 331 330 330 330 328 325 323 323 322 322 325 324 326 328 330 331 330 331 331 332 330 331
335 335 334 334 335 335 336 335 334 332 332 334 336 335 336 336 335 336 336 336 336 336 336 336 337 337 337 336 335 334 333 333 333 332 333 333 333 331 330 331 332 331 330 333 327 326 327 326 325 321 323 326 320 322 326 328 326 329 329 331 330 330 330
332 333 334 334 335 335 335 335 334 333 331 331 333 335 337 336 336 336 337 337 337 336 336 336 336 336 336 336 334 332 332 333 333 332 332 333 334 334 333 330 330 331 331 331 330 328 325 325 324 322 322 323 325 321 324 325 327 325 326 331 330 330 330
329 329 331 334 334 335 335 334 333 333 332 333 333 334 336 337 337 337 337 336 337 337 337 335 336 337 337 335 334 334 334 335 332 331 330 332 332 333 334 332 331 331 331 332 331 328 327 327 329 328 323 319 319 321 321 325 324 324 323 326 328 328 329
328 329 330 333 333 334 334 333 332 332 332 333 333 333 333 334 335 336 336 336 336 337 335 336 335 334 334 334 333 333 333 335 333 333 331 332 332 334 334 334 332 330 332 333 330 329 329 332 331 330 329 322 319 316 319 318 320 321 326 323 326 329 328
326 327 329 332 333 333 333 334 332 331 332 334 334 334 333 333 333 334 334 336 336 335 333 334 335 334 333 332 332 332 332 333 333 333 334 334 333 334 332 333 332 332 332 331 330 330 333 334 332 331 330 326 323 319 315 315 317 318 322 325 322 325 328
326 326 328 330 333 333 332 332 333 332 332 333 333 335 334 332 333 334 334 334 334 331 333 335 334 332 332 331 332 333 333 333 332 332 333 334 332 332 331 331 331 331 331 331 331 333 333 334 331 331 329 327 327 320 319 316 316 321 321 324 325 324 326
325 325 327 328 330 331 331 331 331 332 333 333 333 333 334 334 332 332 332 333 332 331 332 332 332 332 332 332 332 332 334 333 332 331 332 331 331 330 329 329 330 330 329 330 329 333 334 334 333 331 329 330 328 327 323 321 316 322 324 321 324 326 326
323 323 324 325 326 329 329 330 330 331 331 332 333 332 331 332 332 331 334 332 332 332 331 331 331 331 332 331 332 332 334 333 331 330 331 331 332 330 329 328 329 329 329 329 328 331 333 334 334 330 329 329 330 328 328 323 319 319 325 324 324 325 327
323 323 323 323 324 324 325 327 329 330 332 330 332 333 331 330 330 331 330 330 331 331 330 328 328 330 331 331 333 332 333 333 332 331 331 330 332 331 328 328 328 330 331 328 328 330 332 332 332 333 332 330 328 329 326 324 321 320 323 328 325 324 327
322 322 322 322 322 321 322 324 326 328 330 331 331 330 331 331 332 332 329 332 332 331 331 330 330 331 330 330 331 331 331 330 328 329 330 328 328 329 328 327 328 329 330 329 330 330 332 331 331 331 330 329 327 327 329 325 322 319 319 324 324 325 327
321 321 320 320 320 320 320 321 323 324 325 328 330 332 331 330 330 331 329 329 328 328 330 331 332 331 330 329 330 331 329 328 329 329 329 328 328 328 327 327 327 328 329 327 327 329 330 330 330 329 328 328 326 326 328 330 324 321 321 322 324 322 323
320 321 318 318 319 319 319 320 321 322 323 325 326 329 331 330 330 329 328 329 330 329 329 330 332 332 332 331 330 328 328 328 329 330 330 330 330 330 328 328 328 328 328 326 327 331 331 330 329 327 328 328 327 327 328 326 327 323 323 321 322 321 323
318 318 317 318 317 318 318 318 319 320 321 320 322 324 328 331 331 330 326 327 329 328 329 331 331 330 331 332 330 328 328 328 330 330 331 331 331 329 328 327 328 328 328 328 326 330 331 330 330 329 328 328 327 328 326 326 324 325 324 321 320 322 323
316 316 316 316 316 316 317 317 317 317 318 318 319 320 322 324 328 329 330 328 327 328 330 328 328 328 329 329 330 331 330 329 330 329 330 331 329 330 329 328 329 329 328 326 326 328 330 329 330 327 328 326 325 325 324 326 324 324 324 322 320 319 321
316 315 315 315 315 314 314 315 315 314 315 315 315 316 318 320 322 324 327 330 328 328 329 330 329 329 329 329 329 329 329 329 329 331 330 331 330 330 329 329 329 330 328 327 327 327 326 324 323 325 325 326 326 326 324 326 325 322 322 320 320 319 319
315 314 314 314 313 313 313 313 313 313 313 313 313 313 313 314 317 320 320 324 328 328 328 328 327 328 328 329 329 329 329 328 330 331 331 331 330 330 329 328 328 329 329 329 327 327 326 324 325 324 326 325 324 324 324 322 322 321 320 319 317 316 317
314 313 313 312 312 311 311 311 311 311 311 311 311 311 311 310 312 313 316 319 322 326 327 321 311 311 320 328 330 328 328 330 331 330 329 330 330 330 329 329 329 329 328 329 322 322 323 324 326 325 325 326 324 323 324 322 321 321 319 317 314 315 313
312 312 312 311 311 311 310 310 310 310 309 310 309 309 308 308 308 308 310 312 316 320 314 304 303 299 298 305 321 327 328 329 329 329 329 329 330 330 328 326 328 328 323 321 318 315 314 316 320 326 326 326 325 323 324 324 322 321 318 313 313 314 310
311 311 311 311 311 310 309 310 309 308 308 308 307 307 306 305 305 305 306 307 309 314 309 301 296 294 294 296 306 321 325 326 328 328 329 329 329 329 329 328 329 327 320 320 318 307 309 308 310 313 315 318 323 326 324 324 323 322 321 317 314 315 312
310 310 310 309 309 309 309 308 308 307 307 306 306 306 305 304 304 303 304 304 305 308 308 299 293 293 293 293 296 306 320 325 324 327 328 329 329 328 325 326 328 326 325 325 324 316 310 305 305 306 307 308 306 306 311 325 325 321 320 319 320 319 317
309 309 309 309 309 309 308 307 306 306 305 306 305 304 304 303 303 303 302 301 302 303 306 297 293 293 292 292 293 297 312 322 327 327 328 329 329 328 325 323 324 327 327 324 325 326 321 315 306 302 301 300 302 303 300 299 300 324 324 323 322 319 320
308 308 308 308 308 307 306 306 306 306 306 305 304 303 303 302 302 302 301 301 300 301 303 297 293 292 292 291 292 293 308 316 323 326 327 328 329 329 327 325 323 324 326 327 325 324 325 320 317 314 318 321 318 309 303 301 302 307 318 324 322 318 320
307 307 307 307 307 306 306 306 305 305 305 304 303 302 302 301 301 301 301 300 300 299 300 295 293 292 291 291 291 294 309 317 321 324 326 327 328 328 327 327 326 324 324 325 326 324 325 323 321 321 322 324 319 310 307 307 313 320 323 321 318 324 324
306 306 306 306 306 305 306 305 305 305 304 304 303 303 302 302 300 300 300 300 299 298 298 294 293 292 292 291 292 303 313 317 321 325 326 324 322 321 322 326 325 323 323 324 318 306 311 323 324 321 316 313 308 305 301 298 294 298 309 316 318 314 308
305 305 305 305 304 305 305 305 305 305 304 303 302 302 302 301 301 300 299 299 299 298 298 296 293 292 292 291 294 303 312 317 321 323 322 319 314 310 308 311 322 324 323 323 312 302 306 312 321 318 314 311 308 306 303 302 296 295 296 296 295 295 295
303 303 304 304 304 304 304 305 304 306 304 302 302 302 302 301 301 300 299 299 299 298 298 297 294 293 292 292 294 301 309 317 321 321 320 316 313 309 305 302 315 324 323 316 298 300 303 314 322 317 312 310 308 306 305 307 307 303 296 295 295 296 297
303 302 301 301 302 302 303 303 304 305 304 303 302 302 302 301 301 301 300 299 300 298 298 297 295 293 293 292 294 300 311 316 314 312 310 308 307 306 306 302 299 299 306 300 294 299 306 316 321 317 313 310 308 306 307 308 309 309 310 309 309 308 305
303 302 301 301 301 302 302 303 303 303 303 302 302 302 301 301 300 300 300 299 299 299 297 297 296 293 293 293 293 297 305 307 308 306 305 305 304 303 302 301 299 292 292 293 293 294 299 307 318 318 315 312 309 307 310 311 312 311 310 309 308 308 308
303 303 303 302 301 301 302 302 302 302 301 302 302 301 301 300 300 299 299 299 298 298 298 296 295 293 293 293 293 293 298 298 303 305 302 300 300 299 299 298 298 294 292 293 294 296 298 300 305 318 316 312 311 310 309 310 308 306 308 307 306 307 307
303 303 303 302 300 299 300 301 301 301 300 300 300 299 299 299 299 298 298 298 298 298 298 297 294 293 292 293 293 293 294 295 296 303 300 299 298 296 296 295 295 293 292 293 294 295 297 299 301 309 308 299 298 300 310 310 310 309 308 307 306 305 305
302 302 302 302 299 298 298 298 299 299 299 299 298 298 298 298 298 297 297 298 298 297 297 297 294 293 293 292 293 293 292 293 293 299 297 296 296 296 296 296 296 294 292 293 293 294 295 296 299 299 295 297 298 300 304 309 308 307 305 305 304 303 303
302 301 301 301 300 298 297 298 297 297 297 297 296 296 296 297 297 296 296 296 297 297 296 296 295 292 292 292 292 292 292 292 292 295 296 295 295 295 295 295 294 292 293 293 293 293 293 295 296 294 295 296 298 299 305 304 304 304 301 301 302 302 302

ECMWFFLT1_sfc_thetae_093.txt.gz
Theta_e
330 330 332 332 334 335 333 332 334 334 336 336 336 336 335 334 334 333 332 332 333 335 335 334 334 334 334 334 334 332 332 330 329 327 326 327 324 325 329 328 328 329 329 327 325 321 318 317 319 325 326 326 325 326 328 329 330 329 328 330 331 332 331
332 332 334 333 332 332 331 331 331 331 332 334 334 334 333 335 335 334 333 331 332 333 335 334 334 335 334 332 332 331 331 330 329 329 328 327 327 326 328 327 327 326 326 325 326 325 318 316 316 320 320 322 325 326 327 329 329 329 329 330 331 332 330
330 331 331 331 331 330 330 330 330 329 330 332 332 332 332 333 333 334 332 331 331 332 335 335 335 335 334 333 332 331 331 330 330 330 328 328 329 328 330 329 327 326 324 323 324 323 322 321 317 318 319 321 319 323 327 327 329 329 330 329 330 331 331
329 330 328 329 329 330 329 330 330 329 329 329 329 331 332 331 332 334 333 332 331 333 334 334 333 333 333 332 332 332 331 330 330 329 328 329 329 329 329 328 327 326 324 323 323 323 321 318 317 317 320 322 321 320 325 329 329 330 331 330 329 331 330
326 326 325 326 329 329 330 329 330 330 328 329 329 329 329 331 331 330 331 331 331 332 331 331 333 333 333 334 333 331 330 330 330 330 330 329 329 330 330 330 329 328 327 326 326 325 323 320 320 318 319 322 323 323 326 327 328 329 330 330 330 330 330
324 324 324 325 329 330 330 330 330 329 327 326 327 328 329 329 330 330 329 329 330 331 332 332 334 333 331 331 332 330 329 329 329 330 330 331 331 330 330 331 331 329 328 329 327 325 325 324 322 319 322 324 320 321 325 327 324 327 329 329 330 330 330
322 323 323 325 328 330 330 329 329 329 328 326 327 327 329 330 330 330 329 329 331 331 330 331 333 333 331 331 331 331 329 329 330 330 331 331 331 330 331 330 330 329 329 330 327 326 324 322 321 320 318 320 321 321 323 325 326 323 325 327 329 330 329
322 322 323 325 329 329 328 327 327 327 327 327 327 328 328 329 330 330 328 328 330 330 332 332 332 332 332 329 330 331 331 330 330 331 330 330 329 330 330 329 329 329 329 329 328 327 326 324 323 321 319 316 316 318 318 323 323 323 322 324 329 327 329
322 322 323 325 326 327 328 328 327 326 327 327 328 328 327 329 329 329 329 329 330 329 330 331 331 331 330 329 330 331 330 331 329 328 329 329 329 329 330 331 329 328 329 329 329 328 328 327 325 323 322 320 315 313 316 317 320 321 324 322 325 327 328
321 321 322 323 323 325 328 329 328 328 328 328 328 329 328 326 328 327 327 327 329 329 330 330 331 331 330 328 328 329 329 330 330 329 329 328 329 330 330 331 330 329 329 329 329 328 328 327 327 326 325 322 320 316 314 315 317 318 321 324 321 324 327
322 321 321 321 322 322 323 323 326 327 327 328 328 329 329 329 327 330 327 327 328 328 328 329 330 331 331 329 329 329 330 330 329 330 331 330 328 329 330 330 330 329 329 329 329 329 328 327 327 326 326 325 323 318 317 315 315 318 319 322 323 322 326
320 320 321 320 320 319 319 320 321 324 326 327 327 327 327 327 327 327 326 326 326 327 327 328 328 328 329 327 327 327 328 329 329 329 330 330 330 329 330 329 328 328 329 328 328 329 328 328 327 327 326 326 324 322 319 318 314 317 322 319 322 325 325
317 318 319 319 319 318 318 318 319 320 322 325 325 326 327 327 326 326 326 326 326 327 327 326 327 328 328 329 328 327 329 328 329 328 329 329 330 328 328 328 327 327 327 327 327 327 328 328 327 327 327 325 324 323 321 318 317 316 321 321 320 323 326
316 316 316 316 317 317 316 317 318 319 321 321 322 322 324 326 327 326 326 326 326 326 326 325 324 325 326 326 327 327 328 328 328 328 328 328 330 329 328 327 327 327 327 326 326 326 327 328 327 327 326 325 323 324 322 319 317 317 318 321 323 323 325
316 315 314 314 315 316 316 316 317 318 317 318 319 320 321 322 325 327 326 325 325 325 325 325 326 326 326 326 326 327 327 327 327 327 328 327 328 329 328 326 327 327 328 327 326 326 327 327 328 328 328 326 324 324 325 321 319 319 317 318 321 322 324
313 312 312 312 313 314 314 315 316 315 315 315 316 317 318 319 321 323 324 325 325 325 325 325 325 327 327 327 326 327 328 328 326 326 325 326 328 328 327 326 326 327 327 326 326 327 327 327 327 328 326 326 324 324 324 324 320 318 318 318 321 321 322
311 311 310 310 311 312 313 313 314 313 314 313 313 314 314 314 318 319 320 322 325 325 325 324 325 327 328 328 325 326 326 325 325 325 325 326 327 327 326 325 326 326 326 325 325 325 326 326 325 326 326 326 325 323 322 322 324 320 317 318 319 321 322
310 310 309 310 310 311 311 311 312 312 312 311 311 310 310 311 313 313 316 318 321 322 317 315 317 320 323 326 326 326 326 325 324 324 325 326 329 328 326 325 326 326 326 324 324 324 325 325 327 325 324 323 323 323 323 323 322 322 320 319 318 320 322
309 309 310 309 310 310 310 310 310 310 310 309 309 309 308 308 309 309 311 312 317 310 307 307 305 305 306 310 318 326 326 326 325 325 325 326 327 328 327 327 326 326 325 324 324 324 326 326 326 325 324 323 323 324 323 322 322 322 321 320 319 319 321
309 309 310 309 310 309 309 309 309 308 309 308 307 306 306 306 306 306 306 308 311 308 305 303 302 300 301 304 307 315 324 324 324 325 327 327 327 327 327 327 327 327 327 326 325 325 325 325 324 323 323 323 324 323 321 321 321 321 320 319 319 320 319
309 310 310 309 309 309 309 308 308 308 308 306 306 305 305 305 305 305 304 305 306 308 303 301 300 298 298 300 303 307 315 324 324 325 325 326 326 326 327 327 327 327 328 327 326 325 325 323 323 321 322 323 323 322 320 320 319 320 319 319 318 317 318
309 309 309 308 308 307 308 307 307 307 306 306 306 305 304 304 304 303 303 303 304 307 303 300 299 297 296 297 299 303 308 315 324 325 325 326 326 326 326 326 327 327 329 330 322 321 322 321 323 321 321 323 321 321 320 320 319 318 319 318 316 317 317
308 307 307 306 306 307 307 307 306 305 305 305 304 304 303 302 302 302 302 301 302 303 302 300 300 297 296 296 296 300 304 310 316 322 323 324 324 326 326 326 327 327 323 321 317 312 311 312 317 323 323 323 322 321 320 320 318 318 318 317 316 316 314
307 306 306 306 306 306 306 305 305 304 303 303 303 302 301 301 300 301 301 300 300 301 301 299 295 293 293 294 296 297 300 306 313 319 323 324 324 323 325 325 326 326 323 320 317 307 307 306 305 309 312 316 320 324 321 320 319 318 317 317 317 316 314
305 305 306 305 305 305 305 304 303 302 301 301 302 301 300 299 300 300 300 300 300 300 300 299 293 293 293 293 295 296 297 303 311 317 321 323 323 324 324 324 323 324 324 324 323 317 311 306 303 303 304 306 308 309 313 319 319 318 318 316 315 314 314
305 304 304 304 304 304 304 303 302 301 300 301 301 300 299 299 298 299 299 298 299 299 299 296 293 293 293 293 293 295 297 303 309 314 319 323 324 324 323 321 321 322 324 323 325 322 321 318 306 303 303 304 306 305 304 307 308 321 320 319 315 313 313
303 303 304 304 303 302 302 302 302 301 301 300 300 299 298 298 298 297 298 298 298 298 298 296 293 293 293 292 292 293 299 303 309 313 317 322 323 322 322 320 320 321 323 323 322 323 323 320 316 314 314 317 315 308 302 300 302 306 314 321 318 316 316
300 300 301 301 301 301 300 301 301 301 300 300 299 298 298 297 297 297 297 297 297 297 297 294 292 292 292 292 292 295 304 309 313 316 318 321 323 322 322 322 321 321 321 322 322 321 322 321 317 316 317 317 311 309 306 305 306 313 320 319 319 319 319
298 298 298 298 299 299 300 300 300 300 299 299 299 299 299 298 297 296 297 296 296 296 296 293 292 292 292 292 293 301 307 311 313 315 319 311 310 309 311 316 322 321 321 322 315 306 313 320 319 318 315 309 306 304 301 298 294 295 305 318 318 320 315
297 297 297 297 297 297 298 298 299 299 298 298 298 298 298 297 297 296 296 296 295 295 295 294 292 292 292 292 295 299 304 308 310 311 308 308 307 306 306 306 311 320 321 320 309 300 304 310 319 318 313 309 307 305 302 300 295 294 294 293 293 293 293
296 296 295 295 295 296 297 298 298 299 298 298 298 298 297 297 297 296 296 295 296 294 294 295 292 292 292 292 295 298 300 303 305 304 305 305 305 303 304 303 303 302 315 317 303 297 301 312 317 315 311 308 305 303 303 305 305 303 298 297 297 297 297
296 295 294 294 295 295 295 296 297 297 296 296 297 297 297 296 296 296 296 296 298 295 295 295 293 292 292 292 294 297 297 299 301 300 300 300 301 301 300 300 300 296 296 298 293 297 300 311 316 313 310 308 305 304 304 307 306 305 306 306 306 306 304
296 295 294 294 294 294 295 295 295 295 295 295 295 295 296 295 295 295 295 295 295 295 295 294 294 292 292 292 292 296 297 296 297 298 298 298 298 297 298 297 298 293 291 291 294 296 300 306 313 313 311 308 306 305 309 308 307 307 306 305 305 304 304
296 295 295 294 294 294 294 294 294 294 293 293 293 293 294 294 294 294 294 295 295 295 296 294 294 292 292 292 292 293 296 296 297 297 296 296 296 295 296 296 297 294 291 291 294 298 300 302 304 312 311 308 308 307 305 305 304 303 305 304 303 303 303
297 297 296 295 293 293 294 294 294 293 292 292 291 291 292 293 293 292 293 294 294 293 295 296 293 293 292 292 292 292 293 295 295 297 296 295 295 295 295 296 296 294 292 292 291 296 298 299 301 309 307 298 296 298 306 306 306 305 304 303 302 302 301
297 298 296 295 293 292 293 293 293 293 292 291 290 290 290 291 292 291 291 292 292 292 293 294 293 293 292 292 292 292 291 292 292 298 296 294 294 294 295 295 296 294 292 292 292 292 294 297 300 300 295 296 297 297 301 305 303 304 303 302 301 300 300
296 295 294 294 293 292 292 292 292 292 291 291 290 290 290 290 291 290 289 290 291 291 292 292 293 292 292 291 292 291 291 291 292 295 296 295 294 294 293 294 293 292 292 293 293 293 292 293 294 293 295 295 297 299 303 302 301 301 299 299 300 299 300

ECMWFFLT1_sfc_thetae_096.txt.gz
Theta_e
327 327 329 329 330 331 330 331 331 331 332 332 331 332 333 333 334 333 332 330 330 330 331 332 331 331 331 332 331 332 331 330 328 326 325 324 323 323 326 326 326 326 327 324 320 320 317 316 319 323 325 325 326 328 328 328 327 326 326 327 328 327 328
326 326 328 329 329 330 329 329 329 329 329 329 331 332 332 333 333 332 332 332 330 329 330 331 332 333 332 332 331 330 328 328 329 329 326 324 324 323 324 325 325 324 325 325 323 321 316 316 316 320 321 324 324 324 325 327 328 327 327 328 329 330 328
324 325 325 325 327 327 327 328 328 328 326 328 329 330 329 330 331 331 331 330 328 329 330 330 332 332 333 332 330 330 331 329 328 328 327 326 326 326 324 325 323 324 323 322 321 320 318 319 316 319 321 320 319 323 324 324 326 327 328 328 329 330 330
323 323 323 323 326 326 326 326 327 327 326 327 327 328 328 329 329 331 330 330 330 330 330 330 331 332 332 331 330 331 331 329 328 328 327 327 327 326 326 325 324 324 322 320 320 320 320 318 318 318 321 322 321 321 323 325 326 328 328 328 328 330 330
323 322 322 323 325 325 326 326 325 325 325 325 325 325 326 327 328 327 330 330 329 329 329 329 329 330 331 330 329 328 328 330 330 329 328 327 327 326 326 327 327 326 325 324 324 323 321 320 320 318 319 321 322 322 324 324 327 327 328 328 328 329 330
322 322 322 323 325 325 326 327 325 325 325 325 325 326 326 326 326 326 327 328 327 328 329 329 329 330 331 332 331 330 329 328 329 329 328 328 328 326 326 328 328 327 326 327 326 325 325 323 321 317 320 323 320 321 323 323 322 327 328 328 328 329 329
320 321 322 322 322 323 325 327 327 326 325 326 327 327 327 328 327 326 327 328 328 328 328 328 328 328 329 329 329 328 329 329 329 329 328 328 328 328 329 327 327 327 328 327 326 326 325 322 319 318 318 319 320 320 322 323 325 322 324 327 328 329 329
320 321 321 322 322 322 323 323 324 326 325 326 327 328 328 327 327 327 327 327 327 327 327 327 328 329 329 329 330 330 330 330 329 328 327 328 328 328 328 328 328 328 328 329 327 326 327 325 323 321 319 315 315 318 319 323 323 323 323 325 328 328 329
319 319 319 320 321 321 321 321 321 322 324 325 326 327 328 328 327 326 327 327 326 327 327 327 327 328 328 329 329 329 328 330 329 329 328 327 327 329 329 329 328 328 329 329 329 328 327 327 325 323 321 320 317 313 316 317 320 322 325 322 325 327 328
315 316 317 316 317 318 319 319 319 320 322 323 323 324 325 327 328 328 327 326 326 326 326 327 327 327 328 328 329 328 328 328 328 327 328 327 328 328 328 328 327 327 328 328 329 328 327 326 325 324 323 321 320 316 312 314 316 319 323 324 321 324 327
315 315 316 316 315 315 315 316 318 318 319 321 321 321 323 324 325 327 326 327 327 326 326 326 326 327 327 328 329 329 329 329 327 327 328 327 327 327 327 327 328 327 328 328 328 328 327 326 325 324 323 323 322 318 316 314 314 319 320 323 324 322 325
314 313 313 314 313 313 314 314 315 316 317 318 317 318 319 320 322 323 325 326 327 326 325 325 326 326 328 328 327 326 327 327 327 326 327 328 328 327 327 327 328 327 328 327 328 328 327 326 324 324 324 324 322 321 319 317 313 317 322 320 323 325 325
312 312 311 311 312 312 313 313 314 313 314 314 314 315 315 315 318 320 322 323 325 326 326 326 326 327 328 327 327 327 327 327 326 326 326 327 328 328 327 326 326 327 327 327 327 326 327 326 326 325 324 324 323 322 320 318 316 316 320 322 322 323 326
309 310 310 311 311 311 311 312 312 313 313 311 312 312 311 311 315 316 318 320 314 312 314 315 318 322 325 326 326 327 327 327 326 326 326 326 328 328 328 327 327 328 327 326 326 327 326 326 326 325 325 324 322 322 321 318 316 315 316 319 320 322 325
308 308 309 310 310 310 310 310 311 311 310 310 310 309 308 310 311 311 314 315 309 309 309 309 308 309 311 314 320 326 326 326 325 324 325 325 326 328 328 326 326 326 327 326 326 326 326 326 326 325 324 324 323 322 323 320 317 315 315 317 320 323 323
308 308 308 308 308 309 309 309 310 308 308 308 308 308 307 307 308 307 309 311 308 307 306 306 305 305 306 307 309 313 322 326 326 325 324 324 326 327 326 326 326 327 327 325 325 326 326 326 326 325 324 325 323 323 324 323 319 316 317 316 320 322 321
308 308 307 308 307 308 308 308 308 307 307 307 306 307 307 306 306 305 305 306 307 304 303 302 302 302 302 302 304 306 310 316 324 325 324 324 325 326 325 325 325 326 326 324 324 325 325 325 325 325 325 324 324 323 323 322 321 318 316 316 318 320 321
307 307 307 307 306 306 306 306 306 306 306 305 305 305 305 305 305 304 304 304 307 302 302 301 300 299 299 300 301 303 305 309 315 322 325 325 325 325 325 325 326 326 325 324 324 324 325 324 325 324 324 324 324 323 321 321 321 321 318 318 318 320 321
306 306 306 306 306 306 305 305 305 305 304 302 302 302 302 303 304 302 302 303 304 303 301 300 299 298 298 298 299 300 302 306 310 316 323 325 324 324 325 326 326 326 325 324 323 324 324 324 325 324 323 323 323 322 321 320 320 320 320 319 319 317 319
305 305 305 305 305 304 304 304 304 303 303 301 300 300 301 301 302 302 302 302 302 302 300 300 299 298 297 297 297 298 299 303 307 311 318 324 325 325 325 325 326 327 326 325 324 324 324 323 324 323 323 322 322 321 320 320 320 319 319 319 319 319 318
304 304 304 304 304 303 303 302 302 302 302 301 300 299 299 300 300 301 301 301 301 302 300 299 298 297 296 296 296 297 298 300 304 308 312 320 324 324 325 326 326 327 327 325 325 324 324 323 323 323 323 322 321 321 320 319 319 319 319 318 318 317 317
304 304 304 303 303 302 302 301 301 301 301 300 301 299 299 299 299 299 300 300 300 301 299 298 297 296 295 295 296 296 297 299 301 305 310 316 322 324 324 324 325 325 326 328 320 320 321 321 323 322 322 321 321 320 320 319 319 319 318 318 317 317 317
302 302 302 302 302 302 301 301 301 300 300 300 299 299 298 298 298 298 298 299 299 299 299 298 299 296 296 295 295 296 297 298 300 303 307 313 319 323 323 324 325 326 321 319 317 311 309 311 316 322 323 321 321 320 320 319 318 318 318 317 317 316 315
301 301 301 301 301 301 301 300 300 299 299 299 298 298 298 297 297 298 297 298 298 298 298 298 295 292 293 294 296 296 297 297 299 301 306 312 316 319 321 323 324 325 322 319 317 309 306 306 307 308 311 314 318 322 320 319 318 318 317 317 317 316 316
300 300 300 300 300 300 300 299 299 298 298 298 298 298 297 296 296 296 297 297 297 297 297 297 292 293 293 293 295 297 298 299 300 303 306 310 314 318 320 322 323 324 325 324 323 321 312 305 303 303 303 306 307 307 311 318 318 316 316 316 316 316 316
297 297 298 298 299 299 299 299 298 297 297 298 297 296 296 296 295 296 296 296 296 297 297 295 292 293 293 292 293 297 303 305 306 306 308 311 314 317 319 320 321 322 324 324 325 324 322 319 307 302 302 303 305 304 302 303 308 319 319 318 317 316 316
296 296 297 297 297 297 297 297 297 297 297 297 296 296 295 295 295 294 295 296 296 296 296 295 292 292 292 292 292 296 301 306 308 310 309 308 308 308 309 313 319 320 321 322 322 322 322 320 320 315 312 312 314 311 304 303 302 305 312 319 318 317 318
295 295 295 295 295 295 295 295 295 296 295 295 295 294 294 294 294 294 294 294 295 295 296 293 292 292 292 292 292 296 300 304 304 304 305 305 305 304 305 305 305 310 318 320 321 320 321 320 318 316 316 316 317 315 314 312 313 314 315 320 320 320 320
293 293 294 294 294 293 293 293 293 294 295 294 294 294 294 294 294 293 294 294 294 294 295 293 292 292 292 291 293 299 299 301 301 301 301 302 302 302 303 302 302 302 304 312 315 306 309 319 318 316 315 312 306 303 301 299 295 296 308 318 321 321 319
293 292 292 292 292 292 292 292 292 293 292 292 293 293 293 293 293 293 293 293 293 293 294 294 292 292 292 291 294 298 299 300 299 299 299 299 300 300 301 301 301 299 299 301 299 295 300 308 319 316 315 310 307 304 302 302 294 292 292 292 294 295 296
292 292 292 291 291 291 291 292 291 292 290 290 291 292 293 292 292 293 293 292 294 292 293 294 292 292 292 292 294 296 297 298 298 298 298 298 298 298 299 301 302 297 295 297 294 292 294 306 318 316 313 309 306 303 302 305 304 300 295 296 295 294 294
292 291 291 291 291 291 291 291 291 290 290 290 290 291 293 291 291 291 292 292 296 293 292 293 293 291 292 292 293 295 296 297 297 296 296 296 297 297 297 298 299 296 294 293 291 291 292 304 319 315 311 309 306 304 304 305 305 305 305 305 304 304 302
292 292 291 291 291 291 291 291 290 290 289 289 289 290 290 290 289 290 291 291 291 292 292 292 293 291 292 292 292 294 295 295 295 295 295 295 294 295 296 296 297 293 291 291 291 291 292 295 314 312 310 308 305 303 307 306 306 305 304 303 302 302 302
292 292 291 291 291 291 290 290 289 289 289 289 289 290 290 290 289 289 290 290 291 291 293 292 292 292 292 292 292 292 294 294 295 295 294 294 294 293 293 294 295 293 291 292 291 291 293 296 303 310 309 308 306 304 303 304 303 301 303 302 301 301 301
293 293 292 291 290 289 290 290 290 289 288 289 289 289 289 289 289 289 289 290 290 290 292 294 291 292 291 292 292 292 292 293 293 295 294 293 293 293 293 293 294 293 291 292 292 292 292 295 298 307 304 297 296 297 304 304 304 303 302 302 301 300 300
293 293 292 291 289 288 289 289 289 289 288 289 289 289 289 289 289 288 289 289 289 290 290 292 292 292 292 291 291 291 291 291 291 296 294 292 292 292 293 293 294 293 291 291 292 292 292 293 296 295 293 294 294 295 299 303 301 302 301 300 300 299 299
292 291 291 290 289 288 288 288 288 288 288 288 288 288 288 289 288 288 288 288 289 289 290 290 292 291 291 291 291 291 291 291 291 293 294 293 293 293 292 292 292 291 291 291 292 292 292 292 293 292 293 294 295 296 301 300 299 299 298 298 298 298 298

ECMWFFLT1_sfc_thetae_099.txt.gz
Theta_e
325 325 327 328 329 330 328 328 327 327 327 327 327 327 329 330 331 331 333 333 332 331 330 330 329 330 330 330 330 330 330 329 327 324 324 324 321 322 325 325 325 326 326 324 321 318 316 316 319 324 326 326 327 327 327 327 326 326 325 324 323 323 324
325 325 327 328 328 327 327 326 325 326 326 327 326 327 327 328 329 329 331 332 332 331 331 330 330 330 330 330 329 329 328 328 328 328 325 323 324 323 323 323 324 323 324 324 324 321 316 315 317 320 321 324 326 327 328 328 327 326 326 325 325 324 324
323 323 325 325 326 326 326 326 324 324 325 325 326 325 325 327 327 327 328 329 330 331 331 330 329 329 329 329 330 330 330 328 327 326 325 324 325 326 325 324 322 322 323 322 322 321 320 319 316 318 321 320 319 323 327 327 327 327 327 327 326 326 324
320 319 319 320 322 324 325 325 324 323 323 324 324 325 324 325 326 327 326 326 328 330 331 330 329 329 329 330 331 330 328 325 325 327 325 325 326 326 325 325 323 322 321 320 320 321 320 318 317 317 321 322 321 321 324 327 327 327 327 326 326 327 326
319 319 319 319 321 322 323 324 324 324 323 324 325 326 326 326 326 325 325 325 326 327 328 329 329 329 329 329 329 328 328 328 328 328 326 326 326 326 326 326 325 325 324 323 323 323 321 320 320 319 319 322 322 322 323 324 326 327 327 327 327 327 327
319 319 319 320 320 320 321 321 322 322 323 323 324 325 326 327 327 326 326 325 325 325 327 328 329 329 329 329 329 330 330 329 327 327 326 326 327 326 326 327 326 326 325 326 326 324 324 324 321 318 319 322 319 321 323 323 323 326 328 327 327 327 328
318 319 319 319 319 319 320 319 320 321 321 321 322 322 324 326 327 327 327 327 326 325 326 326 326 327 328 328 329 329 329 330 329 328 328 328 329 328 328 327 326 326 326 327 326 326 324 322 320 319 318 318 320 320 322 322 324 322 324 327 328 328 328
317 317 317 318 317 317 318 318 319 320 320 320 320 321 323 324 324 325 326 326 326 326 326 325 326 326 327 328 328 329 330 330 330 330 329 329 328 328 328 327 326 326 327 327 327 326 326 324 323 321 319 315 316 319 319 322 322 322 323 325 328 327 328
316 315 315 315 315 316 316 317 317 318 318 318 318 319 320 321 322 323 323 324 326 326 327 327 327 327 327 327 328 329 328 330 329 329 329 329 328 328 328 328 326 326 327 328 328 327 327 326 325 324 322 320 316 313 317 318 320 321 324 322 326 328 328
311 311 312 311 312 313 313 314 314 315 315 315 315 317 316 317 319 320 321 319 317 319 322 323 324 325 327 327 328 328 328 329 328 328 328 328 328 328 327 327 327 327 328 328 328 328 327 327 326 326 324 322 320 317 313 314 318 319 323 324 321 325 328
309 309 309 309 310 310 310 310 311 312 312 312 313 313 313 313 315 316 318 313 313 313 314 313 314 317 320 324 326 328 328 329 328 328 328 328 327 327 327 327 327 326 327 327 328 328 328 328 326 326 324 324 323 319 317 315 316 321 321 324 324 322 326
308 308 309 309 308 309 310 310 309 310 310 310 309 309 310 310 311 312 315 310 310 310 310 310 309 310 312 315 318 322 326 327 326 326 327 327 327 327 326 326 326 325 326 326 327 327 328 327 326 326 325 324 323 322 320 318 315 318 323 321 324 325 325
308 308 308 308 308 309 309 309 308 308 308 309 308 308 308 308 308 308 312 310 307 307 306 306 306 307 307 308 310 312 314 317 322 325 326 327 327 327 326 326 326 325 326 325 326 326 326 326 326 325 324 323 323 322 321 319 316 316 320 322 322 324 325
307 309 308 308 308 307 308 307 307 307 307 306 307 306 306 306 306 306 307 309 305 304 304 303 303 304 304 304 304 307 310 311 313 318 324 326 327 327 326 326 326 326 327 325 325 326 326 326 326 325 324 324 323 323 321 319 316 316 316 318 321 322 325
308 308 307 306 306 306 305 305 305 305 304 305 305 305 305 305 305 305 305 307 305 303 302 302 302 301 301 300 301 302 304 305 307 311 316 321 325 326 326 325 326 327 327 326 326 326 326 325 325 324 324 323 323 322 323 320 318 317 316 316 318 321 323
307 306 305 305 304 304 303 303 303 301 301 302 303 304 304 304 304 303 303 304 304 302 301 301 301 300 299 299 299 300 301 302 303 306 310 315 320 324 325 325 325 326 327 325 325 325 326 325 325 324 324 324 323 323 323 323 320 317 317 316 318 319 321
304 304 303 303 302 302 302 302 302 300 300 300 300 301 303 303 303 302 302 302 302 302 301 300 299 299 298 298 298 298 299 300 301 303 306 311 316 321 324 324 325 326 325 324 324 324 325 325 324 324 324 324 324 323 323 323 322 319 318 317 316 319 320
302 302 302 302 301 301 301 301 301 301 299 299 299 299 300 302 301 301 301 301 301 300 300 299 298 298 297 297 297 297 298 299 300 301 303 307 313 317 322 323 324 325 325 323 323 323 324 324 325 324 323 324 323 323 323 323 322 322 319 317 317 318 319
301 302 302 301 301 301 301 300 300 300 300 298 298 298 298 299 300 300 300 300 300 300 299 298 298 297 296 296 296 297 297 298 299 300 301 304 308 312 318 323 324 325 324 324 323 324 324 324 324 323 323 323 323 323 322 322 322 321 320 319 318 316 318
301 301 301 301 301 300 300 300 300 299 300 298 297 297 297 297 299 299 299 300 299 299 299 298 297 297 296 295 296 296 296 297 299 300 302 303 305 308 313 321 324 324 324 325 324 324 324 323 323 323 323 323 323 323 321 321 321 320 320 318 318 318 318
301 302 301 300 300 300 300 299 299 299 299 298 297 297 296 297 298 298 299 299 299 299 298 297 297 296 295 295 295 296 296 297 299 300 301 303 304 307 311 317 323 325 325 325 325 325 325 323 323 322 323 323 322 322 321 320 320 319 319 318 317 316 317
300 300 301 300 299 299 299 299 299 298 298 297 298 297 297 297 297 297 298 298 298 298 298 297 297 295 294 294 295 295 297 298 299 300 302 303 305 307 311 315 320 324 326 327 320 319 320 320 323 322 322 323 322 321 321 320 319 318 318 318 317 317 316
299 299 299 299 299 298 298 298 298 297 297 297 296 297 296 296 296 297 297 297 297 298 298 297 298 296 295 295 295 296 298 300 303 304 304 304 306 309 312 314 317 320 318 317 315 311 308 309 314 321 323 322 321 321 320 319 318 318 318 316 316 316 315
297 297 297 298 298 298 298 297 296 296 296 296 296 296 295 294 294 296 296 296 296 297 297 297 294 292 292 294 296 297 299 302 305 306 306 305 305 307 307 308 309 314 318 319 318 308 306 305 305 306 309 314 318 322 320 319 318 318 317 317 317 316 315
295 295 295 295 296 296 296 296 296 295 295 295 295 295 294 294 294 294 295 295 296 296 296 296 292 292 292 292 295 297 300 302 303 303 302 303 303 303 303 304 305 307 310 313 317 321 313 306 303 303 303 303 305 308 311 318 319 318 318 317 316 316 316
294 293 294 294 294 294 294 294 294 294 294 295 294 294 293 293 293 293 293 293 294 295 295 294 292 292 292 292 292 296 300 301 301 301 301 301 301 301 301 301 302 303 305 308 310 315 322 320 307 303 303 303 303 303 302 304 308 320 320 319 318 317 317
292 292 292 292 292 292 292 291 292 293 293 293 292 292 292 292 292 292 293 292 293 293 294 294 292 292 292 292 292 294 299 300 300 300 300 300 300 299 299 300 300 300 300 301 303 307 306 313 321 316 310 309 312 311 303 300 301 303 311 320 319 318 319
291 291 291 291 291 290 290 290 290 291 291 291 291 291 290 291 292 292 292 292 292 292 293 293 291 291 292 291 292 295 297 299 299 299 299 299 299 298 299 299 299 298 297 297 300 300 299 300 307 318 314 312 313 315 315 313 312 312 313 319 321 321 321
290 290 290 290 290 289 289 289 289 290 290 289 290 290 290 290 290 290 291 291 291 291 292 292 291 291 292 291 293 296 296 297 297 297 297 297 297 298 298 298 298 296 296 296 297 294 294 295 301 313 316 314 314 313 311 306 300 301 311 318 321 321 321
290 290 289 289 289 288 288 288 288 290 288 288 289 289 289 289 289 289 290 291 291 290 291 293 291 291 291 291 293 295 296 296 296 296 296 297 297 297 297 298 297 295 295 295 295 291 291 292 300 311 316 313 311 309 307 304 296 293 293 294 295 297 302
289 289 289 288 288 288 288 288 288 289 287 287 288 288 289 288 289 289 289 289 292 290 291 293 292 291 291 291 293 294 295 294 295 295 295 296 296 296 297 299 300 295 294 294 292 291 291 293 302 311 315 311 307 306 304 305 305 301 294 295 295 296 296
289 288 288 288 288 288 288 288 288 288 287 287 288 287 291 288 288 289 289 290 294 291 290 292 292 291 291 292 293 293 294 293 294 294 294 294 295 295 295 296 297 294 294 293 291 291 291 295 304 310 314 312 307 305 303 305 304 304 305 305 304 305 303
289 288 288 288 288 288 288 288 287 287 287 287 288 288 288 288 287 288 289 289 290 290 291 291 292 291 292 292 292 293 293 292 292 293 293 293 293 293 294 294 295 292 291 291 291 291 291 292 304 311 311 309 306 303 305 304 303 304 303 302 302 302 302
289 288 287 288 288 288 288 287 287 287 287 288 288 288 288 288 288 288 288 289 289 290 292 292 292 292 291 292 291 291 291 291 292 293 293 292 292 292 292 293 293 292 291 291 291 291 291 292 294 302 305 305 304 303 302 303 302 301 302 301 301 301 301
289 290 289 288 287 287 287 288 288 286 286 287 287 287 287 288 288 288 288 289 290 289 291 294 291 292 291 291 291 291 291 291 291 293 292 292 292 291 291 292 292 292 290 291 291 291 291 292 292 297 294 293 293 295 303 303 303 302 302 301 300 299 299
289 290 289 288 286 286 286 287 287 287 286 287 287 287 287 287 287 287 288 289 289 289 289 291 293 292 292 291 291 291 291 291 290 293 292 291 291 291 292 291 292 292 290 291 291 291 291 291 293 292 291 293 294 295 298 301 300 300 299 299 298 297 297
287 286 288 287 287 286 286 286 287 287 286 286 286 286 286 287 286 286 286 287 288 289 289 289 291 292 292 291 291 291 291 290 291 291 292 291 292 292 291 291 291 290 290 290 291 291 291 291 291 291 291 292 294 296 300 299 298 298 296 296 296 296 296

ECMWFFLT1_sfc_thetae_102.txt.gz
Theta_e
324 324 326 328 328 329 327 327 327 327 327 326 326 326 327 327 329 330 331 332 332 333 333 331 330 331 331 331 332 331 331 330 328 326 325 326 323 322 326 325 326 326 326 324 322 319 317 315 319 326 328 328 328 328 328 327 327 327 326 325 325 325 326
325 325 327 328 327 327 326 326 325 325 325 325 325 326 326 326 328 328 329 330 330 331 331 331 331 331 331 330 329 329 329 329 329 328 326 325 324 324 323 324 325 324 324 324 324 323 317 315 316 319 321 326 327 328 328 329 329 328 327 326 326 325 326
323 323 324 323 323 324 324 324 323 322 322 323 324 326 326 327 328 328 328 328 328 328 330 330 331 330 330 330 330 329 330 329 330 328 325 325 326 326 325 324 322 323 323 322 322 322 321 320 316 317 321 320 319 324 327 328 329 329 328 328 326 326 325
321 320 319 318 319 319 320 321 322 321 321 322 324 325 325 326 327 328 328 328 328 328 328 328 329 330 330 330 330 329 329 328 328 327 326 326 326 325 325 325 324 323 322 320 320 321 320 318 317 317 320 323 322 321 324 327 328 329 329 329 327 327 326
318 317 315 315 316 317 319 319 321 321 321 322 322 322 322 324 325 326 327 327 327 327 327 328 329 329 330 330 329 329 329 329 329 328 327 326 325 325 325 326 326 326 325 324 324 323 321 320 320 318 318 322 323 324 326 327 329 329 328 328 328 328 327
316 315 315 314 315 316 318 318 318 318 319 318 319 319 320 321 323 323 323 323 324 326 327 327 328 328 328 328 328 328 329 329 329 329 327 327 327 325 325 327 327 326 325 326 326 324 324 323 321 318 320 322 319 321 325 325 324 328 329 328 328 329 328
313 313 313 313 314 315 316 316 316 316 316 316 316 317 318 319 321 322 321 317 318 320 322 322 324 327 328 328 328 328 328 329 330 329 329 328 328 328 328 326 326 326 326 327 327 326 324 323 321 320 319 320 321 321 324 323 325 324 326 329 330 330 329
312 311 311 312 312 312 313 313 313 314 313 313 314 315 315 316 318 319 317 314 315 316 316 314 316 319 320 324 327 328 329 330 329 329 329 329 328 328 328 327 327 327 328 328 328 326 326 325 323 322 320 316 317 319 319 322 323 323 323 326 329 329 329
311 309 309 309 310 311 310 310 310 311 311 311 312 312 312 314 314 317 314 312 312 312 313 311 311 312 314 318 320 323 325 328 328 328 328 329 328 328 328 329 328 327 328 328 327 327 327 326 325 324 322 320 316 313 317 318 320 321 326 324 327 329 329
307 307 307 307 308 309 309 308 309 309 309 309 309 311 310 310 311 314 313 310 309 309 309 308 308 309 310 312 313 315 317 317 320 324 327 327 328 328 328 328 327 328 328 328 328 328 327 327 326 326 325 322 320 316 313 314 317 318 323 325 322 326 330
307 307 307 307 307 307 307 307 307 307 307 308 308 308 308 308 308 310 311 309 307 307 306 305 305 306 307 308 308 310 311 312 313 316 321 325 326 327 327 327 327 326 328 328 328 328 328 327 326 326 325 325 323 319 317 314 315 320 321 325 326 325 329
307 307 307 307 306 306 305 305 305 305 306 306 306 306 307 306 306 306 308 309 305 304 304 304 304 304 304 304 304 305 306 307 309 310 314 317 321 325 326 326 327 326 327 327 327 327 328 327 327 326 325 325 324 322 320 318 314 319 324 321 324 328 327
307 306 306 305 304 303 302 302 302 302 303 304 304 305 305 305 304 304 305 307 305 303 303 303 302 302 302 302 301 302 303 304 304 306 308 311 315 319 323 325 326 326 327 327 326 326 326 327 327 327 326 325 324 324 323 320 317 317 322 324 325 326 328
305 305 304 304 303 302 301 301 301 301 301 301 302 303 304 303 303 303 303 304 303 302 301 301 301 300 300 299 300 300 301 301 301 302 304 306 310 313 317 321 324 326 327 326 326 326 326 326 327 326 326 325 324 324 323 320 318 317 319 321 324 325 327
304 304 303 302 302 301 301 300 300 300 299 300 301 301 302 302 302 302 302 302 301 301 300 299 299 299 298 298 298 299 299 299 300 300 302 303 305 307 310 313 318 323 326 326 326 326 326 326 326 325 325 324 323 323 324 321 319 318 317 318 320 324 325
302 301 301 301 300 300 300 301 301 299 299 299 300 300 301 301 301 301 301 301 301 300 299 299 299 299 298 297 297 297 298 298 299 300 300 301 302 304 306 309 312 317 323 325 326 326 326 326 326 325 325 325 323 323 323 323 320 317 317 318 320 321 323
301 301 300 300 300 300 300 300 301 299 299 299 298 299 300 300 301 300 300 300 299 299 299 299 298 298 297 297 296 296 297 298 298 299 300 301 302 304 305 306 309 312 316 320 323 325 325 326 325 325 325 324 324 323 323 323 323 320 319 317 318 320 322
301 301 300 300 300 300 299 299 300 299 298 298 298 298 298 300 299 299 299 298 298 298 298 298 298 297 296 296 296 296 297 297 298 299 300 301 304 304 305 305 307 309 312 315 320 323 324 324 325 325 324 324 324 324 323 323 322 322 320 318 318 320 322
300 300 300 299 299 299 299 299 298 299 298 297 297 297 298 298 299 298 298 298 298 298 298 298 297 296 295 296 296 297 297 298 298 299 301 302 303 304 305 306 307 309 311 314 317 321 324 324 325 324 324 324 324 324 323 322 322 321 320 320 319 317 319
300 299 299 298 299 299 299 298 298 297 298 297 296 296 297 297 298 298 298 298 298 298 298 297 297 295 295 295 296 296 297 298 299 301 302 304 306 307 307 307 309 311 313 315 316 316 318 321 323 323 324 324 324 323 322 322 322 321 320 319 319 319 318
300 300 300 299 298 298 298 298 297 298 298 296 296 295 295 296 297 298 298 298 298 298 297 297 296 295 295 295 296 297 298 299 301 303 305 305 305 306 307 307 308 309 311 312 312 311 312 313 317 321 324 324 323 322 321 321 320 320 319 319 319 318 318
298 298 298 298 298 297 297 297 297 297 296 296 297 296 295 295 295 296 296 297 297 298 297 296 296 295 294 295 296 297 298 300 302 302 302 302 303 303 303 304 305 306 308 310 307 306 306 306 308 312 320 323 323 321 321 321 320 320 319 319 318 319 317
296 296 296 296 296 296 296 296 296 296 296 295 295 296 295 295 295 295 294 295 296 296 296 296 297 295 295 295 296 297 299 301 301 301 301 300 300 301 301 301 303 307 305 305 304 302 301 301 304 307 311 320 322 321 321 320 320 319 319 317 317 317 315
294 294 294 294 294 294 294 295 294 294 294 294 294 295 294 293 293 294 294 294 294 295 295 295 293 292 292 294 297 298 299 300 300 300 299 299 298 299 299 300 301 303 303 303 303 301 299 299 300 299 300 303 311 322 321 319 320 320 318 318 318 317 316
293 292 293 292 292 292 293 293 293 293 293 293 293 293 293 293 293 293 293 293 294 294 295 295 292 292 292 292 295 298 298 299 299 298 298 298 298 297 298 298 299 300 300 301 301 301 300 299 298 297 297 299 300 301 306 317 319 319 319 318 317 317 317
291 291 291 291 291 291 291 291 291 291 291 293 292 291 291 292 292 292 293 292 293 294 294 294 292 292 292 292 292 296 298 298 298 297 297 297 297 297 297 298 298 298 298 301 301 299 299 298 298 298 298 301 303 300 298 298 302 318 322 319 318 317 318
290 290 290 290 290 290 290 289 290 291 291 291 291 291 291 291 291 291 292 292 292 293 294 294 291 292 292 291 292 294 297 297 297 297 297 297 297 296 296 297 296 296 296 296 297 297 296 295 296 297 300 305 312 312 303 299 299 299 305 318 320 318 320
290 289 289 289 289 289 289 289 289 290 289 289 289 289 289 290 291 291 291 291 292 292 293 292 291 291 291 291 292 294 296 296 297 296 296 296 296 296 296 297 297 295 294 295 296 295 294 294 294 295 298 302 311 316 317 316 313 311 310 313 319 321 321
289 289 289 289 288 288 288 288 288 290 290 289 289 290 290 290 290 290 291 291 291 291 292 292 291 291 291 291 292 294 295 295 295 295 295 295 295 296 296 296 296 294 294 294 295 292 293 294 294 295 297 303 310 315 316 312 302 303 309 314 318 319 318
289 288 288 288 288 287 288 288 288 290 288 288 288 289 289 289 290 289 291 291 291 291 292 292 291 291 291 291 293 293 293 293 294 294 294 295 295 295 295 296 296 294 293 293 293 290 291 294 297 297 299 303 310 314 313 306 298 295 294 296 296 298 296
288 288 288 287 287 287 288 288 288 289 287 288 288 288 290 289 290 290 290 290 293 291 291 293 292 291 291 291 293 292 292 292 293 293 293 294 295 294 295 297 298 294 293 293 291 290 291 295 298 300 302 306 309 311 306 306 307 304 297 296 295 294 295
288 287 287 287 288 287 288 288 289 288 288 288 289 288 291 289 289 290 290 291 294 291 292 293 292 291 291 291 292 293 292 292 292 292 292 293 293 293 293 295 296 294 293 292 290 291 291 294 297 297 298 305 309 304 303 304 304 303 303 303 303 303 302
289 288 287 287 288 288 289 288 287 288 288 288 288 288 289 289 288 289 290 290 291 291 292 292 293 291 292 292 292 292 292 291 291 291 292 292 291 292 293 293 294 292 290 290 290 290 291 291 295 296 296 296 300 301 304 303 303 303 302 302 302 302 301
288 288 288 288 289 289 288 287 287 287 287 288 288 288 288 288 288 289 289 290 290 291 292 293 292 291 291 291 291 291 292 291 291 292 291 291 291 291 291 291 292 292 290 290 290 290 291 291 292 296 294 294 294 297 301 302 301 300 301 301 301 300 300
290 289 289 288 287 287 287 288 288 287 287 287 287 287 288 288 288 288 289 290 290 290 292 293 292 292 291 291 291 291 291 291 291 292 291 291 291 291 291 291 291 291 290 290 290 290 291 291 292 295 293 291 292 292 300 301 301 300 300 300 299 298 298
289 290 289 288 287 286 287 287 287 287 287 287 287 287 287 287 287 287 288 289 290 290 290 291 292 292 291 291 291 291 290 291 290 292 291 290 290 291 291 291 292 292 290 290 290 290 291 291 292 292 291 291 292 292 296 299 298 298 298 297 297 296 296
287 287 288 288 287 286 287 287 287 287 286 286 286 286 286 287 287 287 287 288 289 290 290 290 291 291 291 291 291 290 290 290 290 291 292 291 291 291 291 291 291 290 290 290 290 290 290 291 291 290 291 291 292 293 296 296 297 297 295 295 295 295 295

ECMWFFLT1_sfc_thetae_105.txt.gz
Theta_e
329 328 329 330 331 331 330 330 330 331 331 331 331 330 330 331 331 332 332 332 332 333 334 334 333 334 335 337 337 336 336 334 331 331 331 332 327 328 331 328 329 330 331 330 328 321 321 317 324 332 333 331 331 333 333 331 332 332 332 332 333 333 333
329 328 329 330 330 330 329 330 329 329 329 330 330 329 329 329 330 331 330 330 330 331 332 332 334 333 332 331 332 332 332 334 335 334 331 329 328 327 328 327 327 327 328 330 329 327 322 319 320 324 325 330 332 333 331 333 331 333 333 333 332 333 332
327 328 329 327 327 328 328 328 328 326 327 328 328 327 328 328 328 329 329 329 329 330 330 330 331 332 332 331 331 331 332 333 335 334 330 331 331 330 329 328 325 326 326 326 326 326 325 324 319 321 324 323 321 329 332 331 332 333 333 333 333 332 332
325 325 325 325 325 326 325 325 325 325 325 325 326 325 325 325 326 326 325 325 326 327 328 329 329 330 331 332 332 332 331 332 333 335 335 334 331 329 330 329 327 326 325 323 324 325 324 322 322 321 323 324 323 323 332 333 332 332 334 333 332 332 331
324 323 323 322 322 322 322 321 323 323 322 323 324 323 322 323 324 324 322 322 322 323 323 325 326 327 329 331 331 331 331 332 333 333 333 334 333 332 329 330 331 332 330 328 328 328 326 324 324 323 323 325 325 327 327 331 333 332 332 331 332 332 332
320 320 320 319 320 319 319 319 319 318 319 319 319 318 319 320 322 321 320 319 319 320 318 319 321 321 321 325 328 330 330 330 330 331 330 330 331 330 330 332 332 331 330 332 331 330 329 328 325 322 325 327 323 324 329 330 328 331 333 332 332 332 331
318 318 318 317 317 317 317 316 316 316 316 316 316 316 317 319 320 319 318 318 317 317 316 316 318 318 318 320 322 323 325 327 327 328 331 331 330 331 332 331 331 331 331 332 331 329 328 327 324 323 323 325 325 322 324 325 330 328 330 333 334 333 332
316 315 315 316 315 315 315 315 315 315 315 315 315 316 317 317 318 318 316 314 314 314 314 313 314 315 316 318 319 320 321 322 322 324 325 328 328 329 329 331 330 331 332 333 333 330 329 328 326 325 324 319 320 320 319 324 326 326 328 332 332 332 332
315 315 314 314 314 314 314 314 314 314 314 315 316 316 315 315 315 316 316 312 311 311 311 311 311 312 312 313 314 315 316 318 316 318 321 323 324 326 329 330 329 329 331 331 332 332 332 331 329 328 326 323 318 315 319 318 323 325 330 327 333 335 334
313 312 312 313 313 313 313 313 312 312 313 313 313 314 314 313 314 314 314 312 310 310 310 309 309 310 310 311 311 311 312 313 313 315 317 318 319 321 322 325 328 329 330 331 332 332 332 332 331 330 329 325 323 318 316 316 318 320 325 328 328 332 335
311 311 310 309 310 309 309 310 311 310 310 311 312 312 312 312 312 312 311 310 309 309 308 308 308 308 308 308 309 309 310 310 310 312 314 314 314 316 318 319 322 326 330 331 331 333 333 331 331 330 329 329 327 321 320 316 318 323 324 328 331 330 332
309 309 308 308 308 307 307 307 308 308 309 309 310 310 309 309 309 308 308 307 306 306 306 306 306 306 306 306 306 306 307 307 307 308 310 311 312 313 313 314 317 319 324 327 330 330 331 331 331 330 329 329 328 325 322 321 317 322 326 323 328 331 331
308 307 307 307 307 306 306 306 306 306 307 308 308 308 307 306 306 306 306 305 304 304 304 305 305 305 305 305 305 304 305 305 305 306 307 309 310 310 310 311 312 314 316 320 324 328 330 331 332 330 329 329 328 327 324 321 320 320 325 324 326 330 332
307 307 307 307 306 306 306 306 306 306 306 306 307 306 306 305 305 305 304 304 303 304 304 304 304 304 304 303 303 304 304 304 303 304 305 306 308 309 309 310 311 313 315 316 319 323 326 329 330 330 329 328 327 328 326 322 320 320 323 327 327 328 330
307 307 306 306 306 305 306 305 305 305 305 305 306 305 305 305 304 304 303 303 303 304 304 304 304 303 302 301 302 303 302 302 302 303 304 304 306 307 308 308 310 311 314 314 316 317 320 324 326 328 328 328 327 327 330 324 321 320 319 324 322 329 329
306 306 305 305 305 304 305 305 305 304 304 304 305 304 304 304 303 303 303 303 303 303 303 303 303 302 301 300 301 301 302 302 302 303 303 304 305 306 307 308 308 310 312 312 314 316 319 321 323 324 325 327 327 327 328 327 323 321 320 320 323 323 327
305 305 305 304 304 304 304 304 305 304 303 304 304 304 304 303 303 303 303 303 303 303 303 303 303 302 301 300 300 300 301 302 303 304 305 305 306 307 307 307 308 309 310 311 313 315 317 318 318 320 321 324 326 327 328 328 326 323 322 320 322 322 325
304 304 304 304 304 304 304 304 304 303 303 303 303 304 304 304 303 303 302 302 302 302 302 302 302 302 301 301 300 301 302 303 304 305 306 306 307 306 306 307 307 308 308 308 309 311 311 311 312 314 317 319 321 324 327 328 326 325 323 321 321 323 324
304 304 304 304 304 304 304 303 303 303 303 302 302 303 303 303 303 302 302 303 302 302 302 301 301 300 300 301 301 302 303 304 305 305 305 306 306 306 305 305 306 305 305 305 306 307 307 307 308 309 310 312 317 321 323 326 327 325 324 323 322 321 323
303 303 303 303 303 303 303 303 302 302 302 302 301 302 302 302 303 302 302 302 302 301 301 301 300 299 300 301 302 302 303 304 305 305 305 305 305 305 304 304 304 305 304 305 304 304 303 304 304 304 306 308 312 316 319 322 325 325 324 322 322 322 321
303 303 303 303 302 302 302 302 302 302 302 302 301 301 301 301 302 302 301 301 301 301 300 299 298 298 299 300 301 302 303 303 303 304 304 304 305 304 304 303 304 304 304 304 303 302 302 301 302 302 304 306 307 309 312 317 322 324 323 323 322 321 321
302 302 302 302 301 301 301 301 301 301 301 301 302 301 301 301 300 300 301 301 300 301 300 299 298 296 297 299 301 302 302 303 303 302 303 303 303 303 303 303 303 304 305 305 302 301 301 300 300 299 301 302 302 303 306 312 317 322 323 322 321 322 320
301 301 301 300 300 301 301 301 301 300 300 300 301 301 300 300 300 300 300 300 300 300 299 298 296 294 295 297 299 301 302 303 302 302 302 301 302 302 302 302 303 304 302 301 300 299 297 298 298 299 299 299 300 300 301 306 312 318 320 320 321 321 319
300 299 300 300 300 300 300 300 300 300 300 300 300 300 300 300 300 300 299 299 299 299 298 297 293 292 292 293 298 301 301 301 302 301 301 300 299 300 300 301 302 303 303 301 301 298 297 296 295 295 296 297 298 299 299 301 308 317 319 320 322 322 320
298 299 299 299 299 299 299 299 299 299 299 299 300 300 299 299 299 300 300 299 299 299 298 295 291 292 292 292 294 299 301 300 300 300 300 299 299 299 299 299 300 301 301 301 301 300 298 296 295 295 295 295 295 295 296 299 303 311 318 319 321 321 322
298 298 298 298 299 299 299 298 298 298 299 299 300 299 299 299 299 299 299 298 298 298 298 293 292 292 292 291 291 296 300 300 300 300 299 299 299 298 298 298 298 299 299 301 301 298 297 297 297 296 298 299 299 298 295 294 295 303 314 318 318 321 322
297 297 298 298 298 298 298 298 298 299 299 299 299 299 299 299 299 298 299 299 298 298 298 294 292 292 292 291 291 294 300 300 300 300 299 299 298 298 297 297 297 297 297 297 297 296 295 296 297 300 304 306 307 305 301 299 298 296 301 312 318 320 323
297 297 298 298 298 298 298 298 298 298 299 298 298 298 298 298 298 298 299 298 298 298 297 292 291 291 291 291 291 295 300 299 299 299 299 299 298 298 297 297 297 296 296 296 296 294 294 295 297 301 304 305 306 308 309 312 316 319 315 312 313 316 320
297 297 297 297 297 297 297 298 298 298 299 299 299 299 298 299 298 298 298 298 298 298 298 292 291 291 291 291 293 299 299 298 298 298 298 298 298 298 298 297 296 295 295 295 295 291 292 294 298 301 302 304 306 310 312 310 296 297 305 311 313 313 313
296 297 297 297 296 297 297 297 298 299 298 298 298 298 298 298 298 297 298 298 297 297 298 294 291 291 291 290 295 299 298 298 297 297 297 298 298 298 297 297 296 294 294 294 293 290 291 293 298 299 300 302 304 304 304 307 302 295 294 294 294 293 294
296 296 296 296 296 297 297 298 297 298 298 297 297 298 298 298 298 298 297 297 297 297 298 296 291 291 291 291 294 298 298 297 297 296 296 297 297 297 297 297 298 294 293 294 291 290 291 294 296 297 298 299 300 299 301 303 305 307 299 298 297 296 296
296 296 296 296 297 296 297 297 298 299 298 298 298 298 298 297 297 298 298 298 297 298 298 297 292 291 291 291 294 298 297 296 295 295 296 296 297 297 297 296 296 294 293 292 290 290 290 293 295 296 297 297 297 297 299 302 301 302 304 305 304 305 305
297 296 296 296 297 296 297 297 298 298 298 298 297 297 297 297 297 297 298 298 298 298 297 298 296 291 291 291 291 296 297 295 295 295 295 295 295 296 296 296 295 292 290 290 290 290 290 291 294 296 296 295 294 294 300 301 300 301 302 302 302 303 303
297 297 297 296 296 296 297 297 297 297 297 297 297 296 297 297 297 297 298 298 298 298 298 297 297 291 291 291 291 293 297 294 295 296 296 295 295 295 295 295 295 292 290 290 290 290 290 290 292 295 294 294 294 294 298 300 300 299 300 300 300 301 301
298 298 298 297 296 296 296 297 296 296 296 296 296 296 296 296 296 297 297 298 298 298 298 296 296 294 291 291 290 290 294 295 294 297 295 296 295 296 296 295 295 292 290 290 290 290 290 290 291 294 293 290 291 291 297 299 299 299 299 299 299 298 299
298 298 298 298 297 296 296 296 296 296 296 296 296 295 296 296 296 296 296 296 297 298 298 298 293 295 292 290 290 290 290 292 290 297 296 295 295 295 296 296 296 292 290 290 290 290 290 290 292 292 290 290 291 291 295 296 296 297 296 296 296 296 297
298 298 298 298 297 297 296 296 296 296 296 295 295 294 295 295 295 295 295 295 296 297 298 298 295 292 294 291 291 290 290 290 290 295 297 296 296 296 295 295 294 290 290 290 290 290 290 290 291 290 290 290 291 292 295 294 294 294 294 293 293 294 295

ECMWFFLT1_sfc_thetae_108.txt.gz
Theta_e
333 333 334 334 336 336 334 334 335 333 333 332 332 332 332 332 333 334 334 335 334 335 335 335 335 336 336 337 338 338 336 335 334 332 332 334 331 331 335 335 335 335 333 332 330 326 324 321 325 334 337 338 339 340 338 337 337 338 338 338 336 338 337
333 333 333 334 334 334 333 332 332 331 331 331 329 330 331 331 331 332 332 332 333 333 333 334 334 334 335 335 335 335 334 334 334 334 333 332 333 330 331 332 334 332 332 333 332 331 325 322 322 326 328 332 333 340 340 340 339 337 337 336 335 337 334
332 332 333 332 332 333 330 329 329 328 328 329 329 328 329 329 329 329 328 329 330 330 330 331 332 332 332 333 333 333 334 334 334 334 332 332 335 336 335 333 331 331 332 330 329 328 327 328 323 324 328 326 325 331 339 339 337 338 337 336 335 336 335
331 331 330 329 329 329 328 327 327 327 326 326 327 327 327 327 328 327 327 327 328 328 327 327 328 328 329 330 331 331 332 332 333 333 334 334 333 333 334 333 330 328 329 327 328 328 326 325 324 325 327 327 326 328 335 339 337 336 336 337 338 336 335
328 328 328 326 326 326 324 323 324 324 324 324 324 324 323 324 325 324 325 325 324 326 325 326 327 326 327 328 328 328 329 330 331 329 330 331 333 332 334 332 332 332 331 331 331 331 328 326 325 324 325 326 325 326 330 337 339 337 336 336 336 335 337
326 326 325 324 324 323 322 321 321 321 321 321 320 320 321 323 323 322 321 321 322 323 322 323 324 325 324 325 326 327 326 326 326 327 326 328 329 327 328 331 331 332 331 333 332 332 332 332 330 325 326 327 324 326 329 331 332 337 337 336 336 334 334
323 323 322 321 321 321 321 320 320 319 319 320 319 319 319 321 321 321 321 320 321 321 320 321 322 323 323 322 324 323 324 325 325 325 325 327 327 327 327 326 328 330 331 332 332 332 331 330 328 327 325 324 325 324 327 326 329 330 334 336 336 335 334
321 320 319 319 319 319 320 319 319 319 319 319 318 319 319 320 320 320 319 318 319 319 319 320 319 320 320 320 321 321 321 322 322 322 323 324 324 325 325 324 325 326 328 331 332 331 332 331 330 328 325 320 320 323 323 325 326 329 330 334 336 336 333
319 319 318 318 318 318 318 318 317 318 318 318 319 318 318 318 318 318 318 317 317 316 317 316 316 316 316 317 317 317 317 318 317 318 320 322 322 323 323 323 323 323 325 326 328 330 331 331 330 331 329 327 319 317 323 322 323 324 331 329 334 336 335
317 316 315 316 317 318 318 317 316 316 317 317 316 317 317 317 316 316 315 315 314 315 314 314 314 314 314 315 314 314 314 314 314 315 316 317 318 319 320 321 321 322 324 326 325 326 328 330 330 330 331 326 325 321 318 318 322 322 326 332 329 334 336
316 316 316 315 316 317 317 317 316 315 315 315 315 315 315 315 315 314 314 313 314 314 314 313 313 313 314 313 313 313 312 312 312 314 315 314 315 316 317 317 319 320 323 324 323 325 324 325 327 328 329 328 330 324 321 317 318 326 327 334 333 331 334
315 315 315 315 316 314 314 314 314 314 315 315 314 314 314 313 313 312 313 312 313 313 313 312 312 312 313 312 312 311 312 312 311 312 313 314 314 314 315 315 317 317 319 320 321 322 324 324 325 326 328 329 328 329 325 322 317 325 330 327 333 335 334
315 314 315 315 314 313 313 313 312 313 313 314 313 313 311 311 311 311 311 311 311 312 311 311 312 312 312 311 311 311 311 311 311 311 312 313 313 314 314 314 314 315 316 317 317 319 320 322 324 323 324 327 327 328 329 323 320 320 330 330 331 334 335
314 314 314 314 314 313 313 313 312 313 313 312 312 311 310 310 310 311 310 310 310 311 310 311 311 311 311 310 310 310 310 310 310 311 312 312 313 313 313 313 314 315 317 316 316 317 318 320 321 321 322 322 323 324 323 323 322 322 326 333 333 332 335
313 313 313 313 313 312 312 312 313 313 312 311 311 310 310 310 310 310 310 310 310 310 310 310 310 310 309 309 309 309 309 310 310 310 311 311 312 313 314 313 313 314 316 315 315 315 317 316 317 316 317 317 317 319 323 321 320 321 321 326 329 334 333
312 313 312 312 312 311 311 312 312 312 311 311 311 310 310 310 310 310 309 309 309 308 308 308 309 309 309 308 307 308 309 309 309 309 310 310 311 312 312 313 313 313 313 312 313 314 314 313 313 313 314 316 316 317 318 321 320 318 320 323 327 328 331
312 312 312 311 311 311 311 311 311 311 310 311 310 310 310 310 309 309 308 308 307 307 306 307 307 308 307 307 307 308 308 308 309 309 310 310 310 310 311 310 311 311 311 310 310 310 310 310 309 309 310 312 313 314 316 317 318 319 320 319 324 325 330
311 311 311 311 311 311 311 310 310 309 310 309 310 310 310 309 308 307 307 306 306 305 305 305 305 305 307 308 308 308 308 308 309 309 310 309 310 309 309 308 308 308 308 308 307 306 307 306 306 306 307 308 309 311 313 314 315 318 319 319 321 325 329
310 310 310 310 310 310 310 310 310 309 309 309 309 309 308 308 307 306 306 305 305 305 305 304 304 304 305 307 308 308 308 309 309 308 309 309 309 309 308 308 307 307 306 305 305 304 304 304 304 304 304 304 306 308 309 310 312 315 317 318 320 321 326
309 309 309 309 309 309 309 309 309 308 308 308 308 307 307 307 307 306 305 305 304 304 304 303 302 303 303 305 306 307 307 308 308 308 308 308 308 308 308 307 306 306 305 304 303 302 302 302 302 302 303 303 304 305 306 307 309 310 312 315 319 322 323
308 308 308 308 308 308 308 308 308 308 308 307 307 306 306 306 306 306 306 305 305 304 304 302 301 300 301 303 306 306 306 307 306 307 308 307 308 307 307 306 305 305 304 304 302 302 302 300 300 300 302 302 303 303 303 304 306 308 310 313 316 318 322
308 308 307 307 307 307 307 307 307 307 307 307 307 306 306 306 306 305 305 305 304 304 303 301 299 298 299 301 305 305 305 305 306 305 305 305 306 305 305 305 305 305 305 305 302 301 300 299 300 299 299 300 301 300 301 303 304 305 307 310 312 317 321
306 307 306 306 306 307 307 307 306 306 306 306 306 306 306 306 306 305 304 304 305 304 302 300 296 294 295 298 303 304 305 305 305 305 304 303 303 304 304 304 304 305 303 302 301 298 297 297 298 299 299 299 299 299 300 301 301 303 305 307 310 314 317
306 305 306 306 306 305 305 306 305 305 305 306 306 306 306 306 306 305 304 304 304 303 302 298 293 292 292 293 299 304 304 304 304 304 303 302 301 302 302 302 303 303 302 301 301 298 296 296 295 295 296 297 298 300 300 300 301 303 303 305 309 313 316
304 304 304 304 305 305 305 305 304 305 305 305 306 307 306 305 305 306 305 304 303 303 301 294 291 292 292 291 294 302 305 304 303 303 302 302 301 301 301 301 301 302 301 301 301 300 298 296 295 295 296 296 297 297 297 301 302 303 304 304 306 310 315
303 303 303 304 305 304 304 304 304 304 304 305 306 305 305 305 305 305 305 304 303 302 300 293 291 292 292 291 292 297 304 303 302 302 302 301 302 301 300 300 300 301 300 302 301 298 298 299 297 297 299 300 300 300 298 296 295 301 304 304 303 305 309
303 303 303 304 304 303 303 303 305 305 305 305 305 305 305 305 304 304 304 304 303 302 299 293 291 291 292 291 291 294 305 303 303 302 301 301 301 301 300 299 298 298 299 299 299 296 296 297 300 302 303 304 304 304 301 300 299 299 300 303 304 304 308
302 302 303 303 304 303 304 304 304 304 304 304 304 303 303 304 304 304 304 304 304 302 299 291 291 291 291 291 290 295 305 303 303 303 302 302 301 301 300 299 299 298 298 298 297 294 294 296 299 300 300 301 302 303 304 305 305 304 304 305 305 306 308
302 302 302 302 303 303 303 304 303 304 304 304 304 304 304 303 303 303 303 304 303 302 299 291 291 291 291 291 291 304 303 303 302 301 301 301 301 301 300 299 298 297 297 297 295 291 292 295 299 298 297 298 300 301 302 302 299 299 302 303 303 303 302
301 301 302 302 302 303 303 303 304 304 303 304 303 303 303 303 303 303 302 303 303 301 300 294 290 291 291 290 296 304 303 302 301 301 301 301 301 301 300 299 298 297 297 296 293 290 290 293 298 296 296 297 298 298 298 301 299 298 297 296 297 296 295
300 301 302 302 302 302 303 303 303 304 303 303 302 303 303 303 303 303 302 301 302 301 300 296 291 291 291 290 294 303 302 301 302 301 301 301 301 301 300 299 299 297 296 296 291 290 290 294 297 296 295 295 295 294 295 298 301 302 299 298 298 297 297
301 301 301 302 302 302 302 302 303 304 303 303 303 303 303 303 303 303 303 301 299 301 301 298 292 291 291 291 295 303 301 301 300 300 300 300 301 300 300 300 297 295 295 294 290 290 290 293 296 295 295 294 293 292 293 297 298 298 300 301 301 302 303
301 301 301 302 302 302 303 303 303 303 303 303 302 302 302 303 302 302 303 302 301 301 301 300 297 290 291 291 291 299 301 299 299 299 300 299 299 300 300 301 299 293 290 290 290 290 290 290 295 296 295 293 291 290 294 296 296 296 298 298 299 301 301
301 301 301 301 301 302 302 302 302 302 302 303 303 302 302 303 302 302 302 303 302 300 299 300 298 291 292 291 291 293 301 300 300 300 299 299 299 299 299 299 300 294 290 290 290 290 290 290 291 296 294 293 292 292 294 295 295 295 297 298 298 299 300
302 301 301 301 301 301 302 302 302 302 302 302 302 302 302 302 301 301 302 302 303 302 300 297 300 294 292 291 291 291 297 300 297 300 299 299 299 299 299 299 299 295 290 290 290 291 291 291 291 296 293 290 290 290 295 296 296 295 295 296 297 298 297
301 301 301 301 300 300 301 302 302 302 302 302 302 301 301 302 301 301 301 301 302 302 302 300 294 298 293 291 291 291 290 295 292 301 300 299 299 298 299 299 298 294 290 290 290 291 291 291 293 294 290 290 291 291 294 296 294 293 293 293 294 295 296
301 302 301 301 301 301 301 301 301 301 301 300 300 300 300 301 300 300 300 300 301 301 302 302 296 293 297 292 291 291 291 290 291 298 301 300 300 298 298 299 297 291 290 291 291 291 292 291 293 290 290 290 291 293 296 296 294 293 291 291 291 293 295

ECMWFFLT1_sfc_thetae_111.txt.gz
Theta_e
335 334 335 335 337 336 335 334 333 332 333 332 332 332 332 332 333 332 333 332 332 333 332 333 333 333 333 335 336 336 336 336 335 332 332 332 330 330 335 335 334 334 334 332 331 327 323 321 324 332 335 336 337 337 338 334 337 337 337 336 334 335 338
335 335 334 335 335 335 334 333 332 331 332 331 331 330 330 330 330 330 330 329 329 329 329 329 331 330 330 330 330 332 332 333 334 335 333 331 332 330 332 332 333 332 333 334 332 330 326 324 324 325 328 333 338 338 338 340 338 338 338 338 338 339 341
333 333 334 333 333 334 330 330 331 329 329 330 330 328 327 328 329 328 327 327 328 328 327 328 329 329 328 328 328 329 329 329 330 331 330 331 332 333 333 333 331 330 330 330 329 328 328 329 325 323 325 326 325 330 340 340 337 338 338 339 341 341 341
333 333 332 330 331 330 328 327 327 327 327 326 327 327 325 326 327 325 325 326 327 326 325 324 325 325 326 326 327 328 328 327 326 326 327 328 328 328 329 330 329 329 327 327 327 328 329 325 325 324 326 325 325 325 330 334 336 336 336 339 340 340 339
330 330 328 327 327 326 325 324 324 324 325 325 324 324 324 324 325 324 324 324 324 324 323 324 323 323 325 325 325 325 325 325 326 326 325 324 325 325 325 327 327 328 329 328 329 329 328 328 327 325 324 326 326 326 329 332 332 333 337 337 338 337 339
327 327 327 325 324 324 323 323 323 322 323 322 321 321 321 322 323 322 322 321 322 322 322 322 323 323 323 323 323 324 324 324 323 322 322 322 323 322 323 325 324 325 325 327 328 328 329 330 328 324 325 326 323 324 327 328 327 330 331 332 336 338 337
325 325 323 323 324 323 323 322 322 321 320 321 321 320 320 321 321 322 321 321 321 321 320 320 320 321 320 321 322 321 321 321 320 320 321 323 322 322 323 322 322 322 322 325 325 325 325 326 325 325 324 325 326 324 326 326 326 324 327 331 334 337 339
324 322 321 322 322 322 321 321 321 321 320 320 319 320 320 320 320 321 320 319 319 319 319 319 319 319 319 319 319 320 319 319 318 318 318 319 318 319 320 320 320 321 322 323 324 324 324 323 323 323 323 320 321 324 323 325 326 325 325 328 331 332 335
322 322 321 320 320 321 321 320 319 320 320 319 319 320 320 320 319 319 319 318 318 319 318 318 318 318 318 318 317 317 317 317 316 317 317 317 317 317 318 318 318 319 321 321 322 322 322 322 321 322 322 320 318 316 320 321 323 323 328 325 328 331 335
320 320 319 319 319 320 320 319 319 319 319 318 318 319 318 318 318 318 318 318 317 317 317 317 317 317 317 317 316 316 315 316 316 316 316 316 317 317 317 317 317 317 318 320 320 320 320 321 322 322 322 320 320 316 315 316 319 321 325 327 324 328 332
319 319 319 319 320 320 319 319 319 318 317 318 318 318 318 317 317 317 317 316 317 317 316 316 316 317 317 315 315 315 315 315 315 316 316 315 316 316 316 316 317 316 318 318 318 319 319 319 319 320 320 320 320 318 318 314 316 322 323 328 329 328 330
319 318 318 318 318 317 317 317 317 317 318 318 318 317 316 316 316 316 316 316 316 316 316 316 316 316 315 314 314 313 314 313 313 313 315 315 315 315 315 315 316 316 317 316 316 317 318 318 318 318 318 318 318 318 317 317 312 318 324 323 327 330 331
317 317 317 318 317 316 316 316 316 317 317 317 316 316 315 315 314 314 314 314 314 314 314 314 315 314 314 313 312 311 312 313 312 312 313 314 314 314 314 314 314 314 315 314 314 315 315 315 315 314 314 314 315 317 317 315 313 313 320 322 324 327 329
317 317 317 317 317 317 316 317 317 316 315 315 315 314 314 314 313 313 312 312 311 311 312 312 313 314 312 312 312 312 311 311 311 311 312 313 314 314 313 312 313 313 313 312 311 312 312 312 311 310 311 311 311 313 313 312 310 312 316 321 321 323 326
316 316 316 316 316 316 316 316 316 315 314 314 314 313 313 313 313 312 311 310 310 309 309 310 311 312 311 311 311 311 311 310 310 311 312 311 312 312 312 310 310 310 311 310 310 309 309 308 307 307 308 308 308 309 311 309 309 309 310 316 318 322 323
315 315 315 315 315 314 315 316 315 315 313 313 314 313 312 312 311 310 309 309 308 308 308 308 309 310 310 310 310 310 311 310 310 310 310 310 310 311 310 310 309 309 309 308 307 307 307 306 305 305 305 306 306 307 308 309 308 307 307 310 315 316 320
314 314 315 314 314 314 314 314 314 314 313 313 312 312 312 310 309 309 308 308 307 306 306 306 307 308 309 309 310 309 310 310 309 309 309 309 309 309 308 308 308 307 307 305 305 305 305 304 304 304 304 305 305 306 307 307 308 306 307 306 310 313 317
313 314 314 313 313 313 314 313 313 312 312 312 311 311 311 310 308 308 307 306 306 305 305 305 305 306 308 309 310 309 309 309 309 308 309 309 309 308 308 307 306 306 305 303 303 302 302 302 302 302 302 303 303 304 305 305 306 306 305 305 308 312 315
313 313 313 313 313 312 312 313 312 312 311 310 310 310 310 309 308 306 306 306 305 305 305 304 304 304 306 308 309 309 309 308 308 308 307 308 307 307 306 306 306 305 304 302 301 301 302 302 302 301 301 302 302 302 303 303 304 304 304 305 306 308 313
312 312 312 312 312 311 311 312 311 310 310 310 309 309 308 308 308 307 306 305 305 304 304 303 303 303 305 307 308 308 308 307 308 307 307 307 307 307 306 305 305 304 303 302 301 301 301 301 300 300 301 301 301 301 301 301 302 303 303 304 305 307 309
311 311 311 311 310 310 310 310 310 310 310 309 309 308 308 307 307 307 306 305 305 304 303 302 301 301 303 305 307 308 307 307 306 306 307 305 306 306 305 305 305 304 303 303 302 301 301 299 299 299 300 300 300 300 300 301 302 302 302 303 304 305 307
311 310 310 310 310 309 309 309 309 309 309 309 309 308 308 307 307 306 306 305 304 303 302 301 300 299 300 302 303 306 306 306 305 305 304 304 305 305 305 304 304 304 304 305 302 301 300 299 299 297 299 299 299 299 300 300 301 301 302 303 303 305 305
309 309 309 308 308 308 308 308 308 308 308 308 309 309 308 308 306 306 304 304 304 303 301 300 296 294 294 298 302 306 306 305 305 304 304 304 304 304 304 303 304 304 303 302 301 299 297 297 298 298 298 299 299 299 300 300 301 301 302 302 302 302 302
308 308 308 308 308 307 307 307 307 308 308 308 308 308 308 307 307 305 304 303 303 303 301 297 292 292 292 293 299 304 305 305 304 304 303 303 302 302 303 302 303 303 303 301 301 298 296 296 295 295 296 297 299 300 300 299 300 301 301 300 300 300 300
307 307 307 306 306 306 307 307 307 307 308 308 308 308 308 307 307 306 305 304 303 302 300 294 291 292 292 292 294 300 306 305 304 304 303 303 302 302 301 301 302 302 302 301 301 299 298 296 295 295 296 296 296 296 296 299 300 300 299 298 298 299 300
306 306 306 306 306 306 306 306 306 306 306 307 308 307 307 307 307 307 305 303 302 301 299 293 291 292 292 291 292 296 305 304 304 303 303 303 302 301 301 300 301 301 301 302 301 297 297 297 297 297 298 299 299 299 295 294 295 300 300 299 299 299 300
305 305 306 306 306 305 305 305 306 306 307 307 306 306 307 307 307 306 305 304 302 301 298 293 291 291 292 291 292 293 305 304 304 303 303 303 302 301 301 300 300 300 300 300 299 296 296 296 298 300 301 302 302 302 299 297 296 296 298 299 299 298 300
305 305 305 305 306 305 304 305 304 305 305 305 305 305 305 306 306 306 305 304 302 300 298 291 291 291 291 291 291 296 306 305 304 304 304 303 303 302 302 301 301 299 299 299 297 294 295 295 298 300 299 299 301 302 302 302 300 299 298 298 298 299 300
305 305 305 305 305 304 304 304 304 305 305 305 305 305 305 305 305 305 306 304 302 300 299 291 291 291 291 291 291 305 305 305 304 304 303 303 303 303 302 300 300 299 299 298 295 291 293 296 299 298 297 298 299 300 300 299 296 296 298 297 298 299 300
304 304 304 304 304 304 304 303 304 305 304 304 304 304 304 304 304 304 304 304 303 300 299 294 291 291 291 291 295 305 305 304 303 303 303 303 303 303 302 300 299 299 299 298 294 290 291 294 299 297 297 297 297 297 297 299 297 295 294 294 294 294 294
303 303 303 303 303 304 304 304 304 305 304 304 303 304 305 304 303 303 303 303 303 301 299 295 291 292 291 291 294 303 304 304 303 303 303 303 303 303 303 300 300 298 298 298 292 290 290 295 298 297 296 296 295 295 296 297 298 298 296 295 295 295 295
303 302 302 303 304 304 304 304 304 305 305 305 304 305 305 304 304 303 302 302 301 302 300 297 293 291 292 292 295 303 303 303 303 302 302 302 303 302 302 302 299 297 297 295 290 290 290 294 298 298 296 296 295 294 295 297 297 296 296 296 297 299 299
303 303 303 303 304 304 305 305 305 305 305 304 304 304 304 304 304 304 303 302 301 301 301 300 297 291 292 292 292 299 303 302 301 302 302 301 300 301 301 301 299 294 291 291 290 290 290 291 297 299 298 295 294 293 295 297 298 297 295 295 296 297 298
304 304 304 303 304 304 304 304 304 305 304 305 305 304 304 304 303 303 305 304 302 301 301 301 300 291 292 292 292 294 301 301 300 301 301 300 300 299 299 299 299 295 292 291 291 290 290 290 292 299 298 296 294 294 294 298 298 297 296 296 296 296 296
304 303 303 304 304 303 304 305 305 305 304 305 305 304 304 304 304 303 304 304 304 302 300 299 301 295 292 292 291 291 298 299 297 300 301 300 300 299 299 299 298 295 292 291 290 290 290 291 291 299 298 291 291 291 297 299 299 298 297 295 295 295 295
303 304 304 304 304 303 304 304 304 305 304 304 304 303 304 304 303 302 303 303 303 304 304 301 295 298 293 291 291 292 291 295 292 300 301 300 300 299 299 299 299 296 291 290 291 290 291 290 294 297 290 290 291 291 296 300 299 299 297 295 295 294 294
303 303 303 303 303 304 304 304 304 304 303 303 302 302 302 303 302 302 301 301 302 302 303 303 296 293 298 293 291 291 291 291 291 298 300 301 300 300 299 299 298 292 290 291 291 291 291 292 297 291 290 291 291 294 300 300 300 299 297 296 295 295 295

ECMWFFLT1_sfc_thetae_114.txt.gz
Theta_e
329 331 335 335 336 335 333 332 331 331 331 330 329 328 328 329 329 328 327 328 328 328 328 327 327 327 328 328 329 329 329 329 328 326 324 325 324 325 328 328 328 330 331 330 329 324 320 318 321 327 331 333 335 335 335 335 334 335 336 337 336 335 335
333 335 335 335 334 334 331 330 330 331 330 328 326 326 326 326 326 326 326 326 326 325 325 324 324 324 325 324 325 325 326 326 326 326 324 323 323 322 323 323 324 324 325 326 328 328 322 319 319 321 323 327 332 334 335 335 334 334 336 336 336 335 334
334 334 334 332 332 331 329 329 328 328 327 327 326 324 325 324 324 324 324 323 324 323 323 323 323 323 324 323 324 324 325 323 324 324 322 322 322 322 322 321 320 320 320 320 321 321 321 323 319 320 322 322 320 323 333 335 336 336 336 337 337 335 335
334 334 331 329 329 328 326 326 326 325 325 324 325 324 324 324 324 324 323 322 323 323 322 321 321 321 321 322 324 324 322 321 320 320 320 321 321 321 321 320 319 319 318 316 317 318 318 317 317 318 320 322 322 321 325 328 333 337 337 336 336 335 334
330 328 327 326 325 324 325 325 327 326 323 324 324 322 322 322 323 323 322 322 321 320 319 320 320 319 319 321 321 320 319 319 318 317 318 318 318 318 318 319 318 319 318 317 318 319 318 317 317 316 317 319 319 321 324 326 329 328 328 329 335 335 336
327 327 326 325 325 324 325 325 324 322 322 320 320 319 320 321 321 320 320 319 319 319 319 318 319 319 318 320 319 318 318 316 315 316 316 316 317 315 315 317 317 317 317 319 320 318 318 318 317 314 316 317 315 316 319 321 322 326 327 325 327 336 337
324 324 324 323 323 323 323 322 321 321 319 319 318 319 320 320 320 320 319 318 318 318 318 318 318 318 318 318 317 316 316 316 316 317 316 316 317 316 317 315 315 316 317 318 317 317 315 314 313 312 313 314 315 315 318 319 321 320 322 326 327 326 334
323 322 322 323 322 321 322 320 321 320 319 318 318 320 319 319 319 319 318 318 318 318 317 317 318 317 318 317 316 316 315 314 315 316 316 316 315 315 316 315 315 315 316 317 317 316 316 315 315 314 313 310 311 313 313 316 316 317 318 322 326 327 328
322 321 321 321 321 322 321 320 319 320 319 320 320 319 318 318 318 318 317 316 317 316 316 316 316 315 316 315 315 314 312 315 314 314 314 314 315 315 315 315 314 314 316 315 315 315 315 316 316 316 314 312 309 306 310 310 312 313 318 317 321 324 327
321 320 319 320 320 320 320 319 319 318 319 319 318 320 319 319 318 318 317 317 317 316 316 316 315 315 315 314 313 312 311 312 313 313 314 314 315 315 314 314 313 314 313 313 313 313 313 313 313 312 311 309 309 306 305 305 307 309 313 317 315 319 323
319 319 320 319 320 319 319 319 319 318 317 318 318 318 319 318 317 317 316 315 315 315 314 314 314 314 313 312 312 311 311 312 312 313 313 313 313 313 313 312 312 311 311 311 311 311 311 310 309 308 308 308 308 305 305 303 304 309 310 314 315 315 318
319 319 319 319 319 317 317 317 317 317 317 317 317 318 316 315 315 314 313 312 312 312 313 313 314 313 313 312 312 311 311 312 311 311 312 312 312 311 310 309 310 309 309 309 309 308 309 308 307 306 305 306 306 305 304 303 301 306 309 307 310 314 314
317 317 317 317 316 316 316 316 316 315 316 316 316 315 314 312 312 311 310 310 309 310 309 311 312 312 312 311 311 310 310 310 309 310 310 311 311 310 309 308 308 307 307 307 306 306 306 305 305 304 304 304 304 304 304 302 300 300 305 306 308 310 312
316 316 316 317 316 316 316 315 315 315 315 315 315 313 312 310 309 309 308 308 307 307 307 308 309 310 310 310 310 310 310 309 308 308 309 308 309 308 307 307 306 306 306 305 304 304 303 303 303 303 303 303 302 302 302 301 299 299 303 306 306 307 309
315 316 316 316 316 315 315 315 315 314 314 314 313 310 310 310 309 308 307 305 305 305 306 306 307 309 309 309 309 310 309 308 307 307 307 306 306 307 306 305 305 305 305 303 303 302 302 301 301 301 301 301 301 301 302 300 300 299 298 302 303 306 306
315 315 315 315 315 314 314 314 314 313 312 311 311 310 309 308 307 306 305 305 304 304 304 305 306 307 308 308 307 308 308 307 306 305 305 304 304 305 304 303 303 304 304 302 302 301 301 300 300 300 299 300 300 300 301 301 299 298 298 299 302 302 304
315 315 314 314 313 313 314 313 313 312 311 310 309 309 308 306 306 305 304 304 303 303 303 304 305 306 307 308 306 306 306 306 306 305 304 304 304 303 303 302 302 303 302 301 301 300 300 300 299 299 298 299 299 299 300 300 300 298 298 298 300 301 304
313 313 313 313 313 313 313 312 312 310 311 310 309 308 308 306 305 304 304 302 302 302 302 302 303 304 305 307 306 306 305 305 305 304 304 304 305 303 302 302 302 302 301 300 300 299 299 299 299 298 297 298 298 299 299 300 300 300 299 298 299 302 304
312 312 312 312 312 312 312 311 310 310 309 308 308 307 307 306 304 303 302 302 302 301 301 301 300 301 302 305 306 306 305 305 305 304 303 303 303 303 302 302 302 301 301 299 299 299 299 298 298 297 297 297 298 299 298 299 300 300 300 299 300 300 303
312 312 312 312 312 311 311 311 310 309 309 308 307 306 305 305 305 303 302 302 301 301 300 300 299 299 301 302 304 306 305 304 304 304 303 303 303 302 302 302 302 301 301 300 299 298 298 297 296 296 297 297 298 298 298 298 299 299 300 299 300 301 302
311 311 310 310 310 310 310 309 309 309 309 308 307 305 305 304 304 303 303 301 301 301 300 299 297 297 299 300 302 305 304 303 303 303 303 302 302 301 301 301 301 301 301 300 300 299 297 296 295 295 296 297 297 297 297 298 299 298 298 298 298 299 300
310 310 309 309 308 308 308 308 308 308 308 308 308 306 305 304 303 302 302 301 300 300 299 298 296 295 296 297 300 303 304 303 302 302 301 301 301 301 301 301 301 302 302 304 302 300 298 297 296 294 295 296 297 297 297 298 299 298 297 297 297 298 297
308 308 307 307 307 307 307 308 308 307 307 307 307 307 305 304 302 301 301 300 300 299 298 297 296 294 294 295 298 301 305 303 302 301 301 301 300 301 300 300 302 304 302 302 300 297 296 296 297 297 296 296 297 297 297 297 298 297 296 295 294 295 295
307 307 307 307 307 307 307 308 307 307 307 307 307 307 305 303 302 301 300 299 298 299 297 295 293 292 292 293 297 299 304 303 303 302 301 300 299 299 299 300 300 302 301 301 298 296 295 295 295 295 296 297 299 298 297 297 297 296 295 294 294 294 294
306 306 306 306 306 306 307 307 306 307 307 306 307 307 306 304 303 302 300 299 298 297 296 294 291 292 292 292 294 297 304 304 304 302 301 300 300 299 298 299 300 300 300 300 298 295 296 296 296 296 296 296 296 296 295 296 295 294 294 293 293 293 293
305 305 305 305 306 306 305 305 305 305 306 307 307 306 305 305 303 302 300 298 297 296 295 293 291 292 292 292 292 295 303 305 304 303 302 301 300 299 298 299 299 299 299 301 299 295 295 295 297 298 298 298 298 297 294 293 294 297 296 295 294 293 293
304 305 305 305 305 305 304 304 305 305 305 306 306 306 306 305 303 302 300 299 297 296 295 293 291 292 292 291 292 294 305 306 305 302 302 302 300 299 298 298 297 297 298 298 297 295 294 295 296 298 298 299 299 299 297 296 295 295 296 296 294 293 295
304 304 304 305 305 304 304 305 305 305 305 305 305 304 304 304 303 302 301 300 298 297 296 292 291 291 292 292 293 297 306 306 305 303 302 302 301 299 298 298 297 297 297 297 297 294 293 293 296 298 297 297 298 298 299 298 298 298 297 297 296 295 296
304 304 304 304 304 304 304 304 304 304 304 304 304 305 305 305 304 302 301 300 298 296 295 292 291 292 292 291 294 303 306 303 302 303 302 302 301 300 299 297 296 296 296 296 296 292 292 293 295 297 296 297 297 298 298 299 296 296 298 297 297 296 296
303 304 304 303 303 303 304 304 304 305 303 303 303 302 303 302 303 303 302 300 298 296 295 293 291 292 292 291 295 302 304 302 301 301 301 302 301 300 300 298 296 295 295 295 294 290 291 292 294 296 296 296 296 297 297 299 298 296 296 295 295 294 294
303 303 303 303 303 304 304 305 305 305 304 303 302 301 301 300 301 301 301 300 299 297 296 295 292 292 292 292 295 300 302 301 302 301 300 301 301 302 301 302 301 296 295 295 292 290 291 293 294 295 295 295 295 295 296 298 299 299 297 297 296 295 295
302 302 302 302 303 303 304 304 305 306 306 305 304 303 302 300 300 300 300 301 303 299 298 297 293 292 292 292 295 299 300 299 298 299 300 299 300 299 299 301 300 297 295 294 291 291 291 292 293 294 295 295 294 293 294 296 298 297 298 298 298 298 298
302 302 302 303 303 303 304 304 305 305 305 303 303 303 303 302 300 299 300 300 301 301 300 299 296 292 292 292 292 298 298 296 296 296 299 298 298 297 297 297 298 294 292 291 291 290 291 291 292 294 295 294 293 292 294 295 298 298 297 297 297 298 298
303 303 303 303 304 304 305 306 307 306 304 304 303 303 303 304 303 302 302 301 300 301 301 300 299 291 292 292 291 294 297 296 295 296 298 298 297 296 296 296 297 295 292 291 291 291 291 291 291 294 296 294 292 292 292 294 298 298 297 297 297 297 298
304 304 304 304 304 303 305 306 306 305 304 304 304 304 304 303 302 303 303 302 301 300 300 300 299 294 292 292 292 291 296 297 296 297 297 298 297 297 296 296 296 295 292 291 290 291 291 291 291 296 295 291 290 290 294 296 298 297 296 296 296 296 296
303 304 304 304 304 304 304 305 305 305 305 305 304 304 304 304 303 303 303 303 302 300 300 298 295 297 293 292 292 291 291 294 291 298 296 297 297 297 298 298 298 297 292 291 291 291 291 291 294 294 290 291 291 291 295 296 296 295 295 295 295 295 295
303 304 304 304 303 303 303 303 304 304 304 303 302 302 302 303 303 302 301 301 301 302 302 300 295 293 295 292 292 291 290 291 291 294 297 299 297 297 297 297 296 292 291 290 291 292 292 293 293 291 291 291 292 294 295 295 295 294 294 294 294 294 294

ECMWFFLT1_sfc_thetae_117.txt.gz
Theta_e
327 328 331 330 329 328 326 325 325 324 324 323 323 323 322 322 322 321 320 320 319 320 321 318 318 319 320 319 322 321 320 319 318 316 315 316 315 315 319 318 319 319 320 319 319 316 315 312 314 319 321 322 323 325 328 329 331 332 332 332 333 333 333
330 330 330 329 327 327 325 325 324 324 323 322 322 322 321 321 322 320 319 318 318 319 320 318 317 317 316 317 318 316 315 315 316 317 315 314 314 313 314 314 315 315 316 316 317 316 314 311 312 313 314 318 319 321 321 323 324 326 329 331 333 334 333
330 329 328 326 325 324 322 322 321 322 322 320 320 321 321 321 319 320 318 317 317 318 319 315 316 315 315 317 316 315 314 313 314 314 314 314 313 313 313 313 312 312 312 313 313 314 314 313 310 310 312 312 311 314 318 319 320 321 322 327 332 332 333
328 327 325 323 323 323 322 322 320 319 319 319 319 319 318 318 318 319 317 317 317 318 316 315 314 314 314 315 315 314 313 312 312 313 313 313 312 312 312 312 311 311 311 311 311 312 312 310 309 309 310 311 311 311 315 318 319 320 322 324 329 332 333
326 324 322 321 322 322 321 320 320 318 317 317 318 317 315 316 317 315 316 314 315 314 313 314 314 314 315 315 313 313 311 311 312 313 311 311 311 312 311 311 311 312 314 314 313 312 311 310 310 309 309 311 311 311 314 316 318 319 319 320 321 323 328
323 322 321 321 321 320 319 318 318 316 315 314 314 314 314 314 315 313 313 312 313 314 314 314 314 314 313 313 312 311 310 310 310 311 310 311 311 310 310 311 312 313 314 315 313 311 310 310 310 307 308 310 307 308 311 312 312 314 317 318 318 319 320
320 320 320 320 319 319 319 317 316 315 314 313 313 312 313 314 313 314 313 313 313 313 314 314 313 314 313 312 310 309 309 310 311 311 310 311 310 310 311 309 310 311 310 311 310 310 308 307 306 305 304 305 306 305 307 308 309 308 311 314 315 317 319
318 318 319 319 318 317 318 317 316 314 313 313 312 312 314 312 313 313 313 311 312 311 312 312 312 311 311 311 310 309 310 310 310 310 309 310 311 310 309 309 309 307 308 308 308 308 308 306 304 303 302 299 299 301 302 303 305 305 306 309 312 314 314
319 318 318 318 317 317 316 316 315 314 313 313 313 311 312 312 312 312 312 312 311 311 312 311 310 310 309 309 307 307 307 312 309 308 308 309 308 308 308 308 306 305 306 306 306 306 306 305 303 302 301 300 297 295 298 298 300 301 306 305 308 310 309
316 316 316 316 316 316 315 314 313 313 313 312 314 313 311 311 312 311 310 310 309 310 310 310 309 309 308 307 307 306 306 308 309 308 308 307 307 306 307 306 305 304 304 305 304 305 304 303 302 301 301 300 299 297 295 294 297 298 301 304 302 305 308
316 315 315 315 315 315 314 314 313 313 312 313 313 314 311 310 309 311 307 307 308 308 308 309 309 308 308 307 307 306 307 307 307 307 308 307 305 306 306 304 304 302 303 303 303 303 302 302 301 301 301 301 301 297 296 294 295 299 299 302 303 302 305
315 315 315 316 315 314 312 311 311 310 310 312 312 309 308 307 306 306 305 305 305 306 306 307 308 307 307 306 307 305 306 305 305 304 305 305 305 304 303 302 302 301 301 301 301 302 302 301 300 300 300 301 300 300 297 296 293 298 301 299 302 304 303
314 314 314 313 313 312 312 311 311 310 310 311 308 307 305 305 304 303 303 303 303 304 304 305 306 306 306 306 305 305 304 304 303 303 302 303 304 303 302 301 301 300 301 301 300 301 300 301 300 299 299 299 299 299 299 297 295 294 300 300 300 301 303
312 313 312 312 311 311 311 311 310 310 309 307 307 306 305 304 303 303 302 303 302 302 303 303 304 305 305 304 305 304 304 303 302 302 302 301 302 301 301 300 300 301 301 300 299 299 299 299 299 299 299 298 297 298 298 296 294 294 297 301 300 301 302
312 312 311 311 311 310 310 309 309 308 306 306 305 304 303 303 302 302 301 301 301 301 302 302 303 303 304 303 303 305 303 302 301 301 301 300 300 301 300 299 299 299 300 299 298 298 298 298 298 297 297 297 297 297 299 297 296 295 294 298 299 302 302
312 311 311 310 309 309 309 308 309 306 305 304 304 303 302 302 301 301 301 300 300 300 300 300 301 301 302 302 302 302 302 301 300 300 300 299 299 300 299 299 298 299 300 298 297 297 298 297 297 296 296 297 297 298 298 299 297 295 295 296 299 300 301
310 310 310 309 309 309 308 307 307 305 304 303 302 302 301 301 300 300 299 299 299 298 298 299 299 300 301 302 301 301 301 300 300 299 299 299 298 298 298 298 298 298 298 297 296 297 297 296 295 296 296 296 297 297 298 298 298 297 297 296 298 299 301
309 308 308 308 308 308 307 307 307 305 304 303 303 302 302 301 299 299 299 298 298 297 297 297 297 298 299 301 301 301 300 300 299 299 299 299 302 298 298 298 298 298 297 296 295 295 295 294 295 296 295 296 296 297 298 298 298 298 297 297 298 300 300
308 307 307 307 306 306 306 305 305 305 303 302 302 301 300 300 300 298 298 298 297 297 296 296 296 296 297 299 300 300 300 300 300 299 298 298 298 298 298 298 298 298 297 295 294 294 294 294 295 295 295 296 296 297 297 297 298 298 298 298 297 296 298
307 307 307 307 307 306 305 304 304 303 304 302 301 300 300 299 300 298 298 298 297 297 296 295 294 295 296 297 299 299 299 299 299 299 298 298 298 298 298 299 298 298 297 296 294 294 294 294 295 295 297 297 297 297 297 297 297 297 296 295 295 295 295
306 306 306 306 305 305 305 304 304 304 303 301 301 300 300 299 299 298 298 297 297 297 295 294 293 293 294 295 298 299 299 298 298 298 298 298 298 297 298 298 298 298 298 296 295 294 294 294 295 295 297 297 297 297 296 296 296 295 294 294 294 293 294
305 305 305 304 304 304 304 303 304 303 303 302 301 300 300 299 298 297 297 296 296 296 295 294 294 293 293 294 296 297 298 298 298 298 297 297 297 297 297 298 298 298 300 301 299 297 297 297 296 295 296 296 297 296 296 296 295 295 294 294 293 294 293
304 304 303 303 303 303 303 303 303 302 302 301 300 300 299 298 297 296 296 295 295 295 294 294 295 294 295 294 294 297 299 298 298 297 297 296 296 296 297 296 300 303 301 300 298 296 295 296 298 297 296 296 297 296 296 295 295 295 294 293 293 293 292
303 303 302 302 302 303 303 303 303 302 302 300 299 299 298 297 296 295 294 294 293 294 293 294 293 292 292 295 296 294 297 297 297 297 296 295 295 296 296 296 296 300 300 299 297 295 294 294 294 295 296 298 298 297 296 295 295 295 295 294 294 293 293
303 302 302 302 303 303 303 302 302 302 302 301 300 299 297 296 296 295 294 293 292 293 292 294 292 293 292 293 295 295 297 298 298 296 296 295 295 295 295 295 296 297 297 299 297 293 294 295 294 294 295 295 295 295 295 296 295 295 295 294 294 294 293
302 301 302 302 302 302 302 301 301 301 301 301 300 299 297 297 295 295 293 292 292 292 291 293 292 293 293 293 293 297 298 298 298 297 296 295 294 294 293 295 295 295 295 300 299 292 291 292 294 295 296 297 297 297 294 293 294 297 297 295 295 294 295
301 301 301 301 301 301 301 300 300 301 301 301 299 298 297 296 295 295 294 292 291 291 291 293 292 292 293 293 293 296 300 299 298 297 296 295 294 293 293 293 293 293 292 293 293 292 291 290 290 292 294 295 295 296 296 295 295 295 297 297 296 295 296
301 301 301 301 301 300 300 299 300 300 300 299 299 297 296 295 295 295 293 292 291 291 292 292 292 292 292 294 295 297 298 299 298 297 296 295 294 294 293 293 292 291 292 292 295 293 291 290 290 292 292 293 294 294 295 295 296 297 298 298 297 297 297
300 300 300 300 300 299 298 298 298 299 299 298 298 298 298 297 294 293 292 291 291 290 291 292 292 292 293 294 296 299 298 297 297 296 296 295 295 294 294 292 292 291 291 291 295 292 292 292 290 291 291 292 293 293 294 297 295 295 297 296 296 297 297
300 299 299 299 298 298 298 298 298 298 297 297 297 297 297 297 297 295 293 292 290 290 291 292 292 292 292 293 295 296 296 296 295 295 295 295 294 295 296 295 293 291 292 292 294 291 291 293 290 290 290 291 292 292 292 294 295 295 295 294 294 294 294
299 299 298 298 298 298 298 298 298 299 297 297 296 296 296 295 295 294 292 291 292 291 290 293 292 292 292 293 295 294 293 293 293 293 293 294 295 294 295 301 303 294 292 293 292 291 291 293 290 290 290 290 290 290 291 293 293 295 296 295 295 294 294
299 298 298 298 298 298 298 298 299 299 297 296 296 296 296 294 293 293 293 293 301 293 291 293 292 291 292 292 294 293 293 291 291 291 293 292 292 293 293 296 299 297 295 294 291 291 291 292 290 290 290 290 289 289 291 291 292 293 294 294 294 296 296
299 299 298 298 298 298 299 299 298 298 297 296 295 295 295 294 292 292 293 293 295 292 292 291 292 292 292 292 293 294 293 291 291 291 292 295 294 292 292 293 295 293 292 292 291 290 291 291 291 291 290 289 289 289 291 292 294 294 292 293 293 294 295
299 298 298 298 298 299 298 297 297 297 297 297 296 295 294 294 293 293 293 293 292 293 294 291 292 292 292 292 291 292 290 291 289 290 291 292 292 292 292 292 293 294 292 291 291 290 291 291 292 293 290 289 289 291 292 292 293 295 292 293 293 293 294
299 300 299 299 298 297 298 299 298 297 296 296 296 296 295 295 294 293 292 293 292 291 296 296 292 292 291 292 291 291 291 290 290 291 291 292 291 291 291 291 292 294 291 290 290 291 291 291 291 293 290 290 291 290 293 293 292 292 291 291 291 292 293
299 301 299 298 298 297 298 298 298 298 297 296 296 295 295 296 295 294 293 292 291 291 291 293 294 293 292 291 291 291 291 291 291 293 291 290 290 290 290 291 293 294 291 290 291 291 291 291 292 290 290 290 290 290 292 291 291 291 290 290 290 290 291
299 299 298 298 297 297 297 298 298 298 297 297 295 295 295 296 294 294 293 291 292 291 291 291 293 292 292 291 291 290 291 291 291 291 292 291 291 290 290 290 291 290 290 291 291 291 291 291 290 290 290 290 290 291 291 290 290 290 289 289 289 289 290

ECMWFFLT1_sfc_thetae_120.txt.gz
Theta_e
328 327 326 325 325 323 321 320 319 319 320 320 319 318 319 320 318 316 316 316 316 317 317 314 314 315 315 315 315 313 314 314 313 310 309 310 308 309 313 312 312 314 314 315 314 312 310 307 308 311 313 313 313 314 315 315 315 316 317 319 321 323 324
329 327 327 326 324 323 320 319 318 318 318 318 318 318 317 317 319 315 314 314 315 315 317 314 314 314 313 312 311 311 311 312 313 312 309 308 308 307 308 309 309 310 310 311 311 311 308 306 305 306 307 310 311 311 313 314 314 314 316 316 321 318 320
327 325 324 323 321 320 318 317 317 316 316 316 316 316 316 316 315 315 314 314 314 316 316 313 313 313 312 311 311 311 310 310 310 311 310 308 309 308 309 309 308 308 308 308 308 307 307 308 304 304 306 306 304 307 311 310 310 312 312 314 314 314 316
325 323 321 320 319 318 316 315 315 315 315 315 315 314 314 314 314 316 313 314 314 317 314 312 312 311 311 310 310 309 309 309 309 309 310 309 309 309 308 308 308 308 307 306 305 305 304 303 303 304 304 304 303 303 306 307 308 310 309 312 310 311 315
324 322 320 318 318 316 315 314 314 313 313 313 313 312 312 313 313 312 313 312 313 311 311 311 311 311 310 309 309 309 308 309 310 311 308 308 308 307 306 306 306 306 305 305 305 305 302 301 302 300 300 301 301 302 304 304 306 306 307 307 307 309 311
323 322 320 318 318 316 314 313 312 311 311 311 311 311 310 311 312 311 311 310 311 312 311 310 310 309 308 307 308 308 308 307 308 308 307 306 306 305 304 305 305 304 303 305 304 302 301 300 299 296 298 299 297 298 300 301 301 303 307 305 306 306 307
320 319 318 317 316 315 314 312 312 311 310 310 310 310 310 312 311 311 311 310 310 310 311 310 309 309 308 308 307 307 307 307 307 306 306 306 305 304 304 302 302 303 302 303 302 301 299 298 296 296 296 297 297 297 298 298 300 299 301 303 304 305 305
318 317 316 316 315 314 313 312 312 311 310 309 310 311 312 310 311 311 310 309 309 308 308 307 309 307 307 307 307 307 308 307 306 306 305 304 304 302 301 301 302 301 301 301 301 300 300 299 297 297 296 293 294 296 296 297 297 298 298 301 303 303 303
318 317 316 315 314 314 313 312 311 311 310 310 311 310 310 309 308 308 308 308 308 308 308 307 307 307 307 306 305 305 305 308 304 303 303 303 301 301 300 300 300 299 300 300 301 300 300 300 299 299 298 296 293 291 294 294 295 296 299 298 300 302 302
315 314 314 313 313 313 313 312 311 311 311 311 311 310 308 308 307 306 306 306 306 306 307 307 307 306 305 304 304 303 302 303 304 302 302 301 301 301 300 300 299 300 299 300 300 300 300 299 299 299 299 296 296 293 291 291 293 293 296 298 296 299 301
314 314 313 312 313 312 312 311 311 311 310 312 310 308 305 305 305 308 304 304 305 305 305 306 306 305 304 303 303 302 302 302 301 302 302 301 300 301 300 299 299 299 299 298 298 299 299 299 298 298 298 298 298 294 293 291 291 295 295 297 298 297 300
313 313 313 313 312 311 310 310 309 308 307 307 306 303 303 303 303 303 303 303 303 303 304 304 305 304 303 302 302 301 301 301 300 300 301 301 300 300 298 298 298 298 298 297 298 298 299 299 298 298 298 298 297 297 295 294 290 295 298 295 298 300 299
314 313 312 311 310 310 309 309 307 306 304 304 302 302 302 302 302 301 302 302 302 302 302 302 303 303 302 301 301 301 300 300 300 299 299 300 300 299 298 297 297 297 297 297 297 297 296 297 298 298 298 298 298 297 297 295 293 292 297 297 298 299 301
311 311 310 310 310 309 309 308 306 305 304 302 302 301 301 300 301 301 301 302 300 300 300 301 301 301 302 301 301 300 300 299 298 298 299 298 299 298 298 297 297 297 297 296 296 296 296 296 297 298 298 298 297 297 297 295 293 293 296 299 299 299 301
310 310 309 309 309 308 306 304 303 302 301 301 301 300 300 300 300 300 299 299 299 299 300 300 300 301 300 300 299 300 299 298 297 297 297 297 297 298 297 296 296 296 296 295 295 295 295 296 296 296 296 297 296 296 297 296 294 294 293 297 297 299 300
309 309 308 308 307 306 305 303 303 301 300 300 301 300 299 299 299 299 298 298 298 298 298 299 299 300 299 299 298 298 298 297 297 297 296 296 297 297 296 296 295 295 296 294 294 294 295 295 295 295 295 295 295 295 297 297 295 293 293 294 297 296 296
308 308 306 306 305 304 303 302 302 300 300 300 299 299 299 298 298 297 297 296 296 296 297 298 298 299 299 298 298 297 297 297 297 297 297 296 296 296 295 295 295 294 294 293 293 293 293 294 294 295 294 295 295 295 296 296 297 295 295 293 295 295 296
307 307 306 305 303 303 303 302 302 300 299 299 299 298 299 298 297 297 296 295 295 295 295 296 297 298 298 298 298 297 297 296 296 296 296 297 300 296 296 295 295 294 293 292 292 292 293 293 294 295 294 295 295 296 296 296 295 295 294 293 294 296 296
306 305 305 304 303 302 302 301 300 300 299 298 298 298 297 297 298 296 296 295 295 294 294 295 295 296 297 298 297 297 297 297 296 296 296 296 296 296 296 295 295 294 293 292 292 292 293 292 294 294 294 294 295 295 294 294 295 295 294 294 294 294 296
305 305 304 303 303 302 301 301 300 299 299 298 297 297 297 296 297 296 295 295 294 294 294 294 294 294 295 296 296 296 296 295 296 296 295 296 296 295 295 295 295 294 293 292 292 292 292 292 294 293 295 294 295 294 293 293 294 294 294 293 294 294 294
304 304 303 303 302 302 301 300 300 300 299 297 297 296 296 296 296 296 295 295 295 295 294 293 293 293 293 294 296 296 296 296 295 295 295 295 295 295 295 295 295 295 295 294 293 292 292 292 293 293 293 294 294 294 293 294 293 293 293 293 293 293 294
304 304 303 302 302 301 300 300 299 299 298 298 298 296 296 295 295 294 294 294 293 294 294 294 294 292 292 293 294 295 295 295 295 294 294 294 294 294 294 294 295 296 300 302 300 297 296 296 294 292 292 293 294 294 293 293 293 293 293 292 292 293 293
302 302 302 301 301 300 299 299 298 297 296 296 296 296 295 295 294 293 293 293 293 293 293 294 296 295 295 295 293 296 296 295 294 294 294 293 293 294 294 293 298 301 301 301 300 297 294 295 296 295 293 292 293 293 293 293 292 292 292 292 292 292 292
302 301 301 301 300 300 299 298 297 296 295 295 295 295 293 292 292 292 292 292 292 292 292 294 294 292 292 296 295 295 295 294 293 293 293 292 292 293 293 293 292 297 298 298 298 296 294 294 293 293 294 296 297 294 293 292 292 292 292 292 292 292 292
301 301 301 300 300 300 299 298 296 295 295 294 294 293 292 292 292 291 291 291 291 292 292 295 292 293 292 293 298 297 295 295 294 293 292 292 293 292 291 292 292 294 293 297 296 292 293 294 293 293 293 294 294 294 294 293 292 291 292 291 291 292 292
301 301 300 300 301 300 299 298 296 295 294 295 293 292 292 291 291 291 291 291 291 291 291 293 292 293 293 293 295 297 295 294 294 293 292 292 292 290 290 292 292 293 292 298 298 291 290 290 294 294 295 295 295 296 292 292 293 294 293 292 292 292 293
300 300 300 300 300 300 299 297 297 296 296 295 293 293 292 291 291 292 292 291 291 292 292 293 293 294 294 294 295 296 294 294 294 293 293 292 292 291 290 290 291 291 291 291 292 291 290 290 290 291 291 291 291 294 293 293 293 293 294 294 292 291 293
300 300 300 300 299 299 298 298 297 296 294 293 292 291 291 291 291 292 291 292 292 292 292 292 292 293 294 294 294 295 294 295 294 293 292 292 291 292 290 291 290 290 291 291 294 292 290 290 289 290 290 290 291 291 291 292 292 293 293 293 292 292 293
300 299 299 299 298 298 298 297 296 296 295 293 293 292 291 291 291 291 292 292 291 290 290 291 292 292 293 293 294 296 294 293 292 293 292 292 291 290 291 292 292 291 291 291 294 291 292 292 289 289 289 289 290 290 291 295 294 294 294 293 292 292 292
299 299 298 298 297 297 297 296 296 296 295 294 293 291 291 291 292 292 291 290 289 289 289 291 291 292 292 292 293 292 292 293 291 290 290 291 292 292 292 294 293 291 291 291 293 290 290 293 289 289 288 288 289 289 290 292 293 293 293 293 292 292 292
299 299 298 297 297 296 296 296 296 297 295 294 293 293 292 291 290 291 290 289 290 290 288 291 291 292 292 292 293 291 290 291 289 289 290 290 290 290 292 299 300 292 291 291 291 290 290 292 288 288 287 287 288 288 289 290 291 293 293 293 292 292 292
299 298 297 296 297 296 296 296 296 295 294 294 293 293 294 291 290 289 290 292 298 291 289 292 292 291 291 292 293 290 290 290 290 288 289 291 290 290 290 294 297 295 293 292 290 290 290 291 288 287 286 286 287 287 288 288 289 290 290 290 290 291 292
298 297 297 296 297 296 296 295 294 294 293 293 293 292 293 292 291 290 290 290 292 289 290 289 290 291 291 292 293 292 290 289 289 288 288 291 290 289 289 289 293 292 291 290 290 290 290 290 289 287 287 286 286 286 288 289 291 291 289 289 289 290 290
298 298 297 297 297 297 295 294 293 293 293 292 292 291 291 291 291 289 289 289 289 289 291 289 290 291 291 291 291 291 288 288 287 288 287 288 286 287 288 288 288 292 290 290 290 290 290 290 291 290 287 286 286 289 290 288 290 292 288 289 289 289 290
299 298 298 297 296 295 295 294 294 293 292 292 292 291 290 290 290 289 288 289 289 289 293 294 289 291 291 291 291 291 290 288 289 288 288 286 287 287 287 287 288 291 290 290 290 290 290 290 290 290 288 288 289 289 289 290 288 288 288 288 288 288 288
298 299 298 297 296 295 295 295 294 294 293 292 291 290 290 290 290 289 288 288 287 288 288 291 292 290 291 290 290 290 290 289 291 291 287 287 286 287 286 287 290 293 290 290 290 290 290 290 290 288 289 288 289 289 289 287 288 287 286 287 287 286 287
298 297 297 296 296 295 295 295 295 294 294 293 292 291 289 291 290 288 288 287 288 288 288 287 291 291 289 290 290 290 290 290 290 290 290 288 287 286 287 287 290 290 290 290 289 290 290 290 288 289 289 288 289 289 287 287 286 286 286 286 285 285 286